# Wetter Temperatur Luftdruck Luftfeuchtigkeit Sichtweite Windgeschwindigkeit Windrichtung Zeit
1 Rain 9 1020 93 6000 10.8 180 19:59 12.07.2020
2 Rain 9 1019 93 8000 10.3 170 19:39 12.07.2020
3 Rain 9 1019 93 8000 10.3 170 19:20 12.07.2020
4 Rain 10 1018 93 10000 10.3 190 18:54 12.07.2020
5 Rain 10 1017 93 4600 8.2 200 18:36 12.07.2020
6 Rain 10 1017 93 4600 8.2 200 18:18 12.07.2020
7 Rain 10 1017 93 6000 8.2 200 17:38 12.07.2020
8 Rain 10 1016 93 6000 8.2 190 17:20 12.07.2020
9 Rain 10 1015 93 7000 8.7 190 16:48 12.07.2020
10 Rain 11 1015 93 7000 8.7 190 16:23 12.07.2020
11 Rain 13 1013 82 8000 7.7 330 15:51 12.07.2020
12 Rain 13 1013 82 8000 7.7 330 15:31 12.07.2020
13 Rain 13 1013 82 8000 7.7 330 15:31 12.07.2020
14 Rain 13 1013 82 9000 7.2 330 14:58 12.07.2020
15 Rain 13 1013 82 9000 7.2 330 14:40 12.07.2020
16 Rain 13 1013 76 10000 6.2 330 14:22 12.07.2020
17 Rain 13 1013 82 10000 7.7 340 13:40 12.07.2020
18 Rain 13 1013 87 10000 8.7 330 13:21 12.07.2020
19 Rain 12 1013 87 10000 9.3 340 12:57 12.07.2020
20 Rain 12 1014 87 10000 7.7 340 12:38 12.07.2020
21 Rain 12 1014 87 10000 7.7 340 12:38 12.07.2020
22 Clouds 12 1014 87 10000 7.7 340 12:18 12.07.2020
23 Clouds 12 1014 82 10000 8.7 350 11:45 12.07.2020
24 Clouds 12 1014 82 10000 8.7 350 11:21 12.07.2020
25 Clouds 12 1014 82 10000 10.8 340 10:57 12.07.2020
26 Clouds 12 1014 82 10000 10.8 340 10:39 12.07.2020
27 Clouds 12 1014 82 10000 10.8 340 10:19 12.07.2020
28 Clouds 12 1014 82 10000 10.8 340 10:19 12.07.2020
29 Clouds 13 1014 76 10000 6.7 350 09:43 12.07.2020
30 Rain 13 1014 76 10000 7.2 350 09:21 12.07.2020
31 Rain 12 1014 82 7000 7.2 340 08:55 12.07.2020
32 Rain 12 1014 87 6000 7.7 340 08:37 12.07.2020
33 Rain 12 1014 87 6000 7.7 340 08:18 12.07.2020
34 Rain 12 1014 76 10000 8.2 340 07:45 12.07.2020
35 Clouds 12 1014 76 10000 8.2 340 07:22 12.07.2020
36 Clouds 12 1014 76 10000 7.7 330 06:52 12.07.2020
37 Rain 12 1012 76 10000 12.3 330 06:22 12.07.2020
38 Rain 13 1014 71 10000 10.8 340 05:44 12.07.2020
39 Clouds 13 1014 71 10000 10.3 340 04:57 12.07.2020
40 Clouds 13 1015 76 10000 9.3 350 04:28 12.07.2020
41 Clouds 12 1015 71 10000 9.3 340 03:40 12.07.2020
42 Clouds 12 1014 71 10000 10.3 330 03:19 12.07.2020
43 Clouds 12 1015 62 10000 8.7 350 01:50 12.07.2020
44 Clouds 12 1015 62 10000 9.3 350 00:55 12.07.2020
45 Clouds 12 1015 66 10000 9.3 350 00:24 12.07.2020
46 Clouds 12 1015 71 10000 6.7 330 23:59 11.07.2020
47 Clouds 12 1015 71 10000 6.7 330 23:40 11.07.2020
48 Clear 12 1015 71 10000 6.7 330 23:20 11.07.2020
49 Clear 11 1015 71 10000 7.7 340 22:56 11.07.2020
50 Clear 11 1015 71 10000 7.7 340 22:37 11.07.2020
51 Clear 11 1015 71 10000 7.7 340 22:37 11.07.2020
52 Clear 11 1015 71 10000 7.7 340 22:37 11.07.2020
53 Clear 11 1015 71 10000 7.7 340 22:18 11.07.2020
54 Clear 10 1015 71 10000 9.3 10 21:42 11.07.2020
55 Clear 10 1015 71 10000 9.3 10 21:23 11.07.2020
56 Clear 10 1015 71 10000 7.7 360 20:59 11.07.2020
57 Clear 10 1015 71 10000 7.7 360 20:39 11.07.2020
58 Clear 10 1015 71 10000 7.7 360 20:39 11.07.2020
59 Clouds 10 1015 71 10000 7.7 360 20:21 11.07.2020
60 Clouds 10 1015 71 10000 7.7 10 19:58 11.07.2020
61 Clouds 10 1015 71 10000 7.7 10 19:40 11.07.2020
62 Clouds 11 1015 71 10000 9.8 360 19:21 11.07.2020
63 Clouds 10 1015 71 10000 7.7 350 18:56 11.07.2020
64 Clouds 11 1015 66 10000 8.2 360 18:37 11.07.2020
65 Clouds 11 1015 66 10000 8.2 360 18:19 11.07.2020
66 Clouds 11 1015 66 10000 6.7 350 17:43 11.07.2020
67 Clouds 11 1015 71 10000 8.2 350 17:22 11.07.2020
68 Clouds 11 1015 71 10000 6.7 10 16:59 11.07.2020
69 Clouds 11 1015 71 10000 6.7 10 16:39 11.07.2020
70 Clouds 11 1015 71 10000 6.2 20 16:20 11.07.2020
71 Clouds 11 1015 66 10000 6.2 20 15:57 11.07.2020
72 Clouds 11 1015 66 10000 6.2 20 15:38 11.07.2020
73 Clouds 11 1016 62 10000 8.2 360 15:20 11.07.2020
74 Clouds 11 1016 62 10000 8.2 360 14:55 11.07.2020
75 Clouds 11 1015 66 10000 8.7 10 14:36 11.07.2020
76 Clouds 11 1015 66 10000 8.7 10 14:18 11.07.2020
77 Clouds 11 1016 66 10000 6.7 20 13:41 11.07.2020
78 Clouds 11 1015 71 10000 7.2 10 13:21 11.07.2020
79 Clouds 11 1016 76 10000 6.2 30 12:45 11.07.2020
80 Clouds 11 1016 76 10000 6.2 30 12:24 11.07.2020
81 Clouds 11 1016 76 10000 8.2 360 11:59 11.07.2020
82 Clouds 11 1016 76 10000 8.2 360 11:41 11.07.2020
83 Clouds 10 1016 76 10000 8.2 360 11:20 11.07.2020
84 Clouds 11 1016 76 10000 7.2 10 10:55 11.07.2020
85 Clouds 11 1016 76 10000 7.2 10 10:36 11.07.2020
86 Clear 10 1016 76 10000 7.2 10 10:18 11.07.2020
87 Clear 10 1016 76 10000 7.2 10 09:39 11.07.2020
88 Clear 10 1016 76 10000 7.2 10 09:19 11.07.2020
89 Clear 10 1016 71 10000 7.7 10 08:46 11.07.2020
90 Clear 10 1016 76 10000 8.2 10 08:27 11.07.2020
91 Clear 10 1016 76 10000 7.2 10 07:55 11.07.2020
92 Clear 10 1016 76 10000 8.2 10 07:36 11.07.2020
93 Clear 10 1016 76 10000 8.2 10 07:18 11.07.2020
94 Clear 11 1016 66 10000 8.7 360 06:26 11.07.2020
95 Clear 12 1016 66 10000 8.2 360 05:54 11.07.2020
96 Clear 12 1016 66 10000 9.3 360 05:19 11.07.2020
97 Clear 12 1017 66 10000 8.2 360 04:44 11.07.2020
98 Clear 12 1017 66 10000 8.2 360 04:19 11.07.2020
99 Clouds 12 1018 66 10000 7.7 360 02:53 11.07.2020
100 Clouds 11 1019 66 10000 6.7 360 01:57 11.07.2020
101 Clouds 11 1019 71 10000 6.7 10 01:22 11.07.2020
102 Clouds 11 1019 71 10000 6.2 30 00:55 11.07.2020
103 Clouds 10 1019 76 10000 6.7 30 00:36 11.07.2020
104 Clouds 10 1019 76 10000 6.7 30 00:18 11.07.2020
105 Clouds 9 1019 81 10000 6.2 30 23:44 10.07.2020
106 Clouds 9 1019 81 10000 6.2 30 23:26 10.07.2020
107 Clouds 8 1019 81 10000 5.1 30 22:56 10.07.2020
108 Clouds 8 1019 81 10000 5.1 30 22:38 10.07.2020
109 Clouds 8 1019 81 10000 5.1 30 22:18 10.07.2020
110 Clouds 8 1019 87 10000 5.1 30 21:38 10.07.2020
111 Clouds 8 1019 87 10000 5.1 30 21:20 10.07.2020
112 Clouds 8 1019 87 10000 5.1 30 20:56 10.07.2020
113 Clouds 8 1019 87 10000 5.7 20 20:37 10.07.2020
114 Clouds 8 1019 87 10000 5.7 20 20:19 10.07.2020
115 Clouds 7 1019 93 10000 4.6 20 19:54 10.07.2020
116 Clouds 8 1020 87 10000 5.1 20 19:36 10.07.2020
117 Clouds 7 1020 87 10000 5.1 20 19:18 10.07.2020
118 Clouds 7 1020 87 10000 4.6 20 18:38 10.07.2020
119 Clouds 6 1020 87 10000 4.6 20 18:19 10.07.2020
120 Clouds 5 1021 93 10000 3.6 10 17:55 10.07.2020
121 Clouds 5 1021 93 10000 3.6 10 17:37 10.07.2020
122 Clear 5 1021 93 10000 3.6 10 17:18 10.07.2020
123 Clear 5 1021 93 10000 2.6 20 16:40 10.07.2020
124 Clear 5 1021 93 10000 2.6 20 16:19 10.07.2020
125 Clear 5 1021 93 10000 2.6 20 15:44 10.07.2020
126 Clear 5 1021 93 10000 2.6 20 15:22 10.07.2020
127 Clear 6 1021 87 10000 2.6 30 14:54 10.07.2020
128 Clear 6 1021 93 10000 2.1 30 14:36 10.07.2020
129 Clear 6 1021 93 10000 2.1 30 14:18 10.07.2020
130 Clear 5 1021 93 10000 2.1 20 13:55 10.07.2020
131 Clear 5 1022 93 10000 1.5 20 13:36 10.07.2020
132 Clear 5 1022 93 10000 1.5 20 13:36 10.07.2020
133 Clear 6 1022 93 10000 1.5 20 13:18 10.07.2020
134 Clear 6 1022 87 10000 1.5 20 12:42 10.07.2020
135 Clear 6 1022 87 10000 1.5 20 12:24 10.07.2020
136 Clear 7 1022 93 10000 1 30 11:58 10.07.2020
137 Clear 7 1021 87 10000 3.1 350 11:38 10.07.2020
138 Clear 7 1021 87 10000 3.1 10 11:18 10.07.2020
139 Clear 8 1021 81 10000 3.6 10 10:42 10.07.2020
140 Clear 8 1021 87 10000 4.6 10 10:21 10.07.2020
141 Clear 8 1021 87 10000 4.6 10 09:59 10.07.2020
142 Clouds 8 1021 81 10000 2.6 30 09:37 10.07.2020
143 Clear 9 1021 81 10000 2.6 30 09:19 10.07.2020
144 Clouds 9 1021 81 10000 3.1 30 08:55 10.07.2020
145 Clouds 9 1021 81 10000 3.1 30 08:36 10.07.2020
146 Clear 10 1021 81 10000 3.1 30 08:18 10.07.2020
147 Clear 10 1021 76 10000 3.6 20 07:41 10.07.2020
148 Clear 10 1020 81 10000 3.6 20 07:20 10.07.2020
149 Clear 11 1020 76 10000 5.1 20 06:48 10.07.2020
150 Clear 11 1019 84 0 1.79 351 05:55 10.07.2020
151 Clear 13 1019 75 0 1.79 19 04:32 10.07.2020
152 Clear 13 1022 66 10000 3.6 20 03:31 10.07.2020
153 Clear 12 1022 66 10000 3.6 20 02:49 10.07.2020
154 Clouds 11 1022 71 10000 4.1 10 01:47 10.07.2020
155 Clouds 10 1023 71 10000 4.1 10 00:45 10.07.2020
156 Clouds 9 1023 81 10000 3.1 360 00:18 10.07.2020
157 Clouds 8 1023 81 10000 1.5 20 23:45 09.07.2020
158 Clouds 6 1023 81 10000 1.5 20 23:21 09.07.2020
159 Clouds 5 1022 87 10000 1.5 350 22:58 09.07.2020
160 Clouds 5 1022 87 10000 1.5 350 22:39 09.07.2020
161 Clouds 5 1022 87 10000 1.5 350 22:21 09.07.2020
162 Clouds 5 1022 87 10000 0.5 340 21:56 09.07.2020
163 Clouds 5 1022 87 10000 0.5 340 21:37 09.07.2020
164 Clouds 5 1022 87 10000 0.5 340 21:37 09.07.2020
165 Clouds 6 1022 87 10000 0.5 340 21:18 09.07.2020
166 Clouds 6 1021 87 10000 2.6 20 20:43 09.07.2020
167 Clouds 6 1021 87 10000 2.6 20 20:24 09.07.2020
168 Clouds 6 1021 87 10000 2.6 10 19:56 09.07.2020
169 Clouds 7 1021 81 10000 3.6 40 19:38 09.07.2020
170 Clouds 7 1021 81 10000 3.6 40 19:20 09.07.2020
171 Clouds 8 1021 81 10000 3.6 20 18:42 09.07.2020
172 Clouds 8 1021 76 10000 3.1 30 18:20 09.07.2020
173 Clouds 8 1021 81 10000 3.1 30 17:55 09.07.2020
174 Rain 8 1021 70 10000 1.5 30 17:37 09.07.2020
175 Rain 8 1021 70 10000 1.5 30 17:18 09.07.2020
176 Rain 8 1021 61 6000 0.5 320 16:54 09.07.2020
177 Rain 8 1021 61 6000 0.5 320 16:36 09.07.2020
178 Rain 9 1021 61 6000 0.5 320 16:18 09.07.2020
179 Clouds 9 1020 62 6000 2.6 280 15:45 09.07.2020
180 Clouds 10 1020 62 6000 2.6 280 15:27 09.07.2020
181 Clouds 9 1020 62 10000 5.1 240 14:59 09.07.2020
182 Clouds 9 1020 62 10000 5.1 240 14:41 09.07.2020
183 Clouds 9 1020 62 10000 5.1 240 14:41 09.07.2020
184 Clouds 9 1019 73 0 4.58 253 14:22 09.07.2020
185 Clouds 9 1020 62 10000 6.2 230 13:58 09.07.2020
186 Clouds 9 1020 62 10000 6.2 230 13:40 09.07.2020
187 Clouds 9 1020 66 10000 7.7 210 13:20 09.07.2020
188 Clouds 9 1020 66 10000 10.8 200 12:56 09.07.2020
189 Clouds 10 1019 66 10000 10.8 200 12:38 09.07.2020
190 Clouds 10 1019 66 10000 10.8 200 12:19 09.07.2020
191 Clouds 10 1019 66 10000 11.3 200 11:43 09.07.2020
192 Clouds 9 1019 66 10000 11.3 190 11:24 09.07.2020
193 Clouds 9 1019 71 10000 12.9 200 10:58 09.07.2020
194 Clouds 9 1019 71 10000 12.9 200 10:40 09.07.2020
195 Clouds 9 1019 71 10000 12.9 200 10:40 09.07.2020
196 Clouds 9 1019 71 10000 12.9 200 10:22 09.07.2020
197 Clouds 9 1018 66 10000 11.3 190 09:55 09.07.2020
198 Clouds 9 1018 66 10000 11.3 190 09:37 09.07.2020
199 Clouds 9 1018 71 10000 12.3 190 09:18 09.07.2020
200 Clouds 9 1017 71 10000 13.4 200 08:43 09.07.2020
201 Clouds 9 1017 71 10000 13.4 200 08:24 09.07.2020
202 Clouds 9 1017 71 10000 13.9 200 07:45 09.07.2020
203 Clouds 9 1017 71 10000 14.9 200 07:22 09.07.2020
204 Clouds 9 1016 71 9000 13.9 200 06:41 09.07.2020
205 Rain 9 1016 71 9000 13.9 200 06:19 09.07.2020
206 Rain 9 1015 71 10000 11.8 200 04:29 09.07.2020
207 Rain 8 1015 70 10000 13.4 200 03:25 09.07.2020
208 Rain 8 1015 70 10000 13.4 200 02:18 09.07.2020
209 Rain 8 1014 70 10000 13.9 200 01:32 09.07.2020
210 Rain 7 1014 70 10000 13.4 200 00:46 09.07.2020
211 Rain 7 1014 70 10000 13.9 200 00:23 09.07.2020
212 Clouds 7 1013 70 10000 12.3 210 23:46 08.07.2020
213 Clouds 7 1012 65 10000 12.9 220 23:27 08.07.2020
214 Clouds 7 1012 65 10000 12.9 220 22:57 08.07.2020
215 Clouds 7 1012 65 10000 12.9 220 22:38 08.07.2020
216 Clouds 7 1012 70 10000 14.9 210 22:20 08.07.2020
217 Clouds 7 1011 75 10000 14.4 210 21:57 08.07.2020
218 Clouds 7 1011 75 10000 14.4 210 21:38 08.07.2020
219 Clouds 7 1011 75 10000 14.4 210 21:20 08.07.2020
220 Rain 7 1010 70 10000 14.9 210 20:45 08.07.2020
221 Clouds 7 1009 66 10000 13.9 200 20:26 08.07.2020
222 Clouds 7 1009 66 10000 14.9 210 19:58 08.07.2020
223 Clouds 7 1009 66 10000 14.9 210 19:40 08.07.2020
224 Clouds 7 1009 70 10000 14.4 210 19:21 08.07.2020
225 Clouds 7 1009 75 10000 12.9 200 18:55 08.07.2020
226 Clouds 7 1009 75 10000 12.9 200 18:55 08.07.2020
227 Clouds 7 1009 70 9000 14.9 200 18:36 08.07.2020
228 Clouds 7 1009 70 9000 14.9 200 18:18 08.07.2020
229 Clouds 7 1007 68 0 2.68 203 17:54 08.07.2020
230 Clouds 7 1008 66 10000 14.9 210 17:36 08.07.2020
231 Rain 7 1008 66 10000 14.9 210 17:18 08.07.2020
232 Rain 7 1008 66 10000 15.9 210 16:38 08.07.2020
233 Clouds 7 1008 66 10000 15.9 210 16:20 08.07.2020
234 Clouds 7 1007 61 10000 13.9 210 15:58 08.07.2020
235 Clouds 7 1007 61 10000 13.9 210 15:39 08.07.2020
236 Clouds 7 1007 70 10000 14.4 200 15:19 08.07.2020
237 Clouds 7 1007 66 10000 14.9 190 14:44 08.07.2020
238 Rain 7 1007 66 10000 14.9 190 14:25 08.07.2020
239 Rain 7 1006 70 10000 15.4 200 13:58 08.07.2020
240 Rain 7 1006 70 10000 15.4 200 13:40 08.07.2020
241 Clouds 7 1006 75 10000 13.9 180 13:19 08.07.2020
242 Clouds 8 1005 57 10000 13.4 200 12:42 08.07.2020
243 Clouds 8 1005 57 10000 13.4 200 12:20 08.07.2020
244 Clouds 8 1004 53 10000 9.8 190 11:56 08.07.2020
245 Clouds 8 1004 53 10000 9.8 190 11:38 08.07.2020
246 Clouds 8 1004 57 10000 9.3 180 11:20 08.07.2020
247 Clouds 8 1004 61 10000 9.3 190 10:43 08.07.2020
248 Clouds 8 1004 61 10000 9.3 190 10:24 08.07.2020
249 Clouds 8 1004 66 10000 10.3 190 09:46 08.07.2020
250 Clouds 8 1003 66 10000 11.3 190 09:25 08.07.2020
251 Clouds 8 1002 66 10000 10.8 190 08:57 08.07.2020
252 Clouds 8 1002 66 10000 10.8 190 08:38 08.07.2020
253 Clouds 8 1002 66 10000 10.8 190 08:19 08.07.2020
254 Clouds 8 1002 66 10000 11.3 190 07:43 08.07.2020
255 Clouds 8 1001 66 10000 10.3 190 07:22 08.07.2020
256 Clouds 8 1001 70 10000 11.3 180 06:46 08.07.2020
257 Clouds 8 1001 70 10000 10.8 180 06:27 08.07.2020
258 Clouds 8 1000 70 10000 11.8 180 05:48 08.07.2020
259 Clouds 7 1000 81 10000 14.4 190 04:50 08.07.2020
260 Rain 7 1000 76 10000 14.4 180 03:39 08.07.2020
261 Rain 7 999 81 5000 14.4 190 02:19 08.07.2020
262 Rain 8 999 81 10000 11.8 180 01:38 08.07.2020
263 Rain 8 999 81 10000 12.3 180 00:51 08.07.2020
264 Rain 8 998 81 10000 11.8 180 00:20 08.07.2020
265 Rain 8 998 76 10000 6.7 140 23:44 07.07.2020
266 Rain 8 998 76 10000 6.7 140 23:22 07.07.2020
267 Rain 8 997 76 10000 9.8 150 22:57 07.07.2020
268 Rain 8 997 76 10000 9.8 150 22:57 07.07.2020
269 Rain 8 997 76 10000 9.8 150 22:38 07.07.2020
270 Rain 9 997 76 10000 9.8 150 22:20 07.07.2020
271 Rain 9 997 76 10000 5.7 140 21:57 07.07.2020
272 Rain 9 997 76 10000 5.7 140 21:38 07.07.2020
273 Rain 9 997 76 10000 5.7 140 21:19 07.07.2020
274 Rain 8 996 76 10000 5.1 140 20:43 07.07.2020
275 Rain 8 996 76 10000 5.1 140 20:23 07.07.2020
276 Rain 9 996 81 10000 5.1 140 19:59 07.07.2020
277 Rain 9 996 81 10000 5.1 140 19:39 07.07.2020
278 Clouds 9 996 81 10000 5.1 140 19:20 07.07.2020
279 Clouds 8 996 87 10000 4.1 150 18:55 07.07.2020
280 Clouds 7 996 87 10000 1.5 30 18:37 07.07.2020
281 Clouds 7 996 87 10000 1.5 30 18:19 07.07.2020
282 Clouds 7 997 87 10000 1 60 17:56 07.07.2020
283 Clouds 7 997 87 10000 1 60 17:37 07.07.2020
284 Clouds 7 997 87 10000 1 60 17:18 07.07.2020
285 Clouds 9 996 76 10000 2.1 220 16:42 07.07.2020
286 Clouds 10 996 76 10000 2.1 220 16:22 07.07.2020
287 Clouds 9 997 87 10000 1 300 15:56 07.07.2020
288 Clouds 9 997 87 10000 1 300 15:37 07.07.2020
289 Clouds 11 997 71 10000 2.6 40 15:19 07.07.2020
290 Clouds 10 997 71 10000 2.6 40 14:43 07.07.2020
291 Clouds 10 997 76 10000 2.1 20 14:24 07.07.2020
292 Clear 10 997 81 10000 2.1 30 13:44 07.07.2020
293 Clear 10 996 81 10000 2.1 10 13:21 07.07.2020
294 Clear 10 996 81 10000 3.6 20 12:57 07.07.2020
295 Clear 10 996 76 10000 3.1 360 12:37 07.07.2020
296 Clear 10 996 76 10000 3.1 360 12:18 07.07.2020
297 Clear 11 996 71 10000 3.1 350 11:43 07.07.2020
298 Clear 11 996 71 10000 3.1 350 11:22 07.07.2020
299 Clear 11 996 76 10000 3.6 10 10:58 07.07.2020
300 Clear 11 996 76 10000 3.6 10 10:40 07.07.2020
301 Clear 11 996 76 10000 3.6 10 10:21 07.07.2020
302 Clear 11 995 76 10000 5.1 10 09:43 07.07.2020
303 Clear 11 995 76 10000 5.1 10 09:43 07.07.2020
304 Clear 11 995 76 10000 5.1 10 09:22 07.07.2020
305 Clouds 11 995 71 10000 5.1 10 08:58 07.07.2020
306 Clouds 11 995 71 10000 5.1 10 08:39 07.07.2020
307 Clouds 11 995 71 10000 5.7 10 08:19 07.07.2020
308 Clouds 11 995 58 10000 4.6 340 07:38 07.07.2020
309 Clouds 11 995 58 10000 4.6 340 07:19 07.07.2020
310 Clouds 11 994 62 10000 4.6 340 06:46 07.07.2020
311 Clouds 11 994 66 10000 3.6 360 06:26 07.07.2020
312 Clouds 12 994 58 10000 3.1 20 05:43 07.07.2020
313 Clouds 13 994 50 10000 3.1 340 04:53 07.07.2020
314 Clear 12 994 71 10000 4.1 10 03:54 07.07.2020
315 Clear 13 994 71 10000 4.1 10 03:32 07.07.2020
316 Clouds 12 994 76 10000 3.1 50 01:55 07.07.2020
317 Clouds 11 994 81 10000 2.6 30 01:19 07.07.2020
318 Clouds 10 993 87 10000 2.1 20 00:41 07.07.2020
319 Clouds 10 993 87 10000 2.1 20 00:21 07.07.2020
320 Clouds 9 992 93 10000 2.1 10 23:44 06.07.2020
321 Clouds 8 992 93 10000 2.1 10 23:25 06.07.2020
322 Rain 8 992 93 10000 1.5 360 22:59 06.07.2020
323 Rain 8 992 93 10000 1.5 360 22:39 06.07.2020
324 Rain 8 992 93 10000 1.5 360 22:19 06.07.2020
325 Rain 8 992 93 10000 0.5 90 21:56 06.07.2020
326 Rain 9 992 93 10000 2.1 20 21:37 06.07.2020
327 Rain 9 992 93 10000 2.1 20 21:18 06.07.2020
328 Rain 9 992 87 6000 4.1 340 20:41 06.07.2020
329 Rain 9 992 87 10000 4.6 350 20:22 06.07.2020
330 Rain 9 992 87 10000 5.7 10 19:59 06.07.2020
331 Rain 9 992 87 10000 7.2 340 19:41 06.07.2020
332 Rain 9 992 87 10000 7.2 340 19:23 06.07.2020
333 Rain 9 992 87 10000 4.1 10 18:58 06.07.2020
334 Rain 10 993 71 10000 5.1 350 18:40 06.07.2020
335 Rain 11 993 71 10000 5.1 350 18:22 06.07.2020
336 Rain 11 993 66 10000 6.2 340 17:56 06.07.2020
337 Clear 11 994 66 10000 5.7 340 17:37 06.07.2020
338 Clear 11 994 66 10000 5.7 340 17:19 06.07.2020
339 Clear 11 995 66 10000 5.1 330 16:43 06.07.2020
340 Clear 11 995 66 10000 5.1 330 16:23 06.07.2020
341 Clear 11 995 66 10000 4.1 330 15:57 06.07.2020
342 Clear 11 995 66 10000 4.1 330 15:38 06.07.2020
343 Clouds 11 995 66 10000 4.1 330 15:19 06.07.2020
344 Clouds 11 996 71 10000 6.7 350 14:55 06.07.2020
345 Clouds 11 996 71 10000 6.7 350 14:36 06.07.2020
346 Clouds 11 996 71 10000 6.7 350 14:18 06.07.2020
347 Clouds 11 996 66 10000 5.7 350 13:40 06.07.2020
348 Clouds 11 996 66 10000 5.7 350 13:21 06.07.2020
349 Clouds 11 996 76 10000 4.6 360 12:44 06.07.2020
350 Clouds 11 996 81 10000 6.2 360 12:20 06.07.2020
351 Clouds 11 996 76 10000 5.7 350 11:59 06.07.2020
352 Clouds 11 996 76 10000 5.7 350 11:40 06.07.2020
353 Clouds 11 996 76 10000 6.7 360 11:22 06.07.2020
354 Clouds 11 996 76 10000 5.7 10 10:58 06.07.2020
355 Clouds 11 996 76 10000 5.7 10 10:58 06.07.2020
356 Clouds 11 996 76 10000 5.7 10 10:40 06.07.2020
357 Clouds 11 995 83 0 0.45 1 10:19 06.07.2020
358 Clouds 12 996 71 10000 6.2 350 09:46 06.07.2020
359 Clouds 12 996 71 10000 6.2 350 09:22 06.07.2020
360 Clouds 12 996 71 10000 5.7 350 08:59 06.07.2020
361 Clouds 12 996 71 10000 5.7 350 08:40 06.07.2020
362 Clouds 12 996 71 10000 5.1 340 08:21 06.07.2020
363 Clouds 12 995 71 10000 6.7 330 07:48 06.07.2020
364 Clouds 12 995 76 10000 5.7 330 07:29 06.07.2020
365 Clouds 12 996 67 10000 6.7 340 06:55 06.07.2020
366 Clouds 13 996 71 10000 7.2 340 06:36 06.07.2020
367 Rain 13 996 71 10000 7.7 350 05:47 06.07.2020
368 Rain 13 996 71 10000 7.7 350 05:26 06.07.2020
369 Clouds 13 995 71 10000 9.3 340 03:53 06.07.2020
370 Clouds 13 996 76 10000 8.7 340 02:32 06.07.2020
371 Rain 13 997 76 10000 8.2 350 01:54 06.07.2020
372 Clouds 12 997 87 10000 8.7 350 00:49 06.07.2020
373 Rain 12 997 93 10000 8.7 360 00:23 06.07.2020
374 Rain 12 997 93 5000 9.3 20 23:56 05.07.2020
375 Rain 12 997 93 5000 9.3 20 23:38 05.07.2020
376 Rain 12 997 93 5000 9.3 20 23:19 05.07.2020
377 Rain 12 997 87 10000 10.3 10 22:41 05.07.2020
378 Rain 12 997 87 10000 10.3 10 22:21 05.07.2020
379 Rain 12 997 81 10000 11.8 10 21:59 05.07.2020
380 Rain 12 997 81 10000 11.8 10 21:40 05.07.2020
381 Rain 12 997 81 10000 11.8 10 21:19 05.07.2020
382 Rain 12 992 87 0 2.24 5 20:58 05.07.2020
383 Rain 12 997 76 10000 8.7 10 20:40 05.07.2020
384 Rain 12 997 76 10000 8.2 360 20:21 05.07.2020
385 Rain 12 997 76 10000 6.2 20 19:55 05.07.2020
386 Clouds 13 997 76 10000 4.6 30 19:37 05.07.2020
387 Clouds 12 997 76 10000 4.6 30 19:19 05.07.2020
388 Rain 11 999 87 10000 3.1 20 18:42 05.07.2020
389 Rain 11 999 87 10000 3.1 20 18:22 05.07.2020
390 Rain 11 1000 76 10000 1.5 20 17:56 05.07.2020
391 Rain 11 1000 76 10000 1.5 20 17:56 05.07.2020
392 Rain 11 1000 76 10000 1.5 20 17:38 05.07.2020
393 Rain 12 1000 76 10000 1.5 20 17:19 05.07.2020
394 Rain 12 1001 71 10000 4.1 20 16:44 05.07.2020
395 Rain 12 995 80 0 3.99 80 16:25 05.07.2020
396 Rain 13 1002 66 10000 3.1 20 15:56 05.07.2020
397 Rain 13 1002 66 10000 3.1 20 15:37 05.07.2020
398 Clouds 13 1002 66 10000 3.1 20 15:18 05.07.2020
399 Clouds 14 1003 62 10000 4.1 20 14:41 05.07.2020
400 Clouds 14 1003 62 10000 4.1 20 14:22 05.07.2020
401 Clouds 13 1003 66 10000 3.6 20 13:43 05.07.2020
402 Clouds 13 1004 66 10000 2.6 350 13:24 05.07.2020
403 Clouds 12 1004 71 10000 2.6 10 12:56 05.07.2020
404 Clouds 12 1005 66 10000 2.1 320 12:38 05.07.2020
405 Clouds 12 1005 66 10000 2.1 320 12:20 05.07.2020
406 Clouds 12 1005 66 10000 2.6 360 11:54 05.07.2020
407 Clouds 11 1006 76 10000 2.6 350 11:36 05.07.2020
408 Clouds 11 1006 76 10000 2.6 350 11:18 05.07.2020
409 Clouds 11 1006 71 10000 3.1 360 10:42 05.07.2020
410 Clouds 11 1006 71 10000 3.1 360 10:20 05.07.2020
411 Clouds 11 1007 71 10000 3.1 350 09:58 05.07.2020
412 Clouds 11 1007 71 10000 3.1 350 09:40 05.07.2020
413 Clouds 11 1007 71 10000 3.1 350 09:20 05.07.2020
414 Clouds 11 1008 76 10000 3.6 350 08:47 05.07.2020
415 Clouds 11 1008 76 10000 3.6 350 08:29 05.07.2020
416 Clouds 11 1008 66 10000 4.1 360 07:49 05.07.2020
417 Clouds 12 1008 71 10000 5.1 360 07:30 05.07.2020
418 Clouds 12 1009 62 10000 6.7 360 06:53 05.07.2020
419 Clouds 13 1009 58 10000 9.8 350 05:48 05.07.2020
420 Clouds 12 1011 62 10000 9.8 10 03:35 05.07.2020
421 Clouds 13 1012 58 10000 9.8 10 02:43 05.07.2020
422 Clouds 12 1012 58 10000 9.3 10 02:25 05.07.2020
423 Clouds 12 1013 58 10000 9.8 10 01:41 05.07.2020
424 Clouds 12 1013 62 10000 10.3 10 01:18 05.07.2020
425 Clouds 11 1013 66 10000 10.3 10 00:40 05.07.2020
426 Clouds 11 1013 66 10000 10.3 10 00:21 05.07.2020
427 Clouds 10 1014 71 10000 10.3 10 23:47 04.07.2020
428 Clouds 10 1014 76 10000 9.8 20 23:28 04.07.2020
429 Clouds 10 1014 81 10000 9.8 20 22:57 04.07.2020
430 Clouds 9 1009 84 0 0.89 212 22:38 04.07.2020
431 Clouds 9 1009 84 0 0.89 212 22:38 04.07.2020
432 Clouds 9 1012 87 0 2.24 14 22:19 04.07.2020
433 Clouds 10 1014 87 10000 7.7 40 21:43 04.07.2020
434 Clouds 10 1014 87 10000 7.7 40 21:23 04.07.2020
435 Clouds 10 1014 93 10000 7.2 30 20:58 04.07.2020
436 Clouds 10 1014 93 10000 7.2 30 20:40 04.07.2020
437 Clouds 10 1014 87 10000 7.2 30 20:20 04.07.2020
438 Clouds 10 1014 87 10000 7.7 20 19:45 04.07.2020
439 Clouds 10 1014 81 10000 8.2 20 19:22 04.07.2020
440 Clouds 11 1014 81 10000 8.7 20 18:57 04.07.2020
441 Clouds 11 1015 81 10000 7.7 20 18:39 04.07.2020
442 Clouds 11 1015 81 10000 7.7 20 18:21 04.07.2020
443 Clouds 11 1015 81 10000 7.7 20 17:44 04.07.2020
444 Clouds 11 1016 87 10000 8.7 360 17:26 04.07.2020
445 Clouds 11 1016 81 10000 7.2 350 16:58 04.07.2020
446 Clouds 11 1016 81 10000 7.2 350 16:38 04.07.2020
447 Clouds 11 1016 81 10000 7.2 350 16:20 04.07.2020
448 Clouds 11 1017 76 10000 7.7 10 15:55 04.07.2020
449 Clouds 11 1017 81 10000 6.7 20 15:37 04.07.2020
450 Clouds 11 1017 81 10000 6.7 20 15:18 04.07.2020
451 Clouds 11 1017 81 10000 6.7 20 14:38 04.07.2020
452 Clouds 11 1017 81 10000 7.2 10 14:19 04.07.2020
453 Clouds 11 1017 81 10000 8.2 10 13:58 04.07.2020
454 Clouds 11 1017 81 10000 8.2 10 13:40 04.07.2020
455 Clouds 11 1017 81 10000 8.2 10 13:18 04.07.2020
456 Clouds 11 1017 76 10000 6.7 20 12:42 04.07.2020
457 Clouds 11 1018 81 10000 6.7 20 12:21 04.07.2020
458 Clouds 11 1018 81 10000 7.2 20 11:56 04.07.2020
459 Clouds 11 1018 71 10000 5.7 30 11:38 04.07.2020
460 Clouds 11 1018 71 10000 5.7 30 11:19 04.07.2020
461 Clouds 11 1018 87 10000 6.7 30 10:41 04.07.2020
462 Clouds 11 1018 87 10000 6.7 30 10:22 04.07.2020
463 Clouds 11 1018 87 10000 7.2 30 09:59 04.07.2020
464 Clouds 11 1018 87 10000 7.2 30 09:37 04.07.2020
465 Clouds 11 1018 81 10000 6.2 30 09:19 04.07.2020
466 Clouds 11 1018 81 10000 5.7 30 08:47 04.07.2020
467 Clouds 11 1018 81 10000 6.7 30 08:28 04.07.2020
468 Clouds 12 1018 81 10000 8.2 20 07:49 04.07.2020
469 Clouds 12 1018 81 10000 9.3 10 07:31 04.07.2020
470 Clouds 12 1018 81 10000 8.7 10 06:55 04.07.2020
471 Clouds 12 1018 76 10000 8.7 20 06:23 04.07.2020
472 Clouds 13 1018 76 10000 8.7 10 05:36 04.07.2020
473 Clouds 12 1018 82 10000 9.3 10 04:44 04.07.2020
474 Clouds 12 1019 76 10000 7.7 10 03:18 04.07.2020
475 Clouds 12 1020 82 10000 8.7 10 02:23 04.07.2020
476 Clouds 13 1020 76 10000 7.2 360 01:31 04.07.2020
477 Clouds 12 1020 81 10000 7.2 10 00:44 04.07.2020
478 Clouds 11 1020 81 10000 7.2 20 00:24 04.07.2020
479 Clouds 11 1020 81 10000 5.7 10 23:40 03.07.2020
480 Clouds 10 1020 81 10000 5.7 10 23:19 03.07.2020
481 Clouds 10 1020 81 10000 4.6 30 22:58 03.07.2020
482 Clouds 9 1020 81 10000 4.6 30 22:39 03.07.2020
483 Clouds 9 1020 81 10000 4.6 30 22:20 03.07.2020
484 Clouds 9 1020 81 10000 4.6 20 21:41 03.07.2020
485 Clouds 9 1020 81 10000 5.1 30 21:20 03.07.2020
486 Clouds 9 1020 81 10000 5.1 30 20:56 03.07.2020
487 Clouds 9 1020 87 10000 4.6 30 20:38 03.07.2020
488 Clouds 9 1020 87 10000 4.6 30 20:20 03.07.2020
489 Clouds 8 1020 87 10000 5.7 20 19:41 03.07.2020
490 Clouds 8 1020 87 10000 5.7 20 19:20 03.07.2020
491 Clouds 8 1020 87 10000 5.7 20 18:57 03.07.2020
492 Clouds 8 1020 87 10000 4.6 20 18:39 03.07.2020
493 Clouds 8 1020 87 10000 4.6 20 18:20 03.07.2020
494 Clouds 9 1020 87 10000 5.7 30 17:43 03.07.2020
495 Clouds 9 1020 87 10000 4.6 30 17:22 03.07.2020
496 Clouds 8 1020 93 10000 3.6 20 16:46 03.07.2020
497 Clouds 8 1020 93 10000 3.1 40 16:28 03.07.2020
498 Clouds 8 1020 87 10000 3.1 20 15:49 03.07.2020
499 Clouds 7 1020 87 10000 3.1 20 15:26 03.07.2020
500 Clouds 8 1020 81 10000 4.1 40 14:59 03.07.2020
501 Clouds 8 1020 81 10000 4.1 40 14:41 03.07.2020
502 Clouds 8 1020 81 10000 4.1 40 14:41 03.07.2020
503 Clouds 7 1021 87 10000 4.6 40 14:22 03.07.2020
504 Clouds 7 1021 87 10000 3.1 30 13:55 03.07.2020
505 Clouds 7 1021 87 10000 4.6 10 13:37 03.07.2020
506 Clouds 7 1021 87 10000 4.6 10 13:19 03.07.2020
507 Clouds 7 1021 87 10000 3.1 20 12:40 03.07.2020
508 Clouds 7 1021 87 10000 3.1 20 12:21 03.07.2020
509 Clouds 7 1021 87 10000 3.6 10 11:44 03.07.2020
510 Clouds 8 1021 87 10000 3.6 20 11:25 03.07.2020
511 Clouds 8 1021 81 10000 4.1 10 10:59 03.07.2020
512 Clouds 8 1021 81 10000 4.1 10 10:40 03.07.2020
513 Clouds 8 1021 87 10000 5.1 360 10:21 03.07.2020
514 Clouds 8 1021 87 10000 5.1 360 09:57 03.07.2020
515 Clouds 8 1021 87 10000 5.1 360 09:38 03.07.2020
516 Clouds 8 1021 87 10000 4.6 360 09:18 03.07.2020
517 Clouds 8 1021 81 10000 5.1 20 08:40 03.07.2020
518 Clear 8 1021 81 10000 5.1 20 08:19 03.07.2020
519 Clear 8 1021 81 10000 5.1 20 07:52 03.07.2020
520 Clear 8 1021 76 10000 5.1 20 07:28 03.07.2020
521 Clear 9 1021 76 10000 5.1 20 06:59 03.07.2020
522 Clear 9 1021 76 10000 5.1 10 06:25 03.07.2020
523 Clear 10 1021 71 10000 5.1 360 05:22 03.07.2020
524 Clear 11 1021 66 10000 3.1 20 03:46 03.07.2020
525 Clear 10 1022 66 10000 2.6 70 02:49 03.07.2020
526 Clear 10 1022 76 10000 2.6 360 02:30 03.07.2020
527 Clear 9 1023 76 10000 2.6 360 01:30 03.07.2020
528 Clear 8 1023 76 10000 3.1 360 00:56 03.07.2020
529 Clear 7 1022 81 10000 3.6 360 00:37 03.07.2020
530 Clear 7 1022 81 10000 3.1 360 23:52 02.07.2020
531 Clear 6 1022 81 10000 2.1 10 23:21 02.07.2020
532 Clear 6 1022 76 10000 4.1 190 22:59 02.07.2020
533 Clear 6 1022 76 10000 4.1 190 22:40 02.07.2020
534 Clear 6 1022 76 10000 4.1 190 22:21 02.07.2020
535 Clear 7 1022 76 10000 5.1 200 21:57 02.07.2020
536 Clear 7 1022 76 10000 5.1 200 21:39 02.07.2020
537 Clouds 7 1021 66 10000 5.1 190 21:19 02.07.2020
538 Clear 7 1021 66 10000 6.2 210 20:57 02.07.2020
539 Clear 7 1021 66 10000 6.2 210 20:39 02.07.2020
540 Clouds 7 1021 66 10000 6.2 210 20:18 02.07.2020
541 Clouds 8 1021 66 10000 6.7 190 19:42 02.07.2020
542 Clouds 7 1021 66 10000 6.7 190 19:23 02.07.2020
543 Clouds 8 1021 71 10000 7.2 200 18:58 02.07.2020
544 Clouds 8 1021 66 10000 7.2 190 18:40 02.07.2020
545 Clouds 8 1021 66 10000 7.2 190 18:21 02.07.2020
546 Clouds 8 1021 66 10000 7.7 190 17:55 02.07.2020
547 Clouds 9 1021 66 10000 8.2 190 17:36 02.07.2020
548 Clouds 8 1021 66 10000 8.2 190 17:18 02.07.2020
549 Clouds 8 1021 71 10000 9.3 190 16:41 02.07.2020
550 Clouds 8 1021 71 10000 8.7 190 16:20 02.07.2020
551 Clouds 8 1021 71 10000 9.8 200 15:56 02.07.2020
552 Clouds 8 1021 71 10000 9.8 200 15:56 02.07.2020
553 Clouds 8 1021 71 10000 9.8 200 15:37 02.07.2020
554 Clouds 8 1021 71 10000 10.8 200 15:18 02.07.2020
555 Clouds 9 1021 71 10000 10.8 200 14:44 02.07.2020
556 Clouds 8 1020 71 10000 11.3 200 14:22 02.07.2020
557 Clouds 8 1020 71 10000 11.8 200 13:57 02.07.2020
558 Clouds 8 1020 71 10000 13.4 200 13:38 02.07.2020
559 Clouds 8 1020 71 10000 13.4 200 13:18 02.07.2020
560 Clouds 8 1020 76 10000 12.9 200 12:41 02.07.2020
561 Rain 8 1020 81 8000 12.3 200 12:22 02.07.2020
562 Rain 8 1019 87 8000 13.4 190 11:59 02.07.2020
563 Rain 8 1019 87 8000 13.4 190 11:40 02.07.2020
564 Rain 8 1019 81 10000 12.9 190 11:22 02.07.2020
565 Rain 8 1019 81 9000 11.8 190 10:43 02.07.2020
566 Rain 8 1019 81 9000 11.8 190 10:25 02.07.2020
567 Rain 8 1018 81 8000 12.9 190 09:55 02.07.2020
568 Rain 7 1018 81 8000 12.9 180 09:36 02.07.2020
569 Rain 7 1018 81 8000 12.9 180 09:18 02.07.2020
570 Clouds 8 1018 81 8000 13.4 190 08:42 02.07.2020
571 Rain 8 1017 81 9000 14.4 200 08:21 02.07.2020
572 Rain 8 1017 81 9000 14.9 190 07:43 02.07.2020
573 Clouds 8 1017 76 8000 14.4 190 07:23 02.07.2020
574 Clouds 8 1016 76 8000 14.4 190 06:53 02.07.2020
575 Rain 8 1016 81 7000 14.9 190 06:34 02.07.2020
576 Rain 8 1015 81 6000 14.4 190 05:50 02.07.2020
577 Rain 8 1015 81 6000 14.4 190 05:19 02.07.2020
578 Haze 7 1014 87 5000 15.9 190 03:35 02.07.2020
579 Rain 7 1014 87 4500 17 200 01:53 02.07.2020
580 Haze 7 1013 87 2600 18 200 00:46 02.07.2020
581 Rain 8 1012 87 2400 17.5 200 00:22 02.07.2020
582 Rain 7 1012 87 2500 18 200 23:45 01.07.2020
583 Rain 7 1011 93 3400 19 200 23:26 01.07.2020
584 Rain 7 1010 93 2600 20.6 200 22:55 01.07.2020
585 Rain 7 1010 93 2600 20.6 200 22:37 01.07.2020
586 Rain 7 1010 93 2600 20.6 200 22:19 01.07.2020
587 Rain 7 1009 87 2400 19.5 200 21:58 01.07.2020
588 Rain 7 1009 87 2400 19.5 200 21:39 01.07.2020
589 Rain 7 1009 87 2400 19.5 200 21:20 01.07.2020
590 Rain 7 1008 87 3600 19.5 200 20:46 01.07.2020
591 Rain 7 1008 87 3600 19.5 200 20:28 01.07.2020
592 Rain 7 1007 81 4500 19.5 200 19:58 01.07.2020
593 Haze 7 1007 87 4500 20.1 200 19:40 01.07.2020
594 Haze 7 1007 87 4500 20.1 200 19:21 01.07.2020
595 Rain 7 1007 87 4100 19 200 18:56 01.07.2020
596 Rain 7 1007 81 4500 18.5 210 18:38 01.07.2020
597 Rain 8 1007 81 4500 18.5 210 18:20 01.07.2020
598 Haze 7 1007 81 4100 18.5 200 17:41 01.07.2020
599 Rain 7 1007 81 4100 18.5 200 17:41 01.07.2020
600 Rain 7 1007 81 3700 19 210 17:21 01.07.2020
601 Rain 7 1006 87 4100 20.1 220 16:57 01.07.2020
602 Rain 7 1006 87 4100 20.1 220 16:39 01.07.2020
603 Rain 7 1006 87 4100 20.1 220 16:20 01.07.2020
604 Rain 7 1006 87 5000 19.5 220 15:42 01.07.2020
605 Haze 7 1005 87 5000 19 220 15:23 01.07.2020
606 Rain 7 1005 81 5000 19 210 14:58 01.07.2020
607 Rain 7 1005 81 5000 19 210 14:38 01.07.2020
608 Haze 7 1005 81 5000 19 210 14:19 01.07.2020
609 Rain 7 1006 87 6000 18 210 13:40 01.07.2020
610 Rain 6 1006 87 5000 17.5 210 13:22 01.07.2020
611 Rain 6 1006 87 5000 17.5 210 13:22 01.07.2020
612 Rain 7 1005 81 4200 17 210 12:59 01.07.2020
613 Rain 7 1005 87 6000 17 220 12:41 01.07.2020
614 Rain 7 1005 87 6000 17 220 12:22 01.07.2020
615 Rain 7 1005 81 7000 18 210 11:58 01.07.2020
616 Rain 7 1005 81 7000 18 210 11:39 01.07.2020
617 Rain 7 1005 76 6000 18.5 210 11:20 01.07.2020
618 Rain 8 1005 76 7000 17 210 10:43 01.07.2020
619 Rain 8 1005 76 6000 15.9 200 10:23 01.07.2020
620 Rain 8 1004 66 7000 17.5 200 09:59 01.07.2020
621 Rain 8 1004 66 7000 17.5 200 09:59 01.07.2020
622 Rain 8 1004 66 7000 17.5 200 09:38 01.07.2020
623 Clouds 8 1004 70 8000 17 200 09:20 01.07.2020
624 Clouds 8 1004 70 8000 17 200 08:57 01.07.2020
625 Clouds 8 1004 70 8000 17 200 08:38 01.07.2020
626 Clouds 8 1004 70 6000 17 200 08:19 01.07.2020
627 Clouds 8 1004 70 6000 17 200 08:19 01.07.2020
628 Clouds 8 1004 76 7000 16.5 200 07:40 01.07.2020
629 Rain 8 1004 66 8000 17.5 200 07:21 01.07.2020
630 Rain 8 1004 70 7000 16.5 210 06:54 01.07.2020
631 Rain 8 1004 66 8000 15.9 200 06:32 01.07.2020
632 Rain 8 1004 70 7000 15.4 200 05:35 01.07.2020
633 Rain 8 1004 70 7000 15.9 200 03:55 01.07.2020
634 Rain 8 1005 70 9000 15.9 200 03:36 01.07.2020
635 Rain 8 1005 70 9000 15.9 200 03:18 01.07.2020
636 Rain 8 1006 70 10000 15.4 200 01:55 01.07.2020
637 Rain 8 1006 70 10000 15.4 200 00:48 01.07.2020
638 Rain 7 1006 81 8000 13.9 190 00:26 01.07.2020
639 Rain 7 1006 81 8000 12.9 190 23:57 30.06.2020
640 Rain 7 1006 81 8000 12.9 190 23:39 30.06.2020
641 Rain 7 1006 81 6000 15.9 200 23:19 30.06.2020
642 Rain 7 1005 81 7000 15.4 200 22:41 30.06.2020
643 Rain 7 1005 81 4100 15.9 190 22:18 30.06.2020
644 Rain 7 1005 93 3900 16.5 200 21:41 30.06.2020
645 Rain 7 1005 93 3900 16.5 200 21:19 30.06.2020
646 Rain 7 1004 87 2900 15.9 190 20:57 30.06.2020
647 Rain 7 1004 87 2900 15.9 190 20:39 30.06.2020
648 Rain 7 1004 81 5000 17 200 20:20 30.06.2020
649 Rain 7 1004 87 6000 15.4 190 19:43 30.06.2020
650 Rain 7 1004 87 6000 15.4 190 19:20 30.06.2020
651 Rain 8 1004 81 10000 15.4 200 18:54 30.06.2020
652 Rain 8 1004 81 10000 15.9 200 18:36 30.06.2020
653 Rain 8 1004 81 10000 15.9 200 18:18 30.06.2020
654 Rain 8 1004 81 10000 14.9 200 17:38 30.06.2020
655 Rain 8 1004 81 10000 14.9 200 17:19 30.06.2020
656 Rain 8 1004 76 10000 14.9 200 16:55 30.06.2020
657 Rain 9 1004 76 10000 14.9 200 16:36 30.06.2020
658 Rain 9 1004 76 10000 14.9 200 16:18 30.06.2020
659 Rain 9 1004 71 10000 14.4 200 15:41 30.06.2020
660 Rain 9 1004 71 10000 13.4 200 15:22 30.06.2020
661 Rain 9 1004 71 10000 13.4 200 14:58 30.06.2020
662 Rain 9 1004 71 10000 13.4 200 14:39 30.06.2020
663 Clouds 9 1004 66 10000 11.3 190 14:18 30.06.2020
664 Clouds 9 1004 66 10000 11.3 190 14:18 30.06.2020
665 Clouds 9 1004 66 10000 11.3 190 14:18 30.06.2020
666 Clouds 9 1004 71 10000 11.3 200 13:41 30.06.2020
667 Clouds 9 1004 71 10000 11.8 200 13:21 30.06.2020
668 Clouds 8 1004 71 10000 11.3 200 12:59 30.06.2020
669 Clouds 8 1004 66 10000 9.8 190 12:40 30.06.2020
670 Clouds 8 1004 66 10000 9.8 190 12:21 30.06.2020
671 Clouds 8 1004 66 10000 9.8 190 12:21 30.06.2020
672 Clouds 8 1004 66 10000 10.8 200 11:58 30.06.2020
673 Clouds 8 1004 66 10000 10.8 200 11:39 30.06.2020
674 Clouds 8 1004 66 10000 10.8 200 11:39 30.06.2020
675 Clouds 8 1004 66 10000 10.3 200 11:19 30.06.2020
676 Rain 8 1004 71 10000 8.2 190 10:58 30.06.2020
677 Rain 8 1004 71 10000 8.2 190 10:58 30.06.2020
678 Rain 11 1004 76 10000 3.6 340 16:40 28.06.2020
679 Rain 11 1004 76 10000 3.6 340 16:22 28.06.2020
680 Rain 11 1004 71 10000 5.7 340 15:56 28.06.2020
681 Rain 12 1004 71 10000 5.7 340 15:38 28.06.2020
682 Rain 12 1004 71 10000 5.7 340 15:38 28.06.2020
683 Rain 12 1004 71 10000 5.7 340 15:18 28.06.2020
684 Clear 12 1003 76 10000 5.1 340 14:46 28.06.2020
685 Clear 12 1003 76 10000 5.1 340 14:27 28.06.2020
686 Clear 12 1003 71 10000 3.6 340 13:58 28.06.2020
687 Clear 12 1003 76 10000 5.1 340 13:37 28.06.2020
688 Clear 12 1003 76 10000 5.1 340 13:37 28.06.2020
689 Clear 12 1003 76 10000 5.1 340 13:19 28.06.2020
690 Clear 12 1003 76 10000 5.1 350 12:56 28.06.2020
691 Clear 12 1003 76 10000 5.1 340 12:37 28.06.2020
692 Clouds 12 1003 76 10000 5.1 340 12:18 28.06.2020
693 Clouds 12 1003 76 10000 5.1 340 11:55 28.06.2020
694 Clouds 12 1003 76 10000 5.1 340 11:37 28.06.2020
695 Clouds 12 1003 76 10000 5.1 340 11:19 28.06.2020
696 Clouds 12 1002 82 10000 7.2 340 10:41 28.06.2020
697 Clouds 12 1002 82 10000 7.2 340 10:23 28.06.2020
698 Clouds 12 1002 82 10000 6.2 340 09:59 28.06.2020
699 Clouds 12 1002 82 10000 6.2 340 09:39 28.06.2020
700 Clouds 12 1002 82 10000 6.2 340 09:20 28.06.2020
701 Clouds 12 1002 82 10000 6.7 350 08:44 28.06.2020
702 Rain 12 1002 82 10000 6.7 350 08:24 28.06.2020
703 Rain 12 1002 87 5000 7.2 350 07:45 28.06.2020
704 Clear 12 1002 82 10000 8.7 340 07:27 28.06.2020
705 Clear 13 1002 82 10000 8.2 350 06:34 28.06.2020
706 Rain 13 1002 93 8000 7.7 360 05:55 28.06.2020
707 Rain 13 1002 87 9000 7.7 360 05:25 28.06.2020
708 Rain 12 1002 87 8000 8.7 360 03:23 28.06.2020
709 Clouds 13 1003 72 10000 8.7 350 02:28 28.06.2020
710 Clouds 14 1003 72 10000 8.7 350 01:46 28.06.2020
711 Clouds 14 1003 72 10000 7.7 350 01:22 28.06.2020
712 Clouds 13 1003 71 10000 8.7 350 00:42 28.06.2020
713 Rain 13 1003 76 10000 9.3 350 00:21 28.06.2020
714 Rain 13 1003 82 10000 8.2 340 23:40 27.06.2020
715 Rain 12 1002 87 10000 7.7 340 23:21 27.06.2020
716 Rain 12 1002 93 10000 5.7 360 22:54 27.06.2020
717 Rain 12 1002 93 10000 4.1 360 22:36 27.06.2020
718 Rain 12 1002 93 10000 4.1 360 22:18 27.06.2020
719 Rain 12 1002 93 10000 2.6 20 21:42 27.06.2020
720 Rain 12 1002 93 10000 2.6 20 21:20 27.06.2020
721 Rain 11 1002 93 10000 2.1 20 20:56 27.06.2020
722 Rain 12 1002 100 10000 1 20 20:37 27.06.2020
723 Rain 11 1002 100 10000 1 20 20:18 27.06.2020
724 Rain 11 1002 93 10000 1 50 19:38 27.06.2020
725 Clouds 11 1002 93 10000 1 50 19:19 27.06.2020
726 Clouds 10 1002 93 10000 1.5 40 18:59 27.06.2020
727 Clouds 11 1002 93 10000 2.1 10 18:40 27.06.2020
728 Clouds 11 1002 93 10000 2.1 10 18:20 27.06.2020
729 Clouds 10 1002 93 10000 0.5 310 17:41 27.06.2020
730 Clouds 10 1003 100 10000 1 60 17:21 27.06.2020
731 Fog 10 1003 100 1000 0.5 30 16:59 27.06.2020
732 Fog 10 1003 100 1000 0.5 30 16:39 27.06.2020
733 Fog 10 1003 100 1000 0.5 30 16:20 27.06.2020
734 Rain 10 1004 93 10000 1.5 30 15:45 27.06.2020
735 Rain 10 1004 93 10000 1.5 30 15:24 27.06.2020
736 Rain 10 1004 93 10000 1.5 30 15:24 27.06.2020
737 Rain 11 1004 93 7000 1 310 14:59 27.06.2020
738 Clouds 10 1004 93 10000 1 50 14:39 27.06.2020
739 Clouds 10 1004 93 10000 1 50 14:20 27.06.2020
740 Clouds 11 1005 93 10000 1.5 40 13:54 27.06.2020
741 Clouds 11 1005 100 9000 1 310 13:36 27.06.2020
742 Clouds 11 1005 100 9000 1 310 13:18 27.06.2020
743 Clouds 11 1005 93 6000 0.5 90 12:41 27.06.2020
744 Clouds 11 1005 93 6000 0.5 90 12:22 27.06.2020
745 Clouds 11 1006 93 10000 1 60 11:59 27.06.2020
746 Clouds 11 1006 93 10000 1 60 11:40 27.06.2020
747 Clouds 12 1006 93 10000 1.5 160 11:21 27.06.2020
748 Clouds 12 1006 93 10000 1 140 10:41 27.06.2020
749 Clouds 12 1006 93 10000 1 90 10:19 27.06.2020
750 Clouds 12 1007 87 10000 0.5 200 09:58 27.06.2020
751 Clouds 12 1007 87 10000 0.5 200 09:39 27.06.2020
752 Clouds 13 1007 87 10000 0.5 200 09:20 27.06.2020
753 Clouds 13 1007 87 10000 1.5 150 08:44 27.06.2020
754 Clouds 13 1007 87 10000 1.5 130 08:23 27.06.2020
755 Clouds 13 1007 93 10000 1.5 160 07:48 27.06.2020
756 Clouds 14 1007 87 10000 1.5 160 07:25 27.06.2020
757 Rain 14 1007 87 10000 1 180 06:52 27.06.2020
758 Drizzle 14 1008 82 10000 1.5 170 06:33 27.06.2020
759 Clouds 15 1008 77 10000 2.6 190 04:51 27.06.2020
760 Clouds 16 1009 67 10000 2.1 80 04:18 27.06.2020
761 Clouds 16 1009 67 10000 3.6 60 03:46 27.06.2020
762 Rain 15 1011 72 10000 4.6 40 02:42 27.06.2020
763 Rain 15 1011 72 10000 5.1 40 02:23 27.06.2020
764 Rain 15 1012 67 10000 4.6 40 01:28 27.06.2020
765 Rain 14 1013 67 10000 4.1 40 00:47 27.06.2020
766 Clouds 13 1013 72 10000 4.1 40 23:47 26.06.2020
767 Clouds 11 1009 93 0 1.41 118 23:27 26.06.2020
768 -273 0 0 0 0 0 22:59 26.06.2020
769 Clouds 13 1014 76 10000 5.1 50 22:41 26.06.2020
770 Clouds 12 1014 71 10000 5.1 40 22:23 26.06.2020
771 Clouds 12 1014 71 10000 3.6 40 21:58 26.06.2020
772 Clouds 12 1014 71 10000 3.6 40 21:39 26.06.2020
773 Clouds 12 1014 71 10000 2.6 50 21:21 26.06.2020
774 Clouds 12 1014 71 10000 2.6 50 21:21 26.06.2020
775 Clouds 12 1014 71 10000 4.1 50 20:57 26.06.2020
776 Clouds 12 1014 71 10000 4.1 50 20:37 26.06.2020
777 Clouds 12 1014 71 10000 2.1 50 20:18 26.06.2020
778 Clouds 12 1015 71 10000 2.6 70 19:40 26.06.2020
779 Clouds 12 1015 71 10000 2.6 70 19:20 26.06.2020
780 Clouds 12 1015 71 10000 2.1 60 18:42 26.06.2020
781 Clouds 12 1015 67 10000 4.1 60 18:23 26.06.2020
782 Clouds 12 1015 67 10000 5.1 40 17:46 26.06.2020
783 Clouds 12 1016 67 10000 5.1 50 17:28 26.06.2020
784 Clouds 12 1016 67 10000 4.1 50 16:59 26.06.2020
785 Clouds 12 1016 67 10000 4.1 50 16:41 26.06.2020
786 Clouds 12 1016 67 10000 4.1 50 16:22 26.06.2020
787 Clouds 12 1017 67 10000 3.6 50 15:41 26.06.2020
788 Clouds 12 1017 67 10000 3.6 50 15:21 26.06.2020
789 Clouds 12 1018 71 10000 3.6 50 14:58 26.06.2020
790 Clouds 12 1018 71 10000 3.6 50 14:39 26.06.2020
791 Clouds 12 1018 71 10000 3.6 50 14:21 26.06.2020
792 Clouds 12 1018 71 10000 3.6 50 13:46 26.06.2020
793 Clouds 12 1018 71 10000 4.6 50 13:24 26.06.2020
794 Clouds 12 1018 71 10000 4.1 50 12:57 26.06.2020
795 Rain 12 1018 76 10000 4.6 40 12:38 26.06.2020
796 Rain 12 1018 76 10000 4.6 40 12:19 26.06.2020
797 Rain 12 1018 76 10000 3.6 50 11:56 26.06.2020
798 Rain 12 1018 76 10000 3.6 50 11:38 26.06.2020
799 Rain 12 1018 71 10000 3.6 50 11:19 26.06.2020
800 Clouds 13 1018 71 10000 2.1 40 10:56 26.06.2020
801 Clouds 12 1018 71 10000 2.1 40 10:37 26.06.2020
802 Clouds 12 1018 71 10000 2.1 40 10:37 26.06.2020
803 Clouds 12 1018 71 10000 2.1 40 10:37 26.06.2020
804 Clouds 12 1018 71 10000 2.1 40 10:18 26.06.2020
805 Clouds 12 1019 71 10000 2.1 70 09:42 26.06.2020
806 Clouds 12 1019 71 10000 2.1 70 09:22 26.06.2020
807 Clouds 12 1019 71 10000 2.1 80 08:49 26.06.2020
808 Clouds 13 1019 71 10000 3.6 80 08:28 26.06.2020
809 Clouds 13 1019 71 10000 3.6 60 07:49 26.06.2020
810 Clouds 13 1019 71 10000 2.1 60 07:24 26.06.2020
811 Clouds 13 1019 76 10000 1 170 06:57 26.06.2020
812 Clouds 13 1019 87 8000 1.5 160 06:35 26.06.2020
813 Drizzle 13 1020 82 10000 2.6 100 05:57 26.06.2020
814 Clouds 13 1019 76 10000 3.1 110 05:30 26.06.2020
815 Clouds 13 1021 71 10000 3.6 110 02:41 26.06.2020
816 Drizzle 13 1021 82 10000 3.6 150 02:21 26.06.2020
817 Drizzle 12 1023 82 10000 2.6 160 00:56 26.06.2020
818 Drizzle 12 1022 76 10000 2.6 160 00:38 26.06.2020
819 Rain 12 1022 81 10000 3.1 160 23:48 25.06.2020
820 Clouds 11 1022 76 10000 3.6 150 23:23 25.06.2020
821 Clouds 11 1022 76 10000 4.1 150 22:59 25.06.2020
822 Clouds 11 1022 76 10000 4.1 150 22:40 25.06.2020
823 Clouds 11 1022 81 10000 3.1 160 22:20 25.06.2020
824 Rain 11 1022 76 10000 2.6 140 21:58 25.06.2020
825 Rain 11 1022 76 10000 2.6 140 21:40 25.06.2020
826 Rain 11 1022 76 10000 2.6 140 21:21 25.06.2020
827 Rain 11 1021 76 10000 4.1 90 20:59 25.06.2020
828 Rain 11 1021 76 10000 4.1 90 20:41 25.06.2020
829 Clouds 11 1021 76 10000 2.6 100 20:22 25.06.2020
830 Clouds 12 1021 71 10000 2.6 130 19:56 25.06.2020
831 Clouds 12 1021 71 10000 3.6 100 19:37 25.06.2020
832 Clouds 12 1021 71 10000 3.1 110 19:18 25.06.2020
833 Clouds 12 1021 71 10000 3.1 110 18:40 25.06.2020
834 Rain 12 1021 66 10000 3.6 90 18:21 25.06.2020
835 Rain 12 1021 66 10000 2.6 110 17:55 25.06.2020
836 Rain 12 1021 71 10000 3.6 160 17:37 25.06.2020
837 Clouds 12 1021 71 10000 3.6 160 17:18 25.06.2020
838 Clouds 12 1021 76 10000 4.1 130 16:40 25.06.2020
839 Clouds 12 1021 76 10000 4.1 130 16:20 25.06.2020
840 Clouds 11 1022 76 10000 2.6 150 15:45 25.06.2020
841 Clouds 12 1022 66 10000 4.6 160 15:27 25.06.2020
842 Clouds 11 1022 66 10000 4.6 160 14:56 25.06.2020
843 Clouds 11 1022 66 10000 4.6 160 14:37 25.06.2020
844 Clouds 11 1022 71 10000 4.6 150 14:19 25.06.2020
845 Clouds 11 1022 76 10000 5.7 150 13:55 25.06.2020
846 Clouds 12 1022 76 10000 5.1 150 13:36 25.06.2020
847 Clouds 11 1022 76 10000 5.1 150 13:18 25.06.2020
848 Clouds 11 1022 71 10000 5.1 150 12:43 25.06.2020
849 Clouds 11 1022 71 10000 5.1 150 12:20 25.06.2020
850 Clouds 11 1022 76 10000 6.7 150 11:43 25.06.2020
851 Clouds 11 1022 81 10000 7.2 150 11:25 25.06.2020
852 Clouds 11 1022 81 10000 7.2 150 10:57 25.06.2020
853 Clouds 11 1022 81 10000 7.2 150 10:39 25.06.2020
854 Clouds 11 1022 81 10000 6.2 150 10:20 25.06.2020
855 Clouds 11 1022 87 10000 6.7 150 09:41 25.06.2020
856 Clouds 11 1022 87 10000 8.2 150 09:22 25.06.2020
857 Clouds 11 1022 81 10000 6.7 140 08:47 25.06.2020
858 Rain 11 1021 81 10000 7.7 140 08:20 25.06.2020
859 Clouds 11 1021 76 10000 6.7 140 07:46 25.06.2020
860 Clouds 11 1021 76 10000 6.2 140 07:27 25.06.2020
861 Clouds 11 1022 76 10000 6.2 150 06:53 25.06.2020
862 Clouds 11 1022 76 10000 6.7 150 06:27 25.06.2020
863 Clouds 12 1021 71 10000 6.7 150 05:51 25.06.2020
864 Clouds 12 1021 76 10000 6.7 150 04:29 25.06.2020
865 Rain 11 1021 71 10000 8.2 140 03:34 25.06.2020
866 Rain 12 1021 62 10000 9.8 140 02:42 25.06.2020
867 Clouds 11 1022 66 10000 7.7 140 01:59 25.06.2020
868 Clouds 11 1023 66 10000 7.2 140 01:26 25.06.2020
869 Clouds 11 1023 71 10000 7.7 140 00:44 25.06.2020
870 Clouds 11 1023 71 10000 7.7 140 00:21 25.06.2020
871 Drizzle 10 1022 71 10000 5.1 140 23:44 24.06.2020
872 Clouds 10 1022 71 10000 5.1 140 23:26 24.06.2020
873 Clouds 11 1022 62 10000 5.7 150 22:59 24.06.2020
874 Clouds 11 1022 62 10000 5.7 150 22:41 24.06.2020
875 Clouds 11 1022 62 10000 5.7 140 22:20 24.06.2020
876 Clouds 10 1022 66 10000 5.1 140 21:56 24.06.2020
877 Clouds 10 1022 71 10000 5.1 140 21:37 24.06.2020
878 Clouds 10 1022 71 10000 5.1 140 21:18 24.06.2020
879 Clouds 10 1021 81 10000 7.2 160 20:58 24.06.2020
880 Clouds 10 1021 81 10000 7.2 160 20:39 24.06.2020
881 Clouds 10 1021 81 10000 7.2 160 20:20 24.06.2020
882 Clouds 10 1021 87 10000 7.7 150 19:57 24.06.2020
883 Clouds 10 1021 76 10000 6.2 150 19:38 24.06.2020
884 Clouds 10 1021 76 10000 6.2 150 19:18 24.06.2020
885 Clouds 10 1021 71 10000 6.7 140 18:58 24.06.2020
886 Clouds 10 1021 62 10000 5.7 140 18:39 24.06.2020
887 Clouds 10 1021 62 10000 5.7 140 18:20 24.06.2020
888 Clouds 11 1021 66 10000 7.2 140 17:44 24.06.2020
889 Clouds 11 1021 66 10000 7.2 140 17:44 24.06.2020
890 Clouds 10 1022 62 10000 5.1 130 17:21 24.06.2020
891 Clouds 11 1022 71 10000 5.7 130 17:00 24.06.2020
892 Clouds 11 1022 71 10000 5.7 130 16:41 24.06.2020
893 Clouds 10 1022 71 10000 5.7 130 16:23 24.06.2020
894 Clouds 10 1022 76 10000 8.2 140 15:59 24.06.2020
895 Clouds 10 1022 81 10000 6.7 140 15:39 24.06.2020
896 Clouds 10 1022 81 10000 6.7 140 15:20 24.06.2020
897 Clouds 10 1022 76 10000 5.1 140 14:58 24.06.2020
898 Clouds 10 1022 76 10000 5.1 140 14:40 24.06.2020
899 Clouds 10 1022 76 10000 5.1 140 14:40 24.06.2020
900 Rain 10 1022 81 10000 3.6 130 14:20 24.06.2020
901 Clouds 10 1022 81 10000 3.1 120 13:42 24.06.2020
902 Clouds 10 1022 81 10000 2.1 110 13:21 24.06.2020
903 Clouds 10 1022 81 10000 5.1 150 12:43 24.06.2020
904 Clouds 11 1022 81 10000 5.1 150 12:21 24.06.2020
905 Clouds 11 1022 81 10000 6.2 140 11:58 24.06.2020
906 Clouds 10 1022 93 10000 9.3 170 11:39 24.06.2020
907 Clouds 11 1022 93 10000 9.3 170 11:21 24.06.2020
908 Clouds 11 1022 93 10000 8.2 170 10:45 24.06.2020
909 Rain 10 1022 93 10000 6.7 160 10:19 24.06.2020
910 Rain 10 1022 100 9000 7.2 160 09:46 24.06.2020
911 Rain 10 1022 93 6000 8.7 170 09:26 24.06.2020
912 Rain 10 1022 100 5000 9.3 170 08:59 24.06.2020
913 Rain 10 1022 100 5000 9.3 170 08:40 24.06.2020
914 Rain 10 1022 93 6000 9.3 170 08:18 24.06.2020
915 Rain 10 1021 93 6000 9.3 180 07:46 24.06.2020
916 Rain 10 1021 93 9000 8.7 180 07:25 24.06.2020
917 Rain 10 1021 93 10000 8.7 180 06:45 24.06.2020
918 Rain 11 1021 93 10000 8.7 180 06:24 24.06.2020
919 Clouds 11 1021 93 10000 7.7 180 05:39 24.06.2020
920 Clouds 11 1021 87 10000 7.2 180 04:38 24.06.2020
921 Clouds 11 1022 81 10000 6.7 160 03:38 24.06.2020
922 Clouds 12 1022 81 10000 7.7 170 02:54 24.06.2020
923 Clouds 11 1022 81 10000 8.2 170 02:21 24.06.2020
924 Clouds 10 1023 87 10000 7.2 190 00:52 24.06.2020
925 Clouds 10 1023 93 10000 7.2 190 00:33 24.06.2020
926 Clouds 9 1023 93 10000 5.7 190 23:49 23.06.2020
927 Clouds 8 1023 93 10000 1 110 23:22 23.06.2020
928 Clouds 7 1023 93 10000 0.5 50 22:59 23.06.2020
929 Clouds 7 1023 93 10000 0.5 50 22:41 23.06.2020
930 Clouds 7 1023 93 10000 1 20 22:18 23.06.2020
931 Clouds 6 1023 100 10000 1.5 40 21:54 23.06.2020
932 Clouds 6 1023 93 10000 1 10 21:36 23.06.2020
933 Clouds 6 1023 93 10000 1 10 21:18 23.06.2020
934 Clouds 6 1022 100 10000 1 40 20:54 23.06.2020
935 Clouds 6 1022 100 10000 1.5 40 20:36 23.06.2020
936 Clear 6 1022 100 10000 1.5 40 20:18 23.06.2020
937 Clear 6 1022 93 10000 1.5 50 19:41 23.06.2020
938 Clear 6 1022 93 10000 1.5 50 19:23 23.06.2020
939 Clear 6 1022 93 10000 2.1 40 18:38 23.06.2020
940 Clear 7 1022 100 10000 1.5 30 18:19 23.06.2020
941 Clear 7 1022 100 10000 1.5 30 17:42 23.06.2020
942 Clear 7 1023 93 10000 1.5 40 17:24 23.06.2020
943 Clear 7 1023 93 10000 1.5 40 16:57 23.06.2020
944 Clear 7 1023 93 10000 2.1 20 16:38 23.06.2020
945 Clear 7 1023 93 10000 2.1 20 16:38 23.06.2020
946 Clear 7 1023 93 10000 2.1 20 16:20 23.06.2020
947 Clear 7 1023 93 10000 1.5 20 15:57 23.06.2020
948 Clear 8 1023 87 10000 3.6 360 15:39 23.06.2020
949 Clear 8 1023 87 10000 3.6 360 15:18 23.06.2020
950 Clear 8 1023 93 10000 2.1 350 14:43 23.06.2020
951 Clear 8 1023 93 10000 2.1 350 14:20 23.06.2020
952 Clear 8 1023 93 10000 2.6 350 13:57 23.06.2020
953 Clear 8 1023 93 10000 2.6 350 13:57 23.06.2020
954 Clear 8 1023 93 10000 2.6 10 13:39 23.06.2020
955 Clear 8 1023 93 10000 2.6 10 13:20 23.06.2020
956 Clear 8 1023 87 10000 2.6 20 12:44 23.06.2020
957 Clear 8 1023 87 10000 2.6 20 12:23 23.06.2020
958 Clear 8 1023 93 10000 3.1 360 11:58 23.06.2020
959 Clear 9 1023 87 10000 2.6 350 11:40 23.06.2020
960 Clear 9 1023 87 10000 2.6 350 11:19 23.06.2020
961 Clear 9 1023 93 10000 1.5 350 10:56 23.06.2020
962 Clear 9 1023 93 10000 1.5 10 10:38 23.06.2020
963 Clear 9 1023 93 10000 1.5 10 10:20 23.06.2020
964 Clear 9 1023 93 10000 2.1 360 09:42 23.06.2020
965 Clear 10 1023 93 10000 2.6 20 09:20 23.06.2020
966 Clear 10 1023 93 10000 2.1 10 08:58 23.06.2020
967 Clear 11 1023 87 10000 2.6 360 08:39 23.06.2020
968 Clear 11 1023 87 10000 2.6 360 08:20 23.06.2020
969 Clear 11 1023 81 10000 3.6 20 07:40 23.06.2020
970 Clear 11 1023 81 10000 3.6 20 07:22 23.06.2020
971 Clear 12 1023 82 10000 2.6 350 06:49 23.06.2020
972 Clear 12 1023 82 10000 2.6 350 06:31 23.06.2020
973 Clear 13 1023 71 10000 3.6 360 05:45 23.06.2020
974 Clear 13 1024 87 10000 1 350 03:55 23.06.2020
975 Clear 12 1025 93 10000 1.5 80 02:57 23.06.2020
976 Clear 11 1026 100 7000 1.5 10 02:38 23.06.2020
977 Clear 11 1026 100 7000 1.5 10 02:20 23.06.2020
978 Fog 9 1026 100 450 2.1 360 01:43 23.06.2020
979 Fog 9 1026 100 450 2.1 360 01:19 23.06.2020
980 Mist 9 1026 100 1800 2.6 10 00:24 23.06.2020
981 Fog 9 1026 100 1300 2.6 360 23:57 22.06.2020
982 Fog 8 1026 100 1000 2.1 350 23:39 22.06.2020
983 Fog 8 1026 100 1000 2.1 350 23:19 22.06.2020
984 Fog 8 1026 100 550 2.1 350 22:57 22.06.2020
985 Fog 8 1026 100 350 2.6 360 22:39 22.06.2020
986 Fog 8 1026 100 350 2.6 360 22:20 22.06.2020
987 Fog 8 1026 100 350 2.6 360 21:57 22.06.2020
988 Fog 8 1026 100 300 1.5 360 21:38 22.06.2020
989 Fog 8 1026 100 300 1.5 360 21:20 22.06.2020
990 Fog 9 1026 100 250 1.5 350 20:44 22.06.2020
991 Fog 9 1025 100 250 1.5 20 20:25 22.06.2020
992 Fog 9 1025 100 200 2.1 360 19:58 22.06.2020
993 Fog 9 1025 100 300 2.1 360 19:38 22.06.2020
994 Fog 9 1025 100 300 2.1 360 19:18 22.06.2020
995 Fog 9 1026 100 300 2.6 350 18:42 22.06.2020
996 Fog 9 1026 100 300 2.6 350 18:23 22.06.2020
997 Fog 9 1026 100 350 1.5 350 17:57 22.06.2020
998 Fog 9 1026 100 400 1.5 10 17:39 22.06.2020
999 Fog 8 1026 100 400 1.5 10 17:21 22.06.2020
1000 Fog 8 1026 100 150 1.5 330 16:57 22.06.2020
1001 Fog 9 1026 100 150 1.5 10 16:38 22.06.2020
1002 Fog 8 1026 100 150 1.5 10 16:18 22.06.2020
1003 Fog 8 1026 100 150 1.5 20 15:44 22.06.2020
1004 Fog 8 1026 100 150 1.5 20 15:26 22.06.2020
1005 Fog 9 1026 100 150 1.5 20 14:58 22.06.2020
1006 Fog 9 1026 100 100 1.5 20 14:38 22.06.2020
1007 Fog 9 1026 100 100 1.5 20 14:19 22.06.2020
1008 Fog 9 1026 100 150 1.5 10 13:54 22.06.2020
1009 Fog 9 1026 100 150 1.5 20 13:36 22.06.2020
1010 Fog 9 1026 100 150 1.5 20 13:18 22.06.2020
1011 Fog 9 1026 100 150 1.5 350 12:41 22.06.2020
1012 Fog 9 1026 100 150 1.5 350 12:22 22.06.2020
1013 Mist 10 1025 93 2400 1.5 20 11:38 22.06.2020
1014 Mist 10 1025 93 2400 1.5 20 11:19 22.06.2020
1015 Mist 10 1025 100 4300 1.5 40 10:57 22.06.2020
1016 Mist 10 1025 93 4100 1 340 10:38 22.06.2020
1017 Mist 10 1025 93 4100 1 340 10:19 22.06.2020
1018 Mist 10 1025 93 4100 1 340 10:19 22.06.2020
1019 Mist 11 1025 93 4000 1.5 210 09:57 22.06.2020
1020 Clear 11 1024 93 8000 1.5 190 09:39 22.06.2020
1021 Clear 10 1024 93 8000 1.5 190 09:19 22.06.2020
1022 Clear 11 1024 93 7000 2.1 200 08:56 22.06.2020
1023 Clear 11 1024 93 6000 2.6 190 08:38 22.06.2020
1024 Clouds 11 1024 93 6000 2.6 190 08:19 22.06.2020
1025 Clouds 11 1024 93 10000 3.6 220 07:46 22.06.2020
1026 Clouds 11 1024 93 10000 3.6 220 07:25 22.06.2020
1027 Clouds 12 1022 92 0 3.62 150 06:39 22.06.2020
1028 Clouds 12 1023 93 10000 5.1 230 06:20 22.06.2020
1029 Clouds 12 1023 93 9000 5.7 230 05:42 22.06.2020
1030 Clouds 12 1024 93 10000 6.2 230 03:47 22.06.2020
1031 Clouds 12 1025 93 10000 6.2 220 01:53 22.06.2020
1032 Clouds 11 1025 93 9000 5.7 210 00:58 22.06.2020
1033 Clouds 10 1025 93 8000 6.2 220 00:29 22.06.2020
1034 Clouds 10 1025 93 9000 6.2 220 23:57 21.06.2020
1035 Clouds 10 1024 93 9000 5.7 220 23:38 21.06.2020
1036 Clouds 10 1024 93 9000 5.7 220 23:20 21.06.2020
1037 Clouds 9 1024 93 7000 2.6 200 22:56 21.06.2020
1038 Clouds 9 1024 93 8000 2.6 190 22:36 21.06.2020
1039 Clouds 8 1024 93 8000 2.6 190 22:18 21.06.2020
1040 Clouds 10 1024 87 9000 3.1 220 21:55 21.06.2020
1041 Clouds 10 1023 87 7000 3.1 210 21:37 21.06.2020
1042 Clouds 9 1023 87 7000 3.1 210 21:19 21.06.2020
1043 Clouds 8 1023 93 9000 2.1 160 20:54 21.06.2020
1044 Clouds 9 1023 87 10000 3.1 200 20:36 21.06.2020
1045 Clouds 9 1023 87 10000 3.1 200 20:18 21.06.2020
1046 Clouds 8 1023 93 10000 2.6 180 19:41 21.06.2020
1047 Clouds 8 1023 93 10000 2.6 180 19:20 21.06.2020
1048 Clouds 9 1023 87 10000 4.1 220 18:56 21.06.2020
1049 Clouds 9 1023 87 10000 4.1 240 18:38 21.06.2020
1050 Clouds 9 1023 87 10000 4.1 240 18:19 21.06.2020
1051 Clouds 8 1024 93 10000 1 90 17:41 21.06.2020
1052 Clouds 8 1024 93 10000 1 90 17:22 21.06.2020
1053 Clouds 8 1024 87 6000 2.6 190 16:57 21.06.2020
1054 Clouds 9 1024 87 10000 3.6 180 16:39 21.06.2020
1055 Clouds 8 1024 87 10000 3.6 180 16:21 21.06.2020
1056 Clouds 9 1025 87 10000 3.6 150 15:41 21.06.2020
1057 Clouds 9 1025 87 10000 3.6 150 15:41 21.06.2020
1058 Clouds 9 1025 87 10000 3.6 150 15:23 21.06.2020
1059 Clouds 9 1025 87 10000 4.1 150 14:59 21.06.2020
1060 Clouds 9 1025 87 10000 6.2 160 14:37 21.06.2020
1061 Clouds 9 1025 87 10000 6.2 160 14:19 21.06.2020
1062 Clouds 9 1025 81 10000 5.7 160 13:55 21.06.2020
1063 Clouds 9 1025 81 10000 6.2 160 13:37 21.06.2020
1064 Clouds 9 1025 81 10000 6.2 160 13:18 21.06.2020
1065 Clouds 9 1025 87 10000 7.2 150 12:43 21.06.2020
1066 Clouds 9 1025 87 10000 7.2 150 12:24 21.06.2020
1067 Clouds 9 1025 81 10000 6.2 150 11:43 21.06.2020
1068 Clouds 9 1025 81 10000 6.2 150 11:43 21.06.2020
1069 Clouds 9 1025 81 10000 6.2 150 11:25 21.06.2020
1070 Clouds 9 1022 89 0 6.32 150 10:59 21.06.2020
1071 Clouds 9 1026 87 10000 5.7 150 10:41 21.06.2020
1072 Clouds 9 1026 87 10000 5.7 150 10:22 21.06.2020
1073 Clouds 9 1025 81 10000 7.7 140 09:58 21.06.2020
1074 Clouds 9 1026 81 10000 8.2 150 09:37 21.06.2020
1075 Clouds 9 1026 81 10000 8.2 150 09:18 21.06.2020
1076 Clouds 9 1025 81 10000 8.7 150 08:55 21.06.2020
1077 Clouds 9 1025 81 10000 8.2 150 08:36 21.06.2020
1078 Clouds 9 1025 81 10000 8.2 150 08:18 21.06.2020
1079 Clouds 9 1025 87 10000 8.2 160 07:41 21.06.2020
1080 Clouds 9 1025 87 10000 8.2 160 07:21 21.06.2020
1081 Clouds 9 1025 87 10000 9.3 160 06:48 21.06.2020
1082 Clouds 10 1025 93 6000 8.7 160 05:59 21.06.2020
1083 Clouds 10 1025 81 10000 8.7 150 05:30 21.06.2020
1084 Clouds 10 1026 76 10000 9.3 160 03:21 21.06.2020
1085 Clouds 9 1027 87 7000 8.7 150 02:59 21.06.2020
1086 Rain 9 1027 87 10000 9.8 160 01:54 21.06.2020
1087 Rain 9 1027 87 10000 10.8 160 01:21 21.06.2020
1088 Rain 9 1027 93 10000 10.3 160 00:56 21.06.2020
1089 Rain 9 1027 93 4800 10.8 160 00:38 21.06.2020
1090 Rain 9 1027 93 4800 10.8 160 00:18 21.06.2020
1091 Rain 9 1027 100 10000 10.8 160 23:43 20.06.2020
1092 Rain 9 1027 100 10000 10.8 160 23:21 20.06.2020
1093 Rain 10 1026 93 10000 10.8 170 22:55 20.06.2020
1094 Clouds 10 1026 93 10000 9.3 150 22:37 20.06.2020
1095 Rain 10 1026 93 10000 9.3 150 22:18 20.06.2020
1096 Rain 9 1026 100 10000 8.7 180 21:56 20.06.2020
1097 Rain 9 1026 100 10000 9.8 180 21:37 20.06.2020
1098 Rain 9 1026 100 10000 9.8 180 21:19 20.06.2020
1099 Rain 9 1026 100 5000 11.3 170 20:55 20.06.2020
1100 Rain 9 1026 100 5000 10.3 170 20:37 20.06.2020
1101 Rain 9 1026 100 5000 10.3 170 20:19 20.06.2020
1102 Rain 9 1026 93 8000 10.8 170 19:43 20.06.2020
1103 Rain 9 1026 93 8000 10.8 170 19:22 20.06.2020
1104 Rain 9 1025 100 7000 10.8 180 18:54 20.06.2020
1105 Rain 9 1026 93 5000 10.3 180 18:36 20.06.2020
1106 Rain 9 1026 93 5000 10.3 180 18:18 20.06.2020
1107 Drizzle 9 1026 93 5000 10.8 170 17:54 20.06.2020
1108 Rain 9 1026 93 6000 10.8 170 17:36 20.06.2020
1109 Rain 9 1026 93 6000 10.8 170 17:18 20.06.2020
1110 Rain 9 1026 93 4700 9.8 180 16:39 20.06.2020
1111 Rain 9 1026 93 4700 9.8 180 16:18 20.06.2020
1112 Drizzle 9 1026 93 4700 9.8 180 16:18 20.06.2020
1113 Drizzle 9 1025 93 4800 9.8 180 15:42 20.06.2020
1114 Rain 9 1025 93 4800 9.8 180 15:18 20.06.2020
1115 Rain 9 1025 93 4500 10.8 170 14:56 20.06.2020
1116 Rain 9 1026 93 5000 10.8 170 14:38 20.06.2020
1117 Drizzle 9 1026 93 5000 10.8 170 14:18 20.06.2020
1118 Rain 9 1025 87 8000 10.8 170 13:41 20.06.2020
1119 Rain 9 1025 87 8000 10.8 170 13:19 20.06.2020
1120 Rain 9 1025 93 8000 10.8 170 12:55 20.06.2020
1121 Rain 9 1025 87 8000 12.3 170 12:36 20.06.2020
1122 Rain 9 1025 87 8000 12.3 170 12:18 20.06.2020
1123 Rain 9 1025 87 10000 11.3 170 11:38 20.06.2020
1124 Rain 9 1025 87 10000 11.3 170 11:20 20.06.2020
1125 Rain 9 1025 93 10000 11.3 170 10:57 20.06.2020
1126 Drizzle 9 1025 93 9000 10.8 170 10:38 20.06.2020
1127 Drizzle 9 1025 93 9000 10.8 170 10:18 20.06.2020
1128 Rain 9 1024 93 10000 11.3 170 09:41 20.06.2020
1129 Rain 9 1024 93 10000 11.3 170 09:23 20.06.2020
1130 Rain 9 1024 93 10000 12.3 170 08:57 20.06.2020
1131 Rain 9 1023 93 6000 12.9 180 08:38 20.06.2020
1132 Rain 9 1023 93 6000 12.9 180 08:20 20.06.2020
1133 Rain 10 1023 87 8000 12.9 180 07:50 20.06.2020
1134 Rain 10 1022 93 5000 12.9 190 07:25 20.06.2020
1135 Rain 10 1022 93 5000 12.9 190 07:25 20.06.2020
1136 Rain 10 1022 93 5000 12.9 180 06:40 20.06.2020
1137 Rain 10 1022 93 5000 12.9 180 06:18 20.06.2020
1138 Mist 10 1022 93 5000 11.8 180 05:47 20.06.2020
1139 Rain 10 1022 100 3700 10.3 180 03:22 20.06.2020
1140 Rain 11 1022 100 3600 9.3 180 01:53 20.06.2020
1141 Rain 11 1022 100 4000 9.8 190 01:35 20.06.2020
1142 Rain 11 1022 93 2500 7.7 190 00:40 20.06.2020
1143 Rain 11 1022 93 2500 7.7 190 00:19 20.06.2020
1144 Rain 11 1021 93 2100 7.2 190 23:40 19.06.2020
1145 Rain 11 1021 93 2100 7.2 190 23:19 19.06.2020
1146 Rain 11 1021 100 4500 5.7 190 22:54 19.06.2020
1147 Clouds 11 1020 93 10000 6.2 190 22:36 19.06.2020
1148 Clouds 11 1020 93 10000 6.2 190 22:18 19.06.2020
1149 Clouds 11 1020 93 10000 5.7 190 21:40 19.06.2020
1150 Clouds 11 1020 93 10000 5.7 190 21:19 19.06.2020
1151 Clouds 11 1020 93 10000 6.2 190 20:59 19.06.2020
1152 Clouds 11 1020 93 10000 6.2 190 20:59 19.06.2020
1153 Clouds 11 1020 93 10000 7.2 200 20:40 19.06.2020
1154 Clouds 11 1020 93 10000 7.2 200 20:22 19.06.2020
1155 Clouds 11 1020 93 10000 7.7 190 19:59 19.06.2020
1156 Clouds 11 1020 93 10000 7.7 200 19:41 19.06.2020
1157 Clouds 11 1020 93 10000 7.7 200 19:23 19.06.2020
1158 Mist 11 1020 93 5000 8.7 200 18:58 19.06.2020
1159 Drizzle 11 1021 93 3100 8.2 200 18:38 19.06.2020
1160 Drizzle 11 1021 93 3100 8.2 200 18:20 19.06.2020
1161 Mist 11 1021 100 4000 8.2 190 17:42 19.06.2020
1162 Mist 11 1021 100 4000 8.2 190 17:23 19.06.2020
1163 Mist 11 1021 93 4200 7.2 190 16:57 19.06.2020
1164 Clouds 11 1021 100 7000 7.7 190 16:39 19.06.2020
1165 Clouds 11 1021 100 7000 7.7 190 16:20 19.06.2020
1166 Clouds 11 1022 100 8000 7.7 180 15:45 19.06.2020
1167 Clouds 11 1022 100 8000 7.7 180 15:25 19.06.2020
1168 Clouds 11 1022 100 9000 7.2 180 14:57 19.06.2020
1169 Clouds 11 1022 100 7000 8.2 190 14:39 19.06.2020
1170 Clouds 10 1022 100 7000 8.2 190 14:21 19.06.2020
1171 Clouds 10 1023 100 6000 7.7 190 13:58 19.06.2020
1172 Clouds 10 1023 100 10000 7.7 180 13:39 19.06.2020
1173 Clouds 10 1023 100 10000 7.7 180 13:21 19.06.2020
1174 Rain 11 1023 100 7000 8.2 180 12:44 19.06.2020
1175 Rain 11 1023 100 7000 8.2 180 12:20 19.06.2020
1176 Rain 10 1023 100 8000 8.2 180 11:55 19.06.2020
1177 Rain 10 1023 100 4900 8.2 180 11:36 19.06.2020
1178 Rain 10 1023 100 4900 8.2 180 11:18 19.06.2020
1179 Rain 11 1023 100 5000 7.7 180 10:41 19.06.2020
1180 Rain 10 1023 100 5000 7.7 180 10:21 19.06.2020
1181 Mist 10 1023 100 5000 8.2 180 09:54 19.06.2020
1182 Clouds 10 1023 100 6000 9.8 190 09:36 19.06.2020
1183 Clouds 10 1023 100 6000 9.8 190 09:18 19.06.2020
1184 Clouds 10 1023 93 6000 9.8 190 08:39 19.06.2020
1185 Clouds 10 1023 93 6000 9.8 190 08:20 19.06.2020
1186 Clouds 10 1023 100 6000 10.8 190 07:41 19.06.2020
1187 Rain 11 1023 100 6000 10.8 190 07:22 19.06.2020
1188 Mist 10 1023 100 5000 10.3 190 06:50 19.06.2020
1189 Rain 11 1023 100 6000 11.3 200 06:22 19.06.2020
1190 Rain 11 1023 100 7000 9.8 190 05:29 19.06.2020
1191 Mist 11 1024 100 4600 9.8 190 03:45 19.06.2020
1192 Mist 11 1025 100 3800 9.8 190 02:20 19.06.2020
1193 Rain 11 1025 100 4200 10.8 190 00:45 19.06.2020
1194 Rain 10 1025 100 4200 10.8 190 00:22 19.06.2020
1195 Rain 11 1025 93 6000 9.3 180 23:57 18.06.2020
1196 Rain 11 1025 93 6000 8.7 180 23:39 18.06.2020
1197 Rain 10 1025 93 6000 8.7 180 23:20 18.06.2020
1198 Rain 10 1024 93 4600 8.7 180 22:41 18.06.2020
1199 Rain 10 1024 93 4600 8.7 180 22:20 18.06.2020
1200 Rain 10 1024 93 4200 11.3 200 21:56 18.06.2020
1201 Rain 10 1024 100 2500 10.8 190 21:37 18.06.2020
1202 Rain 10 1024 100 2500 10.8 190 21:19 18.06.2020
1203 Rain 10 1024 93 2900 12.9 190 20:41 18.06.2020
1204 Rain 10 1024 93 2900 12.9 190 20:21 18.06.2020
1205 Rain 10 1023 93 5000 12.9 190 19:57 18.06.2020
1206 Rain 10 1023 93 4700 11.8 190 19:39 18.06.2020
1207 Rain 10 1023 93 4700 11.8 190 19:19 18.06.2020
1208 Rain 10 1023 93 4700 11.8 190 19:19 18.06.2020
1209 Rain 10 1024 100 2100 12.3 190 18:41 18.06.2020
1210 Rain 10 1024 100 2100 12.3 190 18:22 18.06.2020
1211 Rain 10 1023 100 1200 14.4 200 17:55 18.06.2020
1212 Rain 10 1024 100 1900 15.4 190 17:37 18.06.2020
1213 Rain 10 1024 100 1900 15.4 190 17:18 18.06.2020
1214 Rain 10 1024 100 1900 17.5 200 16:42 18.06.2020
1215 Rain 10 1024 100 1900 17.5 200 16:24 18.06.2020
1216 Rain 10 1023 93 3100 17.5 200 15:58 18.06.2020
1217 Rain 10 1024 93 3300 16.5 190 15:39 18.06.2020
1218 Rain 10 1024 93 3300 16.5 190 15:20 18.06.2020
1219 Rain 10 1024 100 4000 14.9 190 14:56 18.06.2020
1220 Rain 10 1024 93 4200 14.9 190 14:37 18.06.2020
1221 Rain 10 1024 93 4200 14.9 190 14:19 18.06.2020
1222 Rain 10 1024 93 2800 15.4 190 13:47 18.06.2020
1223 Rain 10 1024 93 2800 15.4 190 13:28 18.06.2020
1224 Rain 10 1024 93 3000 14.9 190 12:57 18.06.2020
1225 Rain 10 1024 93 3000 12.9 180 12:39 18.06.2020
1226 Rain 10 1024 93 3000 12.9 180 12:20 18.06.2020
1227 Rain 10 1024 100 3000 14.4 190 11:57 18.06.2020
1228 Rain 10 1024 100 3000 13.4 180 11:38 18.06.2020
1229 Rain 10 1024 100 3000 13.4 180 11:18 18.06.2020
1230 Rain 10 1024 100 2700 13.4 180 10:40 18.06.2020
1231 Rain 10 1024 100 2700 13.4 180 10:18 18.06.2020
1232 Mist 10 1024 100 2800 12.3 180 09:46 18.06.2020
1233 Rain 10 1024 100 2800 12.3 180 09:27 18.06.2020
1234 Rain 10 1024 100 3300 11.3 190 08:57 18.06.2020
1235 Rain 10 1024 100 3000 13.4 190 08:37 18.06.2020
1236 Rain 10 1024 100 3000 13.4 190 08:19 18.06.2020
1237 Rain 10 1024 93 4000 10.8 180 07:44 18.06.2020
1238 Rain 10 1024 93 4000 10.8 180 07:25 18.06.2020
1239 Rain 10 1024 100 2300 12.3 190 06:37 18.06.2020
1240 Rain 10 1023 93 5000 12.3 200 05:25 18.06.2020
1241 Rain 10 1023 93 9000 12.9 190 04:18 18.06.2020
1242 Rain 10 1024 93 8000 9.3 170 01:44 18.06.2020
1243 Rain 10 1024 93 8000 9.3 170 01:20 18.06.2020
1244 Rain 10 1024 93 6000 9.8 170 00:52 18.06.2020
1245 Rain 10 1023 93 7000 8.7 170 00:30 18.06.2020
1246 Rain 10 1023 93 6000 9.3 170 23:55 17.06.2020
1247 Rain 10 1023 93 6000 8.2 170 23:36 17.06.2020
1248 Rain 10 1023 93 6000 8.2 170 23:18 17.06.2020
1249 Mist 10 1022 93 4100 8.2 170 22:54 17.06.2020
1250 Rain 10 1022 93 5000 6.7 170 22:36 17.06.2020
1251 Mist 10 1022 93 5000 6.7 170 22:18 17.06.2020
1252 Rain 11 1021 93 4800 7.7 170 21:40 17.06.2020
1253 Rain 11 1021 93 4800 7.7 170 21:21 17.06.2020
1254 Rain 11 1021 100 6000 5.7 150 20:55 17.06.2020
1255 Rain 12 1020 93 7000 2.6 260 20:37 17.06.2020
1256 Rain 12 1020 93 7000 2.6 260 20:18 17.06.2020
1257 Rain 12 1019 93 10000 6.7 10 19:42 17.06.2020
1258 Rain 12 1019 93 10000 6.7 10 19:21 17.06.2020
1259 Rain 12 1019 93 10000 6.7 10 19:21 17.06.2020
1260 Rain 12 1019 93 10000 7.2 10 18:56 17.06.2020
1261 Rain 12 1019 100 10000 7.7 20 18:37 17.06.2020
1262 Rain 12 1019 100 10000 7.7 20 18:37 17.06.2020
1263 Rain 12 1019 100 10000 7.7 20 18:19 17.06.2020
1264 Rain 12 1019 93 10000 9.8 10 17:42 17.06.2020
1265 Rain 12 1019 93 10000 9.8 10 17:21 17.06.2020
1266 Rain 12 1019 93 10000 9.3 10 16:56 17.06.2020
1267 Rain 12 1020 93 10000 8.2 10 16:38 17.06.2020
1268 Rain 12 1020 93 10000 8.2 10 16:19 17.06.2020
1269 Rain 12 1019 93 10000 8.7 20 15:40 17.06.2020
1270 Rain 12 1019 93 10000 8.7 20 15:21 17.06.2020
1271 Rain 12 1020 93 8000 6.7 10 14:59 17.06.2020
1272 Rain 12 1020 93 7000 8.2 10 14:40 17.06.2020
1273 Rain 12 1020 93 7000 8.2 10 14:21 17.06.2020
1274 Rain 12 1020 93 6000 7.7 20 13:58 17.06.2020
1275 Rain 12 1020 93 10000 9.8 10 13:40 17.06.2020
1276 Rain 12 1020 93 10000 9.8 10 13:21 17.06.2020
1277 Rain 13 1020 93 10000 9.8 10 12:55 17.06.2020
1278 Rain 13 1020 93 4800 9.8 10 12:37 17.06.2020
1279 Rain 13 1020 93 4800 9.8 10 12:19 17.06.2020
1280 Haze 13 1020 100 3900 9.8 10 11:44 17.06.2020
1281 Rain 13 1020 100 3900 9.8 10 11:24 17.06.2020
1282 Rain 13 1020 93 5000 10.3 10 10:54 17.06.2020
1283 Rain 13 1020 93 9000 9.3 10 10:36 17.06.2020
1284 Rain 13 1020 93 10000 9.8 10 10:18 17.06.2020
1285 Rain 14 1020 87 10000 10.3 350 09:41 17.06.2020
1286 Rain 14 1020 87 10000 10.3 350 09:21 17.06.2020
1287 Rain 14 1020 87 7000 11.3 350 08:57 17.06.2020
1288 Rain 14 1020 93 4800 12.3 360 08:39 17.06.2020
1289 Rain 14 1020 93 4800 12.3 360 08:19 17.06.2020
1290 Rain 14 1020 100 10000 9.8 360 07:43 17.06.2020
1291 Rain 14 1020 100 10000 9.8 360 07:22 17.06.2020
1292 Rain 14 1020 93 5000 10.8 360 06:56 17.06.2020
1293 Rain 14 1020 93 10000 10.3 350 06:38 17.06.2020
1294 Rain 14 1020 93 10000 10.3 350 06:20 17.06.2020
1295 Rain 14 1020 93 10000 9.8 350 05:29 17.06.2020
1296 Clouds 14 1022 93 10000 9.3 10 03:28 17.06.2020
1297 Clouds 13 1023 93 10000 9.3 20 01:52 17.06.2020
1298 Drizzle 13 1024 93 10000 10.8 10 00:46 17.06.2020
1299 Drizzle 13 1024 93 10000 10.8 10 00:23 17.06.2020
1300 Rain 13 1024 87 10000 9.3 10 23:56 16.06.2020
1301 Rain 13 1024 93 10000 9.8 10 23:37 16.06.2020
1302 Rain 13 1024 93 10000 9.8 10 23:19 16.06.2020
1303 Rain 13 1024 93 10000 8.7 10 22:55 16.06.2020
1304 Rain 13 1024 93 10000 9.3 360 22:37 16.06.2020
1305 Rain 12 1024 93 10000 9.3 360 22:18 16.06.2020
1306 Rain 12 1024 93 10000 9.3 360 21:47 16.06.2020
1307 Rain 12 1024 93 10000 9.3 360 21:24 16.06.2020
1308 Rain 12 1024 93 6000 9.3 10 20:58 16.06.2020
1309 Drizzle 12 1024 93 4100 8.2 20 20:40 16.06.2020
1310 Rain 12 1024 93 4100 8.2 20 20:19 16.06.2020
1311 Rain 12 1024 93 5000 6.7 30 19:58 16.06.2020
1312 Rain 12 1024 100 4400 7.7 20 19:39 16.06.2020
1313 Rain 12 1024 100 4400 7.7 20 19:21 16.06.2020
1314 Drizzle 12 1024 100 4500 9.3 10 18:55 16.06.2020
1315 Rain 12 1024 100 5000 8.2 20 18:36 16.06.2020
1316 Rain 12 1024 100 5000 8.2 20 18:18 16.06.2020
1317 Drizzle 12 1024 100 4700 7.2 20 17:54 16.06.2020
1318 Rain 12 1025 100 4200 7.7 30 17:36 16.06.2020
1319 Rain 12 1025 100 4200 7.7 30 17:18 16.06.2020
1320 Rain 12 1025 100 3000 7.2 20 16:42 16.06.2020
1321 Rain 12 1025 100 3000 7.2 20 16:20 16.06.2020
1322 Rain 12 1025 100 3300 6.7 20 15:58 16.06.2020
1323 Rain 12 1025 93 3000 7.2 30 15:40 16.06.2020
1324 Rain 12 1025 93 3000 7.2 30 15:21 16.06.2020
1325 Rain 13 1025 93 2700 8.2 20 14:57 16.06.2020
1326 Rain 13 1025 93 2500 7.7 20 14:38 16.06.2020
1327 Rain 12 1025 93 2500 7.7 20 14:20 16.06.2020
1328 Rain 13 1025 93 2500 7.7 20 13:48 16.06.2020
1329 Rain 13 1026 93 4300 7.7 20 13:26 16.06.2020
1330 Rain 13 1026 87 9000 7.7 20 12:57 16.06.2020
1331 Rain 13 1026 87 9000 7.2 20 12:38 16.06.2020
1332 Rain 13 1026 87 9000 7.2 20 12:19 16.06.2020
1333 Clouds 13 1026 87 10000 8.2 20 11:54 16.06.2020
1334 Clouds 13 1026 87 10000 7.7 20 11:36 16.06.2020
1335 Clouds 13 1026 87 10000 7.7 20 11:18 16.06.2020
1336 Rain 13 1026 93 6000 8.2 20 10:42 16.06.2020
1337 Rain 13 1026 93 6000 8.2 20 10:20 16.06.2020
1338 Rain 13 1026 87 10000 8.7 10 09:57 16.06.2020
1339 Rain 13 1026 93 9000 7.7 10 09:38 16.06.2020
1340 Rain 13 1026 93 9000 7.7 10 09:20 16.06.2020
1341 Clouds 13 1025 87 10000 8.7 360 08:41 16.06.2020
1342 Clouds 13 1025 87 10000 8.7 360 08:22 16.06.2020
1343 Clouds 13 1025 87 10000 8.7 360 07:46 16.06.2020
1344 Clouds 13 1025 87 10000 8.7 360 07:26 16.06.2020
1345 Clouds 13 1025 87 10000 8.7 360 06:47 16.06.2020
1346 Clouds 13 1025 87 10000 8.7 360 06:19 16.06.2020
1347 Rain 13 1025 93 10000 9.3 360 05:32 16.06.2020
1348 Rain 13 1025 87 6000 8.2 10 04:28 16.06.2020
1349 Rain 13 1025 93 10000 7.7 30 02:56 16.06.2020
1350 Rain 13 1025 87 10000 10.3 20 01:52 16.06.2020
1351 Rain 12 1025 87 10000 11.3 10 01:20 16.06.2020
1352 Rain 12 1025 93 9000 11.8 10 00:40 16.06.2020
1353 Rain 13 1025 93 9000 11.8 10 00:19 16.06.2020
1354 Rain 13 1026 87 10000 8.7 360 23:41 15.06.2020
1355 Rain 13 1026 87 10000 8.7 360 23:22 15.06.2020
1356 Rain 13 1026 93 10000 9.3 10 22:55 15.06.2020
1357 Rain 13 1025 93 10000 10.3 10 22:36 15.06.2020
1358 Rain 13 1025 93 10000 10.3 10 22:18 15.06.2020
1359 Rain 13 1025 87 10000 10.3 10 21:55 15.06.2020
1360 Rain 13 1025 87 10000 9.3 20 21:36 15.06.2020
1361 Rain 13 1025 87 10000 9.3 20 21:36 15.06.2020
1362 Rain 13 1025 87 10000 9.3 10 21:18 15.06.2020
1363 Rain 13 1025 87 10000 9.3 10 21:18 15.06.2020
1364 Rain 12 1025 87 10000 9.3 10 20:54 15.06.2020
1365 Rain 13 1025 87 7000 10.3 360 20:36 15.06.2020
1366 Rain 13 1025 87 7000 10.3 360 20:36 15.06.2020
1367 Rain 13 1025 87 7000 10.3 360 20:18 15.06.2020
1368 Rain 13 1024 82 10000 10.8 340 19:41 15.06.2020
1369 Rain 13 1024 82 10000 10.8 340 19:22 15.06.2020
1370 Rain 13 1024 82 10000 9.8 350 18:59 15.06.2020
1371 Rain 13 1024 87 10000 10.8 360 18:41 15.06.2020
1372 Rain 13 1024 87 10000 10.8 360 18:21 15.06.2020
1373 Rain 13 1024 87 10000 10.8 360 18:21 15.06.2020
1374 Rain 13 1024 82 10000 10.3 360 17:58 15.06.2020
1375 Rain 13 1025 87 10000 10.8 360 17:40 15.06.2020
1376 Rain 13 1025 87 10000 10.8 360 17:40 15.06.2020
1377 Rain 13 1025 87 10000 10.8 360 17:20 15.06.2020
1378 Rain 13 1025 87 6000 7.7 10 16:57 15.06.2020
1379 Rain 12 1025 87 10000 8.7 360 16:39 15.06.2020
1380 Rain 12 1025 87 10000 8.7 360 16:18 15.06.2020
1381 Rain 12 1025 87 6000 9.8 360 15:41 15.06.2020
1382 Rain 12 1025 87 6000 9.8 360 15:21 15.06.2020
1383 Rain 12 1026 87 10000 9.3 360 14:59 15.06.2020
1384 Rain 12 1026 87 10000 9.3 360 14:40 15.06.2020
1385 Rain 12 1026 87 10000 9.3 360 14:20 15.06.2020
1386 Rain 12 1026 87 10000 8.7 350 13:57 15.06.2020
1387 Rain 13 1026 82 6000 9.8 340 13:38 15.06.2020
1388 Rain 13 1026 82 6000 9.8 340 13:18 15.06.2020
1389 Rain 13 1026 76 10000 10.3 340 12:43 15.06.2020
1390 Rain 13 1026 76 10000 10.3 340 12:22 15.06.2020
1391 Rain 13 1026 76 10000 10.8 350 11:59 15.06.2020
1392 Rain 13 1026 76 10000 10.3 350 11:41 15.06.2020
1393 Clouds 13 1026 76 10000 10.3 350 11:23 15.06.2020
1394 Clouds 13 1026 76 10000 10.3 340 10:42 15.06.2020
1395 Rain 13 1026 76 10000 10.3 340 10:22 15.06.2020
1396 Rain 13 1026 76 10000 8.7 350 09:45 15.06.2020
1397 Clouds 13 1026 76 10000 8.7 350 09:23 15.06.2020
1398 Clouds 13 1026 82 10000 9.8 350 08:55 15.06.2020
1399 Clouds 13 1026 82 10000 11.8 350 08:36 15.06.2020
1400 Clouds 13 1026 82 10000 10.3 350 08:18 15.06.2020
1401 Rain 13 1026 93 4600 9.8 350 07:41 15.06.2020
1402 Rain 13 1026 93 4600 9.8 350 07:20 15.06.2020
1403 Rain 12 1026 93 4000 10.3 360 06:30 15.06.2020
1404 Rain 12 1026 93 5000 9.8 360 05:51 15.06.2020
1405 Rain 12 1026 93 7000 9.3 350 05:31 15.06.2020
1406 Rain 12 1027 93 7000 9.3 360 04:23 15.06.2020
1407 Rain 12 1027 93 6000 9.3 10 03:49 15.06.2020
1408 Rain 12 1027 93 7000 8.2 30 03:27 15.06.2020
1409 Rain 12 1028 87 10000 8.7 10 02:33 15.06.2020
1410 Rain 12 1029 87 10000 8.2 20 01:49 15.06.2020
1411 Rain 12 1029 87 10000 9.8 20 01:29 15.06.2020
1412 Rain 11 1030 93 10000 10.3 10 00:45 15.06.2020
1413 Rain 11 1030 93 10000 10.3 10 00:25 15.06.2020
1414 Rain 11 1030 93 10000 9.3 360 23:59 14.06.2020
1415 Rain 11 1030 93 7000 8.7 10 23:41 14.06.2020
1416 Rain 11 1030 93 7000 8.7 10 23:23 14.06.2020
1417 Clouds 11 1030 81 10000 6.2 20 22:58 14.06.2020
1418 Clouds 11 1030 76 10000 6.7 20 22:38 14.06.2020
1419 Clouds 11 1030 76 10000 6.7 20 22:18 14.06.2020
1420 Clouds 11 1030 81 10000 6.2 10 21:57 14.06.2020
1421 Clouds 11 1030 76 10000 6.7 10 21:38 14.06.2020
1422 Clouds 11 1030 76 10000 6.7 10 21:19 14.06.2020
1423 Clouds 11 1030 76 10000 6.7 10 21:19 14.06.2020
1424 Clouds 10 1031 71 10000 6.7 20 20:58 14.06.2020
1425 Clouds 10 1031 71 10000 5.7 10 20:38 14.06.2020
1426 Clouds 10 1031 71 10000 5.7 10 20:19 14.06.2020
1427 Clouds 10 1031 71 10000 4.6 30 19:56 14.06.2020
1428 Clouds 9 1031 71 10000 5.1 20 19:37 14.06.2020
1429 Clouds 9 1031 71 10000 5.1 20 19:19 14.06.2020
1430 Clouds 9 1032 76 10000 3.6 30 18:56 14.06.2020
1431 Clouds 9 1032 81 10000 2.6 340 18:37 14.06.2020
1432 Clouds 8 1032 81 10000 2.6 340 18:19 14.06.2020
1433 Clouds 8 1032 76 10000 3.6 30 17:55 14.06.2020
1434 Clouds 8 1033 87 10000 3.1 330 17:37 14.06.2020
1435 Clouds 8 1033 87 10000 3.1 330 17:19 14.06.2020
1436 Clouds 8 1033 87 10000 2.6 10 16:40 14.06.2020
1437 Clouds 7 1033 87 10000 2.6 10 16:20 14.06.2020
1438 Clouds 7 1034 81 10000 2.1 350 15:58 14.06.2020
1439 Clouds 7 1034 81 10000 2.1 350 15:58 14.06.2020
1440 Clouds 7 1034 81 10000 2.6 10 15:40 14.06.2020
1441 Clouds 7 1034 81 10000 2.6 10 15:18 14.06.2020
1442 Clouds 7 1034 87 10000 2.6 20 14:58 14.06.2020
1443 Clouds 7 1034 87 10000 2.6 20 14:58 14.06.2020
1444 Clouds 6 1034 87 10000 2.6 20 14:40 14.06.2020
1445 Clouds 6 1034 87 10000 2.6 20 14:19 14.06.2020
1446 Clouds 6 1034 87 10000 3.1 10 13:42 14.06.2020
1447 Clear 6 1034 87 10000 3.1 10 13:22 14.06.2020
1448 Clear 6 1034 87 10000 3.6 360 12:59 14.06.2020
1449 Clear 6 1035 87 10000 3.6 20 12:41 14.06.2020
1450 Clear 6 1035 87 10000 3.6 20 12:23 14.06.2020
1451 Clear 6 1035 87 10000 3.6 20 11:59 14.06.2020
1452 Clear 6 1035 93 10000 2.6 20 11:40 14.06.2020
1453 Clear 6 1035 93 10000 2.6 20 11:22 14.06.2020
1454 Clear 6 1035 87 10000 1.5 10 11:00 14.06.2020
1455 Clear 6 1036 87 10000 1.5 20 10:40 14.06.2020
1456 Clear 6 1036 87 10000 1.5 20 10:18 14.06.2020
1457 Clear 5 1035 93 10000 1.5 30 09:44 14.06.2020
1458 Clear 5 1035 93 10000 1.5 30 09:24 14.06.2020
1459 Clear 7 1035 87 10000 1.5 30 08:43 14.06.2020
1460 Clear 7 1035 87 10000 1.5 30 08:22 14.06.2020
1461 Clear 7 1035 87 10000 1 70 07:56 14.06.2020
1462 Clear 8 1036 76 10000 1.5 250 07:35 14.06.2020
1463 Clear 9 1036 76 10000 1.5 200 06:59 14.06.2020
1464 Clear 10 1036 76 10000 2.6 200 05:58 14.06.2020
1465 Clear 10 1036 76 10000 3.1 220 05:39 14.06.2020
1466 Clear 11 1036 71 10000 2.6 180 04:43 14.06.2020
1467 Clear 11 1037 71 10000 2.1 170 03:57 14.06.2020
1468 Clear 10 1038 66 10000 2.6 10 02:44 14.06.2020
1469 Clear 10 1038 66 10000 2.6 10 02:23 14.06.2020
1470 Clear 9 1039 70 10000 2.6 360 01:31 14.06.2020
1471 Clear 9 1039 75 10000 2.6 360 00:49 14.06.2020
1472 Clear 8 1039 75 10000 2.1 30 00:30 14.06.2020
1473 Clear 7 1039 81 10000 2.1 30 23:49 13.06.2020
1474 Clear 6 1039 86 10000 2.6 40 23:31 13.06.2020
1475 Clear 4 1039 93 10000 2.6 30 22:59 13.06.2020
1476 Clear 3 1039 93 10000 1.5 40 22:38 13.06.2020
1477 Clear 4 1039 93 10000 1.5 40 22:20 13.06.2020
1478 Clear 4 1039 93 10000 1.5 40 21:58 13.06.2020
1479 Clear 4 1039 93 10000 2.1 40 21:40 13.06.2020
1480 Clear 4 1039 93 10000 2.1 40 21:21 13.06.2020
1481 Clear 4 1039 100 10000 2.1 80 20:54 13.06.2020
1482 Clear 5 1039 93 10000 1.5 20 20:36 13.06.2020
1483 Clear 4 1039 93 10000 1.5 20 20:18 13.06.2020
1484 Clear 4 1039 93 10000 1 20 19:40 13.06.2020
1485 Clouds 4 1039 93 10000 1 20 19:20 13.06.2020
1486 Clouds 4 1039 93 10000 1 50 18:58 13.06.2020
1487 Clouds 4 1039 93 10000 1 10 18:40 13.06.2020
1488 Clouds 4 1039 93 10000 1 10 18:20 13.06.2020
1489 Clouds 4 1039 93 10000 1 10 18:20 13.06.2020
1490 Clouds 5 1039 86 10000 1.5 70 17:57 13.06.2020
1491 Clouds 5 1039 87 10000 1 330 17:38 13.06.2020
1492 Clouds 5 1039 87 10000 1 330 17:20 13.06.2020
1493 Clouds 5 1039 87 10000 1 80 16:54 13.06.2020
1494 Clouds 5 1039 87 10000 1.5 70 16:36 13.06.2020
1495 Clouds 6 1039 81 10000 1 10 16:18 13.06.2020
1496 Clouds 7 1039 75 10000 0.5 20 15:42 13.06.2020
1497 Clouds 7 1039 75 10000 0.5 20 15:21 13.06.2020
1498 Clouds 7 1039 81 10000 1 30 14:44 13.06.2020
1499 Clouds 7 1039 81 10000 1 30 14:25 13.06.2020
1500 Clouds 7 1039 81 10000 1.5 10 13:58 13.06.2020
1501 Clouds 8 1039 76 10000 2.1 60 13:39 13.06.2020
1502 Clouds 8 1039 76 10000 2.1 60 13:20 13.06.2020
1503 Clouds 8 1039 61 10000 2.1 120 12:43 13.06.2020
1504 Clouds 9 1039 61 10000 2.1 120 12:25 13.06.2020
1505 Clouds 9 1039 61 10000 3.6 140 11:57 13.06.2020
1506 Clouds 9 1039 57 10000 4.1 140 11:38 13.06.2020
1507 Clouds 9 1039 57 10000 4.1 140 11:19 13.06.2020
1508 Clouds 9 1039 61 10000 3.1 130 10:55 13.06.2020
1509 Clouds 10 1039 57 10000 4.6 140 10:37 13.06.2020
1510 Clouds 9 1039 66 10000 4.1 140 10:18 13.06.2020
1511 Clouds 9 1038 71 10000 5.1 150 09:42 13.06.2020
1512 Clouds 9 1038 71 10000 5.1 150 09:20 13.06.2020
1513 Clouds 9 1038 57 10000 4.1 140 08:46 13.06.2020
1514 Clouds 10 1038 57 10000 4.1 140 08:27 13.06.2020
1515 Clouds 10 1038 57 10000 5.7 170 07:45 13.06.2020
1516 Clouds 10 1038 57 10000 5.7 170 07:27 13.06.2020
1517 Clouds 10 1037 62 10000 5.7 160 06:47 13.06.2020
1518 Clouds 10 1037 62 10000 5.7 160 06:27 13.06.2020
1519 Clouds 11 1037 62 10000 5.7 170 05:36 13.06.2020
1520 Clouds 11 1037 62 10000 5.1 160 04:55 13.06.2020
1521 Clouds 11 1037 66 10000 5.1 170 03:46 13.06.2020
1522 Clouds 11 1037 58 10000 5.1 170 02:53 13.06.2020
1523 Clouds 11 1037 62 10000 5.7 160 02:25 13.06.2020
1524 Clouds 10 1037 66 10000 5.1 150 01:26 13.06.2020
1525 Clouds 10 1037 62 10000 5.1 150 00:58 13.06.2020
1526 Clouds 10 1037 61 10000 5.7 170 00:38 13.06.2020
1527 Clouds 9 1037 66 10000 5.7 160 00:19 13.06.2020
1528 Clouds 9 1036 66 10000 6.2 160 23:40 12.06.2020
1529 Clouds 9 1036 66 10000 6.2 160 23:18 12.06.2020
1530 Clouds 8 1036 66 10000 5.7 160 22:56 12.06.2020
1531 Clouds 8 1036 71 10000 6.2 170 22:37 12.06.2020
1532 Clouds 8 1036 71 10000 6.2 170 22:18 12.06.2020
1533 Clouds 8 1035 76 10000 6.7 170 21:44 12.06.2020
1534 Clouds 8 1035 76 10000 6.7 170 21:24 12.06.2020
1535 Clouds 8 1034 70 10000 5.7 170 20:57 12.06.2020
1536 Clouds 8 1034 76 10000 6.2 160 20:39 12.06.2020
1537 Clouds 8 1034 76 10000 6.2 160 20:20 12.06.2020
1538 Clouds 8 1034 70 10000 6.2 160 19:46 12.06.2020
1539 Clouds 8 1034 70 10000 6.2 160 19:22 12.06.2020
1540 Clouds 9 1033 66 10000 6.7 160 18:59 12.06.2020
1541 Clouds 9 1033 61 10000 6.7 140 18:37 12.06.2020
1542 Clouds 9 1033 66 10000 6.7 160 18:18 12.06.2020
1543 Clouds 9 1033 66 10000 6.2 160 17:44 12.06.2020
1544 Clouds 9 1033 66 10000 6.2 160 17:26 12.06.2020
1545 Clouds 9 1033 66 10000 6.7 160 16:47 12.06.2020
1546 Clouds 9 1033 66 10000 6.7 160 16:24 12.06.2020
1547 Rain 9 1032 71 10000 6.2 170 15:59 12.06.2020
1548 Clouds 9 1032 71 10000 6.7 170 15:41 12.06.2020
1549 Clouds 9 1032 71 10000 6.7 170 15:19 12.06.2020
1550 Clouds 9 1032 71 10000 5.1 140 14:42 12.06.2020
1551 Clouds 9 1032 71 10000 5.1 140 14:22 12.06.2020
1552 Clouds 9 1032 71 10000 6.7 140 13:57 12.06.2020
1553 Clouds 9 1031 71 10000 7.7 170 13:39 12.06.2020
1554 Clouds 9 1031 71 10000 7.7 170 13:18 12.06.2020
1555 Clouds 9 1031 71 10000 5.7 150 12:40 12.06.2020
1556 Clouds 9 1031 71 10000 5.7 150 12:19 12.06.2020
1557 Rain 9 1031 71 10000 5.7 140 11:49 12.06.2020
1558 Clouds 9 1030 71 10000 9.8 150 11:23 12.06.2020
1559 Clouds 9 1030 71 10000 7.2 170 10:58 12.06.2020
1560 Clouds 9 1030 61 10000 7.7 170 10:40 12.06.2020
1561 Clouds 9 1030 61 10000 7.7 170 10:21 12.06.2020
1562 Drizzle 9 1029 66 10000 7.2 150 09:44 12.06.2020
1563 Drizzle 9 1029 66 10000 7.2 150 09:21 12.06.2020
1564 Clouds 9 1028 66 10000 8.7 170 08:43 12.06.2020
1565 Clouds 9 1028 66 10000 8.7 170 08:24 12.06.2020
1566 Clouds 9 1027 66 10000 7.7 160 07:43 12.06.2020
1567 Clouds 9 1027 66 10000 7.7 160 07:24 12.06.2020
1568 Clouds 9 1026 76 10000 9.3 160 06:44 12.06.2020
1569 Clouds 9 1026 76 10000 9.3 160 06:24 12.06.2020
1570 Clouds 10 1025 81 10000 9.3 140 05:50 12.06.2020
1571 Clouds 11 1024 71 10000 8.2 170 05:26 12.06.2020
1572 Rain 11 1023 76 10000 7.7 180 03:58 12.06.2020
1573 Rain 12 1022 87 9000 9.3 190 02:43 12.06.2020
1574 Rain 14 1021 72 10000 5.1 310 01:51 12.06.2020
1575 Rain 14 1021 72 10000 5.7 320 01:21 12.06.2020
1576 Rain 14 1020 72 10000 7.2 330 00:41 12.06.2020
1577 Clouds 14 1020 72 10000 7.2 330 00:22 12.06.2020
1578 Clouds 14 1020 72 10000 6.7 320 23:58 11.06.2020
1579 Clouds 14 1019 72 10000 5.7 330 23:39 11.06.2020
1580 Clouds 14 1019 72 10000 5.7 330 23:20 11.06.2020
1581 Clouds 14 1019 71 10000 5.7 350 22:56 11.06.2020
1582 Clouds 13 1018 76 10000 5.7 350 22:38 11.06.2020
1583 Clouds 13 1018 76 10000 5.7 350 22:38 11.06.2020
1584 Clouds 13 1018 76 10000 5.7 350 22:19 11.06.2020
1585 Clouds 13 1017 76 10000 7.7 330 21:43 11.06.2020
1586 Clouds 13 1017 76 10000 7.7 330 21:21 11.06.2020
1587 Clouds 13 1018 71 10000 6.2 350 20:59 11.06.2020
1588 Clouds 13 1018 71 10000 7.2 340 20:41 11.06.2020
1589 Clouds 13 1018 71 10000 7.2 340 20:21 11.06.2020
1590 Clouds 13 1017 71 10000 7.2 330 19:44 11.06.2020
1591 Clouds 13 1017 71 10000 7.2 330 19:23 11.06.2020
1592 Clouds 13 1017 71 10000 7.2 330 19:23 11.06.2020
1593 Clouds 13 1017 71 10000 5.7 350 18:58 11.06.2020
1594 Clouds 13 1017 76 10000 7.7 360 18:40 11.06.2020
1595 Clouds 13 1017 76 10000 7.7 360 18:20 11.06.2020
1596 Clouds 13 1017 76 10000 7.2 350 17:56 11.06.2020
1597 Clouds 13 1018 76 10000 7.2 360 17:37 11.06.2020
1598 Clouds 13 1018 76 10000 7.2 360 17:19 11.06.2020
1599 Clouds 13 1017 76 10000 6.7 360 16:45 11.06.2020
1600 Clouds 13 1017 71 10000 5.1 360 16:27 11.06.2020
1601 Clouds 13 1017 71 10000 8.2 340 15:59 11.06.2020
1602 Clouds 13 1017 71 10000 8.2 340 15:40 11.06.2020
1603 Clouds 13 1017 71 10000 5.1 350 15:22 11.06.2020
1604 Clouds 13 1018 71 10000 5.1 340 14:46 11.06.2020
1605 Clouds 13 1017 71 10000 6.2 330 14:22 11.06.2020
1606 Clouds 13 1016 71 10000 8.2 340 13:58 11.06.2020
1607 Clouds 13 1017 67 10000 9.3 10 13:39 11.06.2020
1608 Clouds 13 1017 67 10000 9.3 10 13:21 11.06.2020
1609 Clouds 13 1018 76 10000 7.2 10 12:59 11.06.2020
1610 Clouds 13 1018 67 10000 8.2 360 12:39 11.06.2020
1611 Clouds 13 1018 67 10000 8.2 360 12:20 11.06.2020
1612 Clouds 13 1018 67 10000 7.7 350 11:58 11.06.2020
1613 Clouds 13 1018 71 10000 8.7 360 11:40 11.06.2020
1614 Clouds 13 1018 71 10000 8.7 360 11:21 11.06.2020
1615 Clouds 13 1018 71 10000 8.7 360 11:21 11.06.2020
1616 Clouds 13 1018 76 10000 10.3 10 10:57 11.06.2020
1617 Clouds 13 1018 76 10000 8.2 20 10:38 11.06.2020
1618 Clouds 13 1018 76 10000 8.2 20 10:18 11.06.2020
1619 Clouds 13 1018 76 10000 7.7 20 09:42 11.06.2020
1620 Clear 13 1019 76 10000 7.7 20 09:23 11.06.2020
1621 Clear 12 1018 76 10000 10.8 10 08:44 11.06.2020
1622 Clear 13 1018 82 10000 10.8 360 08:20 11.06.2020
1623 Clear 13 1018 82 10000 10.3 10 07:58 11.06.2020
1624 Clear 13 1018 76 10000 11.3 10 07:40 11.06.2020
1625 Clear 13 1018 76 10000 11.3 10 07:20 11.06.2020
1626 Clear 13 1019 71 10000 9.8 360 06:28 11.06.2020
1627 Clear 13 1019 67 10000 9.3 360 05:39 11.06.2020
1628 Clear 14 1019 62 10000 9.8 360 03:54 11.06.2020
1629 Clear 14 1019 62 10000 10.8 360 03:23 11.06.2020
1630 Clear 14 1020 62 10000 9.8 10 02:32 11.06.2020
1631 Clouds 14 1020 58 10000 8.7 360 01:51 11.06.2020
1632 Clouds 14 1021 62 10000 8.7 10 01:25 11.06.2020
1633 Clouds 13 1021 62 10000 8.2 10 00:50 11.06.2020
1634 Clouds 13 1021 62 10000 8.2 10 00:29 11.06.2020
1635 Clouds 13 1021 62 10000 9.3 20 23:47 10.06.2020
1636 Clouds 12 1021 66 10000 8.2 10 23:27 10.06.2020
1637 Clouds 12 1021 66 10000 8.2 20 22:57 10.06.2020
1638 Clouds 12 1021 71 10000 7.7 20 22:38 10.06.2020
1639 Clouds 12 1021 71 10000 7.7 20 22:19 10.06.2020
1640 Clouds 12 1021 76 10000 8.2 30 21:58 10.06.2020
1641 Clouds 12 1020 71 10000 9.3 30 21:39 10.06.2020
1642 Clouds 12 1020 71 10000 9.3 30 21:18 10.06.2020
1643 Clouds 12 1020 71 10000 8.7 20 20:57 10.06.2020
1644 Clouds 12 1020 71 10000 8.7 20 20:57 10.06.2020
1645 Clouds 12 1020 76 10000 7.2 20 20:39 10.06.2020
1646 Clouds 12 1020 76 10000 7.2 20 20:21 10.06.2020
1647 Clouds 11 1020 81 10000 10.8 10 19:41 10.06.2020
1648 Clear 12 1020 81 10000 10.3 10 19:20 10.06.2020
1649 Clear 11 1020 81 10000 10.3 10 18:59 10.06.2020
1650 Clear 11 1020 81 10000 11.3 360 18:41 10.06.2020
1651 Clear 11 1021 81 10000 10.3 10 18:20 10.06.2020
1652 Clear 11 1021 81 10000 10.3 10 17:56 10.06.2020
1653 Clear 11 1021 81 10000 8.7 20 17:37 10.06.2020
1654 Clear 11 1021 81 10000 8.7 20 17:19 10.06.2020
1655 Clear 11 1021 81 10000 8.7 20 16:57 10.06.2020
1656 Clear 11 1021 81 10000 9.3 20 16:39 10.06.2020
1657 Clear 11 1021 81 10000 9.3 20 16:20 10.06.2020
1658 Clear 11 1022 87 10000 8.2 20 15:41 10.06.2020
1659 Clear 11 1022 87 10000 8.2 20 15:22 10.06.2020
1660 Clear 11 1022 81 10000 8.7 10 14:59 10.06.2020
1661 Clear 11 1022 81 10000 7.2 20 14:40 10.06.2020
1662 Clear 11 1022 81 10000 7.2 20 14:21 10.06.2020
1663 Clear 11 1023 81 10000 6.2 20 13:41 10.06.2020
1664 Clear 11 1023 81 10000 6.2 20 13:22 10.06.2020
1665 Clear 11 1023 81 10000 6.2 20 12:55 10.06.2020
1666 Clear 11 1023 81 10000 6.7 20 12:37 10.06.2020
1667 Clear 11 1023 81 10000 6.7 20 12:18 10.06.2020
1668 Clear 11 1024 87 10000 6.2 30 11:42 10.06.2020
1669 Clear 11 1024 87 10000 6.2 30 11:20 10.06.2020
1670 Clear 11 1024 81 10000 6.7 30 10:58 10.06.2020
1671 Clear 11 1024 76 10000 6.2 20 10:40 10.06.2020
1672 Clear 11 1023 81 10000 6.2 20 10:21 10.06.2020
1673 Clear 11 1023 81 10000 5.7 20 09:44 10.06.2020
1674 Clear 11 1023 81 10000 5.7 20 09:25 10.06.2020
1675 Clear 11 1023 81 10000 6.2 20 08:58 10.06.2020
1676 Clear 11 1023 76 10000 5.7 20 08:39 10.06.2020
1677 Clouds 11 1023 76 10000 5.7 20 08:21 10.06.2020
1678 Clouds 11 1023 76 10000 7.2 10 07:41 10.06.2020
1679 Clouds 11 1023 76 10000 7.2 10 07:23 10.06.2020
1680 Clouds 11 1023 76 10000 8.2 10 06:50 10.06.2020
1681 Clouds 12 1023 76 10000 8.2 10 06:30 10.06.2020
1682 Clouds 12 1023 76 10000 8.7 10 05:58 10.06.2020
1683 Clouds 12 1023 71 10000 8.2 10 05:29 10.06.2020
1684 Clouds 13 1023 71 10000 7.7 360 04:46 10.06.2020
1685 Clouds 13 1023 71 10000 7.2 360 04:28 10.06.2020
1686 Clouds 13 1025 71 10000 8.2 10 02:24 10.06.2020
1687 Clouds 13 1025 71 10000 5.7 20 01:39 10.06.2020
1688 Clouds 11 1026 76 10000 6.7 10 00:41 10.06.2020
1689 Clouds 11 1026 76 10000 6.7 10 00:23 10.06.2020
1690 Clouds 11 1026 81 10000 6.2 10 23:59 09.06.2020
1691 Clouds 10 1025 87 10000 6.7 360 23:41 09.06.2020
1692 Clouds 10 1025 87 10000 6.7 360 23:22 09.06.2020
1693 Clouds 9 1025 87 10000 5.7 10 22:56 09.06.2020
1694 Clouds 9 1025 87 10000 5.1 30 22:38 09.06.2020
1695 Clear 9 1025 87 10000 5.1 30 22:20 09.06.2020
1696 Clear 9 1025 93 10000 5.7 30 21:57 09.06.2020
1697 Clear 9 1025 93 10000 5.7 30 21:57 09.06.2020
1698 Clear 9 1025 93 10000 5.7 20 21:38 09.06.2020
1699 Clouds 9 1025 93 10000 5.7 20 21:20 09.06.2020
1700 Clouds 9 1025 87 10000 5.1 30 20:57 09.06.2020
1701 Clouds 8 1024 93 10000 4.1 20 20:38 09.06.2020
1702 Clear 8 1024 93 10000 4.1 20 20:20 09.06.2020
1703 Clear 7 1024 100 10000 3.6 10 19:57 09.06.2020
1704 Clear 7 1024 93 10000 3.1 20 19:39 09.06.2020
1705 Clear 7 1024 93 10000 3.1 20 19:20 09.06.2020
1706 Clear 7 1024 93 10000 3.6 20 18:57 09.06.2020
1707 Clear 7 1024 87 10000 3.1 10 18:38 09.06.2020
1708 Clear 8 1024 87 10000 3.1 10 18:19 09.06.2020
1709 Clear 7 1024 93 10000 3.1 20 17:55 09.06.2020
1710 Clear 7 1024 93 10000 3.1 20 17:55 09.06.2020
1711 Clear 7 1025 93 10000 3.1 360 17:36 09.06.2020
1712 Clear 7 1025 93 10000 3.1 360 17:18 09.06.2020
1713 Clear 7 1025 87 10000 3.1 360 16:42 09.06.2020
1714 Clear 7 1025 93 10000 3.6 360 16:23 09.06.2020
1715 Clear 7 1025 93 10000 3.1 10 15:55 09.06.2020
1716 Clear 7 1025 93 10000 4.1 20 15:37 09.06.2020
1717 Clear 7 1025 93 10000 4.1 20 15:19 09.06.2020
1718 Clear 7 1025 87 10000 2.6 30 14:41 09.06.2020
1719 Clear 7 1025 87 10000 2.1 30 14:21 09.06.2020
1720 Clear 7 1025 87 10000 2.6 30 13:59 09.06.2020
1721 Clear 7 1025 87 10000 2.1 40 13:41 09.06.2020
1722 Clear 7 1024 87 10000 2.6 30 13:21 09.06.2020
1723 Clear 7 1024 87 10000 2.6 30 12:56 09.06.2020
1724 Clear 7 1024 93 10000 2.6 30 12:37 09.06.2020
1725 Clear 7 1024 93 10000 2.6 30 12:18 09.06.2020
1726 Clear 7 1024 93 10000 1.5 30 11:55 09.06.2020
1727 Clear 7 1024 87 10000 2.1 40 11:36 09.06.2020
1728 Clear 7 1024 87 10000 2.1 40 11:18 09.06.2020
1729 Clear 8 1024 87 10000 1.5 50 10:42 09.06.2020
1730 Clear 8 1023 87 10000 2.1 30 10:24 09.06.2020
1731 Clear 8 1023 81 8000 1 360 09:44 09.06.2020
1732 Clouds 8 1023 81 10000 1 40 09:25 09.06.2020
1733 Clouds 9 1023 81 10000 1 30 08:57 09.06.2020
1734 Clouds 9 1022 81 8000 0.5 10 08:38 09.06.2020
1735 Clear 10 1022 81 8000 0.5 10 08:20 09.06.2020
1736 Clear 11 1021 71 10000 1 210 07:38 09.06.2020
1737 Clear 12 1021 71 10000 1 210 07:20 09.06.2020
1738 Clear 12 1021 66 10000 1.5 180 06:54 09.06.2020
1739 Clear 12 1021 62 10000 2.1 190 06:35 09.06.2020
1740 Clear 14 1021 58 10000 2.1 190 05:35 09.06.2020
1741 Clear 15 1020 58 10000 1.5 170 03:47 09.06.2020
1742 Clouds 13 1021 67 10000 3.1 30 01:44 09.06.2020
1743 Clouds 13 1021 71 10000 2.6 350 01:19 09.06.2020
1744 Clouds 11 1020 76 10000 3.6 360 00:55 09.06.2020
1745 Clouds 12 1020 81 10000 2.1 360 00:36 09.06.2020
1746 Clouds 11 1020 81 10000 3.1 10 00:18 09.06.2020
1747 Clouds 11 1019 81 10000 2.1 360 23:40 08.06.2020
1748 Clouds 11 1019 81 10000 2.1 360 23:19 08.06.2020
1749 Clouds 10 1019 87 10000 3.6 10 22:54 08.06.2020
1750 Clouds 9 1019 81 10000 2.6 10 22:36 08.06.2020
1751 Clouds 9 1019 81 10000 2.6 10 22:18 08.06.2020
1752 Clouds 9 1018 81 10000 4.1 20 21:54 08.06.2020
1753 Clouds 10 1018 76 10000 3.6 30 21:36 08.06.2020
1754 Clouds 10 1018 76 10000 3.6 30 21:18 08.06.2020
1755 Clouds 10 1018 76 10000 4.1 40 20:54 08.06.2020
1756 Clouds 10 1018 76 10000 3.6 10 20:36 08.06.2020
1757 Clear 10 1018 76 10000 3.6 10 20:18 08.06.2020
1758 Clear 10 1017 71 10000 4.6 360 19:41 08.06.2020
1759 Clear 10 1017 71 10000 4.6 350 19:20 08.06.2020
1760 Clear 11 1017 71 10000 4.1 350 18:41 08.06.2020
1761 Clear 11 1017 71 10000 4.1 350 18:20 08.06.2020
1762 Clear 11 1017 71 10000 3.1 10 17:57 08.06.2020
1763 Clear 11 1017 71 10000 3.6 30 17:39 08.06.2020
1764 Clear 11 1017 71 10000 3.6 30 17:20 08.06.2020
1765 Clear 10 1018 70 10000 3.1 20 16:46 08.06.2020
1766 Clear 10 1018 66 10000 3.1 20 16:25 08.06.2020
1767 Clear 10 1017 76 10000 4.1 30 15:59 08.06.2020
1768 Clear 11 1017 76 10000 4.1 30 15:41 08.06.2020
1769 Clear 11 1018 76 10000 2.1 10 15:21 08.06.2020
1770 Clear 11 1018 81 10000 2.6 20 14:56 08.06.2020
1771 Clear 11 1018 87 10000 3.1 350 14:38 08.06.2020
1772 Clear 11 1018 87 10000 3.1 350 14:18 08.06.2020
1773 Clear 10 1018 87 10000 4.1 10 13:42 08.06.2020
1774 Clear 10 1018 87 10000 4.1 10 13:21 08.06.2020
1775 Clear 10 1018 81 10000 4.1 360 12:42 08.06.2020
1776 Clear 10 1018 81 10000 4.1 360 12:19 08.06.2020
1777 Clear 10 1018 81 10000 4.6 10 11:58 08.06.2020
1778 Clear 10 1018 81 10000 4.1 10 11:39 08.06.2020
1779 Clear 10 1018 81 10000 4.1 10 11:20 08.06.2020
1780 Clear 10 1018 81 10000 3.6 360 10:56 08.06.2020
1781 Clear 10 1018 76 10000 4.1 20 10:37 08.06.2020
1782 Clear 10 1018 76 10000 4.1 20 10:19 08.06.2020
1783 Clear 11 1018 76 10000 4.1 20 09:46 08.06.2020
1784 Clear 11 1018 76 10000 4.6 20 09:23 08.06.2020
1785 Clear 10 1017 76 10000 5.1 30 08:50 08.06.2020
1786 Clear 10 1017 76 10000 4.6 20 08:24 08.06.2020
1787 Clear 11 1017 71 10000 5.1 30 07:56 08.06.2020
1788 Clear 11 1017 71 10000 5.1 30 07:56 08.06.2020
1789 Clear 11 1017 66 10000 4.1 30 07:38 08.06.2020
1790 Clear 11 1017 66 10000 4.1 30 07:19 08.06.2020
1791 Clear 12 1017 58 10000 5.1 10 06:39 08.06.2020
1792 Clear 13 1017 58 10000 5.1 10 05:55 08.06.2020
1793 Clear 14 1017 41 10000 3.1 10 04:59 08.06.2020
1794 Clear 14 1017 47 10000 4.1 360 03:24 08.06.2020
1795 Clear 13 1017 50 10000 4.1 10 02:26 08.06.2020
1796 Clear 13 1017 54 10000 3.6 20 01:43 08.06.2020
1797 Clear 11 1018 81 10000 3.6 360 00:57 08.06.2020
1798 Clear 10 1017 81 10000 3.6 360 00:25 08.06.2020
1799 Clear 8 1017 93 10000 2.6 360 23:39 07.06.2020
1800 Clear 7 1017 93 10000 2.6 360 23:19 07.06.2020
1801 Clear 7 1017 93 10000 2.6 10 22:57 07.06.2020
1802 Clear 7 1016 87 10000 2.1 360 22:37 07.06.2020
1803 Clear 9 1016 87 10000 2.1 360 22:18 07.06.2020
1804 Clear 7 1016 87 10000 3.1 340 21:58 07.06.2020
1805 Clear 7 1016 87 10000 3.1 360 21:36 07.06.2020
1806 Clear 7 1016 87 10000 3.1 360 21:18 07.06.2020
1807 Clear 6 1016 87 10000 3.6 20 20:39 07.06.2020
1808 Clear 6 1016 87 10000 3.6 20 20:21 07.06.2020
1809 Clear 7 1016 87 10000 4.6 10 19:57 07.06.2020
1810 Clear 7 1016 87 10000 4.1 20 19:39 07.06.2020
1811 Clear 7 1016 87 10000 3.1 10 19:20 07.06.2020
1812 Clear 6 1016 87 10000 3.1 10 18:59 07.06.2020
1813 Clear 6 1016 87 10000 1.5 360 18:38 07.06.2020
1814 Clear 6 1016 87 10000 1.5 360 18:38 07.06.2020
1815 Clear 6 1016 87 10000 1.5 360 18:20 07.06.2020
1816 Clear 7 1016 87 10000 3.1 40 17:57 07.06.2020
1817 Clear 7 1016 87 10000 3.1 350 17:38 07.06.2020
1818 Clear 6 1016 87 10000 3.1 350 17:20 07.06.2020
1819 Clear 6 1016 86 10000 2.6 10 16:43 07.06.2020
1820 Clear 7 1016 81 10000 3.1 40 16:21 07.06.2020
1821 Clear 7 1016 87 10000 2.1 40 15:44 07.06.2020
1822 Clear 7 1015 87 10000 2.1 40 15:22 07.06.2020
1823 Clear 7 1015 81 10000 3.1 30 14:41 07.06.2020
1824 Clear 7 1015 87 10000 2.6 30 14:22 07.06.2020
1825 Clear 8 1015 87 10000 2.6 30 13:55 07.06.2020
1826 Clear 8 1015 87 10000 2.1 20 13:24 07.06.2020
1827 Clear 6 1014 81 10000 1.5 350 12:59 07.06.2020
1828 Clear 6 1014 81 10000 2.6 10 12:40 07.06.2020
1829 Clear 8 1014 81 10000 2.6 10 12:22 07.06.2020
1830 Clear 8 1014 81 10000 2.6 10 12:22 07.06.2020
1831 Clear 9 1014 76 10000 2.1 360 11:55 07.06.2020
1832 Clear 9 1014 81 10000 2.1 20 11:37 07.06.2020
1833 Clear 9 1014 81 10000 2.1 20 11:19 07.06.2020
1834 Clear 9 1014 81 10000 2.1 20 11:19 07.06.2020
1835 Clear 9 1014 81 10000 3.1 20 10:54 07.06.2020
1836 Clear 9 1014 76 10000 3.1 340 10:36 07.06.2020
1837 Clear 9 1014 76 10000 3.1 340 10:18 07.06.2020
1838 Clear 9 1013 71 10000 3.6 40 09:41 07.06.2020
1839 Clouds 9 1013 71 10000 4.1 30 09:21 07.06.2020
1840 Clouds 9 1013 76 10000 3.6 360 08:59 07.06.2020
1841 Clouds 9 1013 76 10000 3.6 360 08:40 07.06.2020
1842 Clouds 9 1013 76 10000 3.6 360 08:40 07.06.2020
1843 Clouds 9 1013 71 10000 2.1 360 08:22 07.06.2020
1844 Clouds 10 1012 66 10000 3.1 10 07:41 07.06.2020
1845 Clouds 10 1012 62 10000 2.6 30 06:56 07.06.2020
1846 Clouds 11 1012 58 10000 3.1 10 06:21 07.06.2020
1847 Clouds 12 1012 58 10000 4.1 350 04:22 07.06.2020
1848 Clouds 12 1012 58 10000 4.1 340 03:50 07.06.2020
1849 Clouds 11 1012 81 10000 5.1 30 02:19 07.06.2020
1850 Clouds 10 1013 81 10000 5.7 40 01:26 07.06.2020
1851 Clouds 10 1013 87 10000 6.2 40 00:59 07.06.2020
1852 Clouds 9 1013 87 10000 5.1 30 00:39 07.06.2020
1853 Clouds 8 1013 87 10000 5.1 30 00:18 07.06.2020
1854 Clouds 7 1013 93 10000 3.6 30 23:38 06.06.2020
1855 Clouds 7 1013 93 10000 3.6 30 23:38 06.06.2020
1856 Clouds 7 1013 93 10000 3.6 30 23:20 06.06.2020
1857 Clouds 6 1013 100 10000 2.1 10 22:58 06.06.2020
1858 Clouds 6 1013 100 10000 2.1 10 22:39 06.06.2020
1859 Clouds 6 1012 93 10000 2.1 30 22:20 06.06.2020
1860 Clouds 6 1012 100 10000 1.5 20 21:56 06.06.2020
1861 Clouds 6 1012 93 10000 1.5 40 21:38 06.06.2020
1862 Clouds 6 1012 93 10000 1.5 40 21:19 06.06.2020
1863 Clouds 7 1012 93 10000 2.1 10 20:40 06.06.2020
1864 Clouds 7 1012 81 10000 2.1 170 20:20 06.06.2020
1865 Clouds 7 1012 81 10000 3.6 200 19:58 06.06.2020
1866 Rain 7 1012 93 10000 4.1 180 19:40 06.06.2020
1867 Rain 7 1012 93 10000 4.1 180 19:21 06.06.2020
1868 Rain 8 1011 87 10000 6.2 180 18:56 06.06.2020
1869 Rain 8 1011 87 10000 5.7 180 18:37 06.06.2020
1870 Rain 8 1011 87 10000 5.7 180 18:18 06.06.2020
1871 Rain 8 1011 87 8000 8.7 190 17:43 06.06.2020
1872 Rain 8 1011 93 4700 8.7 200 17:20 06.06.2020
1873 Clouds 8 1011 93 10000 10.3 200 16:56 06.06.2020
1874 Clouds 8 1011 93 10000 9.8 200 16:38 06.06.2020
1875 Rain 8 1011 93 10000 9.8 200 16:20 06.06.2020
1876 Rain 8 1011 93 10000 11.3 200 15:44 06.06.2020
1877 Rain 8 1011 87 10000 10.8 200 15:20 06.06.2020
1878 Rain 8 1011 93 10000 10.3 200 14:59 06.06.2020
1879 Rain 8 1010 93 10000 11.8 210 14:38 06.06.2020
1880 Rain 8 1010 93 10000 11.8 210 14:19 06.06.2020
1881 Rain 8 1010 87 10000 11.3 200 13:47 06.06.2020
1882 Rain 8 1010 87 10000 10.3 190 13:19 06.06.2020
1883 Rain 8 1010 87 10000 10.3 190 12:58 06.06.2020
1884 Rain 8 1010 87 10000 10.8 190 12:39 06.06.2020
1885 Rain 8 1010 87 10000 10.8 190 12:20 06.06.2020
1886 Rain 8 1010 87 10000 11.3 200 11:55 06.06.2020
1887 Rain 8 1010 93 10000 10.8 190 11:37 06.06.2020
1888 Rain 8 1010 93 10000 10.8 190 11:18 06.06.2020
1889 Rain 8 1010 93 7000 11.8 200 10:56 06.06.2020
1890 Haze 8 1009 93 3900 12.9 200 10:38 06.06.2020
1891 Rain 8 1009 93 3900 12.9 200 10:19 06.06.2020
1892 Rain 8 1009 93 6000 12.3 200 09:44 06.06.2020
1893 Rain 9 1009 81 10000 10.3 190 09:25 06.06.2020
1894 Rain 10 1008 87 10000 10.8 190 08:48 06.06.2020
1895 Clouds 10 1007 87 10000 10.3 190 08:25 06.06.2020
1896 Clouds 11 1007 81 10000 9.8 200 07:57 06.06.2020
1897 Clouds 11 1007 81 10000 10.3 200 07:39 06.06.2020
1898 Clouds 11 1005 71 10000 5.1 350 07:20 06.06.2020
1899 Clouds 12 1005 71 10000 6.7 10 06:45 06.06.2020
1900 Clouds 12 1005 71 10000 6.7 10 06:26 06.06.2020
1901 Clouds 12 1004 76 10000 7.7 10 05:44 06.06.2020
1902 Clouds 13 1004 71 10000 8.2 10 05:23 06.06.2020
1903 Clouds 13 1004 67 10000 8.7 360 03:46 06.06.2020
1904 Clouds 14 1003 67 10000 7.7 20 02:36 06.06.2020
1905 Clear 13 1004 71 10000 7.7 10 01:23 06.06.2020
1906 Clear 12 1004 71 10000 8.2 360 00:58 06.06.2020
1907 Clear 12 1003 71 10000 7.7 360 00:40 06.06.2020
1908 Clear 12 1003 71 10000 7.7 360 00:21 06.06.2020
1909 Clear 12 999 83 0 3.92 303 23:40 05.06.2020
1910 Clouds 11 1003 81 10000 5.7 10 23:20 05.06.2020
1911 Clouds 11 1003 81 10000 5.7 10 23:20 05.06.2020
1912 Clouds 11 1003 81 10000 5.7 20 22:57 05.06.2020
1913 Clouds 11 1003 87 10000 5.1 20 22:39 05.06.2020
1914 Clouds 10 1003 87 10000 5.1 20 22:20 05.06.2020
1915 Clouds 10 1003 93 10000 6.2 20 21:54 05.06.2020
1916 Clouds 10 1003 93 10000 6.2 20 21:36 05.06.2020
1917 Clouds 10 1003 93 10000 6.2 20 21:18 05.06.2020
1918 Clouds 10 1003 87 10000 6.2 30 20:44 05.06.2020
1919 Clouds 10 1003 87 10000 6.7 30 20:22 05.06.2020
1920 Clouds 10 1003 87 10000 5.7 20 19:44 05.06.2020
1921 Clouds 9 1003 87 10000 5.7 20 19:24 05.06.2020
1922 Clouds 9 1004 93 10000 5.7 30 18:59 05.06.2020
1923 Clouds 9 1004 87 10000 5.7 20 18:39 05.06.2020
1924 Clouds 9 1004 87 10000 5.7 20 18:20 05.06.2020
1925 Clouds 8 1005 93 10000 4.6 10 17:59 05.06.2020
1926 Clouds 8 1005 93 10000 4.6 10 17:40 05.06.2020
1927 Clouds 7 1005 93 10000 4.1 20 17:20 05.06.2020
1928 Clouds 6 1005 93 10000 3.6 20 16:43 05.06.2020
1929 Clouds 6 1006 93 10000 3.1 10 16:24 05.06.2020
1930 Clouds 6 1006 87 10000 2.6 10 15:59 05.06.2020
1931 Clouds 6 1006 87 10000 3.6 20 15:38 05.06.2020
1932 Clouds 7 1006 87 10000 3.6 20 15:20 05.06.2020
1933 Clouds 7 1007 87 10000 2.6 30 14:57 05.06.2020
1934 Clouds 6 1007 93 10000 3.1 10 14:39 05.06.2020
1935 Clouds 6 1007 93 10000 3.1 10 14:21 05.06.2020
1936 Clouds 6 1007 93 10000 2.1 30 13:44 05.06.2020
1937 Clouds 6 1007 93 10000 1.5 20 13:26 05.06.2020
1938 Clouds 7 1007 93 10000 2.6 50 12:55 05.06.2020
1939 Clouds 7 1007 87 10000 1.5 50 12:37 05.06.2020
1940 Clouds 8 1007 87 10000 1.5 50 12:18 05.06.2020
1941 Clouds 8 1007 81 10000 1 130 11:42 05.06.2020
1942 Clouds 8 1007 81 10000 1.5 180 11:23 05.06.2020
1943 Clouds 8 1007 87 10000 4.6 160 10:57 05.06.2020
1944 Clouds 8 1007 76 10000 4.1 180 10:38 05.06.2020
1945 Clouds 8 1007 76 10000 4.1 180 10:19 05.06.2020
1946 Clouds 8 1007 81 10000 5.1 180 09:56 05.06.2020
1947 Clouds 8 1007 76 10000 5.1 170 09:37 05.06.2020
1948 Clouds 8 1007 76 10000 5.1 170 09:37 05.06.2020
1949 Clouds 8 1007 76 10000 5.1 170 09:18 05.06.2020
1950 Clouds 8 1007 76 10000 6.2 170 08:56 05.06.2020
1951 Clouds 9 1007 81 10000 6.7 160 08:38 05.06.2020
1952 Clouds 9 1007 81 10000 6.7 160 08:18 05.06.2020
1953 Clouds 9 1007 81 10000 6.7 170 07:48 05.06.2020
1954 Clouds 9 1007 87 10000 9.3 170 07:30 05.06.2020
1955 Clouds 9 1007 81 10000 8.2 180 06:37 05.06.2020
1956 Clouds 9 1007 87 10000 9.8 190 05:22 05.06.2020
1957 Clouds 9 1007 87 10000 10.8 190 04:27 05.06.2020
1958 Clouds 10 1008 87 10000 10.8 190 03:29 05.06.2020
1959 Clouds 9 1008 87 10000 13.4 190 02:28 05.06.2020
1960 Clouds 10 1008 81 10000 12.3 190 01:58 05.06.2020
1961 Clouds 10 1008 81 10000 12.9 190 01:30 05.06.2020
1962 Clouds 10 1008 81 10000 11.3 180 00:43 05.06.2020
1963 Clouds 10 1008 81 10000 11.3 180 00:21 05.06.2020
1964 Clouds 10 1008 81 10000 12.9 190 23:47 04.06.2020
1965 Clouds 10 1008 81 10000 11.8 190 23:29 04.06.2020
1966 Clouds 10 1007 81 10000 11.8 190 22:57 04.06.2020
1967 Clouds 10 1007 81 10000 12.3 190 22:37 04.06.2020
1968 Rain 9 1007 81 10000 12.3 190 22:18 04.06.2020
1969 Rain 9 1002 88 0 10.77 189 21:57 04.06.2020
1970 Rain 10 1006 87 10000 13.4 190 21:38 04.06.2020
1971 Rain 9 1006 87 10000 13.4 190 21:19 04.06.2020
1972 Rain 10 1006 87 9000 13.4 190 20:55 04.06.2020
1973 Rain 9 1006 87 9000 13.9 190 20:37 04.06.2020
1974 Rain 10 1006 87 9000 13.9 190 20:18 04.06.2020
1975 Rain 10 1006 87 8000 14.4 190 19:40 04.06.2020
1976 Rain 9 1006 87 8000 14.4 190 19:21 04.06.2020
1977 Rain 9 1006 87 8000 14.4 190 19:21 04.06.2020
1978 Rain 10 1006 93 9000 13.9 190 18:56 04.06.2020
1979 Rain 10 1006 93 7000 12.9 190 18:38 04.06.2020
1980 Rain 10 1006 93 7000 12.9 190 18:20 04.06.2020
1981 Rain 10 1006 93 7000 12.9 190 17:43 04.06.2020
1982 Rain 10 1006 100 6000 12.9 190 17:21 04.06.2020
1983 Rain 10 1006 100 3500 12.9 190 16:57 04.06.2020
1984 Rain 10 1006 93 7000 12.9 190 16:39 04.06.2020
1985 Rain 10 1006 93 7000 12.9 190 16:18 04.06.2020
1986 Rain 10 1006 93 8000 13.4 190 15:43 04.06.2020
1987 Rain 10 1006 93 7000 12.9 190 15:24 04.06.2020
1988 Rain 10 1006 93 4000 11.8 190 14:41 04.06.2020
1989 Rain 10 1006 93 4000 11.8 190 14:22 04.06.2020
1990 Rain 10 1006 93 4700 10.3 190 13:58 04.06.2020
1991 Mist 10 1006 100 5000 9.8 190 13:39 04.06.2020
1992 Rain 10 1006 100 5000 9.8 190 13:20 04.06.2020
1993 Rain 10 1006 100 6000 9.3 180 12:58 04.06.2020
1994 Rain 10 1006 100 6000 9.3 180 12:58 04.06.2020
1995 Rain 10 1006 93 4000 9.8 180 12:40 04.06.2020
1996 Rain 10 1006 93 4000 9.8 180 12:21 04.06.2020
1997 Rain 10 1006 100 4400 8.7 180 11:54 04.06.2020
1998 Rain 10 1005 93 4200 10.3 180 11:36 04.06.2020
1999 Rain 10 1005 93 4200 10.3 180 11:18 04.06.2020
2000 Rain 11 1005 93 7000 8.7 170 10:39 04.06.2020
2001 Rain 11 1005 93 7000 8.7 170 10:21 04.06.2020
2002 Rain 11 1004 87 9000 9.3 180 09:56 04.06.2020
2003 Rain 11 1004 87 10000 8.7 170 09:38 04.06.2020
2004 Rain 11 1004 87 10000 8.7 170 09:19 04.06.2020
2005 Rain 11 1004 87 10000 8.7 170 09:19 04.06.2020
2006 Rain 10 1004 93 8000 9.8 170 08:41 04.06.2020
2007 Rain 11 1004 93 8000 9.8 170 08:22 04.06.2020
2008 Mist 11 1003 100 5000 7.7 170 07:33 04.06.2020
2009 Rain 11 1003 100 3700 7.2 140 06:58 04.06.2020
2010 Rain 11 1003 100 3700 7.2 140 06:58 04.06.2020
2011 Rain 11 1003 100 3700 7.2 140 06:39 04.06.2020
2012 Rain 11 1003 100 2200 8.2 170 06:20 04.06.2020
2013 Rain 13 1002 93 10000 4.6 10 05:33 04.06.2020
2014 Rain 13 1002 93 10000 4.6 10 05:33 04.06.2020
2015 Rain 14 1001 93 10000 7.7 10 03:50 04.06.2020
2016 Rain 14 1002 93 6000 4.6 10 02:21 04.06.2020
2017 Rain 14 1002 87 10000 6.7 360 01:39 04.06.2020
2018 Rain 14 1002 87 10000 6.7 350 01:18 04.06.2020
2019 Rain 14 1002 87 10000 6.2 10 00:20 04.06.2020
2020 Rain 14 1001 82 10000 5.7 10 23:39 03.06.2020
2021 Rain 14 1001 82 10000 5.7 10 23:19 03.06.2020
2022 Rain 14 1001 82 10000 4.1 360 22:56 03.06.2020
2023 Rain 14 1000 82 10000 6.2 10 22:38 03.06.2020
2024 Clouds 14 1000 82 10000 6.2 10 22:18 03.06.2020
2025 Clouds 14 1000 82 10000 5.1 350 21:55 03.06.2020
2026 Clouds 14 999 87 10000 5.7 10 21:37 03.06.2020
2027 Rain 14 999 87 10000 5.7 10 21:18 03.06.2020
2028 Rain 13 998 93 10000 5.1 30 20:42 03.06.2020
2029 Rain 13 998 93 10000 5.1 30 20:21 03.06.2020
2030 Rain 13 998 93 10000 4.6 30 19:57 03.06.2020
2031 Rain 13 998 93 8000 5.1 20 19:39 03.06.2020
2032 Rain 13 998 93 8000 5.1 20 19:20 03.06.2020
2033 Rain 13 998 93 10000 4.6 30 18:58 03.06.2020
2034 Rain 13 998 82 10000 3.6 30 18:40 03.06.2020
2035 Rain 13 998 82 10000 3.6 30 18:19 03.06.2020
2036 Rain 13 998 87 10000 4.1 20 17:45 03.06.2020
2037 Rain 12 999 87 10000 3.6 30 17:23 03.06.2020
2038 Rain 12 999 93 10000 2.1 60 16:58 03.06.2020
2039 Rain 12 999 93 10000 2.1 60 16:39 03.06.2020
2040 Rain 12 999 93 10000 0.5 20 16:19 03.06.2020
2041 Rain 12 1000 93 10000 1.5 360 15:55 03.06.2020
2042 Rain 12 1000 87 10000 4.1 30 15:36 03.06.2020
2043 Rain 12 1000 87 10000 4.1 30 15:18 03.06.2020
2044 Rain 11 1000 81 10000 4.1 20 14:42 03.06.2020
2045 Rain 11 1000 87 10000 3.1 360 14:23 03.06.2020
2046 Rain 11 1001 87 10000 3.1 10 13:40 03.06.2020
2047 Rain 11 1001 87 10000 3.1 10 13:21 03.06.2020
2048 Rain 11 1002 87 10000 5.1 20 12:57 03.06.2020
2049 Rain 11 1002 87 10000 4.6 10 12:38 03.06.2020
2050 Clouds 11 1002 87 10000 4.6 10 12:18 03.06.2020
2051 Clouds 12 1002 81 10000 6.7 360 11:43 03.06.2020
2052 Rain 12 1002 87 10000 6.2 10 11:24 03.06.2020
2053 Rain 12 1003 82 10000 6.7 20 10:44 03.06.2020
2054 Rain 13 1004 76 10000 6.7 10 10:25 03.06.2020
2055 Clouds 13 1004 82 10000 7.2 10 09:55 03.06.2020
2056 Clouds 13 1005 82 10000 7.7 20 09:36 03.06.2020
2057 Clouds 13 1005 82 10000 7.7 20 09:18 03.06.2020
2058 Clouds 13 1005 82 10000 6.7 10 08:46 03.06.2020
2059 Clouds 13 1005 87 10000 6.7 360 08:21 03.06.2020
2060 Clouds 12 1005 82 10000 7.2 360 07:46 03.06.2020
2061 Clouds 13 1006 82 10000 8.2 10 07:24 03.06.2020
2062 Clouds 13 1006 82 10000 8.2 10 06:58 03.06.2020
2063 Clouds 13 1006 71 10000 8.7 10 06:40 03.06.2020
2064 Clouds 13 1006 71 10000 8.7 10 06:21 03.06.2020
2065 Clouds 13 1006 76 10000 8.2 360 05:42 03.06.2020
2066 Clouds 14 1008 72 10000 8.7 10 04:18 03.06.2020
2067 Clouds 14 1009 72 10000 7.7 10 03:40 03.06.2020
2068 Clouds 14 1011 72 10000 6.7 20 02:25 03.06.2020
2069 Rain 14 1012 82 10000 9.8 10 01:26 03.06.2020
2070 Rain 13 1013 82 10000 10.3 20 00:37 03.06.2020
2071 Clouds 14 1013 82 10000 10.3 20 00:18 03.06.2020
2072 Clouds 13 1013 82 10000 8.7 30 23:39 02.06.2020
2073 Clouds 13 1013 82 10000 8.7 30 23:21 02.06.2020
2074 Clouds 13 1013 76 10000 10.3 10 22:40 02.06.2020
2075 Clouds 13 1013 76 10000 10.3 10 22:19 02.06.2020
2076 Clouds 13 1013 82 10000 10.3 20 21:57 02.06.2020
2077 Clouds 13 1013 76 10000 10.8 10 21:39 02.06.2020
2078 Clouds 13 1013 76 10000 10.8 10 21:20 02.06.2020
2079 Clouds 13 1013 76 10000 10.3 360 20:59 02.06.2020
2080 Clouds 13 1013 82 10000 9.8 20 20:40 02.06.2020
2081 Clear 13 1013 82 10000 9.8 20 20:22 02.06.2020
2082 Clear 13 1013 82 10000 9.8 360 19:45 02.06.2020
2083 Clear 13 1013 82 10000 9.8 360 19:26 02.06.2020
2084 Clear 13 1013 82 10000 8.2 20 18:59 02.06.2020
2085 Clear 13 1014 87 10000 9.3 20 18:40 02.06.2020
2086 Clear 13 1014 87 10000 9.3 20 18:20 02.06.2020
2087 Clear 12 1014 87 10000 7.7 20 17:59 02.06.2020
2088 Clear 12 1014 87 10000 7.7 20 17:40 02.06.2020
2089 Clear 12 1014 87 10000 7.7 20 17:21 02.06.2020
2090 Clear 12 1014 87 10000 7.2 20 16:55 02.06.2020
2091 Clear 12 1014 81 10000 6.2 20 16:37 02.06.2020
2092 Clear 12 1014 81 10000 6.2 20 16:19 02.06.2020
2093 Clear 12 1014 81 10000 6.7 20 15:40 02.06.2020
2094 Clear 12 1015 81 10000 5.7 20 15:21 02.06.2020
2095 Clear 11 1015 87 10000 6.2 10 14:48 02.06.2020
2096 Clear 11 1015 87 10000 6.2 10 14:28 02.06.2020
2097 Clear 11 1015 87 10000 5.7 10 13:57 02.06.2020
2098 Clear 12 1015 81 10000 5.1 20 13:37 02.06.2020
2099 Clear 12 1015 81 10000 5.1 20 13:18 02.06.2020
2100 Clear 11 1015 87 10000 5.7 360 12:56 02.06.2020
2101 Clear 12 1015 87 10000 5.7 20 12:38 02.06.2020
2102 Clear 11 1015 87 10000 5.7 20 12:19 02.06.2020
2103 Rain 12 1015 82 10000 5.7 10 11:41 02.06.2020
2104 Rain 12 1014 87 10000 6.2 10 11:23 02.06.2020
2105 Clear 12 1014 82 10000 5.7 10 10:59 02.06.2020
2106 Clear 12 1014 82 10000 5.7 10 10:41 02.06.2020
2107 Clear 12 1014 87 10000 5.1 10 10:21 02.06.2020
2108 Clear 12 1014 82 10000 5.7 20 09:43 02.06.2020
2109 Clear 12 1014 87 10000 5.1 10 09:21 02.06.2020
2110 Clear 13 1013 82 10000 5.7 10 08:55 02.06.2020
2111 Clear 12 1013 87 10000 5.7 20 08:29 02.06.2020
2112 Clear 13 1013 82 10000 5.7 20 07:58 02.06.2020
2113 Clear 13 1013 82 10000 5.7 20 07:38 02.06.2020
2114 Clear 13 1013 82 10000 5.7 20 07:18 02.06.2020
2115 Clear 14 1012 82 10000 7.2 10 06:39 02.06.2020
2116 Clear 15 1012 77 10000 6.7 360 05:38 02.06.2020
2117 Clouds 15 1012 72 10000 6.2 360 04:41 02.06.2020
2118 Clouds 15 1013 87 10000 5.1 360 03:19 02.06.2020
2119 Clouds 14 1013 87 10000 3.1 50 02:18 02.06.2020
2120 Clouds 13 1014 93 10000 1.5 190 00:51 02.06.2020
2121 Clouds 13 1013 93 10000 3.1 200 00:22 02.06.2020
2122 Clouds 13 1013 93 10000 3.1 220 23:39 01.06.2020
2123 Clouds 13 1013 93 10000 3.1 220 23:20 01.06.2020
2124 Clouds 12 1013 93 10000 4.6 220 22:58 01.06.2020
2125 Clouds 12 1013 93 10000 4.6 220 22:39 01.06.2020
2126 Clouds 12 1013 93 10000 4.6 220 22:19 01.06.2020
2127 Rain 12 1012 100 10000 5.1 200 21:54 01.06.2020
2128 Rain 12 1012 100 10000 4.6 200 21:36 01.06.2020
2129 Rain 12 1012 100 10000 4.6 200 21:18 01.06.2020
2130 Rain 12 1012 100 10000 5.1 210 20:42 01.06.2020
2131 Rain 12 1011 100 10000 7.2 200 20:21 01.06.2020
2132 Rain 12 1011 100 10000 7.2 200 19:59 01.06.2020
2133 Rain 12 1011 100 10000 6.7 190 19:41 01.06.2020
2134 Rain 12 1011 100 10000 6.7 190 19:20 01.06.2020
2135 Rain 12 1011 100 10000 4.6 220 18:58 01.06.2020
2136 Rain 12 1011 100 4000 5.1 230 18:39 01.06.2020
2137 Rain 12 1011 100 4000 5.1 230 18:19 01.06.2020
2138 Rain 12 1011 100 7000 5.1 220 17:55 01.06.2020
2139 Rain 13 1011 93 10000 3.1 230 17:36 01.06.2020
2140 Rain 13 1011 93 10000 3.1 230 17:18 01.06.2020
2141 Rain 13 1011 93 9000 1.5 200 16:39 01.06.2020
2142 Rain 13 1011 93 9000 1.5 200 16:20 01.06.2020
2143 Rain 13 1011 93 10000 1 190 15:55 01.06.2020
2144 Rain 13 1011 93 10000 2.6 230 15:37 01.06.2020
2145 Rain 13 1011 93 10000 2.6 230 15:18 01.06.2020
2146 Rain 13 1011 93 10000 2.6 230 14:56 01.06.2020
2147 Rain 13 1011 93 10000 2.6 240 14:37 01.06.2020
2148 Rain 13 1011 93 10000 2.6 240 14:18 01.06.2020
2149 Rain 13 1011 93 10000 5.1 150 13:42 01.06.2020
2150 Rain 13 1011 93 10000 5.1 150 13:21 01.06.2020
2151 Rain 13 1012 93 10000 6.7 160 12:58 01.06.2020
2152 Rain 13 1012 93 10000 6.7 160 12:40 01.06.2020
2153 Rain 13 1012 93 10000 6.7 160 12:21 01.06.2020
2154 Rain 13 1012 93 10000 6.2 160 11:57 01.06.2020
2155 Drizzle 13 1013 93 10000 6.2 160 11:37 01.06.2020
2156 Drizzle 13 1013 93 10000 6.2 160 11:18 01.06.2020
2157 Drizzle 13 1013 93 10000 6.7 160 10:54 01.06.2020
2158 Rain 13 1014 93 10000 6.7 170 10:36 01.06.2020
2159 Rain 13 1014 93 10000 6.7 170 10:18 01.06.2020
2160 Rain 13 1014 93 10000 6.2 180 09:43 01.06.2020
2161 Rain 13 1014 93 10000 6.2 180 09:24 01.06.2020
2162 Rain 13 1015 100 10000 5.1 180 08:54 01.06.2020
2163 Rain 13 1015 100 10000 4.6 180 08:31 01.06.2020
2164 Rain 13 1015 93 10000 6.7 160 07:57 01.06.2020
2165 Rain 13 1016 87 10000 5.1 160 07:38 01.06.2020
2166 Rain 13 1016 87 10000 5.1 160 07:20 01.06.2020
2167 Rain 13 1016 93 10000 2.6 200 06:49 01.06.2020
2168 Rain 14 1017 82 10000 2.1 180 05:54 01.06.2020
2169 Rain 15 1017 82 10000 2.1 160 04:50 01.06.2020
2170 Rain 15 1018 72 10000 1.5 170 03:50 01.06.2020
2171 Rain 14 1018 82 10000 2.6 210 03:32 01.06.2020
2172 Rain 14 1020 77 10000 2.1 130 02:34 01.06.2020
2173 Drizzle 14 1021 82 10000 2.1 180 01:35 01.06.2020
2174 Rain 13 1021 82 10000 1.5 200 00:59 01.06.2020
2175 Rain 13 1021 82 10000 2.1 160 00:40 01.06.2020
2176 Rain 13 1021 82 10000 2.1 160 00:21 01.06.2020
2177 Clouds 13 1022 82 10000 2.6 150 23:58 31.05.2020
2178 Clouds 12 1022 87 10000 2.6 200 23:39 31.05.2020
2179 Clouds 12 1022 87 10000 2.6 200 23:39 31.05.2020
2180 Clouds 12 1022 87 10000 2.6 200 23:21 31.05.2020
2181 Clouds 11 1022 87 10000 3.1 220 22:57 31.05.2020
2182 Clouds 12 1022 82 10000 2.6 200 22:38 31.05.2020
2183 Clouds 12 1022 82 10000 2.6 200 22:20 31.05.2020
2184 Clouds 11 1023 87 10000 1.5 160 21:42 31.05.2020
2185 Clouds 11 1023 87 10000 1.5 160 21:24 31.05.2020
2186 Clouds 11 1023 82 10000 2.1 210 20:59 31.05.2020
2187 Clouds 11 1023 82 10000 2.1 210 20:58 31.05.2020
2188 Clouds 11 1023 76 10000 3.6 210 20:40 31.05.2020
2189 Clouds 11 1023 76 10000 3.6 210 20:21 31.05.2020
2190 Clouds 11 1023 76 10000 3.1 220 19:56 31.05.2020
2191 Clouds 11 1023 76 10000 3.6 210 19:37 31.05.2020
2192 Clouds 10 1023 76 10000 3.6 210 19:19 31.05.2020
2193 Clouds 10 1024 81 10000 2.1 190 18:44 31.05.2020
2194 Clouds 11 1024 81 10000 2.1 190 18:25 31.05.2020
2195 Clouds 10 1024 76 10000 2.6 200 17:54 31.05.2020
2196 Clouds 9 1025 81 10000 0.5 120 17:36 31.05.2020
2197 Clouds 10 1025 81 10000 0.5 120 17:18 31.05.2020
2198 Clouds 9 1025 87 10000 1.5 10 16:40 31.05.2020
2199 Clouds 10 1025 87 10000 1.5 10 16:21 31.05.2020
2200 Clouds 11 1026 71 10000 0.5 40 15:40 31.05.2020
2201 Clouds 11 1026 71 10000 0.5 40 15:21 31.05.2020
2202 Clouds 11 1026 71 10000 1 80 14:56 31.05.2020
2203 Clouds 11 1027 71 10000 1.5 40 14:38 31.05.2020
2204 Clouds 11 1027 71 10000 1.5 40 14:18 31.05.2020
2205 Clouds 11 1027 71 10000 1 70 13:54 31.05.2020
2206 Clouds 11 1027 71 10000 1.5 70 13:36 31.05.2020
2207 Clouds 11 1027 71 10000 1.5 70 13:18 31.05.2020
2208 Clouds 11 1028 76 10000 2.1 40 12:41 31.05.2020
2209 Clouds 11 1028 76 10000 2.1 40 12:22 31.05.2020
2210 Clouds 11 1028 76 10000 2.6 40 11:49 31.05.2020
2211 Clouds 11 1028 76 10000 1.5 40 11:25 31.05.2020
2212 Clouds 11 1028 76 10000 3.1 50 10:59 31.05.2020
2213 Clouds 11 1028 76 10000 2.1 40 10:41 31.05.2020
2214 Clouds 11 1028 76 10000 2.1 40 10:23 31.05.2020
2215 Clouds 11 1028 76 10000 2.1 40 10:23 31.05.2020
2216 Clouds 11 1029 76 10000 2.6 50 09:56 31.05.2020
2217 Clouds 11 1029 76 10000 2.6 50 09:38 31.05.2020
2218 Clouds 11 1029 76 10000 2.6 50 09:38 31.05.2020
2219 Clouds 11 1029 76 10000 2.6 50 09:19 31.05.2020
2220 Clouds 12 1028 71 10000 4.1 30 08:42 31.05.2020
2221 Clouds 12 1028 71 10000 4.1 30 08:23 31.05.2020
2222 Clouds 12 1028 81 10000 2.6 10 07:48 31.05.2020
2223 Clouds 12 1028 76 10000 2.6 30 07:21 31.05.2020
2224 Clouds 13 1028 71 10000 2.6 50 06:56 31.05.2020
2225 Clouds 13 1028 67 10000 2.6 40 06:34 31.05.2020
2226 Rain 14 1028 67 10000 1 220 05:48 31.05.2020
2227 Clouds 14 1028 72 10000 1.5 200 05:30 31.05.2020
2228 Clear 14 1024 76 0 1.91 137 03:57 31.05.2020
2229 Clear 15 1029 63 10000 1 260 02:59 31.05.2020
2230 Clear 14 1030 67 10000 1.5 60 02:33 31.05.2020
2231 Clouds 14 1030 67 10000 1.5 80 01:39 31.05.2020
2232 Clouds 12 1031 82 10000 3.6 160 00:33 31.05.2020
2233 Clouds 11 1031 81 10000 4.1 160 23:59 30.05.2020
2234 Clouds 11 1031 81 10000 3.1 150 23:41 30.05.2020
2235 Clouds 11 1031 81 10000 3.1 150 23:23 30.05.2020
2236 Clouds 10 1030 81 10000 4.1 140 22:42 30.05.2020
2237 Clouds 10 1030 81 10000 4.1 140 22:23 30.05.2020
2238 Clouds 9 1030 81 10000 5.1 140 21:58 30.05.2020
2239 Clouds 9 1030 81 10000 5.1 140 21:58 30.05.2020
2240 Clouds 9 1030 87 10000 5.7 140 21:39 30.05.2020
2241 Clouds 10 1030 87 10000 5.7 140 21:20 30.05.2020
2242 Clouds 10 1030 87 10000 5.7 150 20:57 30.05.2020
2243 Clouds 10 1030 81 10000 6.2 140 20:39 30.05.2020
2244 Clouds 10 1030 81 10000 6.2 140 20:20 30.05.2020
2245 Clouds 10 1030 76 10000 5.7 140 19:43 30.05.2020
2246 Clouds 9 1030 76 10000 5.7 140 19:22 30.05.2020
2247 Clouds 9 1030 76 10000 4.1 140 18:56 30.05.2020
2248 Clouds 8 1030 81 10000 2.6 150 18:38 30.05.2020
2249 Clouds 8 1030 81 10000 2.6 150 18:18 30.05.2020
2250 Clouds 9 1030 76 10000 3.1 150 17:39 30.05.2020
2251 Clouds 9 1030 76 10000 3.1 150 17:20 30.05.2020
2252 Clouds 9 1030 76 10000 3.6 140 16:45 30.05.2020
2253 Clouds 10 1030 76 10000 3.6 140 16:23 30.05.2020
2254 Clouds 9 1030 76 10000 4.1 140 15:58 30.05.2020
2255 Clouds 10 1030 81 10000 4.1 150 15:39 30.05.2020
2256 Clouds 10 1030 81 10000 4.1 150 15:21 30.05.2020
2257 Clouds 9 1030 81 10000 3.1 140 14:42 30.05.2020
2258 Clouds 10 1030 81 10000 3.1 140 14:22 30.05.2020
2259 Clear 9 1030 71 10000 3.6 140 13:42 30.05.2020
2260 Clear 9 1030 71 10000 3.6 140 13:20 30.05.2020
2261 Clear 9 1029 71 10000 2.6 140 12:42 30.05.2020
2262 Clear 9 1029 71 10000 2.6 140 12:20 30.05.2020
2263 Clear 9 1029 71 10000 2.1 130 11:56 30.05.2020
2264 Clear 9 1029 71 10000 1.5 110 11:38 30.05.2020
2265 Clear 10 1029 71 10000 1.5 110 11:20 30.05.2020
2266 Clear 10 1029 71 10000 1.5 130 10:40 30.05.2020
2267 Clear 10 1029 71 10000 1.5 130 10:21 30.05.2020
2268 Clear 10 1028 76 10000 3.1 130 09:48 30.05.2020
2269 Clear 10 1028 81 10000 3.6 140 09:30 30.05.2020
2270 Clear 10 1028 81 10000 3.1 140 08:47 30.05.2020
2271 Clouds 10 1027 76 10000 3.6 140 08:28 30.05.2020
2272 Clouds 11 1027 81 10000 6.2 150 07:44 30.05.2020
2273 Clouds 11 1027 81 10000 6.2 150 07:23 30.05.2020
2274 Clouds 11 1026 81 10000 6.2 160 06:39 30.05.2020
2275 Clouds 12 1026 81 10000 6.2 160 06:20 30.05.2020
2276 Clouds 12 1026 76 10000 6.2 150 05:49 30.05.2020
2277 Clouds 13 1026 82 10000 7.2 180 03:39 30.05.2020
2278 Clouds 12 1026 87 10000 7.2 180 02:30 30.05.2020
2279 Clouds 11 1026 87 10000 7.2 170 01:46 30.05.2020
2280 Clouds 11 1026 93 10000 8.7 190 00:38 30.05.2020
2281 Clouds 11 1026 93 10000 8.7 190 00:19 30.05.2020
2282 Clouds 11 1025 87 10000 8.2 180 23:55 29.05.2020
2283 Clouds 11 1025 93 10000 8.2 170 23:36 29.05.2020
2284 Clouds 11 1025 93 10000 8.2 170 23:18 29.05.2020
2285 Clouds 11 1024 87 10000 8.2 180 22:40 29.05.2020
2286 Clouds 11 1024 87 10000 8.2 180 22:19 29.05.2020
2287 Clouds 11 1024 87 10000 7.7 180 21:58 29.05.2020
2288 Clouds 11 1023 87 10000 8.2 180 21:36 29.05.2020
2289 Clouds 11 1023 87 10000 8.2 180 21:18 29.05.2020
2290 Clouds 11 1023 87 10000 8.7 190 20:44 29.05.2020
2291 Clouds 11 1023 87 10000 8.7 190 20:20 29.05.2020
2292 Clouds 11 1022 87 10000 8.7 190 19:58 29.05.2020
2293 Clouds 11 1022 87 10000 8.2 190 19:38 29.05.2020
2294 Rain 11 1022 87 10000 8.2 190 19:19 29.05.2020
2295 Rain 11 1022 87 10000 8.7 190 18:46 29.05.2020
2296 Clouds 11 1022 87 10000 8.7 190 18:19 29.05.2020
2297 Clouds 11 1022 87 10000 8.7 190 18:19 29.05.2020
2298 Clouds 11 1022 87 10000 8.2 190 17:56 29.05.2020
2299 Clouds 11 1021 87 10000 8.2 190 17:38 29.05.2020
2300 Clouds 11 1021 87 10000 8.2 190 17:19 29.05.2020
2301 Clouds 11 1021 87 10000 8.7 190 16:43 29.05.2020
2302 Clouds 11 1021 87 10000 8.7 190 16:24 29.05.2020
2303 Clouds 11 1021 87 10000 9.3 190 15:56 29.05.2020
2304 Clouds 11 1021 87 10000 8.7 190 15:38 29.05.2020
2305 Clouds 11 1021 87 10000 8.7 190 15:19 29.05.2020
2306 Clouds 11 1021 87 10000 8.2 190 14:40 29.05.2020
2307 Clouds 11 1021 87 10000 8.2 190 14:22 29.05.2020
2308 Clouds 11 1020 87 10000 7.7 190 13:44 29.05.2020
2309 Clouds 11 1020 87 10000 7.7 190 13:25 29.05.2020
2310 Clouds 11 1020 93 10000 7.2 190 12:59 29.05.2020
2311 Clouds 11 1020 93 10000 8.2 190 12:41 29.05.2020
2312 Clouds 11 1020 93 10000 8.2 190 12:22 29.05.2020
2313 Rain 11 1020 93 10000 5.7 180 11:45 29.05.2020
2314 Rain 11 1020 93 10000 5.7 180 11:26 29.05.2020
2315 Rain 10 1019 93 8000 6.7 180 10:57 29.05.2020
2316 Rain 10 1019 93 10000 5.7 180 10:37 29.05.2020
2317 Rain 10 1019 93 10000 5.7 180 10:18 29.05.2020
2318 Rain 10 1019 93 10000 5.7 180 10:18 29.05.2020
2319 Rain 11 1019 87 10000 4.6 180 09:43 29.05.2020
2320 Rain 11 1019 87 10000 4.6 180 09:20 29.05.2020
2321 Rain 11 1019 87 10000 4.6 180 09:20 29.05.2020
2322 Rain 11 1019 87 10000 4.6 170 08:48 29.05.2020
2323 Rain 11 1018 81 10000 4.6 180 08:26 29.05.2020
2324 Rain 11 1018 81 10000 5.1 180 07:59 29.05.2020
2325 Rain 11 1018 81 10000 5.1 180 07:59 29.05.2020
2326 Rain 11 1018 81 10000 4.6 180 07:39 29.05.2020
2327 Clouds 11 1018 81 10000 4.6 180 07:21 29.05.2020
2328 Clouds 12 1018 81 10000 4.6 180 06:46 29.05.2020
2329 Clouds 12 1018 81 10000 4.6 180 06:27 29.05.2020
2330 Clouds 12 1017 87 10000 5.1 180 05:46 29.05.2020
2331 Clouds 14 1018 71 10000 2.1 50 02:36 29.05.2020
2332 Clouds 13 1018 71 10000 4.1 30 01:29 29.05.2020
2333 Rain 13 1018 76 10000 4.1 10 00:54 29.05.2020
2334 Rain 13 1018 71 10000 4.1 30 00:34 29.05.2020
2335 Rain 12 1018 76 10000 4.1 30 23:59 28.05.2020
2336 Rain 11 1018 81 10000 5.1 20 23:39 28.05.2020
2337 Rain 11 1018 81 10000 5.1 20 23:18 28.05.2020
2338 Rain 11 1018 81 10000 5.1 20 22:42 28.05.2020
2339 Clouds 10 1018 81 10000 5.1 20 22:24 28.05.2020
2340 Clouds 10 1018 81 10000 4.6 10 21:57 28.05.2020
2341 Clouds 10 1018 81 10000 5.1 30 21:38 28.05.2020
2342 Clouds 10 1018 81 10000 5.1 30 21:20 28.05.2020
2343 Clouds 10 1018 81 10000 5.1 50 20:57 28.05.2020
2344 Clouds 10 1018 81 10000 5.1 50 20:57 28.05.2020
2345 Clouds 10 1018 81 10000 5.1 30 20:38 28.05.2020
2346 Clouds 10 1018 81 10000 5.1 30 20:18 28.05.2020
2347 Clouds 9 1018 87 10000 5.1 30 19:54 28.05.2020
2348 Clouds 9 1018 87 10000 5.1 30 19:54 28.05.2020
2349 Clouds 9 1018 87 10000 5.7 30 19:36 28.05.2020
2350 Clouds 9 1018 87 10000 5.7 30 19:18 28.05.2020
2351 Clouds 9 1018 81 10000 6.7 30 18:41 28.05.2020
2352 Clouds 9 1018 81 10000 6.7 30 18:22 28.05.2020
2353 Clouds 9 1018 81 10000 6.7 30 17:43 28.05.2020
2354 Clear 9 1018 81 10000 6.7 30 17:22 28.05.2020
2355 Clear 9 1019 81 10000 6.7 30 16:58 28.05.2020
2356 Clear 9 1019 81 10000 6.7 30 16:58 28.05.2020
2357 Clear 9 1019 81 10000 6.2 30 16:38 28.05.2020
2358 Clear 9 1019 81 10000 6.2 30 16:20 28.05.2020
2359 Clear 9 1019 87 10000 6.7 20 15:42 28.05.2020
2360 Clear 9 1019 87 10000 6.7 20 15:24 28.05.2020
2361 Clear 9 1019 93 10000 6.2 20 14:57 28.05.2020
2362 Clear 9 1019 93 10000 5.7 20 14:38 28.05.2020
2363 Clouds 9 1019 93 10000 5.7 20 14:20 28.05.2020
2364 Clouds 8 1020 87 10000 5.1 10 13:40 28.05.2020
2365 Clouds 8 1020 87 10000 5.1 10 13:21 28.05.2020
2366 Clouds 8 1020 87 10000 4.6 10 12:42 28.05.2020
2367 Clouds 8 1020 87 10000 4.6 10 12:19 28.05.2020
2368 Clouds 8 1020 87 10000 4.6 20 11:44 28.05.2020
2369 Clear 8 1020 87 10000 4.6 20 11:26 28.05.2020
2370 Clear 8 1020 93 10000 2.6 20 10:57 28.05.2020
2371 Clear 8 1020 93 10000 2.6 20 10:57 28.05.2020
2372 Clear 8 1020 93 10000 2.1 20 10:39 28.05.2020
2373 Clear 8 1020 93 10000 2.1 20 10:39 28.05.2020
2374 Clear 8 1020 93 10000 2.1 20 10:20 28.05.2020
2375 Clear 8 1020 87 10000 2.1 30 09:39 28.05.2020
2376 Clear 8 1020 87 10000 2.1 30 09:39 28.05.2020
2377 Clear 9 1020 87 10000 2.1 30 09:21 28.05.2020
2378 Clear 8 1020 81 10000 1.5 10 08:50 28.05.2020
2379 Clear 8 1020 81 10000 1.5 30 08:27 28.05.2020
2380 Clear 10 1021 76 10000 2.1 250 07:46 28.05.2020
2381 Clear 10 1021 76 10000 2.1 250 07:26 28.05.2020
2382 Clear 11 1021 71 10000 2.1 240 06:59 28.05.2020
2383 Clear 11 1021 71 10000 2.1 220 06:38 28.05.2020
2384 Clear 11 1021 71 10000 2.1 220 06:19 28.05.2020
2385 Clear 12 1021 71 10000 4.1 190 05:36 28.05.2020
2386 Clear 12 1022 66 10000 4.1 170 04:32 28.05.2020
2387 Clear 13 1023 66 10000 5.1 160 03:46 28.05.2020
2388 Clear 13 1023 71 10000 3.1 170 02:45 28.05.2020
2389 Clear 13 1023 71 10000 3.1 170 02:45 28.05.2020
2390 Clouds 12 1024 71 10000 2.6 160 01:53 28.05.2020
2391 Clouds 11 1024 71 10000 1 260 00:55 28.05.2020
2392 Clouds 11 1024 71 10000 1.5 20 00:37 28.05.2020
2393 Clouds 11 1024 71 10000 1.5 20 00:18 28.05.2020
2394 Clouds 10 1024 81 10000 2.6 10 23:39 27.05.2020
2395 Clouds 9 1024 81 10000 2.6 10 23:21 27.05.2020
2396 Clouds 9 1024 76 10000 1 20 22:58 27.05.2020
2397 Clouds 8 1024 76 10000 2.1 110 22:40 27.05.2020
2398 Clouds 8 1024 76 10000 2.1 110 22:21 27.05.2020
2399 Clouds 9 1023 76 10000 5.1 140 21:42 27.05.2020
2400 Clouds 9 1023 76 10000 5.1 140 21:24 27.05.2020
2401 Clouds 9 1023 76 10000 4.6 140 20:59 27.05.2020
2402 Clouds 9 1023 76 10000 5.1 140 20:41 27.05.2020
2403 Clouds 9 1023 76 10000 5.1 140 20:21 27.05.2020
2404 Clouds 9 1023 81 10000 4.6 150 19:59 27.05.2020
2405 Clouds 9 1023 81 10000 3.6 150 19:40 27.05.2020
2406 Clouds 9 1023 81 10000 3.6 150 19:19 27.05.2020
2407 Clouds 8 1024 81 10000 3.6 150 18:40 27.05.2020
2408 Clouds 8 1024 81 10000 3.6 150 18:20 27.05.2020
2409 Clouds 8 1024 87 10000 2.6 150 17:56 27.05.2020
2410 Clouds 8 1024 87 10000 1 60 17:37 27.05.2020
2411 Clouds 8 1024 87 10000 1 60 17:19 27.05.2020
2412 Clouds 8 1024 81 10000 1.5 140 16:55 27.05.2020
2413 Clouds 8 1024 81 10000 2.1 150 16:36 27.05.2020
2414 Clouds 8 1024 81 10000 2.1 150 16:18 27.05.2020
2415 Clouds 8 1024 81 10000 2.1 140 15:40 27.05.2020
2416 Clear 8 1024 81 10000 2.1 140 15:21 27.05.2020
2417 Clear 8 1024 76 10000 1.5 80 14:44 27.05.2020
2418 Clear 8 1024 76 10000 1.5 80 14:22 27.05.2020
2419 Clear 9 1024 76 10000 3.6 140 13:55 27.05.2020
2420 Clear 9 1023 76 10000 4.6 150 13:37 27.05.2020
2421 Clear 9 1023 76 10000 4.6 150 13:19 27.05.2020
2422 Clear 9 1023 76 10000 5.1 160 12:40 27.05.2020
2423 Clear 9 1023 76 10000 5.1 160 12:40 27.05.2020
2424 Clear 9 1023 76 10000 5.1 160 12:22 27.05.2020
2425 Clear 10 1023 76 10000 5.7 150 11:40 27.05.2020
2426 Clear 10 1023 76 10000 5.7 150 11:22 27.05.2020
2427 Clear 10 1023 76 10000 5.1 160 10:58 27.05.2020
2428 Clear 10 1023 76 10000 5.7 150 10:39 27.05.2020
2429 Clear 10 1023 76 10000 5.7 150 10:39 27.05.2020
2430 Clear 10 1023 76 10000 5.7 150 10:39 27.05.2020
2431 Clear 10 1023 76 10000 5.7 150 10:20 27.05.2020
2432 Clear 10 1023 76 10000 5.7 160 09:42 27.05.2020
2433 Clear 10 1023 76 10000 5.7 160 09:23 27.05.2020
2434 Clear 10 1023 76 10000 5.1 150 08:58 27.05.2020
2435 Clear 10 1023 76 10000 4.1 150 08:38 27.05.2020
2436 Clouds 10 1023 76 10000 4.1 150 08:19 27.05.2020
2437 Clouds 10 1023 76 10000 4.1 150 07:51 27.05.2020
2438 Clouds 10 1023 76 10000 4.1 150 07:51 27.05.2020
2439 Clouds 10 1023 76 10000 4.6 160 07:33 27.05.2020
2440 Clouds 11 1023 66 10000 5.7 150 06:52 27.05.2020
2441 Clouds 11 1023 71 10000 5.7 150 06:24 27.05.2020
2442 Clouds 12 1023 71 10000 5.7 160 05:49 27.05.2020
2443 Clouds 12 1023 66 10000 5.1 170 05:22 27.05.2020
2444 Clouds 12 1024 66 10000 6.7 170 02:36 27.05.2020
2445 Clouds 12 1024 66 10000 6.7 170 02:18 27.05.2020
2446 Clouds 12 1025 66 10000 7.2 150 01:30 27.05.2020
2447 Rain 12 1025 66 10000 7.2 160 00:47 27.05.2020
2448 Rain 11 1025 71 10000 7.7 160 00:20 27.05.2020
2449 Clouds 11 1025 66 10000 6.7 170 23:57 26.05.2020
2450 Clouds 11 1025 66 10000 6.2 160 23:38 26.05.2020
2451 Clouds 11 1025 66 10000 6.2 160 23:20 26.05.2020
2452 Clouds 10 1025 71 10000 7.2 160 22:41 26.05.2020
2453 Clear 10 1025 71 10000 7.2 160 22:23 26.05.2020
2454 Clear 10 1025 71 10000 7.7 160 21:59 26.05.2020
2455 Clear 10 1025 71 10000 6.7 170 21:40 26.05.2020
2456 Clear 10 1025 71 10000 6.7 170 21:22 26.05.2020
2457 Clear 11 1025 71 10000 5.7 150 20:57 26.05.2020
2458 Clear 11 1025 71 10000 5.1 160 20:39 26.05.2020
2459 Clouds 11 1025 71 10000 5.1 160 20:19 26.05.2020
2460 Clouds 11 1024 66 10000 7.2 170 19:40 26.05.2020
2461 Clouds 11 1024 66 10000 7.2 170 19:20 26.05.2020
2462 Clouds 11 1024 66 10000 7.2 170 18:57 26.05.2020
2463 Clouds 11 1025 71 10000 5.1 150 18:39 26.05.2020
2464 Clouds 11 1025 71 10000 5.1 150 18:20 26.05.2020
2465 Clouds 11 1025 66 10000 6.7 160 17:39 26.05.2020
2466 Clouds 11 1025 66 10000 6.7 160 17:21 26.05.2020
2467 Clouds 10 1025 71 10000 6.7 160 16:48 26.05.2020
2468 Clouds 10 1025 71 10000 7.7 170 16:23 26.05.2020
2469 Clouds 10 1025 71 10000 6.7 170 15:58 26.05.2020
2470 Clouds 10 1025 76 10000 6.7 170 15:39 26.05.2020
2471 Clouds 10 1025 76 10000 6.7 170 15:19 26.05.2020
2472 Clouds 10 1025 81 10000 5.7 140 14:44 26.05.2020
2473 Clouds 9 1020 85 0 5.23 156 14:25 26.05.2020
2474 Clouds 10 1025 81 10000 7.2 160 13:57 26.05.2020
2475 Clouds 10 1024 76 10000 7.2 170 13:39 26.05.2020
2476 Clouds 10 1024 76 10000 7.2 170 13:21 26.05.2020
2477 Clouds 10 1025 81 10000 7.7 170 12:44 26.05.2020
2478 Clouds 10 1025 81 10000 7.7 170 12:22 26.05.2020
2479 Clouds 10 1025 76 10000 6.7 160 11:59 26.05.2020
2480 Clouds 10 1024 76 10000 7.2 170 11:40 26.05.2020
2481 Clouds 10 1024 76 10000 7.2 170 11:19 26.05.2020
2482 Clouds 10 1024 76 10000 8.7 160 10:44 26.05.2020
2483 Clouds 10 1024 76 10000 8.7 160 10:19 26.05.2020
2484 Clouds 10 1023 76 10000 8.7 160 09:54 26.05.2020
2485 Clouds 10 1023 71 10000 7.7 160 09:36 26.05.2020
2486 Clouds 10 1023 71 10000 7.7 160 09:18 26.05.2020
2487 Clouds 11 1023 66 10000 8.2 170 08:39 26.05.2020
2488 Clouds 11 1023 66 10000 8.2 170 08:21 26.05.2020
2489 Clouds 10 1023 81 10000 8.2 170 07:41 26.05.2020
2490 Clouds 10 1023 81 10000 8.2 170 07:22 26.05.2020
2491 Rain 10 1023 81 10000 8.7 160 06:49 26.05.2020
2492 Clouds 11 1022 76 10000 8.2 160 06:23 26.05.2020
2493 Clouds 11 1022 76 10000 7.7 160 05:41 26.05.2020
2494 Clouds 12 1022 76 10000 7.7 160 04:59 26.05.2020
2495 Clouds 12 1022 76 10000 7.2 170 04:41 26.05.2020
2496 Clouds 12 1022 76 10000 7.2 170 04:22 26.05.2020
2497 Clouds 12 1022 76 10000 7.2 160 03:34 26.05.2020
2498 Rain 12 1022 76 10000 7.7 170 02:34 26.05.2020
2499 Clouds 11 1021 76 10000 8.2 160 01:42 26.05.2020
2500 Clouds 11 1021 76 10000 8.2 160 00:39 26.05.2020
2501 Clouds 11 1021 76 10000 8.2 160 00:20 26.05.2020
2502 Clouds 11 1021 81 10000 8.7 160 23:58 25.05.2020
2503 Clouds 11 1021 81 10000 8.2 170 23:38 25.05.2020
2504 Clouds 11 1021 81 10000 8.2 170 23:19 25.05.2020
2505 Clouds 11 1021 81 10000 8.7 160 22:56 25.05.2020
2506 Clouds 11 1020 81 10000 9.3 170 22:37 25.05.2020
2507 Rain 11 1020 81 10000 9.3 170 22:19 25.05.2020
2508 Rain 11 1019 93 10000 9.3 160 21:58 25.05.2020
2509 Rain 11 1019 93 3800 9.8 160 21:37 25.05.2020
2510 Rain 11 1019 93 3800 9.8 160 21:18 25.05.2020
2511 Rain 11 1018 87 10000 8.2 180 20:57 25.05.2020
2512 Clouds 11 1018 87 10000 8.2 180 20:38 25.05.2020
2513 Clouds 11 1018 87 10000 8.2 180 20:20 25.05.2020
2514 Clouds 11 1017 87 10000 7.2 180 19:42 25.05.2020
2515 Clouds 11 1017 87 10000 7.2 180 19:20 25.05.2020
2516 Clouds 11 1017 81 10000 7.7 170 18:58 25.05.2020
2517 Clouds 11 1017 81 10000 8.2 170 18:40 25.05.2020
2518 Clouds 11 1017 81 10000 8.2 170 18:21 25.05.2020
2519 Clouds 11 1017 87 10000 7.2 170 17:44 25.05.2020
2520 Clouds 11 1017 87 10000 7.2 170 17:26 25.05.2020
2521 Clouds 11 1017 87 10000 7.2 170 16:59 25.05.2020
2522 Clouds 11 1016 87 10000 7.2 170 16:40 25.05.2020
2523 Clouds 11 1016 87 10000 7.2 170 16:22 25.05.2020
2524 Clouds 11 1016 87 10000 7.7 180 15:55 25.05.2020
2525 Clouds 11 1015 87 10000 9.3 170 15:36 25.05.2020
2526 Clouds 11 1015 87 10000 9.3 170 15:18 25.05.2020
2527 Clouds 11 1015 87 10000 9.8 170 14:42 25.05.2020
2528 Clouds 11 1015 87 10000 9.8 170 14:23 25.05.2020
2529 Clouds 11 1015 87 10000 9.8 170 13:56 25.05.2020
2530 Clouds 11 1015 87 10000 10.3 170 13:37 25.05.2020
2531 Clouds 11 1015 87 10000 10.3 170 13:37 25.05.2020
2532 Clouds 11 1015 87 10000 10.3 170 13:19 25.05.2020
2533 Clouds 11 1014 82 10000 10.8 180 12:40 25.05.2020
2534 Clouds 11 1014 82 10000 10.8 180 12:21 25.05.2020
2535 Clouds 11 1014 82 10000 11.3 190 11:58 25.05.2020
2536 Clouds 11 1014 82 10000 11.3 190 11:38 25.05.2020
2537 Clouds 11 1012 90 0 0.45 218 11:18 25.05.2020
2538 Clouds 11 1014 82 10000 9.8 190 10:43 25.05.2020
2539 Clouds 11 1014 82 10000 9.8 190 10:21 25.05.2020
2540 Clouds 11 1013 82 10000 9.8 180 09:57 25.05.2020
2541 Clouds 11 1013 87 10000 10.3 180 09:38 25.05.2020
2542 Rain 11 1013 87 10000 10.3 180 09:19 25.05.2020
2543 Rain 11 1013 82 10000 10.3 190 08:57 25.05.2020
2544 Rain 11 1012 82 10000 11.3 190 08:36 25.05.2020
2545 Rain 11 1012 82 10000 11.3 190 08:36 25.05.2020
2546 Rain 11 1012 82 10000 11.3 190 08:36 25.05.2020
2547 Rain 11 1012 82 10000 11.3 190 08:18 25.05.2020
2548 Rain 11 1011 87 10000 12.3 190 07:42 25.05.2020
2549 Clouds 11 1011 87 10000 12.3 190 07:21 25.05.2020
2550 Clouds 11 1011 87 10000 13.4 190 06:49 25.05.2020
2551 Clouds 11 1010 87 10000 12.9 190 06:31 25.05.2020
2552 Rain 11 1009 93 6000 12.9 200 03:48 25.05.2020
2553 Rain 11 1009 93 5000 13.9 200 03:22 25.05.2020
2554 Rain 11 1009 93 5000 13.4 200 02:45 25.05.2020
2555 Rain 11 1009 93 3000 13.9 200 01:51 25.05.2020
2556 Rain 11 1009 93 5000 13.9 200 01:28 25.05.2020
2557 Rain 11 1008 93 3400 14.4 200 00:37 25.05.2020
2558 Rain 11 1008 93 3400 14.4 200 00:18 25.05.2020
2559 Rain 11 1007 100 2600 13.9 200 23:43 24.05.2020
2560 Rain 11 1007 100 2600 13.9 200 23:23 24.05.2020
2561 Rain 11 1007 100 3400 13.4 200 22:59 24.05.2020
2562 Rain 11 1007 100 4200 12.3 190 22:41 24.05.2020
2563 Rain 11 1007 100 4200 12.3 190 22:19 24.05.2020
2564 Rain 11 1007 100 4200 11.8 200 21:56 24.05.2020
2565 Rain 11 1007 100 4200 11.8 200 21:56 24.05.2020
2566 Rain 12 1007 100 3200 11.3 200 21:38 24.05.2020
2567 Rain 12 1007 100 3200 11.3 200 21:19 24.05.2020
2568 Rain 12 1006 100 0 5.7 240 20:43 24.05.2020
2569 Rain 12 1006 100 0 5.7 240 20:22 24.05.2020
2570 Rain 13 1006 100 0 3.1 230 19:59 24.05.2020
2571 Rain 13 1006 100 0 3.1 230 19:59 24.05.2020
2572 Rain 13 1007 100 0 1.5 210 19:41 24.05.2020
2573 Rain 12 1007 100 0 1.5 210 19:19 24.05.2020
2574 Rain 12 1007 100 0 2.1 180 18:56 24.05.2020
2575 Rain 12 1008 100 0 1.5 180 18:37 24.05.2020
2576 Rain 12 1008 100 0 1.5 180 18:19 24.05.2020
2577 Rain 12 1008 100 4400 1.5 200 17:41 24.05.2020
2578 Rain 12 1008 100 4400 1.5 200 17:21 24.05.2020
2579 Rain 12 1008 93 4200 0.5 90 16:57 24.05.2020
2580 Rain 12 1009 100 3300 0.5 300 16:38 24.05.2020
2581 Rain 12 1009 100 3300 0.5 300 16:20 24.05.2020
2582 Mist 12 1009 100 4800 0.5 10 15:57 24.05.2020
2583 Rain 12 1010 100 5000 0.5 50 15:38 24.05.2020
2584 Rain 12 1010 100 5000 0.5 50 15:38 24.05.2020
2585 Rain 12 1010 100 5000 0.5 50 15:19 24.05.2020
2586 Rain 12 1010 100 5000 1 20 15:19 24.05.2020
2587 Rain 12 1011 100 5000 1 30 14:46 24.05.2020
2588 Mist 12 1011 100 5000 1 30 14:24 24.05.2020
2589 Rain 12 1011 100 3800 0.5 20 13:59 24.05.2020
2590 Rain 12 1011 100 3300 0.5 360 13:41 24.05.2020
2591 Rain 12 1011 100 3300 0.5 360 13:22 24.05.2020
2592 Rain 12 1007 92 0 2.98 93 12:59 24.05.2020
2593 Rain 12 1008 91 0 2.98 93 12:40 24.05.2020
2594 Rain 12 1008 91 0 3.59 107 12:22 24.05.2020
2595 Rain 12 1008 91 0 3.59 107 11:59 24.05.2020
2596 Rain 12 1009 91 0 3.59 107 11:41 24.05.2020
2597 Rain 12 1009 91 0 3.59 107 11:41 24.05.2020
2598 Rain 12 1009 91 0 3.59 107 11:41 24.05.2020
2599 Rain 12 1009 91 0 3.59 107 11:41 24.05.2020
2600 Rain 12 1009 91 0 2.85 105 11:22 24.05.2020
2601 Rain 12 1009 90 0 2.85 105 10:58 24.05.2020
2602 Rain 12 1009 90 0 2.85 105 10:39 24.05.2020
2603 Rain 12 1009 90 0 2.73 115 10:21 24.05.2020
2604 Rain 12 1009 90 0 2.73 115 09:41 24.05.2020
2605 Rain 12 1014 93 10000 2.1 10 09:19 24.05.2020
2606 Rain 12 1014 93 10000 2.6 10 08:57 24.05.2020
2607 Rain 12 1014 93 10000 2.1 350 08:39 24.05.2020
2608 Rain 12 1014 93 10000 2.1 350 08:21 24.05.2020
2609 Rain 12 1015 87 10000 2.6 360 07:51 24.05.2020
2610 Rain 13 1015 76 10000 3.1 340 07:26 24.05.2020
2611 Rain 13 1014 71 10000 3.6 10 06:58 24.05.2020
2612 Rain 13 1015 71 10000 3.1 20 06:37 24.05.2020
2613 Clouds 14 1015 67 10000 6.2 360 05:21 24.05.2020
2614 Clouds 14 1016 62 10000 5.1 10 03:42 24.05.2020
2615 Clouds 14 1015 74 0 0.45 5 02:47 24.05.2020
2616 Clouds 14 1018 67 10000 4.1 30 01:59 24.05.2020
2617 Clouds 13 1018 71 10000 3.6 10 00:42 24.05.2020
2618 Clouds 13 1018 71 10000 3.6 10 00:23 24.05.2020
2619 Clouds 13 1018 71 10000 2.6 30 23:54 23.05.2020
2620 Clouds 12 1018 71 10000 3.6 10 23:36 23.05.2020
2621 Clouds 13 1018 71 10000 3.6 10 23:18 23.05.2020
2622 Clouds 12 1018 66 10000 4.1 40 22:55 23.05.2020
2623 Clouds 12 1018 71 10000 5.1 20 22:36 23.05.2020
2624 Clouds 12 1018 71 10000 5.1 20 22:18 23.05.2020
2625 Clouds 12 1018 62 10000 5.7 30 21:42 23.05.2020
2626 Clouds 12 1018 62 10000 5.7 30 21:20 23.05.2020
2627 Clouds 12 1018 66 10000 7.7 10 20:59 23.05.2020
2628 Clouds 12 1018 62 10000 8.2 20 20:39 23.05.2020
2629 Clouds 12 1018 62 10000 8.2 20 20:19 23.05.2020
2630 Clouds 11 1018 81 10000 5.1 10 19:58 23.05.2020
2631 Clouds 11 1018 81 10000 6.2 50 19:40 23.05.2020
2632 Clouds 11 1018 81 10000 6.2 50 19:18 23.05.2020
2633 Clouds 10 1019 87 10000 4.6 30 18:41 23.05.2020
2634 Clouds 10 1019 87 10000 4.6 30 18:22 23.05.2020
2635 Clouds 11 1019 87 10000 4.6 30 17:58 23.05.2020
2636 Clouds 10 1019 87 10000 5.7 30 17:40 23.05.2020
2637 Clouds 10 1019 87 10000 5.7 30 17:20 23.05.2020
2638 Clouds 9 1020 93 10000 3.1 20 16:59 23.05.2020
2639 Clouds 9 1020 93 10000 3.1 360 16:40 23.05.2020
2640 Clouds 9 1020 93 10000 3.1 360 16:20 23.05.2020
2641 Clouds 8 1019 93 10000 2.1 30 15:55 23.05.2020
2642 Clouds 9 1020 87 10000 2.1 50 15:37 23.05.2020
2643 Clouds 9 1020 87 10000 2.1 50 15:19 23.05.2020
2644 Clouds 10 1020 93 10000 2.6 30 14:41 23.05.2020
2645 Clouds 9 1020 93 10000 2.6 30 14:23 23.05.2020
2646 Clouds 9 1020 93 10000 1.5 50 13:42 23.05.2020
2647 Clouds 9 1020 93 10000 1.5 50 13:19 23.05.2020
2648 Clouds 9 1020 93 10000 2.6 40 12:59 23.05.2020
2649 Clouds 9 1020 93 10000 1.5 10 12:40 23.05.2020
2650 Clouds 9 1020 93 10000 1.5 10 12:19 23.05.2020
2651 Clouds 10 1020 93 10000 2.1 20 11:54 23.05.2020
2652 Clouds 9 1020 87 10000 1.5 160 11:36 23.05.2020
2653 Clouds 10 1020 87 10000 1.5 160 11:18 23.05.2020
2654 Clouds 10 1020 87 10000 0.5 90 10:54 23.05.2020
2655 Clouds 10 1020 87 10000 1.5 190 10:36 23.05.2020
2656 Clouds 11 1020 87 10000 1.5 190 10:18 23.05.2020
2657 Clouds 11 1020 87 10000 6.2 150 09:41 23.05.2020
2658 Clouds 11 1016 87 0 2.99 134 09:23 23.05.2020
2659 Clouds 12 1021 87 10000 5.7 150 08:54 23.05.2020
2660 Clouds 12 1021 87 10000 6.2 160 08:36 23.05.2020
2661 Clouds 12 1021 87 10000 6.2 160 08:18 23.05.2020
2662 Clouds 12 1017 85 0 3.1 143 07:41 23.05.2020
2663 Clouds 12 1021 82 10000 6.2 170 07:21 23.05.2020
2664 Clouds 12 1021 87 10000 5.7 170 06:42 23.05.2020
2665 Clouds 13 1022 87 10000 5.7 180 05:51 23.05.2020
2666 Clouds 14 1022 82 10000 6.7 190 03:52 23.05.2020
2667 Clouds 14 1022 87 10000 6.2 200 03:23 23.05.2020
2668 Clouds 14 1023 82 10000 4.6 200 02:28 23.05.2020
2669 Clouds 14 1023 71 10000 2.6 200 01:28 23.05.2020
2670 Clouds 13 1023 71 10000 1.5 190 00:49 23.05.2020
2671 Clouds 12 1023 76 10000 1.5 80 00:30 23.05.2020
2672 Clear 12 1023 76 10000 1.5 30 23:59 22.05.2020
2673 Clear 11 1022 81 10000 1.5 20 23:40 22.05.2020
2674 Clouds 10 1022 81 10000 1.5 20 23:20 22.05.2020
2675 Clouds 10 1022 87 10000 2.1 20 22:57 22.05.2020
2676 Clouds 9 1022 93 10000 3.1 340 22:38 22.05.2020
2677 Clouds 9 1022 93 10000 3.1 340 22:18 22.05.2020
2678 Clouds 9 1021 87 10000 4.1 360 21:45 22.05.2020
2679 Clouds 9 1021 87 10000 4.1 360 21:22 22.05.2020
2680 Clouds 10 1021 87 10000 4.1 10 20:55 22.05.2020
2681 Clouds 10 1020 87 10000 4.6 10 20:36 22.05.2020
2682 Clouds 10 1020 87 10000 4.6 10 20:18 22.05.2020
2683 Clouds 10 1020 81 10000 4.6 20 19:43 22.05.2020
2684 Clouds 10 1020 81 10000 4.6 20 19:24 22.05.2020
2685 Clouds 11 1020 81 10000 5.1 30 18:40 22.05.2020
2686 Clouds 11 1020 81 10000 5.1 30 18:21 22.05.2020
2687 Clouds 11 1020 71 10000 5.7 30 17:59 22.05.2020
2688 Clouds 11 1020 71 10000 5.7 20 17:39 22.05.2020
2689 Clouds 11 1020 71 10000 5.7 20 17:19 22.05.2020
2690 Clouds 12 1019 71 10000 6.2 20 16:55 22.05.2020
2691 Clouds 12 1019 71 10000 6.2 20 16:37 22.05.2020
2692 Clouds 12 1019 71 10000 6.2 20 16:18 22.05.2020
2693 Clouds 12 1020 66 10000 6.2 20 15:41 22.05.2020
2694 Clouds 12 1020 66 10000 6.2 20 15:21 22.05.2020
2695 Clouds 12 1020 66 10000 8.2 20 14:45 22.05.2020
2696 Clouds 12 1020 66 10000 8.2 20 14:26 22.05.2020
2697 Clouds 13 1019 66 10000 7.2 20 13:50 22.05.2020
2698 Clouds 13 1019 71 10000 8.7 10 13:22 22.05.2020
2699 Clouds 13 1019 71 10000 8.7 10 13:22 22.05.2020
2700 Clouds 13 1019 71 10000 8.7 360 12:59 22.05.2020
2701 Clouds 13 1019 67 10000 11.3 360 12:39 22.05.2020
2702 Clouds 13 1019 67 10000 11.3 360 12:21 22.05.2020
2703 Clouds 13 1018 71 10000 11.3 10 11:44 22.05.2020
2704 Clouds 13 1018 71 10000 11.3 10 11:22 22.05.2020
2705 Clouds 13 1018 71 10000 11.8 360 10:57 22.05.2020
2706 Clouds 13 1018 67 10000 11.3 10 10:38 22.05.2020
2707 Clouds 13 1018 67 10000 11.3 10 10:19 22.05.2020
2708 Clouds 12 1018 71 10000 9.3 20 09:47 22.05.2020
2709 Clear 13 1018 62 10000 11.8 10 09:21 22.05.2020
2710 Clear 13 1018 62 10000 10.3 10 08:58 22.05.2020
2711 Clear 13 1018 66 10000 9.8 10 08:39 22.05.2020
2712 Clear 13 1018 66 10000 9.8 10 08:39 22.05.2020
2713 Clouds 13 1018 66 10000 9.8 10 08:18 22.05.2020
2714 Clouds 13 1018 66 10000 9.8 360 07:52 22.05.2020
2715 Clouds 13 1018 66 10000 10.8 10 07:23 22.05.2020
2716 Clouds 13 1018 62 10000 10.3 10 06:48 22.05.2020
2717 Clouds 13 1019 62 10000 10.8 10 06:29 22.05.2020
2718 Clouds 14 1019 58 10000 10.8 360 05:37 22.05.2020
2719 Clouds 14 1019 58 10000 12.3 10 04:49 22.05.2020
2720 Clouds 14 1019 62 10000 11.8 360 03:51 22.05.2020
2721 Clouds 14 1020 58 10000 10.8 360 03:32 22.05.2020
2722 Clouds 14 1021 62 10000 10.8 360 02:23 22.05.2020
2723 Clouds 14 1021 62 10000 10.3 10 01:42 22.05.2020
2724 Clouds 14 1021 62 10000 10.3 10 01:20 22.05.2020
2725 Clouds 14 1021 62 10000 10.3 360 00:33 22.05.2020
2726 Clouds 13 1021 62 10000 11.3 360 23:57 21.05.2020
2727 Clouds 13 1021 67 10000 10.3 360 23:39 21.05.2020
2728 Clouds 13 1021 67 10000 10.3 360 23:20 21.05.2020
2729 Clouds 13 1021 71 10000 10.3 10 22:57 21.05.2020
2730 Clouds 12 1021 62 10000 10.3 350 22:37 21.05.2020
2731 Clouds 12 1021 62 10000 10.3 350 22:18 21.05.2020
2732 Clouds 12 1021 62 10000 10.3 350 21:47 21.05.2020
2733 Clouds 12 1021 66 10000 10.3 350 21:27 21.05.2020
2734 Clouds 12 1021 66 10000 9.3 350 20:57 21.05.2020
2735 Clouds 12 1021 66 10000 10.8 360 20:38 21.05.2020
2736 Clouds 12 1021 66 10000 10.8 360 20:20 21.05.2020
2737 Clouds 12 1021 71 10000 9.8 340 19:39 21.05.2020
2738 Clouds 12 1021 71 10000 9.8 340 19:19 21.05.2020
2739 Clouds 12 1022 71 10000 9.3 340 18:56 21.05.2020
2740 Clouds 12 1022 71 10000 10.3 340 18:36 21.05.2020
2741 Clouds 12 1022 71 10000 10.3 340 18:18 21.05.2020
2742 Clouds 12 1022 71 10000 9.8 350 17:43 21.05.2020
2743 Clouds 12 1022 71 10000 9.8 350 17:25 21.05.2020
2744 Clouds 12 1022 71 10000 10.3 350 16:48 21.05.2020
2745 Clouds 12 1022 71 10000 11.8 350 16:27 21.05.2020
2746 Clouds 12 1023 71 10000 10.3 350 15:58 21.05.2020
2747 Clouds 12 1023 66 10000 10.3 350 15:39 21.05.2020
2748 Clouds 12 1023 66 10000 10.3 350 15:20 21.05.2020
2749 Clouds 12 1023 71 10000 9.3 350 14:41 21.05.2020
2750 Clouds 12 1023 71 10000 9.3 350 14:22 21.05.2020
2751 Clouds 12 1023 66 10000 10.3 350 13:55 21.05.2020
2752 Clouds 12 1023 67 10000 8.7 340 13:37 21.05.2020
2753 Clouds 13 1023 67 10000 8.7 340 13:18 21.05.2020
2754 Clouds 12 1023 71 10000 9.3 360 12:39 21.05.2020
2755 Clouds 12 1023 71 10000 9.3 360 12:19 21.05.2020
2756 Clouds 12 1023 66 10000 10.3 360 11:56 21.05.2020
2757 Clouds 12 1023 66 10000 9.3 10 11:37 21.05.2020
2758 Clouds 12 1023 66 10000 9.3 10 11:19 21.05.2020
2759 Clouds 12 1024 66 10000 9.8 10 10:43 21.05.2020
2760 Clouds 12 1024 66 10000 9.8 10 10:23 21.05.2020
2761 Clouds 12 1024 66 10000 8.2 10 09:58 21.05.2020
2762 Clouds 12 1024 66 10000 9.3 20 09:39 21.05.2020
2763 Clouds 12 1024 66 10000 9.3 20 09:21 21.05.2020
2764 Clouds 12 1024 66 10000 9.8 10 08:50 21.05.2020
2765 Clouds 12 1024 62 10000 10.3 360 08:31 21.05.2020
2766 Clouds 12 1024 66 10000 9.8 360 07:54 21.05.2020
2767 Clouds 12 1024 66 10000 9.8 10 07:36 21.05.2020
2768 Clouds 12 1024 66 10000 9.8 10 07:18 21.05.2020
2769 Clouds 13 1024 62 10000 9.8 10 06:26 21.05.2020
2770 Clouds 13 1024 67 10000 9.3 10 05:49 21.05.2020
2771 Clouds 13 1025 67 10000 10.8 20 03:23 21.05.2020
2772 Clouds 13 1026 67 10000 11.3 10 02:57 21.05.2020
2773 Clouds 12 1026 71 10000 12.3 10 02:31 21.05.2020
2774 Clouds 13 1026 71 10000 11.8 360 01:49 21.05.2020
2775 Clouds 12 1027 71 10000 9.8 10 01:24 21.05.2020
2776 Clouds 12 1027 71 10000 9.8 10 00:54 21.05.2020
2777 Clouds 12 1027 71 10000 10.3 10 00:26 21.05.2020
2778 Clouds 12 1027 76 10000 11.3 10 23:56 20.05.2020
2779 Clouds 11 1027 76 10000 10.3 10 23:37 20.05.2020
2780 Clouds 11 1027 76 10000 10.3 10 23:18 20.05.2020
2781 Clouds 11 1027 71 10000 10.8 20 22:41 20.05.2020
2782 Clouds 11 1027 71 10000 10.8 20 22:23 20.05.2020
2783 Clouds 11 1027 76 10000 9.3 20 21:42 20.05.2020
2784 Clouds 11 1027 76 10000 9.3 20 21:23 20.05.2020
2785 Clouds 11 1027 76 10000 9.3 20 20:57 20.05.2020
2786 Clouds 11 1027 76 10000 9.3 20 20:38 20.05.2020
2787 Clouds 11 1027 76 10000 9.3 20 20:20 20.05.2020
2788 Clouds 10 1027 76 10000 10.8 20 19:41 20.05.2020
2789 Clouds 10 1027 76 10000 10.8 20 19:23 20.05.2020
2790 Clouds 10 1027 76 10000 10.3 20 18:57 20.05.2020
2791 Clouds 10 1027 76 10000 9.8 20 18:38 20.05.2020
2792 Clouds 9 1027 76 10000 9.8 20 18:20 20.05.2020
2793 Clouds 9 1028 76 10000 8.2 20 17:38 20.05.2020
2794 Clouds 9 1028 76 10000 8.2 20 17:19 20.05.2020
2795 Clouds 9 1028 76 10000 7.7 30 16:42 20.05.2020
2796 Clear 9 1028 76 10000 7.7 30 16:24 20.05.2020
2797 Clear 9 1028 76 10000 6.2 30 15:58 20.05.2020
2798 Clear 8 1028 76 10000 5.7 30 15:40 20.05.2020
2799 Clear 8 1028 76 10000 5.7 30 15:22 20.05.2020
2800 Clear 8 1029 76 10000 6.2 20 14:43 20.05.2020
2801 Clear 8 1029 76 10000 6.2 20 14:21 20.05.2020
2802 Clear 8 1029 81 10000 6.2 20 13:41 20.05.2020
2803 Clear 8 1029 81 10000 6.2 20 13:20 20.05.2020
2804 Clear 8 1029 81 10000 5.1 20 12:58 20.05.2020
2805 Clear 8 1029 81 10000 5.7 20 12:37 20.05.2020
2806 Clear 9 1029 81 10000 5.7 20 12:19 20.05.2020
2807 Clear 9 1029 81 10000 5.7 30 11:36 20.05.2020
2808 Clear 9 1029 81 10000 5.7 30 11:18 20.05.2020
2809 Clear 9 1029 81 10000 5.7 30 11:18 20.05.2020
2810 Clear 9 1029 71 10000 5.7 20 10:43 20.05.2020
2811 Clear 9 1029 71 10000 5.7 20 10:20 20.05.2020
2812 Clear 9 1028 76 10000 5.1 20 09:45 20.05.2020
2813 Clear 9 1028 76 10000 5.1 20 09:21 20.05.2020
2814 Clear 9 1028 76 10000 4.6 20 08:57 20.05.2020
2815 Clear 9 1028 76 10000 4.6 20 08:39 20.05.2020
2816 Clear 9 1028 76 10000 4.6 20 08:18 20.05.2020
2817 Clear 9 1028 71 10000 5.7 10 07:46 20.05.2020
2818 Clear 10 1028 71 10000 5.7 10 07:21 20.05.2020
2819 Clear 10 1028 71 10000 5.7 10 07:21 20.05.2020
2820 Clear 10 1029 66 10000 6.2 10 06:42 20.05.2020
2821 Clear 12 1029 62 10000 6.2 10 05:24 20.05.2020
2822 Clear 12 1029 62 10000 6.7 20 04:33 20.05.2020
2823 Clear 12 1029 62 10000 6.2 10 03:51 20.05.2020
2824 Clear 12 1030 66 10000 6.7 30 02:30 20.05.2020
2825 Clear 11 1031 66 10000 5.7 30 01:29 20.05.2020
2826 Clear 9 1031 70 10000 3.6 20 00:45 20.05.2020
2827 Clear 8 1031 70 10000 3.6 20 00:24 20.05.2020
2828 Clear 7 1031 81 10000 4.1 360 23:42 19.05.2020
2829 Clear 6 1031 81 10000 4.1 360 23:19 19.05.2020
2830 Clear 5 1031 81 10000 3.6 20 22:56 19.05.2020
2831 Clear 5 1031 81 10000 4.1 20 22:38 19.05.2020
2832 Clear 5 1031 81 10000 4.1 20 22:19 19.05.2020
2833 Clear 4 1031 86 10000 2.6 30 21:58 19.05.2020
2834 Clear 4 1031 93 10000 2.6 30 21:38 19.05.2020
2835 Clear 4 1031 93 10000 2.6 30 21:38 19.05.2020
2836 Clear 4 1031 93 10000 2.6 30 21:19 19.05.2020
2837 Clear 4 1030 93 10000 2.6 30 20:57 19.05.2020
2838 Clear 4 1030 86 10000 2.6 30 20:39 19.05.2020
2839 Clear 4 1030 86 10000 2.6 30 20:20 19.05.2020
2840 Clear 4 1030 93 10000 3.6 30 19:55 19.05.2020
2841 Clear 4 1030 93 10000 2.6 30 19:37 19.05.2020
2842 Clear 4 1030 93 10000 2.6 30 19:18 19.05.2020
2843 Clear 4 1030 93 10000 2.1 360 18:40 19.05.2020
2844 Clear 4 1030 93 10000 2.1 360 18:20 19.05.2020
2845 Clear 4 1031 93 10000 2.6 30 17:43 19.05.2020
2846 Clear 4 1031 93 10000 2.6 30 17:21 19.05.2020
2847 Clear 4 1031 93 10000 2.1 20 16:59 19.05.2020
2848 Clear 4 1031 93 10000 1.5 10 16:38 19.05.2020
2849 Clear 4 1031 93 10000 1.5 10 16:20 19.05.2020
2850 Clear 6 1031 93 10000 1.5 20 15:47 19.05.2020
2851 Clear 5 1032 93 10000 1.5 20 15:23 19.05.2020
2852 Clear 5 1032 93 10000 1.5 60 14:58 19.05.2020
2853 Clear 6 1032 93 10000 1.5 40 14:39 19.05.2020
2854 Clear 6 1032 93 10000 1.5 40 14:20 19.05.2020
2855 Clear 6 1032 87 10000 1 60 13:58 19.05.2020
2856 Clear 6 1032 93 10000 1.5 10 13:39 19.05.2020
2857 Clouds 6 1032 93 10000 1.5 10 13:20 19.05.2020
2858 Clouds 7 1032 81 10000 1.5 70 12:57 19.05.2020
2859 Clouds 7 1032 75 10000 2.1 120 12:38 19.05.2020
2860 Clouds 7 1032 75 10000 2.1 120 12:20 19.05.2020
2861 Clouds 8 1032 66 10000 2.1 120 11:54 19.05.2020
2862 Clouds 8 1032 66 10000 2.6 130 11:36 19.05.2020
2863 Clouds 8 1032 66 10000 2.6 130 11:36 19.05.2020
2864 Clouds 8 1032 66 10000 2.6 130 11:18 19.05.2020
2865 Clouds 9 1032 66 10000 3.6 130 10:42 19.05.2020
2866 Clouds 9 1032 66 10000 3.6 130 10:23 19.05.2020
2867 Clouds 9 1032 62 10000 4.6 140 09:47 19.05.2020
2868 Clouds 9 1031 66 10000 5.1 140 09:25 19.05.2020
2869 Clouds 9 1031 66 10000 5.1 140 09:25 19.05.2020
2870 Clouds 9 1031 66 10000 5.1 140 08:59 19.05.2020
2871 Clouds 10 1031 71 10000 4.6 140 08:41 19.05.2020
2872 Clouds 10 1031 71 10000 4.6 140 08:23 19.05.2020
2873 Clouds 10 1031 71 10000 6.7 160 07:42 19.05.2020
2874 Clouds 10 1031 71 10000 6.7 160 07:42 19.05.2020
2875 Clouds 10 1031 71 10000 6.7 160 07:24 19.05.2020
2876 Clouds 11 1031 66 10000 7.2 160 06:41 19.05.2020
2877 Clouds 11 1031 66 10000 7.2 160 06:22 19.05.2020
2878 Clouds 12 1031 71 10000 6.2 170 05:39 19.05.2020
2879 Clouds 12 1031 71 10000 6.7 170 04:54 19.05.2020
2880 Clear 12 1032 66 10000 6.7 170 02:59 19.05.2020
2881 Rain 11 1032 81 10000 5.1 180 01:21 19.05.2020
2882 Rain 11 1032 81 10000 6.7 150 00:41 19.05.2020
2883 Rain 11 1032 81 10000 6.7 150 00:19 19.05.2020
2884 Rain 11 1032 81 10000 6.7 180 23:40 18.05.2020
2885 Rain 11 1032 81 10000 6.7 180 23:20 18.05.2020
2886 Rain 11 1032 71 10000 6.7 150 22:59 18.05.2020
2887 Rain 11 1032 71 10000 6.7 150 22:59 18.05.2020
2888 Clear 11 1031 71 10000 7.2 160 22:39 18.05.2020
2889 Clear 11 1031 71 10000 7.2 160 22:20 18.05.2020
2890 Clear 11 1031 71 10000 8.7 170 21:43 18.05.2020
2891 Clouds 11 1031 71 10000 8.7 170 21:22 18.05.2020
2892 Clouds 11 1031 76 10000 9.3 170 20:58 18.05.2020
2893 Clear 11 1030 81 10000 9.8 180 20:39 18.05.2020
2894 Clouds 11 1030 81 10000 8.7 180 20:20 18.05.2020
2895 Clouds 11 1030 81 10000 8.7 180 19:56 18.05.2020
2896 Clouds 11 1030 81 10000 8.7 180 19:38 18.05.2020
2897 Clouds 11 1030 87 10000 9.8 180 19:18 18.05.2020
2898 Clouds 11 1030 87 10000 8.7 180 18:44 18.05.2020
2899 Rain 11 1030 87 10000 8.7 180 18:22 18.05.2020
2900 Rain 11 1030 87 10000 8.7 170 17:39 18.05.2020
2901 Rain 11 1030 87 10000 8.7 170 17:18 18.05.2020
2902 Clouds 11 1030 87 10000 8.7 180 16:56 18.05.2020
2903 Clouds 11 1030 87 10000 8.7 170 16:38 18.05.2020
2904 Clouds 11 1030 87 10000 8.7 170 16:18 18.05.2020
2905 Clouds 11 1030 81 10000 9.3 170 15:55 18.05.2020
2906 Clouds 11 1030 76 10000 10.8 170 15:37 18.05.2020
2907 Clouds 12 1030 76 10000 10.8 170 15:18 18.05.2020
2908 Clouds 12 1030 81 10000 8.7 170 14:43 18.05.2020
2909 Rain 12 1030 81 10000 8.7 170 14:24 18.05.2020
2910 Clouds 12 1029 76 10000 9.3 170 13:57 18.05.2020
2911 Clouds 12 1029 81 10000 9.3 180 13:39 18.05.2020
2912 Rain 12 1029 81 10000 9.3 180 13:19 18.05.2020
2913 Rain 12 1029 81 10000 9.3 180 12:56 18.05.2020
2914 Rain 12 1029 82 10000 10.3 180 12:37 18.05.2020
2915 Rain 12 1029 82 10000 10.3 180 12:18 18.05.2020
2916 Rain 11 1029 76 10000 8.7 180 11:46 18.05.2020
2917 Rain 11 1029 76 10000 8.7 180 11:27 18.05.2020
2918 Rain 11 1029 87 10000 8.7 190 10:57 18.05.2020
2919 Rain 12 1029 82 10000 8.7 180 10:38 18.05.2020
2920 Rain 12 1029 82 10000 8.7 180 10:20 18.05.2020
2921 Rain 11 1028 87 10000 8.7 180 09:42 18.05.2020
2922 Clouds 12 1028 87 10000 8.7 180 09:24 18.05.2020
2923 Clouds 12 1027 87 10000 8.2 180 08:44 18.05.2020
2924 Rain 12 1027 87 10000 8.2 180 08:25 18.05.2020
2925 Rain 12 1027 82 10000 7.7 170 07:52 18.05.2020
2926 Clear 12 1027 76 10000 6.7 170 07:26 18.05.2020
2927 Clear 12 1027 82 10000 5.7 170 06:50 18.05.2020
2928 Clear 12 1026 76 10000 5.7 190 06:32 18.05.2020
2929 Clouds 13 1026 82 10000 6.7 200 05:49 18.05.2020
2930 Clouds 13 1026 82 10000 5.1 200 04:42 18.05.2020
2931 Clouds 14 1026 82 10000 5.1 210 03:30 18.05.2020
2932 Clear 15 1026 72 10000 1.5 10 02:19 18.05.2020
2933 Clear 13 1026 82 10000 5.1 360 00:55 18.05.2020
2934 Clear 12 1026 87 10000 5.1 360 00:24 18.05.2020
2935 Clear 10 1026 87 10000 4.6 360 23:57 17.05.2020
2936 Clear 10 1026 93 10000 4.1 10 23:38 17.05.2020
2937 Clear 9 1026 93 10000 4.1 10 23:19 17.05.2020
2938 Clear 8 1026 93 10000 3.6 20 22:55 17.05.2020
2939 Clear 8 1026 93 10000 2.6 30 22:37 17.05.2020
2940 Clear 8 1026 93 10000 2.6 30 22:18 17.05.2020
2941 Clear 7 1026 93 10000 4.1 360 21:42 17.05.2020
2942 Clear 7 1026 93 10000 4.1 360 21:20 17.05.2020
2943 Clear 7 1026 93 10000 2.6 40 20:59 17.05.2020
2944 Clear 7 1026 93 10000 3.1 30 20:40 17.05.2020
2945 Clear 7 1026 93 10000 3.1 30 20:19 17.05.2020
2946 Clear 7 1026 100 10000 2.1 30 19:55 17.05.2020
2947 Clear 8 1026 93 10000 2.6 30 19:37 17.05.2020
2948 Clear 8 1026 93 10000 2.6 30 19:18 17.05.2020
2949 Clear 8 1027 93 10000 1.5 40 18:39 17.05.2020
2950 Clear 8 1027 93 10000 1.5 40 18:21 17.05.2020
2951 Clear 8 1027 93 10000 2.1 40 17:56 17.05.2020
2952 Clear 9 1027 93 10000 1.5 40 17:36 17.05.2020
2953 Clear 8 1027 93 10000 1.5 40 17:18 17.05.2020
2954 Clear 9 1027 93 10000 1 40 16:40 17.05.2020
2955 Clear 9 1027 93 10000 1 40 16:20 17.05.2020
2956 Clear 8 1028 100 10000 1.5 40 15:56 17.05.2020
2957 Clear 9 1028 100 10000 1.5 40 15:37 17.05.2020
2958 Rain 8 1028 100 10000 1.5 40 15:18 17.05.2020
2959 Clear 9 1028 100 10000 1 330 14:42 17.05.2020
2960 Clear 9 1028 100 10000 1 330 14:24 17.05.2020
2961 Clear 9 1028 100 10000 1 330 14:24 17.05.2020
2962 Clear 9 1028 93 10000 1.5 20 13:57 17.05.2020
2963 Clear 9 1028 93 10000 1.5 360 13:37 17.05.2020
2964 Clear 9 1028 93 10000 1.5 360 13:18 17.05.2020
2965 Clear 14 1028 87 10000 6.2 200 04:21 17.05.2020
2966 Clear 14 1030 82 10000 5.1 200 02:29 17.05.2020
2967 Clear 14 1030 82 10000 5.1 200 02:29 17.05.2020
2968 Clouds 14 1030 82 10000 5.1 190 01:56 17.05.2020
2969 Clouds 14 1030 82 10000 5.1 190 00:58 17.05.2020
2970 Clouds 13 1030 82 10000 4.1 180 00:39 17.05.2020
2971 Clouds 13 1030 87 10000 5.7 190 23:57 16.05.2020
2972 Clouds 12 1030 87 10000 4.6 190 23:39 16.05.2020
2973 Clouds 12 1030 87 10000 4.6 190 23:20 16.05.2020
2974 Clouds 12 1030 87 10000 5.1 160 22:58 16.05.2020
2975 Clouds 12 1030 82 10000 5.1 180 22:39 16.05.2020
2976 Clouds 12 1030 82 10000 5.1 180 22:19 16.05.2020
2977 Clouds 11 1030 87 10000 5.7 170 21:45 16.05.2020
2978 Clouds 11 1030 87 10000 5.7 170 21:25 16.05.2020
2979 Clouds 11 1029 87 10000 5.7 170 20:58 16.05.2020
2980 Clouds 11 1029 87 10000 5.7 160 20:39 16.05.2020
2981 Clouds 11 1029 87 10000 5.7 160 20:21 16.05.2020
2982 Clouds 11 1029 87 10000 5.1 170 19:57 16.05.2020
2983 Clouds 11 1029 87 10000 5.7 170 19:39 16.05.2020
2984 Clouds 11 1029 87 10000 5.7 170 19:21 16.05.2020
2985 Clouds 11 1029 87 10000 5.7 170 19:21 16.05.2020
2986 Clouds 11 1030 87 10000 5.1 180 18:42 16.05.2020
2987 Clouds 12 1030 87 10000 5.1 180 18:23 16.05.2020
2988 Clouds 12 1030 87 10000 6.2 170 17:56 16.05.2020
2989 Clouds 12 1030 76 10000 6.7 170 17:38 16.05.2020
2990 Clouds 12 1030 76 10000 6.7 170 17:19 16.05.2020
2991 Clouds 12 1030 76 10000 7.2 170 16:40 16.05.2020
2992 Clouds 12 1030 76 10000 7.2 170 16:22 16.05.2020
2993 Clouds 12 1030 82 10000 7.2 170 15:57 16.05.2020
2994 Clouds 12 1030 76 10000 6.7 170 15:38 16.05.2020
2995 Clouds 12 1030 76 10000 6.7 170 15:19 16.05.2020
2996 Clouds 12 1030 82 10000 6.2 170 14:43 16.05.2020
2997 Clouds 12 1030 82 10000 6.2 170 14:20 16.05.2020
2998 Clouds 12 1030 82 10000 6.2 170 13:57 16.05.2020
2999 Clouds 12 1030 82 10000 6.7 170 13:39 16.05.2020
3000 Clouds 12 1030 82 10000 6.7 170 13:21 16.05.2020
3001 Clouds 12 1030 82 10000 7.2 170 12:45 16.05.2020
3002 Clouds 12 1030 82 10000 7.2 170 12:21 16.05.2020
3003 Clouds 12 1030 82 10000 7.2 170 11:56 16.05.2020
3004 Clouds 12 1030 82 10000 7.2 170 11:38 16.05.2020
3005 Clouds 12 1030 82 10000 7.2 170 11:20 16.05.2020
3006 Clouds 12 1030 82 10000 7.2 170 10:55 16.05.2020
3007 Clouds 12 1030 82 10000 6.7 170 10:37 16.05.2020
3008 Clouds 12 1030 82 10000 6.7 170 10:18 16.05.2020
3009 Clouds 12 1030 82 10000 6.7 170 10:18 16.05.2020
3010 Clouds 12 1030 82 10000 6.7 170 09:44 16.05.2020
3011 Clouds 12 1030 82 10000 6.7 170 09:25 16.05.2020
3012 Clouds 12 1029 82 10000 6.7 170 08:43 16.05.2020
3013 Clouds 12 1029 82 10000 6.7 170 08:21 16.05.2020
3014 Clouds 12 1029 82 10000 7.7 180 07:46 16.05.2020
3015 Clouds 12 1029 82 10000 7.7 180 07:27 16.05.2020
3016 Clouds 12 1029 82 10000 7.2 180 06:59 16.05.2020
3017 Clouds 12 1028 82 10000 7.7 180 06:41 16.05.2020
3018 Clouds 12 1028 82 10000 7.7 180 06:18 16.05.2020
3019 Clouds 12 1028 82 10000 7.7 180 05:38 16.05.2020
3020 Clouds 12 1028 82 10000 8.2 180 03:58 16.05.2020
3021 Clouds 12 1028 82 10000 7.2 180 02:59 16.05.2020
3022 Clouds 12 1029 82 10000 7.7 180 02:21 16.05.2020
3023 Clouds 12 1029 82 10000 7.2 180 01:54 16.05.2020
3024 Clouds 12 1029 82 10000 6.7 170 01:27 16.05.2020
3025 Clouds 12 1029 82 10000 7.2 180 00:51 16.05.2020
3026 Clouds 12 1028 82 10000 7.7 180 00:22 16.05.2020
3027 Clouds 12 1028 87 10000 7.2 180 23:41 15.05.2020
3028 Clouds 12 1028 87 10000 7.2 180 23:20 15.05.2020
3029 Clouds 12 1028 87 10000 8.2 190 22:59 15.05.2020
3030 Clouds 12 1028 87 10000 6.7 180 22:40 15.05.2020
3031 Clouds 12 1028 87 10000 6.7 180 22:19 15.05.2020
3032 Clouds 12 1027 87 10000 7.7 180 21:40 15.05.2020
3033 Clouds 11 1027 87 10000 7.7 180 21:22 15.05.2020
3034 Clouds 11 1027 87 10000 7.2 180 20:59 15.05.2020
3035 Clouds 11 1027 87 10000 7.2 180 20:59 15.05.2020
3036 Clouds 11 1027 87 10000 6.7 180 20:41 15.05.2020
3037 Clouds 11 1027 87 10000 6.7 180 20:23 15.05.2020
3038 Clouds 11 1026 87 10000 6.2 180 19:58 15.05.2020
3039 Clouds 11 1026 87 10000 6.7 190 19:40 15.05.2020
3040 Clouds 11 1026 87 10000 6.7 190 19:22 15.05.2020
3041 Clouds 11 1026 87 10000 6.7 180 18:46 15.05.2020
3042 Clouds 11 1026 87 10000 6.7 180 18:27 15.05.2020
3043 Clouds 11 1026 87 10000 6.7 180 17:41 15.05.2020
3044 Clouds 11 1026 87 10000 6.7 180 17:20 15.05.2020
3045 Clouds 11 1026 82 10000 6.2 180 16:58 15.05.2020
3046 Clouds 11 1026 87 10000 6.7 190 16:39 15.05.2020
3047 Clouds 11 1026 87 10000 6.7 190 16:20 15.05.2020
3048 Clouds 11 1026 87 10000 6.7 190 15:59 15.05.2020
3049 Clouds 11 1026 87 10000 6.7 190 15:39 15.05.2020
3050 Clouds 11 1026 87 10000 6.7 190 15:20 15.05.2020
3051 Clouds 11 1026 87 10000 6.7 190 15:20 15.05.2020
3052 Clouds 11 1026 87 10000 6.7 190 14:55 15.05.2020
3053 Clouds 11 1026 82 10000 6.7 190 14:36 15.05.2020
3054 Clouds 11 1026 82 10000 6.7 190 14:18 15.05.2020
3055 Clouds 11 1026 82 10000 6.7 190 14:18 15.05.2020
3056 Clouds 11 1026 82 10000 6.2 180 13:41 15.05.2020
3057 Clouds 11 1026 82 10000 6.2 180 13:20 15.05.2020
3058 Clouds 11 1026 82 10000 6.2 190 12:41 15.05.2020
3059 Clouds 11 1026 82 10000 6.2 190 12:21 15.05.2020
3060 -273 0 0 0 0 0 11:59 15.05.2020
3061 Clouds 12 1025 82 10000 5.7 180 11:40 15.05.2020
3062 Clouds 12 1025 82 10000 5.7 180 11:40 15.05.2020
3063 Clouds 12 1025 82 10000 5.7 180 11:21 15.05.2020
3064 Clouds 12 1025 82 10000 5.7 180 11:21 15.05.2020
3065 Clouds 12 1025 76 10000 5.7 180 10:59 15.05.2020
3066 Clouds 12 1025 76 10000 6.2 170 10:41 15.05.2020
3067 Clouds 12 1025 76 10000 6.2 170 10:23 15.05.2020
3068 Clouds 12 1025 76 10000 6.2 170 09:59 15.05.2020
3069 Clouds 12 1025 81 10000 6.7 170 09:38 15.05.2020
3070 Clouds 12 1025 81 10000 6.7 170 09:19 15.05.2020
3071 Clouds 12 1025 81 10000 6.7 170 08:57 15.05.2020
3072 Clouds 12 1024 81 10000 7.2 160 08:37 15.05.2020
3073 Clouds 12 1024 81 10000 7.2 160 08:18 15.05.2020
3074 Clouds 12 1024 82 10000 6.2 170 07:44 15.05.2020
3075 Clouds 12 1024 82 10000 6.2 170 07:24 15.05.2020
3076 Clouds 12 1024 76 10000 6.7 170 06:52 15.05.2020
3077 Clouds 13 1024 82 10000 6.7 170 05:49 15.05.2020
3078 Clouds 13 1023 71 10000 7.2 170 04:28 15.05.2020
3079 Clouds 13 1023 71 10000 7.2 180 03:47 15.05.2020
3080 Clouds 14 1023 76 10000 7.7 180 02:30 15.05.2020
3081 Clouds 14 1023 82 10000 5.7 180 01:21 15.05.2020
3082 Clouds 15 1023 72 10000 0.5 230 00:50 15.05.2020
3083 Clouds 15 1023 77 10000 1.5 360 00:30 15.05.2020
3084 Clouds 14 1022 87 10000 3.1 10 23:45 14.05.2020
3085 Clouds 13 1022 87 10000 3.1 10 23:24 14.05.2020
3086 Clouds 13 1022 82 10000 4.1 20 22:59 14.05.2020
3087 Clouds 13 1022 87 10000 3.6 30 22:40 14.05.2020
3088 Clouds 13 1022 87 10000 3.6 30 22:19 14.05.2020
3089 Clouds 12 1021 87 10000 4.1 20 21:57 14.05.2020
3090 Clouds 12 1021 87 10000 4.1 20 21:39 14.05.2020
3091 Clouds 13 1021 87 10000 4.1 20 21:19 14.05.2020
3092 Clouds 13 1021 87 10000 5.1 20 20:55 14.05.2020
3093 Clouds 13 1021 87 10000 5.1 20 20:55 14.05.2020
3094 Clouds 13 1021 87 10000 4.1 30 20:36 14.05.2020
3095 Clouds 13 1021 87 10000 4.1 30 20:18 14.05.2020
3096 Clouds 13 1020 87 10000 4.6 20 19:41 14.05.2020
3097 Clouds 13 1020 87 10000 4.6 20 19:21 14.05.2020
3098 Clouds 13 1020 87 10000 4.6 30 18:58 14.05.2020
3099 Clouds 13 1020 87 10000 4.1 20 18:38 14.05.2020
3100 Clouds 13 1020 87 10000 4.1 20 18:20 14.05.2020
3101 Clouds 13 1020 87 10000 4.1 20 17:59 14.05.2020
3102 Clouds 13 1021 82 10000 4.6 20 17:37 14.05.2020
3103 Clouds 13 1021 82 10000 4.6 20 17:19 14.05.2020
3104 Clouds 13 1021 82 10000 5.1 10 16:58 14.05.2020
3105 Clouds 13 1021 87 10000 5.1 10 16:38 14.05.2020
3106 Clouds 13 1021 87 10000 5.1 10 16:19 14.05.2020
3107 Clouds 13 1021 82 10000 5.7 360 15:56 14.05.2020
3108 Clouds 13 1021 87 10000 6.2 360 15:38 14.05.2020
3109 Clouds 13 1021 87 10000 6.2 360 15:19 14.05.2020
3110 Clouds 14 1021 87 10000 6.2 360 14:55 14.05.2020
3111 Clouds 14 1021 82 10000 6.2 350 14:36 14.05.2020
3112 Clouds 14 1021 82 10000 6.2 350 14:18 14.05.2020
3113 Clouds 14 1021 82 10000 5.7 350 13:44 14.05.2020
3114 Clouds 14 1021 82 10000 5.7 350 13:20 14.05.2020
3115 Clouds 14 1021 82 10000 6.2 350 12:59 14.05.2020
3116 Clouds 14 1021 82 10000 6.7 350 12:40 14.05.2020
3117 Clouds 14 1021 82 10000 6.7 350 12:20 14.05.2020
3118 Clouds 14 1021 82 10000 6.7 350 11:59 14.05.2020
3119 Clouds 14 1021 82 10000 6.7 350 11:59 14.05.2020
3120 Clouds 14 1021 77 10000 6.2 350 11:40 14.05.2020
3121 Clouds 14 1021 77 10000 6.2 350 11:21 14.05.2020
3122 Clouds 14 1021 77 10000 6.2 350 10:57 14.05.2020
3123 Clouds 14 1021 77 10000 5.7 350 10:38 14.05.2020
3124 Clouds 14 1021 77 10000 5.7 350 10:20 14.05.2020
3125 Clouds 14 1021 77 10000 6.7 350 09:42 14.05.2020
3126 Clouds 14 1021 77 10000 6.7 350 09:23 14.05.2020
3127 Clouds 14 1020 87 10000 7.2 10 08:43 14.05.2020
3128 Clouds 14 1020 87 10000 7.2 10 08:21 14.05.2020
3129 Clouds 14 1020 82 10000 8.2 10 07:47 14.05.2020
3130 Clouds 14 1020 77 10000 7.7 20 07:25 14.05.2020
3131 Clouds 14 1020 77 10000 8.2 10 06:55 14.05.2020
3132 Clouds 14 1019 85 0 0.89 19 06:34 14.05.2020
3133 Clouds 15 1020 67 10000 7.2 360 05:58 14.05.2020
3134 Clouds 15 1020 67 10000 8.2 360 05:36 14.05.2020
3135 Clouds 16 1021 59 10000 8.2 10 04:34 14.05.2020
3136 Clouds 16 1021 59 10000 7.7 10 03:30 14.05.2020
3137 Clouds 16 1022 63 10000 7.2 10 02:43 14.05.2020
3138 Clouds 16 1022 63 10000 7.2 10 02:19 14.05.2020
3139 Clouds 15 1023 67 10000 6.2 10 01:35 14.05.2020
3140 Clouds 13 1023 67 10000 3.6 30 00:50 14.05.2020
3141 Clouds 13 1023 71 10000 3.1 10 00:25 14.05.2020
3142 Clouds 12 1024 87 10000 3.1 10 23:45 13.05.2020
3143 Clouds 11 1024 87 10000 3.1 10 23:22 13.05.2020
3144 Clouds 10 1024 87 10000 4.6 360 22:56 13.05.2020
3145 Clouds 9 1024 87 10000 2.6 20 22:38 13.05.2020
3146 Clouds 9 1024 87 10000 2.6 20 22:19 13.05.2020
3147 Clouds 9 1023 81 10000 2.1 40 21:57 13.05.2020
3148 Clouds 9 1023 93 10000 3.1 10 21:38 13.05.2020
3149 Clouds 9 1023 93 10000 3.1 10 21:18 13.05.2020
3150 Clouds 8 1023 87 10000 2.6 30 20:41 13.05.2020
3151 Clouds 8 1023 87 10000 2.6 30 20:23 13.05.2020
3152 Clouds 9 1023 87 10000 3.6 350 19:44 13.05.2020
3153 Clouds 9 1023 87 10000 3.6 350 19:25 13.05.2020
3154 Clouds 9 1023 87 10000 3.6 350 19:25 13.05.2020
3155 Clouds 9 1023 93 10000 2.6 40 18:58 13.05.2020
3156 Clouds 9 1024 93 10000 2.1 40 18:40 13.05.2020
3157 Clouds 9 1024 93 10000 2.1 40 18:21 13.05.2020
3158 Clouds 9 1024 87 10000 1.5 50 17:39 13.05.2020
3159 Clouds 9 1024 87 10000 1.5 50 17:20 13.05.2020
3160 Clouds 9 1024 87 10000 2.6 40 16:58 13.05.2020
3161 Clouds 9 1024 87 10000 1.5 30 16:39 13.05.2020
3162 Clouds 10 1024 87 10000 1.5 30 16:19 13.05.2020
3163 Clouds 9 1024 93 10000 2.1 40 15:43 13.05.2020
3164 Clouds 10 1024 93 10000 2.1 40 15:20 13.05.2020
3165 Clouds 10 1024 93 10000 1.5 360 14:58 13.05.2020
3166 Clouds 10 1024 93 10000 1.5 30 14:40 13.05.2020
3167 Clouds 10 1024 93 10000 1.5 30 14:22 13.05.2020
3168 Clouds 10 1025 93 10000 1.5 30 13:57 13.05.2020
3169 Clouds 10 1024 100 10000 2.1 30 13:39 13.05.2020
3170 Clouds 10 1024 100 10000 2.1 30 13:20 13.05.2020
3171 Clouds 10 1024 100 10000 2.6 40 12:54 13.05.2020
3172 Clouds 10 1025 93 10000 2.6 20 12:36 13.05.2020
3173 Clouds 10 1025 93 10000 2.6 20 12:18 13.05.2020
3174 Clouds 10 1025 93 10000 1.5 40 11:54 13.05.2020
3175 Clouds 10 1025 93 10000 1.5 10 11:36 13.05.2020
3176 Clouds 10 1025 93 10000 1.5 10 11:18 13.05.2020
3177 Clouds 10 1025 93 10000 2.1 30 10:54 13.05.2020
3178 Clouds 10 1025 93 10000 1.5 40 10:36 13.05.2020
3179 Clouds 11 1025 93 10000 1.5 40 10:18 13.05.2020
3180 Clouds 11 1025 93 10000 1.5 40 10:18 13.05.2020
3181 Clouds 11 1025 87 6000 1 320 09:41 13.05.2020
3182 Clouds 11 1025 87 6000 1 320 09:22 13.05.2020
3183 Clouds 12 1025 87 10000 1.28 127 08:43 13.05.2020
3184 Clouds 12 1025 87 10000 0.95 130 08:22 13.05.2020
3185 Clouds 12 1025 93 10000 1 180 07:59 13.05.2020
3186 Clouds 13 1025 93 10000 2.6 170 07:37 13.05.2020
3187 Clouds 14 1025 93 10000 2.6 170 06:59 13.05.2020
3188 Clouds 14 1025 82 10000 2.1 200 06:41 13.05.2020
3189 Clouds 14 1025 87 10000 2.6 210 05:54 13.05.2020
3190 Clouds 15 1025 82 10000 3.1 200 04:48 13.05.2020
3191 Clouds 15 1026 76 10000 3.1 200 02:59 13.05.2020
3192 Clouds 15 1026 72 10000 2.1 190 02:26 13.05.2020
3193 Clouds 14 1027 67 10000 1 40 01:26 13.05.2020
3194 Clouds 12 1027 81 10000 2.1 30 00:41 13.05.2020
3195 Clouds 11 1027 81 10000 2.1 30 00:19 13.05.2020
3196 Clouds 11 1028 87 10000 2.1 40 23:40 12.05.2020
3197 Clouds 10 1028 87 10000 2.1 40 23:21 12.05.2020
3198 Clouds 9 1027 93 10000 1.5 360 22:57 12.05.2020
3199 Clouds 8 1027 93 10000 2.1 40 22:39 12.05.2020
3200 Clouds 8 1027 93 10000 2.1 40 22:20 12.05.2020
3201 Clouds 8 1027 87 10000 1.5 40 21:55 12.05.2020
3202 Clouds 8 1027 93 10000 1.5 30 21:37 12.05.2020
3203 Clouds 9 1027 93 10000 1.5 30 21:18 12.05.2020
3204 Clouds 9 1027 87 10000 2.6 50 20:56 12.05.2020
3205 Clouds 9 1027 93 10000 1.5 10 20:38 12.05.2020
3206 Clouds 8 1027 93 10000 1.5 10 20:19 12.05.2020
3207 Clouds 9 1026 93 10000 2.1 70 19:55 12.05.2020
3208 Clouds 9 1026 87 10000 2.1 40 19:37 12.05.2020
3209 Clouds 9 1026 87 10000 2.1 40 19:18 12.05.2020
3210 Clouds 9 1026 87 10000 2.1 40 18:42 12.05.2020
3211 Clouds 9 1026 87 10000 2.1 40 18:23 12.05.2020
3212 Clouds 9 1026 87 10000 1.5 10 17:57 12.05.2020
3213 Clouds 10 1026 81 10000 2.1 40 17:38 12.05.2020
3214 Clouds 10 1026 81 10000 2.1 40 17:20 12.05.2020
3215 Clouds 10 1026 81 10000 2.6 40 16:42 12.05.2020
3216 Clouds 11 1026 81 10000 2.6 40 16:22 12.05.2020
3217 Clouds 10 1026 87 10000 2.6 50 15:55 12.05.2020
3218 Clouds 10 1026 87 10000 1.5 10 15:36 12.05.2020
3219 Clouds 10 1026 87 10000 1.5 10 15:36 12.05.2020
3220 Clouds 11 1026 87 10000 1.5 10 15:18 12.05.2020
3221 Clouds 10 1026 87 10000 4.1 360 14:55 12.05.2020
3222 Clouds 11 1025 87 10000 2.6 30 14:36 12.05.2020
3223 Clouds 11 1025 87 10000 2.6 30 14:18 12.05.2020
3224 Clouds 10 1025 87 10000 1.5 20 13:55 12.05.2020
3225 Clouds 10 1025 87 10000 2.1 40 13:37 12.05.2020
3226 Clouds 11 1025 87 10000 2.1 40 13:18 12.05.2020
3227 Clouds 11 1025 87 10000 1.5 40 12:56 12.05.2020
3228 Clouds 10 1025 87 10000 1.5 40 12:37 12.05.2020
3229 Clouds 11 1025 87 10000 1.5 40 12:19 12.05.2020
3230 Clouds 11 1024 87 10000 2.1 360 11:56 12.05.2020
3231 Clouds 11 1024 81 10000 2.1 10 11:37 12.05.2020
3232 Clouds 11 1024 81 10000 2.1 10 11:19 12.05.2020
3233 Clouds 11 1024 87 10000 2.1 20 10:55 12.05.2020
3234 Clouds 11 1024 81 10000 1.5 360 10:37 12.05.2020
3235 Clouds 11 1024 81 10000 1.5 360 10:18 12.05.2020
3236 Clouds 12 1024 76 10000 1.5 360 09:56 12.05.2020
3237 Clouds 12 1024 82 10000 1.5 30 09:38 12.05.2020
3238 Clouds 12 1024 82 10000 1.5 30 09:19 12.05.2020
3239 Clouds 13 1023 76 10000 3.1 30 08:40 12.05.2020
3240 Clouds 13 1023 76 10000 3.1 30 08:21 12.05.2020
3241 Clouds 13 1022 72 10000 3.6 350 07:45 12.05.2020
3242 Clouds 14 1022 72 10000 3.6 350 07:27 12.05.2020
3243 Clouds 14 1022 72 10000 3.6 360 06:56 12.05.2020
3244 Clouds 15 1022 67 10000 3.1 10 06:37 12.05.2020
3245 Clouds 15 1022 67 10000 3.1 10 06:19 12.05.2020
3246 Clouds 16 1022 59 10000 3.1 330 05:45 12.05.2020
3247 Clouds 17 1022 55 10000 3.6 340 03:53 12.05.2020
3248 Clouds 17 1022 59 10000 4.1 350 03:18 12.05.2020
3249 Clouds 17 1022 63 10000 3.1 10 02:27 12.05.2020
3250 Clouds 16 1023 63 10000 4.1 360 01:35 12.05.2020
3251 Clouds 15 1023 72 10000 3.1 360 00:58 12.05.2020
3252 Clouds 14 1022 76 10000 2.6 360 00:23 12.05.2020
3253 Clouds 13 1022 76 10000 2.1 350 23:56 11.05.2020
3254 Clouds 13 1022 76 10000 2.1 20 23:37 11.05.2020
3255 Clouds 13 1022 76 10000 2.1 20 23:19 11.05.2020
3256 Clouds 12 1022 76 10000 1 30 22:55 11.05.2020
3257 Clouds 11 1022 87 10000 1.5 20 22:37 11.05.2020
3258 Clouds 11 1022 87 10000 1.5 20 22:19 11.05.2020
3259 Clouds 11 1022 87 10000 2.1 360 21:54 11.05.2020
3260 Clouds 11 1021 87 10000 2.6 340 21:36 11.05.2020
3261 Clouds 12 1021 87 10000 2.6 340 21:18 11.05.2020
3262 Clouds 12 1021 81 10000 1.5 340 20:42 11.05.2020
3263 Clouds 12 1021 81 10000 1.5 340 20:21 11.05.2020
3264 Clouds 12 1020 87 10000 1 310 19:59 11.05.2020
3265 Clouds 12 1020 76 10000 1.5 60 19:41 11.05.2020
3266 Clouds 12 1020 76 10000 1.5 60 19:22 11.05.2020
3267 Clouds 12 1020 76 10000 1 50 18:57 11.05.2020
3268 Clouds 12 1020 81 10000 1 30 18:38 11.05.2020
3269 Clouds 12 1020 81 10000 1 30 18:19 11.05.2020
3270 Clouds 12 1020 87 10000 1.5 350 17:57 11.05.2020
3271 Clouds 12 1020 81 10000 1 350 17:39 11.05.2020
3272 Clouds 12 1020 81 10000 1 350 17:20 11.05.2020
3273 Clouds 12 1020 76 10000 1 20 16:56 11.05.2020
3274 Clouds 12 1020 81 10000 2.6 30 16:37 11.05.2020
3275 Clouds 12 1020 81 10000 2.6 30 16:18 11.05.2020
3276 Clouds 12 1020 76 10000 2.6 30 15:42 11.05.2020
3277 Clouds 12 1020 76 10000 2.6 30 15:20 11.05.2020
3278 Clouds 12 1020 82 10000 3.6 30 14:58 11.05.2020
3279 Clouds 12 1020 87 10000 2.6 360 14:40 11.05.2020
3280 Clouds 13 1020 87 10000 2.6 360 14:21 11.05.2020
3281 Clouds 11 1020 87 10000 2.6 10 13:54 11.05.2020
3282 Clouds 11 1020 87 10000 2.6 10 13:36 11.05.2020
3283 Clouds 12 1020 87 10000 2.6 10 13:18 11.05.2020
3284 Clouds 11 1020 87 10000 2.6 10 12:54 11.05.2020
3285 Clouds 12 1020 81 10000 3.1 360 12:36 11.05.2020
3286 Clouds 12 1020 81 10000 3.1 360 12:18 11.05.2020
3287 Clouds 12 1020 76 10000 3.1 20 11:41 11.05.2020
3288 Clouds 12 1020 76 10000 3.1 20 11:22 11.05.2020
3289 Clouds 12 1020 76 10000 3.1 20 10:58 11.05.2020
3290 Clouds 12 1020 76 10000 3.1 20 10:58 11.05.2020
3291 Clouds 13 1020 76 10000 1.5 10 10:40 11.05.2020
3292 Clouds 13 1020 76 10000 1.5 10 10:21 11.05.2020
3293 Clouds 13 1020 76 10000 1.5 20 09:58 11.05.2020
3294 Clouds 14 1020 76 10000 3.1 30 09:39 11.05.2020
3295 Clouds 14 1020 76 10000 3.1 30 09:19 11.05.2020
3296 Clouds 14 1020 76 10000 3.1 30 09:19 11.05.2020
3297 Clouds 13 1020 82 10000 3.1 10 08:55 11.05.2020
3298 Clouds 13 1020 76 10000 4.1 10 08:37 11.05.2020
3299 Clouds 14 1019 76 10000 4.6 10 08:18 11.05.2020
3300 Clouds 14 1019 72 10000 5.1 360 07:42 11.05.2020
3301 Clouds 15 1019 72 10000 5.1 360 07:23 11.05.2020
3302 Clouds 16 1019 52 10000 6.2 350 06:40 11.05.2020
3303 Clouds 17 1019 55 10000 6.2 360 05:56 11.05.2020
3304 Clouds 17 1019 55 10000 6.2 350 05:24 11.05.2020
3305 Clouds 17 1019 55 10000 6.7 360 04:24 11.05.2020
3306 Clouds 17 1020 59 10000 6.7 360 02:47 11.05.2020
3307 Clouds 17 1021 63 10000 6.7 350 02:29 11.05.2020
3308 Clouds 17 1021 63 10000 6.7 10 01:31 11.05.2020
3309 Clouds 16 1021 67 10000 6.2 10 00:44 11.05.2020
3310 Clouds 16 1021 67 10000 6.2 10 00:19 11.05.2020
3311 Clouds 15 1021 72 10000 5.1 10 23:43 10.05.2020
3312 Clouds 15 1021 72 10000 5.1 10 23:20 10.05.2020
3313 Clouds 15 1021 72 10000 4.6 20 22:55 10.05.2020
3314 Clouds 14 1021 72 10000 4.1 360 22:37 10.05.2020
3315 Clouds 14 1021 72 10000 4.1 360 22:19 10.05.2020
3316 Clouds 14 1020 72 10000 4.6 360 21:44 10.05.2020
3317 Clouds 14 1020 72 10000 4.6 360 21:19 10.05.2020
3318 Clouds 14 1020 67 10000 4.1 20 20:54 10.05.2020
3319 Clouds 15 1020 63 10000 5.1 10 20:36 10.05.2020
3320 Clouds 15 1020 63 10000 5.1 10 20:18 10.05.2020
3321 Clouds 15 1020 72 10000 3.6 10 19:40 10.05.2020
3322 Clouds 15 1020 72 10000 3.6 10 19:22 10.05.2020
3323 Clouds 15 1020 67 10000 3.1 340 18:57 10.05.2020
3324 Clouds 14 1020 71 10000 3.1 20 18:37 10.05.2020
3325 Clouds 14 1020 71 10000 3.1 20 18:19 10.05.2020
3326 Clouds 14 1020 76 10000 2.6 350 17:58 10.05.2020
3327 Clouds 14 1020 76 10000 3.1 360 17:40 10.05.2020
3328 Clouds 14 1020 76 10000 3.1 360 17:21 10.05.2020
3329 Clouds 14 1021 67 10000 2.6 10 16:56 10.05.2020
3330 Clouds 14 1021 71 10000 1.5 10 16:38 10.05.2020
3331 Clouds 14 1021 71 10000 1.5 10 16:19 10.05.2020
3332 Clouds 14 1022 71 10000 2.1 10 15:44 10.05.2020
3333 Clouds 14 1022 71 10000 2.1 10 15:24 10.05.2020
3334 Clouds 14 1022 76 10000 3.1 10 14:57 10.05.2020
3335 Clouds 14 1022 76 10000 2.1 350 14:38 10.05.2020
3336 Clouds 14 1022 76 10000 2.1 350 14:38 10.05.2020
3337 Clouds 13 1022 76 10000 2.1 350 14:19 10.05.2020
3338 Clouds 13 1022 71 10000 2.6 20 13:58 10.05.2020
3339 Clouds 13 1022 71 10000 2.6 20 13:58 10.05.2020
3340 Clouds 13 1022 82 10000 1.5 10 13:38 10.05.2020
3341 Clouds 13 1022 82 10000 1.5 10 13:20 10.05.2020
3342 Clouds 13 1022 82 10000 3.1 10 12:56 10.05.2020
3343 Clouds 13 1023 82 10000 4.1 10 12:38 10.05.2020
3344 Clear 13 1023 82 10000 4.1 10 12:20 10.05.2020
3345 Clear 13 1023 82 10000 3.6 360 11:55 10.05.2020
3346 Clear 13 1023 82 10000 3.6 360 11:55 10.05.2020
3347 Clear 13 1023 76 10000 3.6 20 11:36 10.05.2020
3348 Clouds 13 1023 76 10000 3.6 20 11:18 10.05.2020
3349 Clouds 13 1023 76 10000 3.6 20 10:43 10.05.2020
3350 Clouds 13 1023 76 10000 3.6 20 10:25 10.05.2020
3351 Clouds 13 1023 76 10000 5.1 30 09:57 10.05.2020
3352 Clouds 13 1023 82 10000 5.1 20 09:39 10.05.2020
3353 Clouds 13 1023 82 10000 5.1 20 09:20 10.05.2020
3354 Clouds 14 1023 77 10000 5.7 20 08:47 10.05.2020
3355 Clouds 14 1023 82 10000 5.7 10 08:23 10.05.2020
3356 Clouds 14 1023 72 10000 6.7 360 07:44 10.05.2020
3357 Clouds 14 1023 72 10000 6.7 360 07:20 10.05.2020
3358 Clouds 15 1022 72 10000 6.7 10 06:56 10.05.2020
3359 Clouds 15 1023 72 10000 6.2 360 06:30 10.05.2020
3360 Clouds 16 1022 67 10000 7.2 360 05:48 10.05.2020
3361 Clouds 16 1023 63 10000 6.7 350 04:50 10.05.2020
3362 Clouds 16 1023 63 10000 7.2 350 04:31 10.05.2020
3363 Clouds 16 1023 67 10000 6.7 360 03:54 10.05.2020
3364 Clouds 16 1024 63 10000 6.7 360 03:35 10.05.2020
3365 Clouds 16 1024 63 10000 9.3 10 02:41 10.05.2020
3366 Clouds 16 1024 63 10000 9.3 10 02:18 10.05.2020
3367 Clouds 16 1024 67 10000 8.2 10 01:41 10.05.2020
3368 Clouds 16 1024 67 10000 8.2 10 01:19 10.05.2020
3369 Clouds 16 1024 72 10000 7.2 20 00:54 10.05.2020
3370 Clouds 15 1024 77 10000 7.2 20 00:24 10.05.2020
3371 Clouds 14 1025 82 10000 7.2 10 23:58 09.05.2020
3372 Clouds 14 1025 82 10000 7.7 10 23:39 09.05.2020
3373 Clouds 13 1025 82 10000 7.7 10 23:20 09.05.2020
3374 Clouds 13 1025 87 10000 6.2 20 22:42 09.05.2020
3375 Clouds 12 1025 87 10000 6.2 20 22:23 09.05.2020
3376 Clouds 12 1025 93 10000 6.7 10 21:58 09.05.2020
3377 Clouds 12 1025 87 10000 6.7 30 21:40 09.05.2020
3378 Clouds 12 1025 87 10000 6.7 30 21:21 09.05.2020
3379 Clouds 12 1024 93 10000 6.2 30 20:57 09.05.2020
3380 Clouds 12 1025 87 10000 5.7 40 20:38 09.05.2020
3381 Clouds 12 1025 87 10000 5.7 40 20:20 09.05.2020
3382 Clouds 12 1024 87 10000 6.2 40 19:56 09.05.2020
3383 Clouds 12 1024 87 10000 6.2 40 19:37 09.05.2020
3384 Clouds 12 1024 87 10000 6.2 40 19:18 09.05.2020
3385 Clouds 12 1024 87 10000 5.7 40 18:42 09.05.2020
3386 Clouds 12 1024 87 10000 5.7 40 18:42 09.05.2020
3387 Clouds 12 1024 87 10000 5.7 40 18:23 09.05.2020
3388 Clouds 12 1025 87 10000 5.7 40 17:45 09.05.2020
3389 Clouds 13 1025 87 10000 5.7 40 17:23 09.05.2020
3390 Clouds 12 1025 87 10000 5.7 30 16:57 09.05.2020
3391 Clouds 12 1025 87 10000 5.7 30 16:38 09.05.2020
3392 Clouds 12 1025 87 10000 5.7 30 16:18 09.05.2020
3393 Clouds 12 1025 87 10000 5.7 30 15:43 09.05.2020
3394 Clear 12 1025 87 10000 5.7 30 15:22 09.05.2020
3395 Clear 12 1025 87 10000 5.7 30 15:22 09.05.2020
3396 Clear 12 1025 87 10000 5.1 30 14:56 09.05.2020
3397 Clear 12 1025 87 10000 4.1 30 14:37 09.05.2020
3398 Clear 12 1025 87 10000 4.1 30 14:18 09.05.2020
3399 Clear 12 1025 87 10000 4.6 30 13:55 09.05.2020
3400 Clear 12 1025 87 10000 4.6 30 13:37 09.05.2020
3401 Clear 12 1025 87 10000 4.6 30 13:18 09.05.2020
3402 Clear 12 1025 93 10000 4.6 30 12:40 09.05.2020
3403 Clear 12 1025 93 10000 4.6 30 12:22 09.05.2020
3404 Clear 12 1025 87 10000 3.6 20 11:45 09.05.2020
3405 Clear 12 1025 87 10000 3.6 20 11:20 09.05.2020
3406 Clear 12 1025 87 10000 3.1 20 10:56 09.05.2020
3407 Clear 12 1024 87 10000 4.1 20 10:38 09.05.2020
3408 Clear 12 1024 87 10000 4.1 20 10:19 09.05.2020
3409 Clear 13 1025 87 10000 4.1 20 09:47 09.05.2020
3410 Clouds 13 1025 82 10000 4.1 30 09:20 09.05.2020
3411 Clouds 13 1024 82 10000 4.1 20 08:58 09.05.2020
3412 Clouds 13 1024 82 10000 4.6 20 08:40 09.05.2020
3413 Clouds 13 1024 82 10000 4.6 20 08:21 09.05.2020
3414 Clouds 14 1024 77 10000 5.1 360 07:45 09.05.2020
3415 Clouds 14 1024 77 10000 5.1 360 07:27 09.05.2020
3416 Clouds 15 1024 72 10000 6.2 360 06:44 09.05.2020
3417 Clouds 15 1024 72 10000 6.2 360 06:20 09.05.2020
3418 Clouds 15 1024 67 10000 4.6 350 05:42 09.05.2020
3419 Clouds 16 1024 67 10000 3.6 360 03:41 09.05.2020
3420 Clouds 16 1024 67 10000 2.6 360 02:54 09.05.2020
3421 Clouds 16 1025 72 10000 3.1 360 02:30 09.05.2020
3422 Clouds 16 1025 63 10000 3.6 360 01:51 09.05.2020
3423 Clouds 16 1025 67 10000 3.6 10 01:22 09.05.2020
3424 Clouds 16 1025 67 10000 3.6 10 01:22 09.05.2020
3425 Clouds 14 1025 82 10000 3.1 350 00:43 09.05.2020
3426 Clouds 14 1025 82 10000 3.1 350 00:20 09.05.2020
3427 Clouds 13 1025 87 10000 3.1 340 23:45 08.05.2020
3428 Clouds 13 1025 87 10000 3.1 340 23:27 08.05.2020
3429 Clouds 12 1025 87 10000 1.5 340 22:56 08.05.2020
3430 Clouds 12 1025 93 10000 1.5 10 22:38 08.05.2020
3431 Clouds 12 1025 93 10000 1.5 10 22:19 08.05.2020
3432 Clouds 12 1024 87 10000 3.1 360 21:55 08.05.2020
3433 Clouds 12 1024 87 10000 1.5 360 21:37 08.05.2020
3434 Clouds 12 1024 87 10000 1.5 360 21:18 08.05.2020
3435 Clouds 11 1023 93 10000 2.1 10 20:56 08.05.2020
3436 Clouds 11 1023 87 10000 1 30 20:38 08.05.2020
3437 Clouds 12 1023 87 10000 1 30 20:19 08.05.2020
3438 Clouds 12 1023 87 10000 1 30 20:19 08.05.2020
3439 Clouds 12 1023 87 10000 1.5 360 19:42 08.05.2020
3440 Clouds 12 1023 87 10000 1.5 360 19:21 08.05.2020
3441 Clouds 11 1023 87 10000 2.6 30 18:50 08.05.2020
3442 Clouds 11 1023 93 10000 2.1 20 18:31 08.05.2020
3443 Clouds 11 1023 93 10000 2.1 360 17:43 08.05.2020
3444 Clouds 11 1023 93 10000 2.1 360 17:20 08.05.2020
3445 Clouds 11 1023 87 10000 2.1 40 16:58 08.05.2020
3446 Clouds 11 1023 87 10000 2.1 20 16:39 08.05.2020
3447 Clouds 11 1023 87 10000 2.1 20 16:21 08.05.2020
3448 Clouds 11 1023 87 10000 1.5 70 15:44 08.05.2020
3449 Clouds 10 1023 87 10000 1.5 70 15:22 08.05.2020
3450 Clouds 11 1023 93 10000 2.1 40 14:58 08.05.2020
3451 Clouds 11 1023 93 10000 1.5 40 14:40 08.05.2020
3452 Clouds 11 1023 93 10000 1.5 40 14:20 08.05.2020
3453 Clouds 11 1022 87 10000 2.1 50 13:57 08.05.2020
3454 Clouds 12 1022 93 10000 1.5 350 13:39 08.05.2020
3455 Clouds 11 1022 93 10000 1.5 350 13:19 08.05.2020
3456 Clouds 11 1022 93 10000 2.1 30 12:45 08.05.2020
3457 Clear 11 1022 93 10000 2.1 30 12:23 08.05.2020
3458 Clear 12 1022 87 10000 2.1 270 11:55 08.05.2020
3459 Clear 12 1022 87 9000 3.6 250 11:36 08.05.2020
3460 Clear 12 1022 87 9000 3.6 250 11:18 08.05.2020
3461 Clear 13 1021 93 9000 3.1 180 10:43 08.05.2020
3462 Clear 13 1021 93 9000 3.1 180 10:21 08.05.2020
3463 Clear 13 1020 87 10000 2.6 350 09:59 08.05.2020
3464 Clear 13 1020 87 10000 4.1 360 09:40 08.05.2020
3465 Clear 13 1020 87 10000 4.1 360 09:19 08.05.2020
3466 Clear 14 1019 67 10000 6.2 20 08:45 08.05.2020
3467 Clear 14 1019 67 10000 6.2 20 08:24 08.05.2020
3468 Clear 15 1018 63 10000 5.7 20 07:45 08.05.2020
3469 Clear 15 1018 63 10000 5.7 20 07:25 08.05.2020
3470 Clear 16 1018 63 10000 6.7 10 06:52 08.05.2020
3471 Clear 16 1018 63 10000 8.2 10 06:25 08.05.2020
3472 Clear 16 1018 67 10000 8.2 10 05:59 08.05.2020
3473 Clear 17 1017 59 10000 8.2 10 04:50 08.05.2020
3474 Clear 17 1016 68 10000 7.7 360 02:57 08.05.2020
3475 Clear 17 1017 63 10000 7.2 360 02:22 08.05.2020
3476 Clear 17 1017 63 10000 8.7 10 01:37 08.05.2020
3477 Clear 17 1017 63 10000 8.7 10 01:18 08.05.2020
3478 Clear 16 1017 67 10000 5.7 20 00:45 08.05.2020
3479 Clear 16 1017 67 10000 5.7 20 00:22 08.05.2020
3480 Clear 15 1017 72 10000 6.2 20 23:44 07.05.2020
3481 Clear 14 1017 72 10000 6.2 20 23:23 07.05.2020
3482 Clear 13 1016 76 10000 5.1 20 22:58 07.05.2020
3483 Clear 13 1016 82 10000 4.6 20 22:39 07.05.2020
3484 Clear 12 1016 82 10000 4.6 20 22:20 07.05.2020
3485 Clear 12 1016 82 10000 5.7 20 21:56 07.05.2020
3486 Clear 12 1015 82 10000 5.1 20 21:37 07.05.2020
3487 Clear 13 1015 82 10000 5.1 20 21:19 07.05.2020
3488 Clear 13 1015 76 10000 5.7 20 20:43 07.05.2020
3489 Clear 13 1015 76 10000 5.7 20 20:24 07.05.2020
3490 Clear 13 1015 76 10000 5.1 10 19:59 07.05.2020
3491 Clear 13 1015 82 10000 4.1 30 19:40 07.05.2020
3492 Clear 13 1015 82 10000 4.1 30 19:21 07.05.2020
3493 Clear 13 1014 82 10000 5.1 20 18:46 07.05.2020
3494 Clear 13 1014 82 10000 5.1 20 18:46 07.05.2020
3495 Clear 13 1014 82 10000 5.1 20 18:28 07.05.2020
3496 Clear 13 1014 76 10000 4.6 20 17:57 07.05.2020
3497 Clear 13 1014 76 10000 4.6 20 17:37 07.05.2020
3498 Clear 13 1014 76 10000 4.6 20 17:19 07.05.2020
3499 Clear 13 1014 76 10000 4.6 10 16:41 07.05.2020
3500 Clear 13 1014 76 10000 4.6 10 16:19 07.05.2020
3501 Clear 13 1014 82 10000 4.6 20 15:57 07.05.2020
3502 Clear 13 1014 76 10000 3.6 20 15:37 07.05.2020
3503 Clear 13 1014 76 10000 3.6 20 15:37 07.05.2020
3504 Clear 13 1014 76 10000 3.6 20 15:18 07.05.2020
3505 Clear 13 1014 76 10000 3.6 20 15:18 07.05.2020
3506 Clear 13 1013 76 10000 4.6 30 14:45 07.05.2020
3507 Clear 13 1013 76 10000 4.6 30 14:22 07.05.2020
3508 Clear 13 1013 76 10000 4.6 20 13:57 07.05.2020
3509 Clear 13 1013 76 10000 6.7 10 13:39 07.05.2020
3510 Clear 13 1013 76 10000 6.7 10 13:20 07.05.2020
3511 Clear 14 1013 72 10000 7.7 20 12:40 07.05.2020
3512 Clear 14 1013 72 10000 7.7 20 12:20 07.05.2020
3513 Clear 14 1012 72 10000 7.2 20 11:39 07.05.2020
3514 Clear 14 1012 72 10000 7.2 20 11:21 07.05.2020
3515 Clear 14 1013 76 10000 5.7 30 10:55 07.05.2020
3516 Clear 14 1013 76 10000 6.7 30 10:37 07.05.2020
3517 Clear 14 1013 76 10000 6.7 30 10:18 07.05.2020
3518 Clear 13 1012 71 10000 6.7 20 09:39 07.05.2020
3519 Clear 13 1012 71 10000 6.7 20 09:19 07.05.2020
3520 Clear 13 1012 71 10000 7.2 30 08:45 07.05.2020
3521 Clear 13 1012 71 10000 7.2 30 08:23 07.05.2020
3522 Clear 13 1012 67 10000 7.2 20 07:58 07.05.2020
3523 Clear 14 1012 62 10000 7.2 10 07:40 07.05.2020
3524 Clear 14 1012 62 10000 7.2 10 07:20 07.05.2020
3525 Clear 14 1012 63 10000 8.7 10 06:37 07.05.2020
3526 Clear 15 1012 63 10000 8.7 10 06:18 07.05.2020
3527 Clear 15 1013 59 10000 9.3 360 04:28 07.05.2020
3528 Clear 16 1013 63 10000 8.7 360 03:38 07.05.2020
3529 Clear 15 1013 63 10000 8.7 360 03:18 07.05.2020
3530 Clear 15 1013 63 10000 9.8 360 02:35 07.05.2020
3531 Clear 15 1013 67 10000 8.7 10 01:37 07.05.2020
3532 Clouds 15 1013 67 10000 8.7 10 01:19 07.05.2020
3533 Clouds 14 1013 71 10000 8.2 20 00:42 07.05.2020
3534 Clouds 14 1013 71 10000 8.2 20 00:21 07.05.2020
3535 Clouds 13 1013 76 10000 8.2 20 23:44 06.05.2020
3536 Clouds 13 1013 76 10000 8.2 20 23:22 06.05.2020
3537 Clouds 12 1013 81 10000 7.7 30 22:56 06.05.2020
3538 Clouds 12 1013 81 10000 7.7 20 22:37 06.05.2020
3539 Clouds 11 1013 81 10000 7.7 20 22:19 06.05.2020
3540 Clouds 11 1013 81 10000 9.8 20 21:55 06.05.2020
3541 Clouds 11 1013 81 10000 9.3 20 21:37 06.05.2020
3542 Clouds 11 1013 81 10000 9.3 20 21:18 06.05.2020
3543 Clouds 11 1013 76 10000 10.3 10 20:42 06.05.2020
3544 Clouds 11 1013 76 10000 10.3 10 20:22 06.05.2020
3545 Clouds 11 1013 76 10000 10.3 20 19:57 06.05.2020
3546 Clouds 11 1013 71 10000 8.7 20 19:38 06.05.2020
3547 Clouds 11 1013 71 10000 8.7 20 19:19 06.05.2020
3548 Clouds 11 1013 76 10000 5.7 20 18:58 06.05.2020
3549 Clouds 11 1013 71 10000 6.7 20 18:38 06.05.2020
3550 Clear 10 1013 71 10000 6.7 20 18:20 06.05.2020
3551 Clear 10 1013 66 10000 7.2 20 17:55 06.05.2020
3552 Clear 10 1014 71 10000 8.7 10 17:37 06.05.2020
3553 Clear 10 1014 71 10000 8.7 10 17:18 06.05.2020
3554 Clear 10 1014 76 10000 8.2 20 16:58 06.05.2020
3555 Clear 11 1014 76 10000 8.2 20 16:40 06.05.2020
3556 Clear 10 1014 76 10000 8.2 20 16:20 06.05.2020
3557 Clear 11 1014 71 10000 8.7 20 15:57 06.05.2020
3558 Clear 10 1015 76 10000 7.7 20 15:39 06.05.2020
3559 Clear 10 1015 76 10000 7.7 20 15:19 06.05.2020
3560 Clear 10 1015 76 10000 6.7 30 14:41 06.05.2020
3561 Clear 10 1015 76 10000 6.7 30 14:19 06.05.2020
3562 Clear 10 1015 76 10000 6.7 30 14:19 06.05.2020
3563 Clear 10 1015 71 10000 5.7 20 13:59 06.05.2020
3564 Clear 10 1015 71 10000 5.7 20 13:59 06.05.2020
3565 Clear 10 1015 76 10000 5.7 20 13:39 06.05.2020
3566 Clear 10 1015 76 10000 5.7 20 13:19 06.05.2020
3567 Clear 10 1016 71 10000 6.2 30 12:44 06.05.2020
3568 Clear 10 1016 71 10000 6.2 30 12:26 06.05.2020
3569 Clear 10 1015 76 10000 6.2 30 11:59 06.05.2020
3570 Clear 9 1015 81 10000 5.7 30 11:39 06.05.2020
3571 Clear 9 1015 81 10000 5.7 30 11:21 06.05.2020
3572 Clear 10 1015 76 10000 5.1 30 10:56 06.05.2020
3573 Clear 10 1015 71 10000 5.1 30 10:37 06.05.2020
3574 Clear 10 1015 71 10000 5.1 30 10:18 06.05.2020
3575 Clear 9 1015 71 10000 4.1 30 09:40 06.05.2020
3576 Clear 10 1015 71 10000 4.1 30 09:21 06.05.2020
3577 Clear 10 1015 66 10000 2.6 10 08:45 06.05.2020
3578 Clear 10 1015 66 10000 2.6 10 08:22 06.05.2020
3579 Clear 10 1015 62 10000 3.1 360 07:58 06.05.2020
3580 Clear 11 1015 54 10000 3.1 320 07:39 06.05.2020
3581 Clear 11 1015 54 10000 3.1 320 07:20 06.05.2020
3582 Clear 11 1015 47 10000 4.1 330 06:49 06.05.2020
3583 Clear 12 1015 47 10000 4.1 330 06:21 06.05.2020
3584 Rain 12 1015 47 10000 3.6 10 05:51 06.05.2020
3585 Rain 12 1015 47 10000 2.1 360 05:32 06.05.2020
3586 Clear 13 1015 50 10000 1.5 160 04:22 06.05.2020
3587 Clear 13 1016 54 10000 2.6 220 03:36 06.05.2020
3588 Clear 13 1016 58 10000 4.1 220 02:58 06.05.2020
3589 Clouds 13 1016 54 10000 3.6 220 02:28 06.05.2020
3590 Clouds 12 1016 58 10000 4.1 230 01:53 06.05.2020
3591 Clouds 12 1016 58 10000 6.2 200 01:27 06.05.2020
3592 Clouds 12 1016 62 10000 7.7 210 00:45 06.05.2020
3593 Clouds 11 1016 62 10000 7.7 210 00:23 06.05.2020
3594 Clouds 10 1015 71 10000 9.3 200 23:42 05.05.2020
3595 Clouds 10 1015 71 10000 9.3 200 23:20 05.05.2020
3596 Clouds 10 1015 71 10000 10.3 200 22:57 05.05.2020
3597 Clouds 10 1014 71 10000 10.3 200 22:39 05.05.2020
3598 Clouds 9 1014 71 10000 10.3 200 22:19 05.05.2020
3599 Clouds 9 1014 71 10000 10.3 190 21:55 05.05.2020
3600 Clouds 9 1014 71 10000 11.3 190 21:37 05.05.2020
3601 Clouds 9 1014 71 10000 11.3 190 21:19 05.05.2020
3602 Clear 9 1013 76 10000 11.8 200 20:42 05.05.2020
3603 Clouds 9 1013 76 10000 11.8 200 20:20 05.05.2020
3604 Clouds 9 1013 76 10000 11.8 200 20:20 05.05.2020
3605 Clouds 9 1013 71 10000 12.9 200 19:59 05.05.2020
3606 Clouds 9 1013 71 10000 12.3 190 19:41 05.05.2020
3607 Clouds 9 1013 71 10000 12.3 190 19:23 05.05.2020
3608 Clouds 9 1012 76 10000 13.9 200 18:57 05.05.2020
3609 Clouds 9 1012 76 10000 13.9 200 18:39 05.05.2020
3610 Clouds 9 1012 76 10000 13.9 200 18:19 05.05.2020
3611 Clouds 9 1012 76 10000 14.9 190 17:57 05.05.2020
3612 Clouds 9 1012 71 10000 14.4 200 17:38 05.05.2020
3613 Clouds 9 1012 71 10000 14.4 200 17:20 05.05.2020
3614 Rain 9 1011 76 9000 14.4 190 16:39 05.05.2020
3615 Rain 9 1011 76 9000 14.4 190 16:20 05.05.2020
3616 Rain 10 1011 76 10000 15.9 200 15:58 05.05.2020
3617 Rain 10 1011 76 7000 14.9 190 15:39 05.05.2020
3618 Rain 9 1011 76 7000 14.9 190 15:21 05.05.2020
3619 Rain 9 1011 76 7000 14.9 190 15:21 05.05.2020
3620 Rain 9 1010 76 9000 14.9 200 14:55 05.05.2020
3621 Rain 9 1010 76 9000 15.9 200 14:37 05.05.2020
3622 Rain 9 1010 76 9000 15.9 200 14:18 05.05.2020
3623 Rain 9 1010 81 7000 15.4 190 13:55 05.05.2020
3624 Rain 9 1009 76 9000 14.4 190 13:37 05.05.2020
3625 Rain 9 1009 76 9000 14.4 190 13:18 05.05.2020
3626 Rain 9 1009 93 6000 12.3 190 12:54 05.05.2020
3627 Rain 10 1009 76 9000 13.9 180 12:36 05.05.2020
3628 Rain 10 1009 76 9000 13.9 180 12:18 05.05.2020
3629 Rain 9 1008 76 6000 15.4 180 11:40 05.05.2020
3630 Rain 9 1008 76 6000 15.4 180 11:19 05.05.2020
3631 Rain 10 1007 71 10000 13.4 190 10:55 05.05.2020
3632 Rain 9 1006 76 10000 13.9 190 10:37 05.05.2020
3633 Rain 10 1006 76 10000 13.9 190 10:18 05.05.2020
3634 Rain 10 1005 76 7000 14.4 200 09:44 05.05.2020
3635 Rain 10 1005 76 7000 14.4 200 09:26 05.05.2020
3636 Rain 10 1005 71 10000 13.9 190 08:58 05.05.2020
3637 Rain 10 1004 71 10000 15.9 190 08:39 05.05.2020
3638 Rain 9 1004 71 10000 15.9 190 08:18 05.05.2020
3639 Rain 9 1003 76 6000 15.4 210 07:43 05.05.2020
3640 Rain 9 1003 76 6000 15.4 210 07:21 05.05.2020
3641 Rain 8 1002 93 3600 15.9 210 06:57 05.05.2020
3642 Rain 8 1002 87 3100 12.3 190 06:39 05.05.2020
3643 Rain 8 1002 87 3400 13.9 200 05:53 05.05.2020
3644 Haze 9 1001 87 4500 13.9 200 04:59 05.05.2020
3645 Rain 10 1001 81 10000 6.7 180 02:39 05.05.2020
3646 Rain 10 1001 81 10000 7.7 180 00:57 05.05.2020
3647 Rain 10 1000 87 10000 7.2 180 00:33 05.05.2020
3648 Rain 10 1000 81 10000 8.2 180 23:55 04.05.2020
3649 Rain 10 1000 87 10000 9.3 180 23:36 04.05.2020
3650 Rain 10 1000 87 10000 9.3 180 23:18 04.05.2020
3651 Rain 10 999 81 10000 10.3 190 22:42 04.05.2020
3652 Rain 10 999 81 10000 10.3 190 22:22 04.05.2020
3653 Rain 10 998 81 10000 9.8 190 21:59 04.05.2020
3654 Rain 10 998 81 10000 11.3 190 21:41 04.05.2020
3655 Rain 10 998 81 10000 11.3 190 21:41 04.05.2020
3656 Rain 10 998 81 10000 11.3 190 21:41 04.05.2020
3657 Rain 10 998 81 10000 11.3 190 21:41 04.05.2020
3658 Rain 10 998 81 10000 11.3 190 21:20 04.05.2020
3659 Rain 10 998 81 10000 11.3 190 21:20 04.05.2020
3660 Rain 10 997 87 8000 12.9 210 20:41 04.05.2020
3661 Rain 11 997 87 8000 12.9 210 20:21 04.05.2020
3662 Rain 11 996 87 10000 11.3 200 19:58 04.05.2020
3663 Rain 11 996 87 10000 10.8 210 19:40 04.05.2020
3664 Rain 11 996 87 10000 10.8 210 19:18 04.05.2020
3665 Rain 11 995 93 9000 8.7 210 18:39 04.05.2020
3666 Rain 11 995 93 9000 8.7 210 18:20 04.05.2020
3667 Rain 11 994 87 10000 2.1 330 17:57 04.05.2020
3668 Rain 11 994 87 10000 3.1 40 17:39 04.05.2020
3669 Rain 11 994 87 10000 3.1 40 17:20 04.05.2020
3670 Rain 11 994 87 10000 4.1 20 16:58 04.05.2020
3671 Rain 11 993 87 10000 4.1 30 16:40 04.05.2020
3672 Clouds 11 993 87 10000 4.1 30 16:19 04.05.2020
3673 Clouds 11 993 81 10000 4.1 10 15:42 04.05.2020
3674 Clear 11 993 81 10000 4.1 10 15:22 04.05.2020
3675 Rain 12 994 82 10000 5.1 340 14:54 04.05.2020
3676 Rain 12 994 82 10000 5.1 340 14:54 04.05.2020
3677 Rain 12 994 82 10000 5.1 340 14:54 04.05.2020
3678 Rain 12 994 82 10000 5.1 340 14:54 04.05.2020
3679 Rain 12 994 82 10000 5.1 340 14:54 04.05.2020
3680 Clouds 12 994 76 10000 4.1 330 14:25 04.05.2020
3681 Clouds 12 994 76 10000 4.1 330 14:25 04.05.2020
3682 Clouds 12 994 76 10000 4.1 330 14:25 04.05.2020
3683 Clouds 12 994 76 10000 4.1 330 14:25 04.05.2020
3684 Clouds 12 994 82 10000 6.2 350 13:23 04.05.2020
3685 Clouds 12 994 82 10000 6.2 350 13:23 04.05.2020
3686 Clouds 12 994 82 10000 6.2 350 13:23 04.05.2020
3687 Clouds 12 994 82 10000 6.2 350 13:23 04.05.2020
3688 Clouds 12 994 82 10000 6.2 350 13:23 04.05.2020
3689 Rain 12 994 87 9000 5.7 360 12:44 04.05.2020
3690 Rain 12 994 87 9000 5.7 360 12:44 04.05.2020
3691 Rain 12 994 87 9000 5.7 360 12:44 04.05.2020
3692 Rain 12 994 87 9000 5.7 360 12:44 04.05.2020
3693 Rain 13 994 76 10000 7.2 350 11:28 04.05.2020
3694 Rain 13 994 76 10000 7.2 350 11:28 04.05.2020
3695 Rain 13 994 76 10000 7.2 350 11:28 04.05.2020
3696 Rain 13 994 76 10000 7.2 350 11:28 04.05.2020
3697 Rain 14 994 82 10000 5.7 350 09:31 04.05.2020
3698 Rain 14 994 87 10000 7.7 350 07:54 04.05.2020
3699 Rain 15 994 77 10000 8.7 340 07:35 04.05.2020
3700 Clouds 15 994 77 10000 9.3 360 05:55 04.05.2020
3701 Rain 15 994 72 10000 10.3 360 04:52 04.05.2020
3702 Rain 16 996 82 10000 8.7 360 02:57 04.05.2020
3703 Rain 15 997 82 10000 7.7 10 01:45 04.05.2020
3704 Rain 15 998 87 10000 8.7 10 00:23 04.05.2020
3705 Rain 15 998 87 10000 8.7 10 00:23 04.05.2020
3706 Rain 14 998 93 10000 9.3 360 23:44 03.05.2020
3707 Rain 14 998 93 10000 9.3 360 23:24 03.05.2020
3708 Rain 13 998 93 10000 6.7 20 22:44 03.05.2020
3709 Rain 13 998 93 10000 6.7 20 22:44 03.05.2020
3710 Rain 13 998 93 10000 6.7 20 22:25 03.05.2020
3711 Rain 13 998 87 10000 6.2 20 21:56 03.05.2020
3712 Rain 13 998 93 10000 6.7 20 21:38 03.05.2020
3713 Rain 13 998 93 10000 6.7 20 21:20 03.05.2020
3714 Rain 14 999 87 10000 5.7 350 20:42 03.05.2020
3715 Rain 14 999 87 10000 5.7 350 20:21 03.05.2020
3716 Rain 14 998 87 10000 4.1 350 19:49 03.05.2020
3717 Rain 14 998 87 10000 4.1 350 19:49 03.05.2020
3718 Rain 14 998 87 10000 7.2 350 19:31 03.05.2020
3719 Rain 15 999 87 8000 7.7 350 18:58 03.05.2020
3720 Rain 15 998 87 10000 9.3 350 18:38 03.05.2020
3721 Rain 15 998 87 10000 9.3 350 18:38 03.05.2020
3722 Rain 15 998 87 10000 9.3 350 18:38 03.05.2020
3723 Rain 15 998 87 10000 9.3 350 18:38 03.05.2020
3724 Rain 15 998 87 10000 9.3 350 18:38 03.05.2020
3725 Rain 15 998 87 10000 9.3 350 18:19 03.05.2020
3726 Rain 15 998 87 10000 9.3 350 18:19 03.05.2020
3727 Rain 15 998 87 10000 9.3 350 18:19 03.05.2020
3728 Rain 15 998 87 10000 9.3 350 18:19 03.05.2020
3729 Clear 15 999 82 10000 9.3 350 17:41 03.05.2020
3730 Clear 15 999 82 10000 9.3 350 17:21 03.05.2020
3731 Clear 16 999 82 10000 8.7 340 16:45 03.05.2020
3732 Clear 15 999 82 10000 8.7 340 16:21 03.05.2020
3733 Clear 16 999 82 10000 9.8 350 15:59 03.05.2020
3734 Clear 16 1000 82 10000 9.3 350 15:40 03.05.2020
3735 Clear 16 1000 82 10000 9.3 350 15:20 03.05.2020
3736 Clear 16 1000 82 10000 8.7 340 14:58 03.05.2020
3737 Clear 16 1000 82 10000 9.3 340 14:40 03.05.2020
3738 Clear 16 1000 82 10000 9.3 340 14:40 03.05.2020
3739 Clouds 16 1000 82 10000 9.3 340 14:21 03.05.2020
3740 Clouds 16 1000 88 10000 8.2 350 13:54 03.05.2020
3741 Clouds 16 1000 88 10000 8.2 350 13:54 03.05.2020
3742 Clouds 16 1000 82 10000 6.7 340 13:21 03.05.2020
3743 Clouds 16 1000 82 10000 6.7 340 13:21 03.05.2020
3744 Clouds 16 1000 82 10000 6.7 340 13:21 03.05.2020
3745 Clouds 16 1000 82 10000 6.7 340 13:21 03.05.2020
3746 Clouds 16 1000 82 10000 6.7 340 13:21 03.05.2020
3747 Clouds 16 1001 88 10000 9.3 360 12:44 03.05.2020
3748 Clouds 16 1001 88 10000 9.3 360 12:18 03.05.2020
3749 Clouds 16 1001 93 10000 10.3 360 11:56 03.05.2020
3750 Clouds 15 1001 87 10000 8.2 350 11:37 03.05.2020
3751 Clouds 15 1001 87 10000 8.2 350 11:18 03.05.2020
3752 Clouds 15 1001 93 10000 7.7 360 10:46 03.05.2020
3753 Clouds 15 1001 93 10000 7.7 360 10:46 03.05.2020
3754 Clouds 15 1001 93 10000 7.7 360 10:46 03.05.2020
3755 Clouds 15 1001 93 10000 7.7 360 10:46 03.05.2020
3756 Clouds 15 1001 93 10000 7.7 360 10:46 03.05.2020
3757 Clouds 15 1001 82 10000 7.2 350 09:57 03.05.2020
3758 Clouds 15 1001 82 10000 7.2 350 09:57 03.05.2020
3759 Clouds 15 1001 87 10000 5.1 340 09:34 03.05.2020
3760 Rain 15 1001 87 10000 5.1 340 09:34 03.05.2020
3761 Rain 15 1001 87 10000 5.1 340 09:34 03.05.2020
3762 Clouds 15 1001 87 10000 5.1 340 09:34 03.05.2020
3763 Haze 15 1001 93 5000 7.7 330 08:55 03.05.2020
3764 Rain 15 1001 93 5000 7.7 330 08:55 03.05.2020
3765 Rain 15 1000 100 3600 10.3 360 08:26 03.05.2020
3766 Rain 15 1000 100 3600 10.3 360 08:26 03.05.2020
3767 Rain 15 1000 100 3600 10.3 360 08:26 03.05.2020
3768 Rain 16 1000 100 4900 4.1 310 07:39 03.05.2020
3769 Mist 16 1000 100 4900 4.1 310 07:39 03.05.2020
3770 Rain 15 1002 93 6000 8.2 340 06:20 03.05.2020
3771 Rain 16 1003 88 6000 11.8 330 05:47 03.05.2020
3772 Rain 17 1001 82 10000 15.4 330 04:54 03.05.2020
3773 Rain 17 1001 77 10000 15.9 330 04:26 03.05.2020
3774 Rain 17 1002 82 10000 14.4 350 02:59 03.05.2020
3775 Rain 17 1002 82 10000 14.4 350 02:59 03.05.2020
3776 Rain 17 1003 88 9000 12.3 350 02:24 03.05.2020
3777 Rain 17 1002 77 10000 15.4 340 01:44 03.05.2020
3778 Rain 17 1002 77 10000 15.4 340 01:24 03.05.2020
3779 Rain 18 1002 77 10000 16.5 350 00:55 03.05.2020
3780 Rain 18 1002 72 10000 15.9 350 00:37 03.05.2020
3781 Rain 18 1002 72 10000 15.9 350 00:18 03.05.2020
3782 Rain 18 1003 72 10000 14.4 350 23:42 02.05.2020
3783 Rain 18 1003 72 10000 14.4 350 23:24 02.05.2020
3784 Rain 17 1002 77 10000 15.4 350 22:43 02.05.2020
3785 Rain 17 1002 77 10000 12.9 350 22:23 02.05.2020
3786 Rain 17 1002 77 10000 12.9 350 21:56 02.05.2020
3787 Rain 17 1003 77 10000 14.9 350 21:38 02.05.2020
3788 Rain 16 1003 77 10000 14.9 350 21:18 02.05.2020
3789 Rain 16 1003 77 10000 14.9 350 21:18 02.05.2020
3790 Rain 16 1004 88 10000 15.4 350 20:57 02.05.2020
3791 Rain 16 1004 93 4000 17 360 20:37 02.05.2020
3792 Rain 16 1004 93 4000 17 360 20:19 02.05.2020
3793 Rain 16 1004 77 10000 13.9 350 19:56 02.05.2020
3794 Rain 17 1005 77 10000 13.4 350 19:38 02.05.2020
3795 Rain 17 1005 77 10000 13.4 350 19:18 02.05.2020
3796 Rain 16 1006 88 10000 12.3 350 18:41 02.05.2020
3797 Rain 16 1006 88 10000 12.3 350 18:22 02.05.2020
3798 Rain 17 1006 77 10000 11.8 350 17:58 02.05.2020
3799 Rain 17 1007 77 10000 11.8 360 17:39 02.05.2020
3800 Rain 17 1007 77 10000 11.8 360 17:20 02.05.2020
3801 Rain 17 1007 77 10000 11.8 360 16:58 02.05.2020
3802 Rain 17 1008 77 10000 11.3 10 16:39 02.05.2020
3803 Clouds 17 1008 77 10000 11.3 10 16:21 02.05.2020
3804 Clouds 17 1008 72 10000 11.8 360 15:43 02.05.2020
3805 Clouds 17 1008 72 10000 11.8 360 15:20 02.05.2020
3806 Clouds 17 1008 72 10000 10.8 360 14:57 02.05.2020
3807 Clouds 17 1009 72 10000 12.9 360 14:39 02.05.2020
3808 Clouds 17 1009 72 10000 12.9 360 14:20 02.05.2020
3809 Clouds 17 1009 72 10000 12.9 360 14:20 02.05.2020
3810 Clouds 18 1008 63 10000 12.3 360 13:40 02.05.2020
3811 Clouds 18 1008 63 10000 12.3 360 13:22 02.05.2020
3812 Clouds 17 1009 72 10000 12.9 360 12:44 02.05.2020
3813 Clouds 17 1009 72 10000 12.9 360 12:25 02.05.2020
3814 Clouds 17 1009 72 10000 12.3 360 11:59 02.05.2020
3815 Clouds 17 1010 72 10000 11.3 360 11:41 02.05.2020
3816 Clouds 17 1010 72 10000 11.3 360 11:22 02.05.2020
3817 Clouds 17 1009 72 10000 13.4 360 10:58 02.05.2020
3818 Clouds 17 1009 68 10000 13.4 360 10:38 02.05.2020
3819 Clouds 17 1009 68 10000 13.4 360 10:20 02.05.2020
3820 Clouds 17 1010 68 10000 11.3 360 09:57 02.05.2020
3821 Clouds 17 1010 63 10000 12.9 360 09:38 02.05.2020
3822 Clouds 17 1010 63 10000 12.9 360 09:20 02.05.2020
3823 Clouds 17 1010 72 10000 11.3 360 08:46 02.05.2020
3824 Clouds 17 1010 72 10000 11.3 360 08:27 02.05.2020
3825 Rain 16 1011 82 10000 9.8 360 07:48 02.05.2020
3826 Rain 17 1011 63 10000 9.3 360 07:29 02.05.2020
3827 Rain 17 1011 63 10000 9.3 360 07:29 02.05.2020
3828 Clouds 17 1012 68 10000 9.8 360 06:51 02.05.2020
3829 Clouds 17 1013 63 10000 12.3 350 05:30 02.05.2020
3830 Clouds 17 1013 55 10000 11.3 350 04:59 02.05.2020
3831 Clouds 18 1013 55 10000 10.8 350 04:25 02.05.2020
3832 Clouds 18 1014 55 10000 11.3 350 03:18 02.05.2020
3833 Clouds 17 1015 59 10000 11.3 10 02:26 02.05.2020
3834 Clouds 17 1015 59 10000 11.3 360 01:50 02.05.2020
3835 Clouds 16 1016 63 10000 10.8 360 00:49 02.05.2020
3836 Clouds 16 1016 67 10000 10.8 360 00:30 02.05.2020
3837 Clouds 16 1016 67 10000 11.3 10 23:59 01.05.2020
3838 Clouds 15 1017 72 10000 9.8 10 23:39 01.05.2020
3839 Clouds 15 1017 72 10000 9.8 10 23:20 01.05.2020
3840 Clouds 15 1017 72 10000 10.8 10 22:55 01.05.2020
3841 Clouds 14 1017 77 10000 10.8 360 22:37 01.05.2020
3842 Clouds 14 1017 77 10000 10.8 360 22:18 01.05.2020
3843 Clouds 14 1017 77 10000 10.8 360 22:18 01.05.2020
3844 Clouds 14 1017 72 10000 9.8 10 21:55 01.05.2020
3845 Clouds 14 1017 72 10000 9.3 10 21:37 01.05.2020
3846 Clouds 14 1017 72 10000 9.3 10 21:18 01.05.2020
3847 Clouds 15 1017 72 10000 9.3 10 20:55 01.05.2020
3848 Clouds 15 1017 72 10000 10.8 10 20:37 01.05.2020
3849 Clouds 15 1017 72 10000 10.8 10 20:37 01.05.2020
3850 Clouds 14 1017 72 10000 10.8 10 20:18 01.05.2020
3851 Clouds 15 1018 63 10000 9.8 360 19:41 01.05.2020
3852 Clouds 15 1018 63 10000 9.8 360 19:22 01.05.2020
3853 Clouds 15 1018 63 10000 11.8 360 18:57 01.05.2020
3854 Clouds 15 1018 63 10000 9.8 360 18:39 01.05.2020
3855 Clouds 15 1018 63 10000 9.8 360 18:20 01.05.2020
3856 Clouds 15 1019 63 10000 10.3 350 17:56 01.05.2020
3857 Clouds 15 1019 59 10000 9.3 350 17:38 01.05.2020
3858 Clouds 15 1019 59 10000 9.3 350 17:20 01.05.2020
3859 Clouds 15 1020 55 10000 10.8 360 16:55 01.05.2020
3860 Clouds 15 1020 59 10000 10.3 360 16:37 01.05.2020
3861 Clouds 15 1020 59 10000 10.3 360 16:37 01.05.2020
3862 Clouds 15 1020 59 10000 10.3 360 16:18 01.05.2020
3863 Clouds 15 1021 59 10000 9.8 350 15:42 01.05.2020
3864 Clouds 15 1021 59 10000 9.8 350 15:24 01.05.2020
3865 Clouds 15 1021 59 10000 9.3 350 14:58 01.05.2020
3866 Clouds 15 1021 59 10000 9.3 360 14:39 01.05.2020
3867 Clouds 15 1021 59 10000 9.3 360 14:21 01.05.2020
3868 Clouds 15 1022 63 10000 9.3 360 13:41 01.05.2020
3869 Clouds 15 1022 63 10000 9.3 360 13:22 01.05.2020
3870 Clouds 15 1022 63 10000 9.3 360 12:58 01.05.2020
3871 Clouds 15 1022 63 10000 9.3 360 12:39 01.05.2020
3872 Clouds 15 1022 63 10000 9.3 360 12:19 01.05.2020
3873 Clouds 15 1022 63 10000 10.8 360 11:57 01.05.2020
3874 Clouds 15 1022 63 10000 11.3 360 11:39 01.05.2020
3875 Clouds 15 1022 63 10000 11.3 360 11:19 01.05.2020
3876 Clouds 15 1022 63 10000 10.8 10 10:40 01.05.2020
3877 Clouds 15 1022 63 10000 10.8 10 10:20 01.05.2020
3878 Clouds 15 1022 63 10000 10.3 20 09:54 01.05.2020
3879 Clouds 15 1022 63 10000 12.3 10 09:36 01.05.2020
3880 Clouds 15 1022 63 10000 12.3 10 09:18 01.05.2020
3881 Clouds 15 1022 63 10000 12.9 10 08:42 01.05.2020
3882 Clouds 15 1022 63 10000 12.9 10 08:24 01.05.2020
3883 Clouds 15 1022 63 10000 11.8 10 07:46 01.05.2020
3884 Clouds 15 1022 63 10000 11.8 10 07:23 01.05.2020
3885 Clouds 15 1022 67 10000 10.8 10 06:56 01.05.2020
3886 Clouds 16 1022 59 10000 12.3 360 05:39 01.05.2020
3887 Clouds 16 1022 59 10000 12.3 360 05:19 01.05.2020
3888 Clouds 16 1023 63 10000 13.4 10 03:34 01.05.2020
3889 Clouds 16 1023 63 10000 13.9 360 02:48 01.05.2020
3890 Clouds 16 1023 67 10000 12.3 360 02:29 01.05.2020
3891 Clouds 16 1024 67 10000 13.4 360 01:37 01.05.2020
3892 Clouds 16 1024 67 10000 13.4 360 01:18 01.05.2020
3893 Clouds 15 1024 67 10000 12.3 360 00:38 01.05.2020
3894 Clouds 15 1024 67 10000 12.3 360 00:20 01.05.2020
3895 Clouds 15 1024 67 10000 11.8 10 23:56 30.04.2020
3896 Clouds 15 1024 72 10000 12.3 360 23:38 30.04.2020
3897 Clouds 15 1024 72 10000 12.3 360 23:19 30.04.2020
3898 Clouds 14 1024 72 10000 13.9 360 22:42 30.04.2020
3899 Clouds 14 1024 72 10000 13.9 360 22:21 30.04.2020
3900 Clouds 14 1023 72 10000 13.4 350 21:58 30.04.2020
3901 Clouds 14 1023 72 10000 12.9 350 21:39 30.04.2020
3902 Clouds 14 1023 72 10000 12.9 350 21:20 30.04.2020
3903 Clouds 14 1023 77 10000 12.9 360 20:55 30.04.2020
3904 Clouds 14 1023 77 10000 13.4 360 20:37 30.04.2020
3905 Clouds 14 1023 77 10000 13.4 360 20:18 30.04.2020
3906 Clouds 14 1023 77 10000 13.4 360 20:18 30.04.2020
3907 Clouds 14 1023 72 10000 13.4 360 19:44 30.04.2020
3908 Clouds 14 1023 72 10000 13.4 360 19:25 30.04.2020
3909 Clouds 14 1023 77 10000 12.3 360 18:57 30.04.2020
3910 Clouds 14 1024 76 10000 12.3 360 18:39 30.04.2020
3911 Clouds 14 1024 76 10000 12.3 360 18:20 30.04.2020
3912 Clouds 14 1024 82 10000 12.9 10 17:57 30.04.2020
3913 Clouds 14 1024 82 10000 12.9 10 17:57 30.04.2020
3914 Clouds 14 1024 77 10000 12.9 10 17:39 30.04.2020
3915 Clouds 14 1024 77 10000 12.9 10 17:39 30.04.2020
3916 Clouds 14 1024 77 10000 12.9 10 17:20 30.04.2020
3917 Clouds 14 1025 82 10000 12.3 10 16:55 30.04.2020
3918 Clouds 14 1025 77 10000 12.9 10 16:37 30.04.2020
3919 Clouds 14 1025 77 10000 12.9 10 16:18 30.04.2020
3920 Clouds 14 1025 72 10000 12.3 10 15:44 30.04.2020
3921 Clouds 14 1025 72 10000 12.3 10 15:23 30.04.2020
3922 Clouds 14 1026 72 10000 10.8 10 14:43 30.04.2020
3923 Clouds 14 1026 72 10000 10.8 10 14:22 30.04.2020
3924 Clouds 14 1026 72 10000 11.3 20 13:59 30.04.2020
3925 Clouds 14 1026 72 10000 10.3 20 13:41 30.04.2020
3926 Clouds 14 1026 72 10000 10.3 20 13:23 30.04.2020
3927 Clouds 14 1026 72 10000 12.3 10 12:59 30.04.2020
3928 Clouds 14 1026 77 10000 12.3 360 12:41 30.04.2020
3929 Clear 14 1026 77 10000 12.3 360 12:19 30.04.2020
3930 Clear 14 1026 77 10000 11.3 360 11:38 30.04.2020
3931 Clear 14 1026 77 10000 11.3 360 11:19 30.04.2020
3932 Clear 14 1026 77 10000 12.3 10 10:59 30.04.2020
3933 Clear 14 1026 77 10000 12.3 360 10:39 30.04.2020
3934 Clouds 14 1026 77 10000 12.3 360 10:21 30.04.2020
3935 Clouds 14 1026 77 10000 11.3 10 09:56 30.04.2020
3936 Clouds 14 1026 77 10000 11.3 10 09:38 30.04.2020
3937 Clouds 14 1026 77 10000 11.3 10 09:19 30.04.2020
3938 Clouds 14 1026 77 10000 11.3 360 08:45 30.04.2020
3939 Clouds 14 1026 77 10000 11.3 360 08:45 30.04.2020
3940 Clouds 14 1026 77 10000 11.3 360 08:26 30.04.2020
3941 Clouds 14 1026 72 10000 11.8 20 07:44 30.04.2020
3942 Clouds 14 1026 72 10000 11.8 20 07:44 30.04.2020
3943 Clouds 15 1026 72 10000 11.8 20 07:25 30.04.2020
3944 Clouds 15 1026 72 10000 13.4 10 06:53 30.04.2020
3945 Clear 15 1027 72 10000 11.8 10 06:19 30.04.2020
3946 Clear 15 1027 72 10000 11.8 10 05:45 30.04.2020
3947 Clear 16 1027 67 10000 11.8 360 04:39 30.04.2020
3948 Clear 16 1027 67 10000 11.3 10 03:58 30.04.2020
3949 Clear 16 1029 63 10000 12.9 360 02:47 30.04.2020
3950 Clear 16 1029 63 10000 12.9 360 02:25 30.04.2020
3951 Clouds 15 1029 67 10000 13.4 360 01:36 30.04.2020
3952 Clouds 15 1030 72 10000 12.3 360 00:42 30.04.2020
3953 Clear 14 1030 72 10000 12.3 360 00:20 30.04.2020
3954 Clear 14 1030 72 10000 12.3 360 00:20 30.04.2020
3955 Clear 14 1030 72 10000 9.8 350 23:57 29.04.2020
3956 Clear 14 1030 72 10000 9.8 350 23:37 29.04.2020
3957 Clear 14 1030 72 10000 9.8 350 23:19 29.04.2020
3958 Clear 14 1030 76 10000 10.3 350 22:41 29.04.2020
3959 Clear 14 1030 76 10000 10.3 350 22:22 29.04.2020
3960 Clear 13 1029 76 10000 10.3 350 21:59 29.04.2020
3961 Clear 13 1029 76 10000 10.8 350 21:37 29.04.2020
3962 Clouds 13 1029 76 10000 10.8 350 21:19 29.04.2020
3963 Clouds 13 1029 76 10000 10.3 350 20:56 29.04.2020
3964 Clouds 13 1029 82 10000 10.8 360 20:37 29.04.2020
3965 Clear 13 1029 82 10000 10.8 360 20:18 29.04.2020
3966 Clear 14 1030 76 10000 10.3 10 19:43 29.04.2020
3967 Clear 14 1030 76 10000 10.3 10 19:43 29.04.2020
3968 Clear 14 1030 76 10000 10.3 10 19:22 29.04.2020
3969 Clear 14 1030 82 10000 10.3 10 18:57 29.04.2020
3970 Clear 14 1030 76 10000 9.3 10 18:38 29.04.2020
3971 Clear 14 1030 76 10000 9.3 10 18:18 29.04.2020
3972 Clear 14 1030 77 10000 10.3 10 17:42 29.04.2020
3973 Clear 14 1030 77 10000 10.3 10 17:21 29.04.2020
3974 Clear 14 1030 77 10000 9.8 360 16:55 29.04.2020
3975 Clear 14 1030 77 10000 10.3 360 16:36 29.04.2020
3976 Clear 14 1030 77 10000 10.3 360 16:18 29.04.2020
3977 Clear 14 1031 77 10000 9.8 360 15:54 29.04.2020
3978 Clear 14 1031 82 10000 9.3 360 15:36 29.04.2020
3979 Clear 14 1031 82 10000 9.3 360 15:18 29.04.2020
3980 Clear 14 1031 82 10000 9.3 10 14:41 29.04.2020
3981 Clouds 14 1031 82 10000 9.3 10 14:23 29.04.2020
3982 Clouds 14 1031 82 10000 7.7 10 13:56 29.04.2020
3983 Clouds 14 1031 82 10000 7.7 20 13:37 29.04.2020
3984 Clouds 14 1031 82 10000 7.7 20 13:18 29.04.2020
3985 Clouds 14 1031 82 10000 8.7 10 12:41 29.04.2020
3986 Clouds 14 1031 82 10000 8.7 10 12:19 29.04.2020
3987 Clouds 14 1031 82 10000 8.7 10 11:58 29.04.2020
3988 Clouds 14 1031 82 10000 8.7 10 11:38 29.04.2020
3989 Clouds 14 1031 82 10000 8.7 10 11:19 29.04.2020
3990 Clouds 14 1031 87 10000 8.7 360 10:38 29.04.2020
3991 Clouds 14 1031 87 10000 8.7 360 10:20 29.04.2020
3992 Clouds 14 1030 87 10000 8.2 10 09:59 29.04.2020
3993 Clouds 14 1030 87 10000 9.3 10 09:40 29.04.2020
3994 Clouds 14 1030 87 10000 9.3 10 09:19 29.04.2020
3995 Clouds 14 1030 82 10000 8.7 10 08:43 29.04.2020
3996 Clear 14 1030 82 10000 8.7 10 08:25 29.04.2020
3997 Clear 14 1030 77 10000 9.3 10 07:51 29.04.2020
3998 Clear 14 1030 77 10000 7.2 10 07:27 29.04.2020
3999 Clear 15 1030 77 10000 9.3 10 06:52 29.04.2020
4000 Clear 15 1030 77 10000 8.7 10 06:31 29.04.2020
4001 Clear 15 1030 72 10000 8.7 360 05:42 29.04.2020
4002 Clear 15 1030 72 10000 8.7 360 05:18 29.04.2020
4003 Clear 16 1030 67 10000 8.7 10 04:19 29.04.2020
4004 Clear 17 1031 63 10000 7.7 360 02:56 29.04.2020
4005 Clear 16 1031 55 10000 7.7 20 01:47 29.04.2020
4006 Clear 16 1031 55 10000 7.7 20 01:27 29.04.2020
4007 Clear 15 1031 59 10000 8.2 10 00:51 29.04.2020
4008 Clear 14 1031 62 10000 6.7 20 00:21 29.04.2020
4009 Clear 13 1031 67 10000 6.2 10 23:56 28.04.2020
4010 Clear 13 1031 71 10000 5.1 360 23:38 28.04.2020
4011 Clear 12 1031 71 10000 5.1 360 23:20 28.04.2020
4012 Clear 9 1031 81 10000 3.6 30 22:38 28.04.2020
4013 Clear 8 1031 81 10000 3.6 30 22:20 28.04.2020
4014 Clear 9 1031 81 10000 4.1 30 21:58 28.04.2020
4015 Clear 9 1031 76 10000 2.6 360 21:40 28.04.2020
4016 Clear 9 1031 76 10000 2.6 360 21:21 28.04.2020
4017 Clear 9 1031 87 10000 3.1 360 20:56 28.04.2020
4018 Clear 9 1030 81 10000 3.1 20 20:38 28.04.2020
4019 Clear 9 1030 81 10000 3.1 20 20:20 28.04.2020
4020 Clear 9 1030 81 10000 3.6 20 19:56 28.04.2020
4021 Clear 9 1030 81 10000 3.6 30 19:37 28.04.2020
4022 Clear 9 1030 81 10000 3.6 30 19:19 28.04.2020
4023 Clear 9 1030 81 10000 3.1 30 18:41 28.04.2020
4024 Clear 9 1030 81 10000 3.1 30 18:20 28.04.2020
4025 Clear 9 1030 87 10000 2.6 10 17:59 28.04.2020
4026 Clear 10 1030 81 10000 3.1 10 17:37 28.04.2020
4027 Clear 10 1030 81 10000 3.1 10 17:19 28.04.2020
4028 Clear 10 1030 81 10000 3.1 30 16:56 28.04.2020
4029 Clear 9 1030 87 10000 1.5 30 16:37 28.04.2020
4030 Clear 9 1030 87 10000 1.5 30 16:19 28.04.2020
4031 Clear 10 1030 81 10000 2.1 30 15:54 28.04.2020
4032 Clear 10 1030 81 10000 2.1 60 15:36 28.04.2020
4033 Clear 10 1030 81 10000 2.1 60 15:18 28.04.2020
4034 Clear 10 1030 76 10000 2.6 30 14:43 28.04.2020
4035 Clear 10 1030 76 10000 2.6 30 14:22 28.04.2020
4036 Clear 10 1030 76 10000 2.6 30 14:22 28.04.2020
4037 Clear 11 1030 81 10000 4.1 10 13:59 28.04.2020
4038 Clear 11 1030 76 10000 3.1 30 13:40 28.04.2020
4039 Clear 11 1030 76 10000 3.1 30 13:21 28.04.2020
4040 Clear 11 1029 81 10000 2.6 30 12:58 28.04.2020
4041 Clear 11 1029 81 10000 2.1 30 12:38 28.04.2020
4042 Clear 11 1029 81 10000 2.1 30 12:20 28.04.2020
4043 Clear 9 1029 81 10000 2.1 20 11:42 28.04.2020
4044 Clear 9 1029 81 10000 2.1 20 11:21 28.04.2020
4045 Clear 9 1029 81 10000 1.5 80 10:57 28.04.2020
4046 Clear 10 1028 76 10000 2.1 30 10:38 28.04.2020
4047 Clear 10 1028 76 10000 2.1 30 10:18 28.04.2020
4048 Clear 11 1028 71 10000 3.1 170 09:43 28.04.2020
4049 Clear 12 1028 71 10000 3.1 170 09:24 28.04.2020
4050 Clear 12 1027 67 10000 5.1 170 08:54 28.04.2020
4051 Clear 13 1027 67 10000 5.1 170 08:36 28.04.2020
4052 Clear 14 1027 67 10000 5.1 170 08:18 28.04.2020
4053 Clear 14 1026 59 10000 5.7 160 07:41 28.04.2020
4054 Clear 15 1026 59 10000 5.7 160 07:18 28.04.2020
4055 Clear 15 1026 59 10000 5.7 160 07:18 28.04.2020
4056 Clear 16 1026 48 10000 5.1 160 06:39 28.04.2020
4057 Clear 17 1026 51 10000 5.1 170 05:48 28.04.2020
4058 Clear 17 1025 52 10000 3.6 180 05:30 28.04.2020
4059 Clear 18 1024 59 10000 3.6 200 04:33 28.04.2020
4060 Clear 18 1024 59 10000 3.6 200 04:33 28.04.2020
4061 Clear 18 1024 45 10000 3.6 60 02:38 28.04.2020
4062 Clear 18 1023 51 10000 2.6 40 01:37 28.04.2020
4063 Clear 17 1023 51 10000 2.6 40 01:19 28.04.2020
4064 Clear 16 1023 48 10000 3.6 10 00:32 28.04.2020
4065 Clear 15 1022 59 10000 4.1 10 23:56 27.04.2020
4066 Clear 14 1022 62 10000 3.6 20 23:38 27.04.2020
4067 Clear 13 1022 62 10000 3.6 20 23:20 27.04.2020
4068 Clear 14 1021 76 10000 3.1 350 22:43 27.04.2020
4069 Clear 12 1021 76 10000 3.1 350 22:23 27.04.2020
4070 Clear 11 1020 62 10000 1.5 70 21:57 27.04.2020
4071 Clear 12 1020 58 10000 2.1 290 21:39 27.04.2020
4072 Clear 12 1020 58 10000 2.1 290 21:39 27.04.2020
4073 Clear 12 1020 58 10000 2.1 290 21:19 27.04.2020
4074 Clear 12 1019 58 10000 3.1 270 20:56 27.04.2020
4075 Clear 12 1019 76 10000 3.1 250 20:38 27.04.2020
4076 Clear 13 1019 76 10000 3.1 250 20:19 27.04.2020
4077 Clear 13 1018 82 10000 1 290 19:55 27.04.2020
4078 Clear 13 1018 82 10000 1.5 240 19:36 27.04.2020
4079 Clear 13 1018 82 10000 1.5 240 19:18 27.04.2020
4080 Clear 13 1016 93 10000 1.5 360 18:40 27.04.2020
4081 Clear 13 1016 93 10000 1.5 360 18:20 27.04.2020
4082 Clear 14 1016 93 10000 2.6 30 17:59 27.04.2020
4083 Clear 14 1015 87 10000 4.1 20 17:40 27.04.2020
4084 Clear 15 1015 87 10000 4.1 20 17:19 27.04.2020
4085 Clear 15 1015 82 10000 4.6 350 16:41 27.04.2020
4086 Clear 15 1015 82 10000 4.6 350 16:41 27.04.2020
4087 Clear 15 1015 82 10000 4.6 350 16:22 27.04.2020
4088 Clear 15 1014 82 10000 5.7 20 15:58 27.04.2020
4089 Clear 15 1014 82 10000 5.7 30 15:40 27.04.2020
4090 Rain 15 1014 82 10000 5.7 30 15:20 27.04.2020
4091 Rain 15 1014 87 10000 5.7 30 14:58 27.04.2020
4092 Rain 15 1014 87 10000 5.7 30 14:58 27.04.2020
4093 Rain 15 1013 87 10000 8.2 10 14:40 27.04.2020
4094 Rain 16 1013 87 10000 8.2 10 14:19 27.04.2020
4095 Rain 16 1013 87 10000 6.7 360 13:56 27.04.2020
4096 Rain 16 1013 82 10000 5.1 340 13:36 27.04.2020
4097 Rain 16 1013 82 10000 5.1 340 13:18 27.04.2020
4098 Rain 16 1013 88 10000 7.7 330 12:42 27.04.2020
4099 Rain 16 1013 88 10000 7.7 330 12:21 27.04.2020
4100 Rain 16 1012 88 10000 9.3 340 11:42 27.04.2020
4101 Rain 16 1012 88 10000 9.3 340 11:22 27.04.2020
4102 Rain 16 1013 88 10000 9.8 340 10:59 27.04.2020
4103 Rain 16 1012 88 5000 11.3 340 10:40 27.04.2020
4104 Rain 16 1012 88 5000 11.3 340 10:22 27.04.2020
4105 Rain 16 1012 88 7000 11.3 340 09:55 27.04.2020
4106 Rain 16 1012 88 7000 9.8 350 09:36 27.04.2020
4107 Rain 17 1012 88 7000 9.8 350 09:18 27.04.2020
4108 Rain 17 1012 82 10000 10.8 340 08:45 27.04.2020
4109 Rain 17 1012 82 10000 10.8 340 08:26 27.04.2020
4110 Rain 17 1011 82 10000 12.3 340 07:44 27.04.2020
4111 Rain 17 1011 82 10000 12.3 340 07:22 27.04.2020
4112 Rain 17 1011 82 10000 12.3 340 06:57 27.04.2020
4113 Clouds 17 1011 77 10000 12.3 340 06:27 27.04.2020
4114 Clouds 16 1012 82 10000 11.3 350 05:50 27.04.2020
4115 Clouds 16 1012 82 10000 8.7 350 04:51 27.04.2020
4116 Clouds 16 1013 82 10000 8.2 350 04:20 27.04.2020
4117 Clouds 16 1014 87 10000 11.3 10 03:43 27.04.2020
4118 Rain 15 1015 82 10000 9.8 350 01:45 27.04.2020
4119 Drizzle 15 1015 82 10000 9.8 350 01:18 27.04.2020
4120 Clouds 15 1015 82 10000 11.3 360 00:20 27.04.2020
4121 Clouds 15 1016 77 10000 11.3 360 23:58 26.04.2020
4122 Clouds 15 1016 72 10000 9.8 360 23:40 26.04.2020
4123 Clouds 15 1016 72 10000 9.8 360 23:21 26.04.2020
4124 Clouds 15 1016 77 10000 9.8 360 22:58 26.04.2020
4125 Clouds 15 1016 72 10000 11.8 360 22:39 26.04.2020
4126 Clouds 15 1016 72 10000 11.8 360 22:21 26.04.2020
4127 Clouds 15 1015 72 10000 13.9 360 21:58 26.04.2020
4128 Clouds 15 1016 77 10000 12.9 360 21:38 26.04.2020
4129 Clouds 15 1016 77 10000 12.9 360 21:18 26.04.2020
4130 Clouds 15 1015 77 10000 13.9 360 20:54 26.04.2020
4131 Clouds 15 1015 77 10000 13.9 360 20:36 26.04.2020
4132 Clouds 15 1015 77 10000 13.9 360 20:18 26.04.2020
4133 Clouds 15 1015 77 10000 13.9 10 19:56 26.04.2020
4134 Clouds 15 1015 77 10000 13.9 10 19:56 26.04.2020
4135 Clouds 15 1016 77 10000 12.3 360 19:36 26.04.2020
4136 Clouds 15 1016 77 10000 12.3 360 19:18 26.04.2020
4137 Clouds 15 1016 77 10000 12.3 360 19:18 26.04.2020
4138 Clouds 15 1016 77 10000 12.3 360 19:18 26.04.2020
4139 Clouds 15 1016 72 10000 13.9 360 18:41 26.04.2020
4140 Clouds 14 1016 72 10000 13.9 360 18:23 26.04.2020
4141 Clouds 14 1016 77 10000 13.4 360 17:42 26.04.2020
4142 Clouds 14 1016 77 10000 13.4 360 17:22 26.04.2020
4143 Clouds 14 1016 72 10000 12.3 360 16:56 26.04.2020
4144 Clouds 14 1016 77 10000 11.8 360 16:38 26.04.2020
4145 Clouds 14 1016 77 10000 11.8 360 16:19 26.04.2020
4146 Clouds 14 1017 77 10000 12.3 360 15:56 26.04.2020
4147 Clouds 14 1017 77 10000 11.3 360 15:37 26.04.2020
4148 Clouds 14 1017 77 10000 11.3 360 15:37 26.04.2020
4149 Clouds 14 1017 77 10000 11.3 360 15:18 26.04.2020
4150 Clouds 14 1017 77 10000 11.3 360 14:41 26.04.2020
4151 Clouds 14 1017 77 10000 11.3 360 14:41 26.04.2020
4152 Clouds 14 1017 77 10000 11.3 360 14:19 26.04.2020
4153 Clouds 14 1017 77 10000 11.3 360 14:19 26.04.2020
4154 Clouds 14 1017 77 10000 12.3 360 13:58 26.04.2020
4155 Clouds 14 1017 72 10000 11.8 360 13:40 26.04.2020
4156 Clouds 14 1017 72 10000 11.8 360 13:21 26.04.2020
4157 Clouds 14 1017 77 10000 11.8 360 12:55 26.04.2020
4158 Clouds 14 1017 77 10000 11.8 360 12:55 26.04.2020
4159 Clouds 14 1017 77 10000 11.8 360 12:37 26.04.2020
4160 Clouds 14 1017 77 10000 11.8 360 12:18 26.04.2020
4161 Clouds 14 1017 77 10000 11.8 360 11:54 26.04.2020
4162 Clouds 14 1017 77 10000 11.3 10 11:36 26.04.2020
4163 Clouds 14 1017 77 10000 11.3 10 11:18 26.04.2020
4164 Clouds 14 1017 77 10000 8.2 10 10:42 26.04.2020
4165 Clouds 15 1017 77 10000 8.2 10 10:24 26.04.2020
4166 Clouds 15 1017 82 10000 8.2 20 09:58 26.04.2020
4167 Clouds 15 1017 77 10000 8.2 10 09:38 26.04.2020
4168 Clouds 15 1017 77 10000 8.2 10 09:19 26.04.2020
4169 Clouds 15 1017 72 10000 8.7 20 08:41 26.04.2020
4170 Clouds 15 1017 72 10000 8.7 20 08:22 26.04.2020
4171 Clouds 15 1017 77 10000 8.7 10 07:49 26.04.2020
4172 Clouds 15 1016 72 10000 9.3 10 07:24 26.04.2020
4173 Clouds 16 1017 63 10000 8.7 360 06:50 26.04.2020
4174 Clouds 16 1017 72 10000 9.3 10 06:31 26.04.2020
4175 Clouds 16 1017 72 10000 7.7 360 05:54 26.04.2020
4176 Clouds 17 1017 68 10000 7.7 360 05:34 26.04.2020
4177 Clouds 17 1018 68 10000 7.7 350 04:41 26.04.2020
4178 Clouds 17 1018 68 10000 8.7 350 03:43 26.04.2020
4179 Clouds 17 1019 68 10000 7.7 10 02:38 26.04.2020
4180 Clouds 17 1019 68 10000 7.7 10 02:19 26.04.2020
4181 Clouds 17 1019 77 10000 4.6 350 01:37 26.04.2020
4182 Clouds 15 1019 82 10000 3.1 360 00:41 26.04.2020
4183 Clouds 15 1019 82 10000 3.1 360 00:21 26.04.2020
4184 Clouds 15 1019 82 10000 1.5 10 23:57 25.04.2020
4185 Clouds 14 1020 82 10000 0.5 90 23:37 25.04.2020
4186 Clouds 14 1020 82 10000 0.5 90 23:18 25.04.2020
4187 Clouds 14 1019 87 10000 1 350 22:42 25.04.2020
4188 Clouds 13 1019 87 10000 1 350 22:21 25.04.2020
4189 Clouds 13 1019 87 10000 1.5 260 21:58 25.04.2020
4190 Clouds 13 1019 87 10000 2.1 210 21:39 25.04.2020
4191 Clouds 13 1019 87 10000 2.1 210 21:19 25.04.2020
4192 Clouds 13 1019 87 10000 2.1 240 20:54 25.04.2020
4193 Clouds 13 1019 87 10000 2.6 210 20:36 25.04.2020
4194 Clouds 13 1019 87 10000 2.6 210 20:18 25.04.2020
4195 Clouds 13 1018 87 10000 3.6 200 19:40 25.04.2020
4196 Clouds 13 1018 87 10000 3.6 200 19:22 25.04.2020
4197 Clouds 13 1018 87 10000 5.1 200 18:56 25.04.2020
4198 Clouds 13 1018 87 10000 5.7 200 18:37 25.04.2020
4199 Clear 13 1018 87 10000 5.7 200 18:18 25.04.2020
4200 Clear 13 1018 87 10000 6.2 200 17:55 25.04.2020
4201 Clear 14 1018 82 10000 5.7 200 17:37 25.04.2020
4202 Clear 14 1018 82 10000 5.7 200 17:18 25.04.2020
4203 Clear 14 1017 82 10000 4.6 220 16:46 25.04.2020
4204 Clear 14 1017 82 10000 4.6 220 16:27 25.04.2020
4205 Clear 14 1017 87 10000 4.6 230 15:58 25.04.2020
4206 Clear 14 1017 87 10000 1.5 280 15:38 25.04.2020
4207 Clear 14 1017 87 10000 1.5 280 15:19 25.04.2020
4208 Clear 14 1017 93 10000 2.1 340 14:57 25.04.2020
4209 Clear 13 1016 93 10000 2.6 350 14:38 25.04.2020
4210 Clear 14 1016 93 10000 2.6 350 14:18 25.04.2020
4211 Clear 14 1015 87 10000 5.1 20 13:42 25.04.2020
4212 Clear 14 1015 87 10000 5.1 20 13:19 25.04.2020
4213 Clear 14 1015 87 10000 5.7 20 12:57 25.04.2020
4214 Clear 14 1015 87 10000 5.1 20 12:38 25.04.2020
4215 Clear 14 1015 87 10000 5.1 20 12:38 25.04.2020
4216 Clouds 14 1015 87 10000 5.1 20 12:20 25.04.2020
4217 Clouds 14 1014 87 10000 6.2 20 11:54 25.04.2020
4218 Clouds 14 1014 87 10000 6.2 20 11:54 25.04.2020
4219 Clouds 15 1014 82 10000 5.7 20 11:36 25.04.2020
4220 Clouds 15 1013 82 10000 5.7 20 11:18 25.04.2020
4221 Clouds 15 1013 82 10000 6.2 20 10:41 25.04.2020
4222 Clouds 15 1013 82 10000 6.2 20 10:22 25.04.2020
4223 Clouds 15 1012 87 10000 5.7 20 09:46 25.04.2020
4224 Clear 15 1012 87 10000 5.7 20 09:27 25.04.2020
4225 Clear 15 1012 82 10000 6.2 10 08:57 25.04.2020
4226 Clear 15 1012 82 10000 6.7 10 08:38 25.04.2020
4227 Clear 16 1012 82 10000 6.7 10 08:20 25.04.2020
4228 Clear 16 1011 77 10000 7.7 360 07:46 25.04.2020
4229 Clear 16 1011 77 10000 7.7 360 07:24 25.04.2020
4230 Clear 17 1011 68 10000 7.7 360 06:44 25.04.2020
4231 Clear 17 1011 63 10000 8.7 350 05:56 25.04.2020
4232 Clear 17 1010 63 10000 9.3 360 05:31 25.04.2020
4233 Clear 17 1010 55 10000 9.8 10 04:42 25.04.2020
4234 Clouds 17 1011 59 10000 12.3 360 02:59 25.04.2020
4235 Clouds 16 1012 59 10000 11.8 360 02:19 25.04.2020
4236 Clouds 16 1012 59 10000 10.8 360 01:50 25.04.2020
4237 Clouds 16 1012 59 10000 10.3 360 01:27 25.04.2020
4238 Clouds 16 1012 59 10000 11.8 360 00:50 25.04.2020
4239 Clouds 16 1012 63 10000 10.8 10 00:29 25.04.2020
4240 Clouds 15 1012 67 10000 10.3 10 23:43 24.04.2020
4241 Clouds 15 1012 67 10000 10.3 10 23:22 24.04.2020
4242 Clouds 15 1012 72 10000 8.2 10 22:54 24.04.2020
4243 Clouds 15 1012 72 10000 8.2 10 22:54 24.04.2020
4244 Clouds 14 1012 77 10000 9.3 20 22:36 24.04.2020
4245 Clouds 14 1012 77 10000 9.3 20 22:18 24.04.2020
4246 Clouds 14 1011 82 10000 10.3 10 21:54 24.04.2020
4247 Clouds 14 1011 82 10000 8.7 20 21:36 24.04.2020
4248 Clouds 14 1011 82 10000 8.7 20 21:18 24.04.2020
4249 Clouds 14 1011 82 10000 10.3 10 20:42 24.04.2020
4250 Clouds 14 1011 82 10000 10.8 360 20:19 24.04.2020
4251 Clouds 14 1011 82 10000 10.8 360 19:58 24.04.2020
4252 Clouds 14 1011 82 10000 9.8 360 19:38 24.04.2020
4253 Clouds 14 1011 82 10000 9.8 360 19:20 24.04.2020
4254 Clouds 14 1011 82 10000 7.2 10 18:41 24.04.2020
4255 Clouds 14 1011 82 10000 7.2 10 18:41 24.04.2020
4256 Clouds 14 1011 82 10000 7.2 10 18:23 24.04.2020
4257 Clouds 14 1011 82 10000 9.3 10 17:54 24.04.2020
4258 Clouds 14 1012 82 10000 7.7 20 17:36 24.04.2020
4259 Clouds 14 1012 82 10000 7.7 20 17:18 24.04.2020
4260 Clouds 14 1012 82 10000 8.2 20 16:55 24.04.2020
4261 Clouds 14 1012 76 10000 8.2 20 16:37 24.04.2020
4262 Clouds 14 1012 76 10000 8.2 20 16:19 24.04.2020
4263 Clouds 14 1012 76 10000 8.2 20 16:19 24.04.2020
4264 Clouds 13 1012 76 10000 7.2 20 15:40 24.04.2020
4265 Clouds 13 1012 76 10000 7.2 20 15:20 24.04.2020
4266 Clouds 13 1012 76 10000 7.2 20 14:41 24.04.2020
4267 Clouds 13 1012 76 10000 7.2 20 14:22 24.04.2020
4268 Clouds 13 1012 76 10000 7.2 20 13:58 24.04.2020
4269 Clouds 13 1013 76 10000 6.7 20 13:40 24.04.2020
4270 Clouds 13 1013 76 10000 6.7 20 13:20 24.04.2020
4271 Clouds 14 1013 82 10000 6.7 30 12:46 24.04.2020
4272 Clear 13 1013 82 10000 6.7 30 12:26 24.04.2020
4273 Clear 14 1013 82 10000 6.2 30 11:59 24.04.2020
4274 Clear 14 1013 82 10000 6.7 20 11:40 24.04.2020
4275 Clear 14 1013 82 10000 6.7 20 11:21 24.04.2020
4276 Clear 14 1013 77 10000 6.7 20 10:57 24.04.2020
4277 Clear 14 1013 82 10000 6.7 20 10:38 24.04.2020
4278 Clear 14 1013 82 10000 6.7 20 10:19 24.04.2020
4279 Clear 14 1013 82 10000 6.7 20 10:19 24.04.2020
4280 Clear 14 1013 82 10000 6.7 20 10:19 24.04.2020
4281 Clear 14 1012 82 10000 6.2 20 09:47 24.04.2020
4282 Clear 14 1012 82 10000 6.2 20 09:24 24.04.2020
4283 Clear 14 1012 82 10000 6.2 10 08:59 24.04.2020
4284 Clear 14 1012 82 10000 5.1 10 08:40 24.04.2020
4285 Clear 14 1012 82 10000 5.1 10 08:19 24.04.2020
4286 Clear 15 1012 77 10000 7.2 10 07:47 24.04.2020
4287 Clear 15 1012 77 10000 7.2 10 07:27 24.04.2020
4288 Clear 16 1011 67 10000 7.7 10 06:59 24.04.2020
4289 Clear 16 1011 67 10000 7.7 10 06:40 24.04.2020
4290 Clear 17 1011 63 10000 8.2 10 05:49 24.04.2020
4291 Clear 18 1011 55 10000 6.2 350 04:46 24.04.2020
4292 Clouds 17 1011 59 10000 6.2 350 03:27 24.04.2020
4293 Clouds 17 1012 63 10000 5.7 350 02:44 24.04.2020
4294 Clouds 17 1012 63 10000 5.7 350 02:20 24.04.2020
4295 Clouds 17 1012 72 10000 6.2 360 01:37 24.04.2020
4296 Clouds 16 1012 72 10000 5.7 360 00:43 24.04.2020
4297 Clouds 16 1012 72 10000 5.7 360 00:18 24.04.2020
4298 Clouds 15 1012 82 10000 6.7 360 23:45 23.04.2020
4299 Clouds 15 1012 82 10000 6.7 360 23:27 23.04.2020
4300 Clouds 15 1012 77 10000 5.1 350 22:57 23.04.2020
4301 Clouds 14 1011 82 10000 5.7 360 22:38 23.04.2020
4302 Clouds 14 1011 82 10000 5.7 360 22:19 23.04.2020
4303 Clouds 14 1011 87 10000 4.1 20 21:56 23.04.2020
4304 Clouds 14 1011 87 10000 4.6 20 21:38 23.04.2020
4305 Clouds 14 1011 87 10000 4.6 20 21:20 23.04.2020
4306 Clouds 14 1011 87 10000 5.1 360 20:54 23.04.2020
4307 Clouds 14 1011 87 10000 5.1 360 20:54 23.04.2020
4308 Clouds 14 1011 82 10000 6.2 350 20:36 23.04.2020
4309 Clouds 14 1011 82 10000 6.2 350 20:18 23.04.2020
4310 Clouds 14 1010 82 10000 6.2 350 19:42 23.04.2020
4311 Clouds 14 1010 82 10000 6.2 350 19:42 23.04.2020
4312 Clouds 14 1010 82 10000 6.2 350 19:22 23.04.2020
4313 Clouds 14 1010 82 10000 6.7 350 19:00 23.04.2020
4314 Clouds 14 1010 82 10000 6.7 350 19:00 23.04.2020
4315 Clouds 14 1010 87 10000 7.2 360 18:39 23.04.2020
4316 Clouds 14 1010 87 10000 7.2 360 18:21 23.04.2020
4317 Clouds 14 1010 87 10000 7.2 360 17:57 23.04.2020
4318 Clouds 14 1010 87 10000 5.7 360 17:38 23.04.2020
4319 Clouds 14 1010 87 10000 5.7 360 17:20 23.04.2020
4320 Rain 15 1011 82 10000 5.1 340 16:44 23.04.2020
4321 Rain 15 1011 82 10000 5.1 340 16:21 23.04.2020
4322 Clouds 15 1011 82 10000 7.2 360 15:59 23.04.2020
4323 Drizzle 15 1011 87 10000 6.7 360 15:40 23.04.2020
4324 Drizzle 15 1011 87 10000 6.7 360 15:21 23.04.2020
4325 Rain 15 1011 87 10000 5.7 360 14:41 23.04.2020
4326 Rain 15 1011 87 10000 5.7 360 14:22 23.04.2020
4327 Rain 15 1011 82 10000 5.7 350 13:58 23.04.2020
4328 Rain 15 1012 82 10000 6.7 350 13:40 23.04.2020
4329 Rain 15 1012 82 10000 6.7 350 13:22 23.04.2020
4330 Rain 15 1012 82 10000 5.7 350 12:57 23.04.2020
4331 Drizzle 15 1012 72 10000 5.7 340 12:38 23.04.2020
4332 Drizzle 15 1012 72 10000 5.7 340 12:38 23.04.2020
4333 Drizzle 16 1012 72 10000 5.7 340 12:20 23.04.2020
4334 Clouds 15 1012 77 10000 6.2 360 11:46 23.04.2020
4335 Clouds 15 1012 77 10000 6.2 360 11:27 23.04.2020
4336 Clouds 15 1012 77 10000 5.7 350 10:58 23.04.2020
4337 Clouds 15 1012 77 10000 7.2 10 10:39 23.04.2020
4338 Clouds 15 1012 77 10000 7.2 10 10:20 23.04.2020
4339 Clouds 15 1012 77 10000 7.7 350 09:40 23.04.2020
4340 Clouds 15 1012 77 10000 7.7 350 09:18 23.04.2020
4341 Clouds 15 1012 77 10000 8.7 340 08:48 23.04.2020
4342 Clouds 15 1012 77 10000 8.7 340 08:29 23.04.2020
4343 Clouds 15 1011 82 10000 6.7 340 07:56 23.04.2020
4344 Clouds 15 1011 77 10000 9.3 350 07:38 23.04.2020
4345 Clouds 15 1011 77 10000 9.3 350 07:18 23.04.2020
4346 Clouds 15 1012 82 10000 9.3 360 06:43 23.04.2020
4347 Clouds 16 1013 77 10000 8.2 360 05:37 23.04.2020
4348 Clouds 16 1013 77 10000 7.7 360 05:18 23.04.2020
4349 Clouds 16 1014 77 10000 8.2 360 02:52 23.04.2020
4350 Rain 15 1014 72 10000 8.7 360 02:23 23.04.2020
4351 Rain 15 1015 82 10000 8.7 10 01:38 23.04.2020
4352 Clouds 14 1015 82 10000 8.2 10 00:51 23.04.2020
4353 Clouds 14 1015 82 10000 9.3 10 00:26 23.04.2020
4354 Rain 14 1015 87 10000 8.2 10 23:55 22.04.2020
4355 Rain 14 1015 93 10000 8.7 20 23:27 22.04.2020
4356 Haze 14 1015 93 4300 8.2 10 22:59 22.04.2020
4357 Rain 14 1015 93 5000 8.7 10 22:39 22.04.2020
4358 Rain 14 1015 93 5000 8.7 10 22:20 22.04.2020
4359 Rain 14 1014 87 7000 7.7 10 21:58 22.04.2020
4360 Rain 14 1014 87 10000 7.7 20 21:40 22.04.2020
4361 Clouds 14 1014 87 10000 7.7 20 21:21 22.04.2020
4362 Rain 14 1014 87 10000 7.7 20 20:56 22.04.2020
4363 Rain 14 1015 87 10000 6.7 20 20:37 22.04.2020
4364 Rain 14 1015 87 10000 6.7 20 20:18 22.04.2020
4365 Rain 14 1015 87 10000 7.2 10 19:56 22.04.2020
4366 Clouds 14 1015 87 10000 7.7 10 19:37 22.04.2020
4367 Clouds 15 1015 87 10000 7.7 10 19:18 22.04.2020
4368 Clouds 15 1015 82 10000 7.2 20 18:55 22.04.2020
4369 Clouds 15 1015 82 10000 7.2 20 18:55 22.04.2020
4370 Clouds 15 1015 82 10000 6.7 10 18:37 22.04.2020
4371 Clouds 15 1016 87 10000 7.2 10 18:18 22.04.2020
4372 Rain 15 1016 87 10000 6.7 10 17:42 22.04.2020
4373 Clouds 15 1016 82 10000 6.2 10 17:23 22.04.2020
4374 Clouds 15 1016 82 10000 6.2 10 16:56 22.04.2020
4375 Clouds 15 1016 82 10000 6.2 360 16:36 22.04.2020
4376 Clouds 15 1016 82 10000 6.2 360 16:18 22.04.2020
4377 Clouds 15 1016 82 10000 7.7 360 15:38 22.04.2020
4378 Clouds 15 1016 82 10000 7.7 360 15:20 22.04.2020
4379 Clouds 15 1016 87 10000 6.7 360 14:56 22.04.2020
4380 Clouds 15 1016 87 10000 7.2 10 14:37 22.04.2020
4381 Clouds 15 1016 87 10000 7.2 10 14:18 22.04.2020
4382 Clouds 15 1016 87 10000 7.2 10 14:18 22.04.2020
4383 Clouds 15 1016 87 10000 8.2 10 13:44 22.04.2020
4384 Clouds 15 1016 87 10000 7.2 20 13:20 22.04.2020
4385 Clouds 15 1016 87 10000 7.2 10 12:44 22.04.2020
4386 Clouds 15 1016 87 10000 7.2 10 12:26 22.04.2020
4387 Clouds 15 1016 87 10000 8.2 360 11:59 22.04.2020
4388 Clouds 15 1016 82 10000 7.7 10 11:39 22.04.2020
4389 Clouds 15 1016 82 10000 7.7 10 11:39 22.04.2020
4390 Clouds 15 1016 82 10000 7.7 10 11:20 22.04.2020
4391 Clouds 15 1016 82 10000 6.7 20 10:46 22.04.2020
4392 Clouds 15 1016 82 10000 6.7 20 10:25 22.04.2020
4393 Clouds 15 1016 82 10000 8.2 10 09:56 22.04.2020
4394 Clouds 15 1016 82 10000 8.7 10 09:38 22.04.2020
4395 Clouds 15 1016 82 10000 8.7 10 09:19 22.04.2020
4396 Clouds 15 1016 77 10000 7.7 20 08:54 22.04.2020
4397 Clouds 15 1016 77 10000 7.7 10 08:36 22.04.2020
4398 Clouds 15 1016 77 10000 7.7 10 08:18 22.04.2020
4399 Clouds 15 1016 77 10000 8.7 360 07:44 22.04.2020
4400 Clouds 15 1016 77 10000 8.7 360 07:21 22.04.2020
4401 Clouds 16 1015 72 10000 9.8 360 06:44 22.04.2020
4402 Clouds 16 1016 67 10000 9.8 360 05:45 22.04.2020
4403 Clouds 16 1016 67 10000 11.8 360 04:59 22.04.2020
4404 Clouds 16 1016 68 10000 9.3 360 03:54 22.04.2020
4405 Clouds 16 1017 67 10000 8.7 360 02:35 22.04.2020
4406 Clouds 16 1017 67 10000 8.7 360 01:41 22.04.2020
4407 Clouds 16 1017 67 10000 8.7 360 01:23 22.04.2020
4408 Clouds 16 1017 72 10000 8.2 10 00:45 22.04.2020
4409 Clouds 15 1017 72 10000 8.2 10 00:20 22.04.2020
4410 Clouds 15 1017 82 10000 8.2 10 23:45 21.04.2020
4411 Clouds 14 1017 82 10000 8.2 10 23:23 21.04.2020
4412 Clouds 14 1017 76 10000 7.7 20 22:59 21.04.2020
4413 Clouds 13 1016 76 10000 9.3 10 22:39 21.04.2020
4414 Clouds 13 1016 76 10000 9.3 10 22:20 21.04.2020
4415 Clouds 13 1016 82 10000 7.2 20 21:57 21.04.2020
4416 Clouds 12 1016 82 10000 6.7 20 21:39 21.04.2020
4417 Clouds 12 1016 82 10000 6.7 20 21:39 21.04.2020
4418 Clouds 12 1016 82 10000 6.7 20 21:21 21.04.2020
4419 Clouds 12 1016 76 10000 6.2 30 20:41 21.04.2020
4420 Clouds 12 1016 76 10000 6.2 30 20:23 21.04.2020
4421 Clouds 12 1016 81 10000 6.2 30 19:58 21.04.2020
4422 Clouds 12 1015 81 10000 6.7 20 19:38 21.04.2020
4423 Clouds 12 1015 81 10000 6.7 20 19:19 21.04.2020
4424 Clouds 12 1015 81 10000 6.2 20 18:55 21.04.2020
4425 Clouds 12 1015 81 10000 5.1 20 18:37 21.04.2020
4426 Clouds 12 1015 81 10000 5.1 20 18:37 21.04.2020
4427 Clouds 12 1015 81 10000 5.1 20 18:37 21.04.2020
4428 Clouds 11 1015 81 10000 5.1 20 18:18 21.04.2020
4429 Clouds 12 1016 76 10000 4.6 20 17:40 21.04.2020
4430 Clouds 12 1016 76 10000 4.6 20 17:20 21.04.2020
4431 Clouds 11 1016 81 10000 5.1 30 16:58 21.04.2020
4432 Clouds 11 1016 81 10000 4.6 20 16:37 21.04.2020
4433 Clouds 11 1016 81 10000 4.6 20 16:18 21.04.2020
4434 Clouds 10 1016 81 10000 4.1 20 15:55 21.04.2020
4435 Clouds 10 1016 81 10000 4.1 20 15:55 21.04.2020
4436 Clouds 11 1016 81 10000 4.1 30 15:37 21.04.2020
4437 Clouds 11 1016 81 10000 4.1 30 15:37 21.04.2020
4438 Clouds 11 1016 81 10000 4.1 30 15:19 21.04.2020
4439 Clouds 11 1017 81 10000 4.1 30 14:45 21.04.2020
4440 Clouds 11 1017 81 10000 4.1 30 14:24 21.04.2020
4441 Clouds 11 1017 81 10000 4.6 10 13:56 21.04.2020
4442 Clouds 11 1017 81 10000 4.6 10 13:56 21.04.2020
4443 Clouds 11 1017 81 10000 4.6 20 13:37 21.04.2020
4444 Clouds 11 1017 81 10000 4.6 20 13:18 21.04.2020
4445 Clouds 11 1017 81 10000 4.6 20 13:18 21.04.2020
4446 Clouds 11 1017 81 10000 4.6 20 13:18 21.04.2020
4447 Clouds 11 1017 76 10000 4.6 20 12:39 21.04.2020
4448 Clouds 11 1017 76 10000 4.6 20 12:19 21.04.2020
4449 Clouds 11 1016 76 10000 4.1 20 11:57 21.04.2020
4450 Clouds 11 1016 76 10000 4.1 20 11:39 21.04.2020
4451 Clouds 11 1016 76 10000 4.1 20 11:19 21.04.2020
4452 Clouds 11 1016 76 10000 4.1 30 10:59 21.04.2020
4453 Clouds 12 1016 71 10000 4.1 30 10:39 21.04.2020
4454 Clouds 12 1016 71 10000 4.1 30 10:21 21.04.2020
4455 Clouds 12 1016 71 10000 3.6 20 09:57 21.04.2020
4456 Clouds 12 1016 76 10000 3.1 20 09:36 21.04.2020
4457 Clouds 12 1016 76 10000 3.1 20 09:18 21.04.2020
4458 Clouds 13 1015 71 10000 4.1 360 08:43 21.04.2020
4459 Clouds 13 1015 71 10000 4.1 360 08:25 21.04.2020
4460 Clouds 13 1015 62 10000 3.1 340 07:51 21.04.2020
4461 Clouds 14 1015 62 10000 4.1 350 07:27 21.04.2020
4462 Clouds 15 1015 59 10000 4.1 360 06:50 21.04.2020
4463 Clear 15 1016 55 10000 3.6 330 06:32 21.04.2020
4464 Clear 16 1016 55 10000 4.1 340 05:50 21.04.2020
4465 Clear 16 1016 51 10000 4.6 330 04:55 21.04.2020
4466 Clear 16 1016 48 10000 5.1 350 03:45 21.04.2020
4467 Clouds 16 1017 55 10000 7.2 10 02:40 21.04.2020
4468 Clouds 16 1017 59 10000 3.6 20 01:30 21.04.2020
4469 Clouds 16 1017 63 10000 3.6 30 00:38 21.04.2020
4470 Clouds 14 1017 72 10000 2.6 340 23:55 20.04.2020
4471 Clouds 13 1017 76 10000 2.1 10 23:37 20.04.2020
4472 Clouds 13 1017 76 10000 2.1 10 23:19 20.04.2020
4473 Clouds 12 1017 81 10000 1.5 10 22:54 20.04.2020
4474 Clouds 12 1016 81 10000 1 300 22:36 20.04.2020
4475 Clouds 12 1016 81 10000 1 300 22:18 20.04.2020
4476 Clouds 11 1016 76 10000 2.6 30 21:54 20.04.2020
4477 Clouds 11 1016 76 10000 2.6 30 21:54 20.04.2020
4478 Clouds 11 1015 76 10000 3.1 40 21:36 20.04.2020
4479 Clouds 11 1015 76 10000 3.1 40 21:18 20.04.2020
4480 Clouds 11 1015 87 10000 2.1 30 20:40 20.04.2020
4481 Clouds 11 1015 87 10000 2.1 30 20:19 20.04.2020
4482 Clouds 11 1015 87 10000 3.1 30 19:59 20.04.2020
4483 Clouds 12 1015 81 10000 3.1 40 19:40 20.04.2020
4484 Clouds 12 1015 81 10000 3.1 40 19:20 20.04.2020
4485 Clouds 12 1015 76 10000 2.6 40 18:55 20.04.2020
4486 Clouds 12 1015 71 10000 2.1 50 18:36 20.04.2020
4487 Clouds 12 1015 71 10000 2.1 50 18:18 20.04.2020
4488 Clouds 13 1015 67 10000 3.6 340 17:43 20.04.2020
4489 Clouds 13 1015 67 10000 3.6 340 17:22 20.04.2020
4490 Clouds 13 1015 67 10000 4.6 340 16:59 20.04.2020
4491 Clouds 13 1015 67 10000 5.7 330 16:40 20.04.2020
4492 Clouds 13 1015 67 10000 5.7 330 16:40 20.04.2020
4493 Clouds 14 1015 67 10000 5.7 330 16:19 20.04.2020
4494 Clouds 14 1015 72 10000 5.7 330 15:55 20.04.2020
4495 Clouds 14 1015 77 10000 5.1 330 15:36 20.04.2020
4496 Clouds 14 1015 77 10000 5.1 330 15:18 20.04.2020
4497 Clouds 14 1015 77 10000 5.1 330 15:18 20.04.2020
4498 Clouds 14 1015 77 10000 5.1 330 15:18 20.04.2020
4499 Clouds 14 1015 77 10000 4.1 330 14:40 20.04.2020
4500 Clouds 14 1015 77 10000 4.1 330 14:19 20.04.2020
4501 Clouds 14 1015 77 10000 3.6 340 13:57 20.04.2020
4502 Clouds 14 1015 77 10000 3.6 350 13:38 20.04.2020
4503 Clouds 14 1015 77 10000 3.6 350 13:20 20.04.2020
4504 Clouds 14 1015 77 10000 3.6 330 12:43 20.04.2020
4505 Clouds 14 1015 77 10000 3.6 330 12:43 20.04.2020
4506 Rain 14 1015 77 10000 3.6 330 12:22 20.04.2020
4507 Rain 14 1015 77 10000 4.6 350 11:54 20.04.2020
4508 Rain 14 1015 72 10000 4.6 350 11:36 20.04.2020
4509 Rain 14 1015 72 10000 4.6 350 11:18 20.04.2020
4510 Rain 14 1015 72 10000 4.6 330 10:54 20.04.2020
4511 Rain 14 1014 72 10000 6.2 330 10:36 20.04.2020
4512 Rain 14 1014 72 10000 6.2 330 10:18 20.04.2020
4513 Rain 14 1014 77 10000 5.1 330 09:40 20.04.2020
4514 Rain 14 1014 77 10000 5.1 330 09:21 20.04.2020
4515 Rain 14 1013 67 10000 5.1 330 08:43 20.04.2020
4516 Rain 14 1013 67 10000 5.1 330 08:23 20.04.2020
4517 Rain 15 1013 67 10000 6.2 340 07:59 20.04.2020
4518 Rain 15 1013 72 10000 5.1 330 07:39 20.04.2020
4519 Rain 15 1013 67 10000 6.2 340 07:19 20.04.2020
4520 Rain 15 1012 67 10000 6.2 330 06:37 20.04.2020
4521 Rain 15 1012 67 10000 7.7 350 05:57 20.04.2020
4522 Rain 16 1013 63 10000 7.2 330 04:49 20.04.2020
4523 Clouds 16 1013 59 10000 6.7 330 02:49 20.04.2020
4524 Clouds 16 1014 59 10000 8.7 350 02:27 20.04.2020
4525 Clouds 16 1014 59 10000 7.7 350 01:29 20.04.2020
4526 Clouds 16 1014 59 10000 8.7 340 00:45 20.04.2020
4527 Clouds 16 1014 59 10000 8.7 340 00:22 20.04.2020
4528 Clouds 15 1015 63 10000 4.1 350 23:40 19.04.2020
4529 Clouds 15 1015 63 10000 4.1 350 23:21 19.04.2020
4530 Clouds 14 1014 67 10000 5.7 340 22:57 19.04.2020
4531 Clouds 14 1014 71 10000 5.1 330 22:37 19.04.2020
4532 Clouds 14 1014 71 10000 5.1 330 22:19 19.04.2020
4533 Clouds 13 1014 67 10000 4.1 340 21:42 19.04.2020
4534 Clouds 13 1014 67 10000 4.1 340 21:24 19.04.2020
4535 Clouds 14 1013 62 10000 5.1 340 20:58 19.04.2020
4536 Clouds 13 1013 67 10000 3.6 340 20:40 19.04.2020
4537 Clouds 13 1013 67 10000 3.6 340 20:40 19.04.2020
4538 Clouds 13 1013 67 10000 3.6 340 20:20 19.04.2020
4539 Clouds 13 1013 67 10000 3.1 330 19:56 19.04.2020
4540 Clouds 13 1013 71 10000 3.1 330 19:38 19.04.2020
4541 Clouds 13 1013 71 10000 3.1 330 19:20 19.04.2020
4542 Clouds 14 1012 67 10000 4.1 340 18:57 19.04.2020
4543 Clouds 14 1012 67 10000 5.1 340 18:38 19.04.2020
4544 Clouds 14 1012 67 10000 5.1 340 18:18 19.04.2020
4545 Clouds 14 1012 62 10000 4.1 340 17:56 19.04.2020
4546 Clouds 14 1012 62 10000 4.6 330 17:37 19.04.2020
4547 Clouds 14 1012 62 10000 4.6 330 17:19 19.04.2020
4548 Clouds 14 1011 67 10000 7.2 350 16:40 19.04.2020
4549 Clouds 14 1011 67 10000 7.2 350 16:21 19.04.2020
4550 Clouds 14 1011 67 10000 7.7 340 15:58 19.04.2020
4551 Clouds 14 1011 67 10000 6.7 330 15:40 19.04.2020
4552 Clouds 14 1011 67 10000 6.7 330 15:19 19.04.2020
4553 Clouds 14 1011 62 10000 6.7 340 14:39 19.04.2020
4554 Clouds 14 1011 62 10000 6.7 340 14:21 19.04.2020
4555 Clouds 14 1011 67 10000 6.2 340 13:57 19.04.2020
4556 Clouds 14 1011 67 10000 6.7 340 13:37 19.04.2020
4557 Clouds 14 1011 67 10000 6.7 340 13:18 19.04.2020
4558 Clouds 15 1011 63 10000 5.7 330 12:44 19.04.2020
4559 Clouds 15 1011 63 10000 5.7 330 12:24 19.04.2020
4560 Clouds 15 1011 59 10000 6.2 340 11:55 19.04.2020
4561 Clouds 15 1010 63 10000 7.2 340 11:37 19.04.2020
4562 Clouds 15 1010 63 10000 7.2 340 11:18 19.04.2020
4563 Clouds 15 1009 67 10000 7.7 330 10:41 19.04.2020
4564 Clouds 15 1009 67 10000 7.7 330 10:21 19.04.2020
4565 Clouds 15 1009 67 10000 7.7 340 09:59 19.04.2020
4566 Clouds 15 1009 63 10000 6.2 340 09:41 19.04.2020
4567 Clouds 15 1009 63 10000 6.2 340 09:41 19.04.2020
4568 Clouds 15 1009 63 10000 6.2 340 09:19 19.04.2020
4569 Clouds 15 1008 63 10000 6.2 340 08:40 19.04.2020
4570 Clouds 15 1008 63 10000 6.2 340 08:21 19.04.2020
4571 Clouds 15 1007 59 10000 7.2 340 07:55 19.04.2020
4572 Clouds 15 1007 55 10000 7.2 330 07:37 19.04.2020
4573 Clouds 15 1007 55 10000 7.2 330 07:18 19.04.2020
4574 Clouds 16 1007 59 10000 9.3 340 06:24 19.04.2020
4575 Clouds 16 1007 59 10000 8.7 340 05:35 19.04.2020
4576 Clouds 17 1006 55 10000 10.8 340 03:55 19.04.2020
4577 Clear 17 1006 55 10000 9.3 340 02:50 19.04.2020
4578 Clear 17 1006 55 10000 8.7 330 02:18 19.04.2020
4579 Clear 16 1006 59 10000 10.8 340 01:26 19.04.2020
4580 Clear 17 1005 63 10000 11.8 340 00:41 19.04.2020
4581 Clear 16 1005 63 10000 11.8 340 00:20 19.04.2020
4582 Clear 16 1004 59 10000 10.8 330 23:44 18.04.2020
4583 Clear 16 1004 59 10000 10.8 330 23:20 18.04.2020
4584 Clear 16 1004 63 10000 9.3 340 22:56 18.04.2020
4585 Clear 15 1003 63 10000 9.3 340 22:38 18.04.2020
4586 Clear 15 1003 63 10000 9.3 340 22:19 18.04.2020
4587 Clear 15 1003 63 10000 9.3 340 21:55 18.04.2020
4588 Clear 15 1002 63 10000 6.7 340 21:36 18.04.2020
4589 Rain 15 1002 63 10000 6.7 340 21:18 18.04.2020
4590 Rain 15 1002 59 10000 6.2 330 20:40 18.04.2020
4591 Rain 15 1002 59 10000 6.2 330 20:21 18.04.2020
4592 Rain 15 1000 77 10000 9.3 340 19:44 18.04.2020
4593 Rain 15 1000 77 10000 9.3 340 19:44 18.04.2020
4594 Rain 15 1000 77 10000 9.3 340 19:25 18.04.2020
4595 Rain 15 1000 77 10000 11.3 340 18:59 18.04.2020
4596 Rain 15 1000 77 10000 14.4 340 18:37 18.04.2020
4597 Rain 15 1000 77 10000 14.4 340 18:19 18.04.2020
4598 Rain 15 1001 82 10000 12.3 330 17:41 18.04.2020
4599 Rain 15 1001 82 10000 12.3 330 17:21 18.04.2020
4600 Rain 15 1000 82 10000 13.9 340 16:56 18.04.2020
4601 Rain 15 1001 77 10000 12.9 340 16:37 18.04.2020
4602 Rain 15 1001 77 10000 12.9 340 16:19 18.04.2020
4603 Rain 15 1001 77 10000 11.8 350 15:38 18.04.2020
4604 Clear 15 1001 77 10000 11.8 350 15:20 18.04.2020
4605 Clear 15 1001 67 10000 10.8 340 14:45 18.04.2020
4606 Clear 15 1001 67 10000 10.8 340 14:26 18.04.2020
4607 Clear 15 1001 67 10000 8.7 340 13:56 18.04.2020
4608 Clear 14 1002 72 10000 10.8 330 13:38 18.04.2020
4609 Clear 14 1002 72 10000 10.8 330 13:18 18.04.2020
4610 Clear 14 1002 67 10000 7.7 340 12:41 18.04.2020
4611 Clear 14 1002 67 10000 7.7 340 12:22 18.04.2020
4612 Clear 14 1001 55 10000 8.7 350 11:43 18.04.2020
4613 Clear 14 1001 55 10000 8.7 350 11:24 18.04.2020
4614 Clear 14 1001 59 10000 8.2 340 10:58 18.04.2020
4615 Clear 14 1001 59 10000 6.2 340 10:37 18.04.2020
4616 Clear 14 1001 59 10000 6.2 340 10:18 18.04.2020
4617 Clear 15 1001 63 10000 7.7 330 09:42 18.04.2020
4618 Clear 15 1001 63 10000 7.7 330 09:24 18.04.2020
4619 Clear 15 1000 55 10000 8.2 320 08:56 18.04.2020
4620 Clear 15 999 63 10000 5.1 330 08:38 18.04.2020
4621 Clear 15 999 63 10000 5.1 330 08:18 18.04.2020
4622 Clear 15 999 59 10000 5.7 340 07:37 18.04.2020
4623 Clear 15 999 59 10000 5.7 340 07:37 18.04.2020
4624 Clear 16 998 59 10000 5.1 340 06:59 18.04.2020
4625 Rain 16 998 59 10000 6.2 360 06:29 18.04.2020
4626 Rain 17 997 59 10000 7.7 340 05:36 18.04.2020
4627 Rain 16 996 67 10000 9.8 340 04:47 18.04.2020
4628 Rain 16 996 67 10000 9.8 340 04:25 18.04.2020
4629 Rain 16 996 67 10000 8.2 330 02:49 18.04.2020
4630 Rain 16 996 72 10000 7.2 330 02:23 18.04.2020
4631 Rain 16 997 77 10000 8.2 330 01:53 18.04.2020
4632 Rain 16 996 77 10000 11.8 340 01:35 18.04.2020
4633 Rain 16 996 77 10000 11.8 340 01:35 18.04.2020
4634 Rain 15 996 82 10000 10.8 330 00:44 18.04.2020
4635 Rain 15 996 82 10000 10.8 330 00:22 18.04.2020
4636 Rain 15 996 82 10000 10.8 330 00:22 18.04.2020
4637 Rain 16 996 82 10000 8.7 340 23:55 17.04.2020
4638 Drizzle 16 996 82 10000 9.3 340 23:37 17.04.2020
4639 Drizzle 16 996 82 10000 9.3 340 23:18 17.04.2020
4640 Rain 16 996 82 10000 8.7 340 22:55 17.04.2020
4641 Rain 16 996 82 10000 7.7 340 22:36 17.04.2020
4642 Rain 16 996 82 10000 7.7 340 22:18 17.04.2020
4643 Rain 16 996 82 10000 7.7 340 22:18 17.04.2020
4644 Rain 15 995 87 10000 8.7 350 21:41 17.04.2020
4645 Clouds 15 995 87 10000 8.7 350 21:21 17.04.2020
4646 Clouds 15 996 87 10000 6.7 360 20:56 17.04.2020
4647 Clouds 15 996 87 10000 6.7 350 20:37 17.04.2020
4648 Clouds 14 996 87 10000 6.7 350 20:18 17.04.2020
4649 Clouds 14 996 87 10000 6.2 340 19:56 17.04.2020
4650 Clouds 14 995 87 10000 5.7 350 19:38 17.04.2020
4651 Clouds 14 995 87 10000 5.7 350 19:20 17.04.2020
4652 Clouds 14 996 87 10000 4.6 350 18:42 17.04.2020
4653 Clouds 14 996 87 10000 4.6 350 18:23 17.04.2020
4654 Clouds 14 996 87 10000 5.7 340 17:55 17.04.2020
4655 Clouds 14 995 87 10000 4.6 340 17:36 17.04.2020
4656 Clouds 14 995 87 10000 4.6 340 17:18 17.04.2020
4657 Clouds 14 996 87 10000 6.7 360 16:41 17.04.2020
4658 Clouds 14 996 87 10000 6.7 360 16:22 17.04.2020
4659 Clouds 14 996 87 10000 6.7 360 16:22 17.04.2020
4660 Clouds 14 996 93 10000 5.7 360 15:41 17.04.2020
4661 Rain 14 996 93 10000 5.7 360 15:22 17.04.2020
4662 Rain 14 996 93 10000 5.1 350 14:55 17.04.2020
4663 Rain 14 996 93 10000 3.6 350 14:37 17.04.2020
4664 Rain 14 996 93 10000 3.6 350 14:19 17.04.2020
4665 Rain 15 996 87 10000 5.1 320 13:40 17.04.2020
4666 Rain 15 996 87 10000 5.1 320 13:20 17.04.2020
4667 Rain 15 996 87 10000 6.7 340 12:57 17.04.2020
4668 Rain 15 995 93 10000 6.2 360 12:38 17.04.2020
4669 Rain 15 995 93 10000 6.2 360 12:20 17.04.2020
4670 Drizzle 15 995 87 10000 6.2 360 11:40 17.04.2020
4671 Drizzle 15 995 87 10000 6.2 360 11:19 17.04.2020
4672 Drizzle 15 995 87 10000 6.2 360 11:19 17.04.2020
4673 Rain 15 996 87 10000 5.1 10 10:43 17.04.2020
4674 Rain 15 996 87 10000 5.1 10 10:22 17.04.2020
4675 Rain 15 996 87 10000 6.2 360 09:57 17.04.2020
4676 Rain 15 996 93 10000 5.1 350 09:38 17.04.2020
4677 Rain 15 996 93 10000 4.6 40 09:19 17.04.2020
4678 Rain 15 996 93 10000 4.6 40 08:48 17.04.2020
4679 Rain 16 996 93 10000 4.6 40 08:27 17.04.2020
4680 Rain 16 996 93 10000 6.2 20 07:58 17.04.2020
4681 Rain 16 997 93 10000 6.2 360 07:39 17.04.2020
4682 Rain 16 997 88 10000 6.2 340 07:19 17.04.2020
4683 Drizzle 16 997 82 10000 6.2 330 06:44 17.04.2020
4684 Clouds 17 997 77 10000 6.7 330 05:58 17.04.2020
4685 Rain 17 998 72 10000 8.7 330 03:27 17.04.2020
4686 Rain 17 998 77 10000 8.7 330 02:55 17.04.2020
4687 Rain 17 999 77 10000 8.2 330 01:46 17.04.2020
4688 Rain 16 999 82 10000 7.2 340 01:22 17.04.2020
4689 Clouds 16 1000 82 10000 8.2 360 00:21 17.04.2020
4690 Clouds 16 1000 72 10000 6.2 350 23:55 16.04.2020
4691 Clouds 16 1000 77 10000 7.7 350 23:37 16.04.2020
4692 Clouds 16 1000 77 10000 7.7 350 23:18 16.04.2020
4693 Clouds 15 1000 77 10000 6.7 350 22:40 16.04.2020
4694 Clouds 15 1000 77 10000 6.7 350 22:22 16.04.2020
4695 Clouds 15 999 82 10000 7.7 10 21:58 16.04.2020
4696 Clouds 15 999 82 10000 7.7 10 21:40 16.04.2020
4697 Rain 15 1000 82 10000 8.2 10 21:19 16.04.2020
4698 Rain 15 999 77 10000 7.2 20 20:42 16.04.2020
4699 Rain 15 1000 72 10000 7.2 350 20:23 16.04.2020
4700 Rain 14 1000 72 10000 6.7 360 19:59 16.04.2020
4701 Rain 14 1000 72 10000 7.2 20 19:39 16.04.2020
4702 Rain 14 1000 72 10000 7.2 20 19:19 16.04.2020
4703 Rain 14 1000 67 10000 8.7 360 18:56 16.04.2020
4704 Rain 14 1000 62 10000 8.7 360 18:37 16.04.2020
4705 Clouds 14 1000 62 10000 8.7 360 18:19 16.04.2020
4706 Clouds 14 1000 58 10000 8.2 360 17:42 16.04.2020
4707 Clouds 14 1000 62 10000 5.7 360 17:24 16.04.2020
4708 Clouds 14 1000 58 10000 5.1 350 16:55 16.04.2020
4709 Clouds 14 1001 58 10000 6.2 350 16:37 16.04.2020
4710 Clouds 14 1001 58 10000 6.2 350 16:18 16.04.2020
4711 Clouds 15 1001 54 10000 5.7 360 15:41 16.04.2020
4712 Clouds 15 1001 51 10000 5.1 340 15:19 16.04.2020
4713 Clouds 14 1001 54 10000 5.1 350 14:58 16.04.2020
4714 Clouds 14 1000 67 10000 4.6 360 14:38 16.04.2020
4715 Clouds 14 1000 67 10000 4.6 360 14:19 16.04.2020
4716 Clouds 13 1001 71 10000 2.6 350 13:55 16.04.2020
4717 Clouds 13 1001 71 10000 2.6 350 13:36 16.04.2020
4718 Clouds 12 1001 71 10000 2.6 350 13:18 16.04.2020
4719 Clouds 12 1001 66 10000 2.6 360 12:55 16.04.2020
4720 Clouds 12 1001 76 10000 1 20 12:36 16.04.2020
4721 Clouds 13 1001 76 10000 1 20 12:18 16.04.2020
4722 Clouds 13 1000 82 10000 2.1 330 11:41 16.04.2020
4723 Clouds 14 1000 82 10000 1.5 330 11:22 16.04.2020
4724 Clouds 14 1000 82 10000 2.6 40 10:57 16.04.2020
4725 Clouds 14 1000 82 10000 3.6 20 10:38 16.04.2020
4726 Clouds 14 1000 82 10000 3.6 20 10:19 16.04.2020
4727 Clouds 14 1000 82 10000 4.6 10 09:55 16.04.2020
4728 Clouds 14 1000 82 10000 5.7 360 09:37 16.04.2020
4729 Clouds 14 1000 82 10000 5.7 360 09:18 16.04.2020
4730 Clouds 14 1000 82 10000 6.2 360 08:41 16.04.2020
4731 Clouds 15 1000 82 10000 6.7 360 08:22 16.04.2020
4732 Clouds 15 999 77 10000 6.7 360 07:46 16.04.2020
4733 Clouds 15 999 77 10000 6.7 350 07:26 16.04.2020
4734 Clouds 16 999 72 10000 7.2 330 06:43 16.04.2020
4735 Rain 16 999 67 10000 6.7 340 06:25 16.04.2020
4736 Rain 16 1000 63 10000 7.7 10 05:34 16.04.2020
4737 Rain 17 1001 59 10000 8.7 360 03:53 16.04.2020
4738 Clouds 17 1000 72 0 0.89 359 03:23 16.04.2020
4739 Clouds 17 1002 59 10000 7.7 360 02:47 16.04.2020
4740 Clouds 17 1003 55 10000 7.7 360 02:28 16.04.2020
4741 Clouds 16 1002 70 0 0.45 264 01:18 16.04.2020
4742 Clouds 15 1004 63 10000 5.7 20 00:28 16.04.2020
4743 Clouds 14 1004 67 10000 6.2 10 23:58 15.04.2020
4744 Clouds 13 1004 71 10000 5.7 20 23:40 15.04.2020
4745 Clouds 13 1004 71 10000 5.7 20 23:21 15.04.2020
4746 Clouds 11 1005 87 10000 5.1 360 22:40 15.04.2020
4747 Clouds 9 1005 87 10000 5.1 360 22:22 15.04.2020
4748 Clouds 8 1005 93 10000 5.1 360 21:59 15.04.2020
4749 Clouds 7 1005 93 10000 5.1 360 21:40 15.04.2020
4750 Clouds 8 1004 87 10000 3.1 20 21:22 15.04.2020
4751 Clouds 8 1005 87 10000 3.6 10 20:58 15.04.2020
4752 Clouds 8 1005 87 10000 3.6 30 20:40 15.04.2020
4753 Clouds 6 1005 87 10000 3.6 30 20:21 15.04.2020
4754 Clouds 7 1005 87 10000 2.6 10 19:45 15.04.2020
4755 Clouds 7 1005 81 10000 2.1 20 19:21 15.04.2020
4756 Clouds 7 1005 81 10000 3.1 30 18:56 15.04.2020
4757 Clouds 8 1005 81 10000 2.1 40 18:38 15.04.2020
4758 Clouds 8 1005 81 10000 2.6 30 18:20 15.04.2020
4759 Clouds 8 1005 81 10000 1.5 360 17:40 15.04.2020
4760 Clouds 8 1005 81 10000 1.5 360 17:40 15.04.2020
4761 Clouds 8 1005 81 10000 1.5 360 17:21 15.04.2020
4762 Clouds 8 1006 81 10000 2.1 40 16:58 15.04.2020
4763 Clouds 8 1006 81 10000 1.5 30 16:39 15.04.2020
4764 Clouds 8 1006 81 10000 1.5 30 16:20 15.04.2020
4765 Clouds 8 1006 76 10000 1.5 30 15:59 15.04.2020
4766 Clouds 8 1006 76 10000 1.5 30 15:59 15.04.2020
4767 Clouds 8 1006 76 10000 1.5 30 15:40 15.04.2020
4768 Clouds 8 1006 76 10000 1.5 30 15:40 15.04.2020
4769 Clouds 8 1006 71 10000 1 50 15:20 15.04.2020
4770 Clouds 8 1006 71 10000 1 20 14:59 15.04.2020
4771 Clouds 9 1006 71 10000 1 20 14:41 15.04.2020
4772 Clouds 9 1007 76 10000 1.5 10 14:23 15.04.2020
4773 Clouds 9 1007 71 10000 1.5 20 13:59 15.04.2020
4774 Clouds 9 1007 71 10000 2.1 20 13:40 15.04.2020
4775 Clouds 9 1007 71 10000 2.1 20 13:21 15.04.2020
4776 Clouds 9 1007 71 10000 1.5 10 12:57 15.04.2020
4777 Clouds 9 1007 66 10000 1.5 360 12:39 15.04.2020
4778 Clouds 9 1007 66 10000 1.5 360 12:21 15.04.2020
4779 Clouds 9 1008 66 10000 1 20 11:45 15.04.2020
4780 Clouds 9 1008 57 10000 0.5 340 11:25 15.04.2020
4781 Clouds 9 1008 62 10000 1 80 10:59 15.04.2020
4782 Clouds 9 1008 57 10000 1 80 10:37 15.04.2020
4783 Clouds 10 1008 57 10000 1 80 10:19 15.04.2020
4784 Clouds 10 1008 57 10000 0.5 90 09:56 15.04.2020
4785 Clouds 10 1008 53 10000 1.5 60 09:37 15.04.2020
4786 Clouds 10 1008 53 10000 1.5 60 09:19 15.04.2020
4787 Clouds 10 1008 53 10000 1 30 08:42 15.04.2020
4788 Clouds 11 1008 50 10000 1 90 08:23 15.04.2020
4789 Clouds 11 1008 50 10000 1 120 07:58 15.04.2020
4790 Clouds 12 1008 50 10000 1 80 07:38 15.04.2020
4791 Clouds 12 1009 54 10000 1.5 220 06:59 15.04.2020
4792 Haze 13 1009 50 5000 3.6 200 06:24 15.04.2020
4793 Clouds 13 1009 47 10000 4.6 170 05:23 15.04.2020
4794 Clouds 13 1009 54 8000 4.6 190 04:46 15.04.2020
4795 Clouds 13 1009 47 10000 4.6 180 04:18 15.04.2020
4796 Clouds 13 1010 50 9000 5.7 190 03:22 15.04.2020
4797 Clouds 13 1011 54 6000 7.2 190 02:40 15.04.2020
4798 Clouds 13 1011 47 8000 6.7 190 01:50 15.04.2020
4799 Clouds 13 1011 54 8000 9.3 190 01:24 15.04.2020
4800 Clouds 12 1011 58 8000 10.8 200 00:46 15.04.2020
4801 Clouds 12 1011 58 6000 10.8 200 00:23 15.04.2020
4802 Clouds 12 1011 58 6000 10.3 200 23:55 14.04.2020
4803 Clouds 11 1011 58 6000 10.3 200 23:37 14.04.2020
4804 Clouds 11 1011 58 6000 10.3 200 23:19 14.04.2020
4805 Haze 11 1011 58 5000 11.3 200 22:56 14.04.2020
4806 Haze 10 1011 54 5000 11.8 200 22:38 14.04.2020
4807 Haze 10 1011 54 5000 11.8 200 22:20 14.04.2020
4808 Clouds 9 1010 58 7000 11.3 190 21:56 14.04.2020
4809 Clouds 8 1010 62 7000 10.3 190 21:37 14.04.2020
4810 Clouds 8 1010 62 7000 10.3 190 21:18 14.04.2020
4811 Clouds 8 1010 58 6000 10.8 200 20:41 14.04.2020
4812 Clouds 8 1010 58 6000 10.3 190 20:23 14.04.2020
4813 Clouds 8 1009 62 7000 8.7 190 19:59 14.04.2020
4814 Clouds 8 1009 54 9000 8.7 190 19:40 14.04.2020
4815 Clouds 8 1009 54 9000 8.7 190 19:21 14.04.2020
4816 Clouds 8 1009 58 10000 8.2 190 18:57 14.04.2020
4817 Clouds 8 1009 58 9000 8.7 200 18:39 14.04.2020
4818 Clouds 8 1009 58 9000 8.7 200 18:20 14.04.2020
4819 Clouds 8 1009 58 10000 8.2 190 17:56 14.04.2020
4820 Clouds 8 1008 62 10000 6.7 200 17:37 14.04.2020
4821 Clouds 8 1008 62 10000 6.7 200 17:19 14.04.2020
4822 Clouds 8 1008 54 10000 7.2 190 16:43 14.04.2020
4823 Clouds 10 1008 54 10000 8.2 190 16:24 14.04.2020
4824 Clouds 9 1008 54 10000 9.3 190 15:58 14.04.2020
4825 Clouds 9 1008 54 10000 9.3 190 15:58 14.04.2020
4826 Clouds 9 1008 54 10000 9.3 190 15:58 14.04.2020
4827 Clouds 9 1008 54 10000 9.3 190 15:40 14.04.2020
4828 Rain 9 1008 62 10000 10.8 200 15:21 14.04.2020
4829 Rain 9 1008 54 10000 9.8 210 14:58 14.04.2020
4830 Rain 9 1008 54 10000 9.8 210 14:40 14.04.2020
4831 Rain 9 1008 58 10000 10.3 190 14:21 14.04.2020
4832 Rain 10 1008 50 10000 9.3 190 13:56 14.04.2020
4833 Rain 10 1008 66 10000 4.1 140 13:38 14.04.2020
4834 Rain 9 1008 66 10000 4.1 140 13:20 14.04.2020
4835 Rain 9 1008 66 10000 7.2 170 12:41 14.04.2020
4836 Clouds 9 1008 66 10000 7.2 170 12:21 14.04.2020
4837 Clouds 9 1008 66 10000 7.2 170 12:21 14.04.2020
4838 Rain 9 1008 66 10000 8.7 180 11:55 14.04.2020
4839 Clouds 9 1008 66 10000 8.7 170 11:37 14.04.2020
4840 Clouds 9 1008 66 10000 8.7 170 11:18 14.04.2020
4841 Clouds 9 1007 58 10000 5.1 170 10:43 14.04.2020
4842 Clouds 9 1007 58 10000 3.6 150 10:23 14.04.2020
4843 Clouds 9 1007 54 10000 3.1 130 09:43 14.04.2020
4844 Clouds 10 1007 58 10000 3.1 130 09:25 14.04.2020
4845 Clouds 11 1007 56 0 5.53 181 08:59 14.04.2020
4846 Clouds 10 1007 50 10000 1.5 110 08:41 14.04.2020
4847 Clouds 11 1007 56 0 5.53 181 08:22 14.04.2020
4848 Clouds 11 1007 50 10000 1 220 07:53 14.04.2020
4849 Clouds 11 1007 50 10000 1 220 07:53 14.04.2020
4850 Clouds 12 1007 50 10000 1.5 170 07:30 14.04.2020
4851 Clouds 13 1007 50 10000 2.6 210 06:48 14.04.2020
4852 Clear 12 1006 50 0 5.34 204 06:18 14.04.2020
4853 Clear 14 1006 44 10000 3.1 230 03:52 14.04.2020
4854 Clouds 14 1006 47 10000 4.6 210 02:54 14.04.2020
4855 Clouds 13 1005 50 10000 7.2 210 01:39 14.04.2020
4856 Clouds 13 1005 50 10000 7.2 210 01:18 14.04.2020
4857 Clouds 12 1004 62 10000 5.7 200 00:36 14.04.2020
4858 Rain 12 1004 62 10000 5.7 200 00:18 14.04.2020
4859 Rain 11 1004 66 10000 6.2 230 23:40 13.04.2020
4860 Rain 11 1004 66 10000 6.2 230 23:22 13.04.2020
4861 Rain 10 1003 62 10000 7.2 220 22:56 13.04.2020
4862 Clouds 10 1002 62 10000 5.7 250 22:38 13.04.2020
4863 Clouds 9 1002 62 10000 5.7 250 22:20 13.04.2020
4864 Rain 8 1002 53 10000 2.1 340 21:55 13.04.2020
4865 Rain 8 1001 53 10000 2.1 290 21:36 13.04.2020
4866 Rain 9 1001 53 10000 2.1 290 21:18 13.04.2020
4867 Rain 9 1001 53 10000 5.7 240 20:41 13.04.2020
4868 Rain 10 1000 57 10000 6.2 240 20:20 13.04.2020
4869 Rain 10 1000 53 10000 5.1 240 19:59 13.04.2020
4870 Rain 10 999 50 10000 4.6 260 19:37 13.04.2020
4871 Rain 10 999 50 10000 4.6 260 19:37 13.04.2020
4872 Rain 10 999 50 10000 4.6 260 19:37 13.04.2020
4873 Rain 10 999 50 10000 4.6 260 19:19 13.04.2020
4874 Rain 10 999 53 10000 3.6 270 18:58 13.04.2020
4875 Rain 10 998 50 10000 6.7 290 18:38 13.04.2020
4876 Rain 10 998 50 10000 6.7 290 18:20 13.04.2020
4877 Rain 10 998 46 10000 3.6 270 17:58 13.04.2020
4878 Rain 11 998 50 10000 7.2 300 17:37 13.04.2020
4879 Rain 11 998 50 10000 7.2 300 17:19 13.04.2020
4880 Rain 11 997 54 10000 6.7 300 16:58 13.04.2020
4881 Rain 11 997 54 10000 6.7 300 16:58 13.04.2020
4882 Rain 11 997 50 10000 9.3 290 16:39 13.04.2020
4883 Rain 11 997 50 10000 9.3 290 16:20 13.04.2020
4884 Rain 11 997 50 10000 9.3 290 16:20 13.04.2020
4885 Rain 11 997 47 10000 8.7 290 15:57 13.04.2020
4886 Rain 11 997 50 10000 7.2 310 15:38 13.04.2020
4887 Rain 11 996 62 0 0.89 269 15:20 13.04.2020
4888 Rain 11 997 54 10000 5.7 320 14:42 13.04.2020
4889 Rain 11 996 62 0 14.47 289 14:24 13.04.2020
4890 Rain 12 997 50 10000 6.7 310 13:57 13.04.2020
4891 Rain 12 997 50 10000 6.2 320 13:39 13.04.2020
4892 Rain 12 997 50 10000 6.2 320 13:21 13.04.2020
4893 Rain 12 997 47 10000 4.1 330 12:59 13.04.2020
4894 Rain 12 997 47 10000 3.6 310 12:40 13.04.2020
4895 Rain 12 997 47 10000 3.6 310 12:21 13.04.2020
4896 Rain 12 997 47 10000 3.6 310 12:21 13.04.2020
4897 Rain 12 997 43 10000 6.2 310 11:59 13.04.2020
4898 Rain 12 997 43 10000 6.2 310 11:41 13.04.2020
4899 Rain 12 997 47 10000 7.7 310 11:18 13.04.2020
4900 Rain 12 996 47 10000 9.3 310 10:55 13.04.2020
4901 Rain 12 996 41 10000 7.7 310 10:37 13.04.2020
4902 Rain 12 996 41 10000 7.7 310 10:18 13.04.2020
4903 Rain 12 996 41 10000 7.7 300 09:44 13.04.2020
4904 Rain 13 996 47 10000 5.1 290 09:26 13.04.2020
4905 Rain 13 996 47 10000 4.6 290 08:48 13.04.2020
4906 Rain 13 996 47 10000 4.6 290 08:48 13.04.2020
4907 Rain 13 995 44 10000 6.2 310 08:29 13.04.2020
4908 Rain 14 995 41 10000 5.7 300 07:58 13.04.2020
4909 Rain 14 994 39 10000 7.2 310 07:38 13.04.2020
4910 Rain 15 994 39 10000 7.2 310 07:20 13.04.2020
4911 Rain 15 994 39 10000 6.7 290 06:47 13.04.2020
4912 Rain 16 990 59 0 13.85 284 05:56 13.04.2020
4913 Rain 16 992 48 10000 7.7 310 05:28 13.04.2020
4914 Rain 17 991 48 10000 9.3 330 04:52 13.04.2020
4915 Rain 17 991 48 10000 6.7 330 04:22 13.04.2020
4916 Rain 17 991 52 10000 7.7 330 03:45 13.04.2020
4917 Rain 17 993 55 10000 8.2 330 02:49 13.04.2020
4918 Rain 17 992 55 10000 9.8 330 01:49 13.04.2020
4919 Rain 17 992 55 10000 9.3 330 01:30 13.04.2020
4920 Rain 17 991 59 10000 10.3 330 00:55 13.04.2020
4921 Rain 17 991 59 10000 8.7 320 00:36 13.04.2020
4922 Rain 17 991 59 10000 8.7 320 00:18 13.04.2020
4923 Rain 16 987 75 0 12.52 300 23:42 12.04.2020
4924 Rain 16 990 67 10000 7.2 330 23:22 12.04.2020
4925 Rain 16 989 72 10000 8.7 330 22:55 12.04.2020
4926 Rain 16 989 77 10000 9.3 330 22:36 12.04.2020
4927 Rain 15 989 77 10000 9.3 330 22:18 12.04.2020
4928 Rain 15 987 82 10000 13.9 340 21:39 12.04.2020
4929 Rain 15 987 82 10000 13.9 340 21:20 12.04.2020
4930 Rain 15 987 82 10000 13.9 340 21:20 12.04.2020
4931 Rain 15 987 82 10000 14.4 340 20:56 12.04.2020
4932 Rain 15 989 82 10000 10.8 330 20:37 12.04.2020
4933 Rain 15 989 82 10000 10.8 330 20:37 12.04.2020
4934 Rain 15 989 82 10000 10.8 330 20:19 12.04.2020
4935 Rain 16 989 88 3700 13.9 350 19:41 12.04.2020
4936 Rain 16 989 82 10000 16.5 360 19:20 12.04.2020
4937 Rain 16 989 82 10000 16.5 360 18:59 12.04.2020
4938 Drizzle 16 990 82 7000 14.4 350 18:40 12.04.2020
4939 Rain 16 990 82 10000 13.4 350 18:20 12.04.2020
4940 Rain 16 990 82 10000 13.4 350 18:20 12.04.2020
4941 Rain 16 990 82 10000 13.4 350 17:56 12.04.2020
4942 Rain 16 991 82 10000 14.4 350 17:37 12.04.2020
4943 Rain 15 991 82 10000 14.4 350 17:18 12.04.2020
4944 Rain 15 992 87 10000 12.9 360 16:54 12.04.2020
4945 Rain 15 992 87 10000 12.9 360 16:54 12.04.2020
4946 Rain 15 992 87 10000 12.3 350 16:36 12.04.2020
4947 Rain 15 992 87 10000 12.3 350 16:18 12.04.2020
4948 Rain 15 992 87 10000 13.9 360 15:41 12.04.2020
4949 Rain 15 993 93 10000 13.4 10 15:21 12.04.2020
4950 Rain 16 994 93 7000 12.9 350 14:39 12.04.2020
4951 Rain 16 994 93 7000 12.9 350 14:21 12.04.2020
4952 Rain 15 993 87 5000 16.5 360 13:58 12.04.2020
4953 Rain 15 990 88 0 11.29 349 13:37 12.04.2020
4954 Rain 16 993 72 10000 13.4 360 13:19 12.04.2020
4955 Rain 17 993 72 10000 15.9 350 12:46 12.04.2020
4956 Rain 17 994 68 10000 16.5 360 12:22 12.04.2020
4957 Drizzle 17 995 68 10000 13.9 360 11:59 12.04.2020
4958 Rain 17 996 59 10000 12.9 10 11:38 12.04.2020
4959 Rain 18 996 59 10000 12.9 10 11:19 12.04.2020
4960 Rain 18 996 59 10000 11.8 10 10:56 12.04.2020
4961 Rain 18 996 59 10000 11.8 10 10:56 12.04.2020
4962 Rain 18 997 55 10000 12.3 10 10:38 12.04.2020
4963 Rain 18 997 55 10000 12.3 10 10:20 12.04.2020
4964 Rain 18 998 59 10000 11.8 10 09:58 12.04.2020
4965 Rain 17 999 63 10000 10.3 360 09:37 12.04.2020
4966 Clouds 17 999 63 10000 10.3 360 09:19 12.04.2020
4967 Clouds 17 999 68 10000 8.7 360 08:50 12.04.2020
4968 Clouds 17 1000 68 10000 9.3 10 08:30 12.04.2020
4969 Clouds 17 1000 72 10000 9.8 360 07:47 12.04.2020
4970 Clouds 17 1000 68 10000 9.8 350 07:19 12.04.2020
4971 Clouds 17 1001 72 10000 10.3 350 06:54 12.04.2020
4972 Clouds 17 1002 82 10000 9.8 10 06:28 12.04.2020
4973 Rain 17 1002 77 10000 9.3 360 05:48 12.04.2020
4974 Clouds 17 1003 68 10000 9.3 360 04:44 12.04.2020
4975 Clouds 17 1005 68 10000 11.8 360 03:30 12.04.2020
4976 Clouds 17 1005 72 10000 11.3 360 02:48 12.04.2020
4977 Clouds 17 1006 63 10000 11.8 360 02:29 12.04.2020
4978 Clouds 17 1006 67 10000 10.8 10 01:23 12.04.2020
4979 Clouds 16 1007 67 10000 10.8 10 00:43 12.04.2020
4980 Clouds 16 1007 67 10000 10.8 10 00:21 12.04.2020
4981 Clouds 16 1007 72 10000 9.8 10 23:59 11.04.2020
4982 Clouds 16 1008 72 10000 11.3 10 23:40 11.04.2020
4983 Clouds 16 1008 72 10000 11.3 10 23:22 11.04.2020
4984 Clouds 16 1008 72 10000 11.3 10 23:22 11.04.2020
4985 Clouds 15 1008 82 10000 9.8 10 22:39 11.04.2020
4986 Clouds 15 1008 82 10000 9.8 10 22:20 11.04.2020
4987 Clouds 15 1008 82 10000 8.7 20 21:56 11.04.2020
4988 Clouds 14 1008 82 10000 7.7 10 21:37 11.04.2020
4989 Clouds 14 1008 82 10000 7.7 10 21:18 11.04.2020
4990 Clouds 14 1008 82 10000 9.3 360 20:56 11.04.2020
4991 Clouds 14 1009 82 10000 9.3 360 20:38 11.04.2020
4992 Clouds 15 1009 82 10000 9.3 360 20:19 11.04.2020
4993 Clouds 15 1009 82 10000 9.3 360 19:57 11.04.2020
4994 Clouds 14 1009 82 10000 8.2 350 19:38 11.04.2020
4995 Clouds 14 1009 82 10000 8.2 350 19:38 11.04.2020
4996 Clouds 14 1009 82 10000 8.2 350 19:18 11.04.2020
4997 Clouds 14 1009 82 10000 8.2 350 19:18 11.04.2020
4998 Clouds 14 1009 82 10000 8.7 360 18:55 11.04.2020
4999 Clouds 14 1009 82 10000 8.2 10 18:37 11.04.2020
5000 Clouds 14 1009 82 10000 8.2 10 18:37 11.04.2020
5001 Clouds 14 1009 82 10000 8.2 10 18:18 11.04.2020
5002 Clouds 14 1009 82 10000 9.3 10 17:58 11.04.2020
5003 Clouds 14 1010 82 10000 7.7 360 17:38 11.04.2020
5004 Clouds 15 1010 82 10000 7.7 360 17:19 11.04.2020
5005 Clouds 14 1010 82 10000 7.7 360 16:42 11.04.2020
5006 Clouds 14 1010 77 10000 8.7 360 16:22 11.04.2020
5007 Clouds 14 1010 82 10000 8.2 10 15:42 11.04.2020
5008 Clouds 15 1010 77 10000 8.7 20 15:22 11.04.2020
5009 Clouds 15 1010 82 10000 8.2 20 14:59 11.04.2020
5010 Clouds 15 1010 82 10000 8.2 20 14:41 11.04.2020
5011 Clouds 14 1011 82 10000 8.7 360 14:23 11.04.2020
5012 Clouds 14 1011 77 10000 8.7 10 13:55 11.04.2020
5013 Clouds 15 1011 82 10000 8.7 360 13:36 11.04.2020
5014 Clouds 14 1011 82 10000 8.7 360 13:18 11.04.2020
5015 Clouds 14 1011 82 10000 9.8 10 12:39 11.04.2020
5016 Clouds 14 1011 82 10000 9.8 10 12:18 11.04.2020
5017 Clouds 14 1011 82 10000 9.3 10 11:55 11.04.2020
5018 Clouds 14 1011 82 10000 8.2 20 11:37 11.04.2020
5019 Clouds 14 1011 82 10000 8.2 20 11:18 11.04.2020
5020 Clouds 14 1011 82 10000 8.2 10 10:42 11.04.2020
5021 Clouds 14 1011 82 10000 8.2 10 10:42 11.04.2020
5022 Clouds 14 1011 82 10000 9.8 20 10:22 11.04.2020
5023 Clouds 14 1011 82 10000 8.7 10 09:58 11.04.2020
5024 Clouds 14 1011 82 10000 8.7 20 09:39 11.04.2020
5025 Clouds 15 1011 82 10000 8.7 20 09:20 11.04.2020
5026 Clouds 14 1011 82 10000 9.3 10 08:46 11.04.2020
5027 Clouds 15 1011 77 10000 9.3 20 08:27 11.04.2020
5028 Clouds 15 1011 77 10000 9.8 10 07:50 11.04.2020
5029 Clouds 15 1011 77 10000 10.8 10 07:28 11.04.2020
5030 Clouds 16 1011 77 10000 10.3 360 06:49 11.04.2020
5031 Clouds 16 1011 72 10000 10.3 360 06:18 11.04.2020
5032 Clouds 16 1012 67 10000 10.3 10 05:24 11.04.2020
5033 Clouds 17 1012 63 10000 10.8 10 03:40 11.04.2020
5034 Clear 17 1013 67 10000 9.3 10 01:55 11.04.2020
5035 Clear 16 1013 67 10000 9.3 20 01:23 11.04.2020
5036 Clear 16 1013 72 10000 9.8 20 00:44 11.04.2020
5037 Clear 14 1013 77 10000 8.2 30 00:19 11.04.2020
5038 Clear 14 1014 77 10000 7.7 30 23:57 10.04.2020
5039 Clear 14 1014 82 10000 8.2 30 23:38 10.04.2020
5040 Clear 14 1014 82 10000 8.2 30 23:19 10.04.2020
5041 Clear 13 1014 76 10000 8.2 20 22:43 10.04.2020
5042 Clear 12 1014 82 10000 7.2 20 22:22 10.04.2020
5043 Clear 11 1014 87 10000 9.3 10 21:58 10.04.2020
5044 Clear 11 1014 87 10000 9.3 10 21:40 10.04.2020
5045 Clear 10 1014 93 10000 7.7 360 21:20 10.04.2020
5046 Clear 11 1014 87 10000 6.7 360 20:44 10.04.2020
5047 Clear 11 1014 87 10000 6.2 20 20:24 10.04.2020
5048 Clear 11 1014 87 10000 6.2 10 19:59 10.04.2020
5049 Clear 11 1014 87 10000 5.1 30 19:41 10.04.2020
5050 Clear 11 1014 87 10000 5.1 30 19:21 10.04.2020
5051 Clear 11 1014 87 10000 5.1 30 19:21 10.04.2020
5052 Clear 11 1014 87 10000 6.2 30 18:58 10.04.2020
5053 Clear 11 1014 87 10000 6.2 30 18:58 10.04.2020
5054 Clear 11 1014 87 10000 6.2 30 18:58 10.04.2020
5055 Clear 11 1014 87 10000 5.1 20 18:40 10.04.2020
5056 Clear 11 1014 87 10000 5.1 20 18:21 10.04.2020
5057 Clear 11 1014 87 10000 5.1 10 17:58 10.04.2020
5058 Clear 11 1014 87 10000 5.1 10 17:58 10.04.2020
5059 Clear 11 1015 87 10000 5.1 10 17:40 10.04.2020
5060 Clear 11 1015 87 10000 5.1 10 17:21 10.04.2020
5061 Clear 11 1015 81 10000 4.6 10 16:57 10.04.2020
5062 Clear 11 1015 87 10000 5.7 20 16:38 10.04.2020
5063 Clear 11 1015 87 10000 5.7 20 16:20 10.04.2020
5064 Clear 11 1016 87 10000 5.7 20 15:56 10.04.2020
5065 Clear 11 1016 87 10000 5.1 10 15:37 10.04.2020
5066 Clear 11 1016 87 10000 5.1 10 15:19 10.04.2020
5067 Clear 11 1016 87 10000 5.1 20 14:57 10.04.2020
5068 Clear 11 1016 87 10000 5.1 20 14:38 10.04.2020
5069 Clear 11 1016 87 10000 5.1 20 14:19 10.04.2020
5070 Clear 11 1016 81 10000 4.6 20 13:43 10.04.2020
5071 Clear 11 1016 81 10000 4.1 30 13:22 10.04.2020
5072 Clear 11 1016 81 10000 3.6 20 12:44 10.04.2020
5073 Clear 11 1016 81 10000 4.1 20 12:24 10.04.2020
5074 Clear 11 1016 81 10000 4.1 20 12:24 10.04.2020
5075 Clear 10 1016 81 10000 3.6 20 11:58 10.04.2020
5076 Clear 10 1016 81 10000 3.6 30 11:40 10.04.2020
5077 Clear 11 1016 81 10000 3.6 30 11:22 10.04.2020
5078 Clear 11 1016 76 10000 3.1 30 10:47 10.04.2020
5079 Clear 11 1016 76 10000 3.1 30 10:47 10.04.2020
5080 Clear 11 1016 76 10000 3.1 20 10:24 10.04.2020
5081 Clear 12 1016 76 10000 2.6 30 09:59 10.04.2020
5082 Clear 12 1016 76 10000 1.5 20 09:40 10.04.2020
5083 Clear 12 1016 76 10000 1.5 20 09:20 10.04.2020
5084 Clear 13 1015 71 10000 2.1 330 08:44 10.04.2020
5085 Clear 13 1015 76 10000 0.5 230 08:24 10.04.2020
5086 Clear 14 1015 76 10000 2.1 170 07:47 10.04.2020
5087 Clear 15 1015 77 10000 2.6 200 07:27 10.04.2020
5088 Clear 15 1015 77 10000 3.1 200 06:52 10.04.2020
5089 Clouds 16 1015 72 10000 3.1 200 06:29 10.04.2020
5090 Clouds 16 1015 72 10000 3.1 200 05:43 10.04.2020
5091 Clouds 16 1016 72 10000 3.1 200 05:18 10.04.2020
5092 Clouds 16 1016 72 10000 3.1 190 03:53 10.04.2020
5093 Clouds 16 1016 67 10000 2.6 190 03:32 10.04.2020
5094 Clouds 16 1017 72 10000 2.6 200 02:49 10.04.2020
5095 Clouds 16 1017 77 10000 2.1 200 02:31 10.04.2020
5096 Clouds 15 1017 76 10000 1 220 01:30 10.04.2020
5097 Clouds 15 1017 76 10000 1.5 330 00:53 10.04.2020
5098 Clouds 14 1017 71 10000 1.5 340 00:26 10.04.2020
5099 Clouds 13 1017 76 10000 1.5 30 23:57 09.04.2020
5100 Clouds 12 1017 81 10000 1.5 20 23:38 09.04.2020
5101 Clouds 12 1017 81 10000 1.5 20 23:38 09.04.2020
5102 Clouds 12 1017 81 10000 1.5 20 23:20 09.04.2020
5103 Clouds 10 1016 81 10000 1.5 40 22:42 09.04.2020
5104 Clouds 10 1016 87 10000 2.1 40 22:24 09.04.2020
5105 Clouds 8 1016 93 10000 1.5 50 21:59 09.04.2020
5106 Clouds 8 1016 93 10000 2.1 40 21:37 09.04.2020
5107 Clouds 8 1016 93 10000 2.1 40 21:19 09.04.2020
5108 Clouds 7 1015 93 10000 2.6 30 20:45 09.04.2020
5109 Clouds 7 1015 93 10000 2.1 30 20:21 09.04.2020
5110 Clouds 7 1015 93 10000 1.5 20 19:58 09.04.2020
5111 Clouds 7 1015 93 10000 2.1 40 19:37 09.04.2020
5112 Clouds 7 1015 93 10000 2.1 40 19:18 09.04.2020
5113 Clouds 7 1014 93 10000 1.5 20 18:42 09.04.2020
5114 Clouds 7 1014 93 10000 1.5 20 18:20 09.04.2020
5115 Clouds 7 1014 93 10000 1.5 30 17:42 09.04.2020
5116 Clouds 8 1014 87 10000 2.1 30 17:24 09.04.2020
5117 Clouds 7 1014 93 10000 1 30 16:57 09.04.2020
5118 Clouds 8 1014 87 10000 1 60 16:38 09.04.2020
5119 Clouds 8 1014 87 10000 1 60 16:19 09.04.2020
5120 Clouds 8 1014 93 10000 1 30 15:55 09.04.2020
5121 Clouds 8 1014 93 10000 1 10 15:37 09.04.2020
5122 Clouds 9 1014 93 10000 1 10 15:18 09.04.2020
5123 Clouds 9 1014 93 10000 1 10 15:18 09.04.2020
5124 Clouds 9 1014 87 10000 1 40 14:41 09.04.2020
5125 Clouds 9 1014 87 10000 1.5 30 14:21 09.04.2020
5126 Clouds 9 1014 81 10000 1.5 30 13:54 09.04.2020
5127 Clouds 9 1014 81 10000 1.5 40 13:36 09.04.2020
5128 Clouds 10 1014 81 10000 1.5 40 13:18 09.04.2020
5129 Clouds 10 1014 76 10000 2.1 30 12:41 09.04.2020
5130 Clouds 10 1014 76 10000 2.1 30 12:21 09.04.2020
5131 Clouds 11 1013 76 10000 2.1 180 11:58 09.04.2020
5132 Clouds 11 1013 71 10000 0.5 100 11:38 09.04.2020
5133 Clouds 11 1013 71 10000 0.5 100 11:20 09.04.2020
5134 Clouds 11 1013 71 10000 2.1 150 10:57 09.04.2020
5135 Clouds 11 1013 66 10000 3.1 170 10:38 09.04.2020
5136 Clouds 11 1013 66 10000 3.1 170 10:19 09.04.2020
5137 Clouds 11 1012 71 10000 3.1 170 09:55 09.04.2020
5138 Clouds 11 1012 66 10000 2.6 140 09:37 09.04.2020
5139 Clear 12 1012 66 10000 2.6 140 09:19 09.04.2020
5140 Clear 12 1012 66 10000 4.6 140 08:42 09.04.2020
5141 Clear 12 1012 62 10000 5.7 140 08:23 09.04.2020
5142 Clear 13 1012 62 10000 5.1 140 07:51 09.04.2020
5143 Clear 13 1011 62 10000 6.2 150 07:23 09.04.2020
5144 Clear 14 1011 62 10000 7.2 150 06:50 09.04.2020
5145 Clear 14 1011 62 10000 7.2 160 05:56 09.04.2020
5146 Clear 14 1011 62 10000 7.2 160 05:37 09.04.2020
5147 Clouds 15 1012 62 10000 9.8 170 03:20 09.04.2020
5148 Clouds 14 1012 62 10000 10.3 180 02:21 09.04.2020
5149 Clouds 14 1011 67 10000 10.8 180 01:39 09.04.2020
5150 Clouds 14 1011 67 10000 10.8 180 01:19 09.04.2020
5151 Clouds 13 1011 71 10000 10.3 190 00:39 09.04.2020
5152 Rain 13 1011 71 10000 10.3 190 00:19 09.04.2020
5153 Rain 12 1011 82 10000 10.8 190 23:55 08.04.2020
5154 Rain 12 1010 82 10000 9.8 180 23:37 08.04.2020
5155 Rain 12 1010 87 10000 12.3 200 23:19 08.04.2020
5156 Rain 12 1009 87 10000 10.8 190 22:42 08.04.2020
5157 Rain 11 1009 87 10000 10.8 190 22:23 08.04.2020
5158 Rain 12 1009 82 10000 11.8 200 21:56 08.04.2020
5159 Rain 11 1008 87 10000 11.3 200 21:37 08.04.2020
5160 Rain 12 1008 87 10000 11.3 200 21:19 08.04.2020
5161 Rain 11 1007 87 10000 1.5 300 20:54 08.04.2020
5162 Rain 11 1007 87 10000 1.5 300 20:54 08.04.2020
5163 Rain 11 1007 87 10000 1.5 300 20:54 08.04.2020
5164 Rain 11 1007 87 10000 1.5 300 20:36 08.04.2020
5165 Rain 11 1007 87 10000 1.5 230 20:18 08.04.2020
5166 Rain 11 1007 87 10000 1.5 230 19:41 08.04.2020
5167 Rain 12 1007 87 10000 4.6 230 19:21 08.04.2020
5168 Rain 12 1007 87 10000 4.6 230 19:21 08.04.2020
5169 Rain 12 1007 87 10000 2.6 240 18:55 08.04.2020
5170 Rain 12 1006 93 10000 2.1 170 18:37 08.04.2020
5171 Rain 12 1006 93 10000 2.1 170 18:19 08.04.2020
5172 Rain 12 1006 93 10000 3.6 200 17:42 08.04.2020
5173 Rain 12 1007 87 10000 1.5 180 17:22 08.04.2020
5174 Rain 12 1006 87 10000 2.6 50 16:57 08.04.2020
5175 Rain 12 1006 87 10000 2.6 50 16:39 08.04.2020
5176 Rain 12 1006 87 10000 2.6 50 16:20 08.04.2020
5177 Rain 12 1007 87 10000 4.1 30 15:39 08.04.2020
5178 Clouds 12 1007 87 10000 4.1 30 15:21 08.04.2020
5179 Clouds 13 1007 87 10000 4.1 30 14:58 08.04.2020
5180 Clouds 13 1007 87 10000 4.1 30 14:58 08.04.2020
5181 Clouds 13 1007 87 10000 3.6 30 14:39 08.04.2020
5182 Clouds 13 1007 87 10000 3.6 30 14:21 08.04.2020
5183 Clouds 13 1008 82 10000 3.6 30 13:44 08.04.2020
5184 Clouds 13 1008 87 10000 4.1 20 13:21 08.04.2020
5185 Clouds 13 1008 87 10000 3.6 30 12:57 08.04.2020
5186 Clouds 13 1008 87 10000 4.6 20 12:39 08.04.2020
5187 Clouds 13 1008 87 10000 4.6 20 12:18 08.04.2020
5188 Clouds 13 1008 87 10000 4.6 20 12:18 08.04.2020
5189 Clouds 13 1008 87 10000 4.6 20 12:18 08.04.2020
5190 Clouds 13 1008 87 10000 4.6 20 12:18 08.04.2020
5191 Clouds 13 1008 87 10000 4.1 30 11:42 08.04.2020
5192 Clouds 13 1008 87 10000 4.6 20 11:23 08.04.2020
5193 Clouds 13 1008 87 10000 5.1 20 10:58 08.04.2020
5194 Clouds 13 1008 87 10000 4.1 20 10:39 08.04.2020
5195 Clouds 13 1008 87 10000 4.1 20 10:20 08.04.2020
5196 Clouds 14 1008 87 10000 4.6 10 09:57 08.04.2020
5197 Clouds 14 1008 82 10000 3.1 20 09:39 08.04.2020
5198 Clouds 14 1008 82 10000 3.1 20 09:18 08.04.2020
5199 Clouds 14 1008 82 10000 3.1 20 09:18 08.04.2020
5200 Clouds 14 1008 82 10000 3.1 20 09:18 08.04.2020
5201 Clouds 14 1008 82 10000 3.1 10 08:56 08.04.2020
5202 Clouds 14 1008 77 10000 1 300 08:38 08.04.2020
5203 Clouds 15 1008 77 10000 1 300 08:20 08.04.2020
5204 Clouds 16 1008 77 10000 1.5 200 07:42 08.04.2020
5205 Clouds 16 1008 77 10000 1.5 200 07:20 08.04.2020
5206 Clouds 17 1009 72 10000 2.6 200 06:23 08.04.2020
5207 Clouds 17 1009 77 10000 3.1 200 04:54 08.04.2020
5208 Clouds 16 1011 72 10000 4.6 190 02:50 08.04.2020
5209 Clouds 16 1011 67 10000 4.6 180 02:21 08.04.2020
5210 Clouds 16 1011 77 10000 5.1 180 01:56 08.04.2020
5211 Clouds 15 1011 77 10000 4.6 170 01:27 08.04.2020
5212 Clouds 15 1012 77 10000 5.1 180 00:44 08.04.2020
5213 Rain 14 1012 77 10000 5.1 180 00:23 08.04.2020
5214 Rain 14 1011 76 10000 6.7 180 23:40 07.04.2020
5215 Rain 14 1011 76 10000 6.7 180 23:22 07.04.2020
5216 Rain 13 1011 76 10000 6.7 180 22:58 07.04.2020
5217 Rain 13 1011 82 10000 6.7 180 22:40 07.04.2020
5218 Rain 13 1011 82 10000 6.7 180 22:21 07.04.2020
5219 Drizzle 13 1011 82 10000 6.7 180 21:59 07.04.2020
5220 Rain 13 1011 82 10000 6.7 180 21:41 07.04.2020
5221 Rain 13 1011 87 10000 6.7 190 21:21 07.04.2020
5222 Rain 13 1010 87 10000 8.2 190 20:58 07.04.2020
5223 Rain 13 1010 87 10000 8.2 190 20:39 07.04.2020
5224 Rain 13 1010 87 10000 8.2 190 20:20 07.04.2020
5225 Rain 13 1010 93 10000 4.6 180 19:57 07.04.2020
5226 Rain 13 1010 93 10000 4.6 180 19:37 07.04.2020
5227 Rain 13 1010 93 10000 4.1 180 19:19 07.04.2020
5228 Rain 13 1010 93 10000 4.1 180 18:57 07.04.2020
5229 Rain 13 1010 93 10000 4.1 180 18:39 07.04.2020
5230 Rain 14 1010 93 10000 4.6 180 18:19 07.04.2020
5231 Rain 14 1009 93 6000 5.1 180 17:45 07.04.2020
5232 Rain 15 1009 93 6000 5.1 180 17:21 07.04.2020
5233 Rain 15 1010 100 6000 5.1 220 16:48 07.04.2020
5234 Rain 16 1009 82 10000 4.1 330 16:29 07.04.2020
5235 Rain 16 1009 82 10000 4.1 330 15:59 07.04.2020
5236 Rain 16 1009 82 10000 5.7 340 15:41 07.04.2020
5237 Clouds 16 1008 88 10000 7.7 350 15:23 07.04.2020
5238 Clouds 16 1008 88 10000 7.7 350 14:42 07.04.2020
5239 Clouds 16 1008 88 10000 8.2 360 14:23 07.04.2020
5240 Clouds 16 1009 88 10000 8.7 360 13:57 07.04.2020
5241 Clouds 16 1008 88 10000 8.7 350 13:39 07.04.2020
5242 Clouds 16 1008 88 10000 8.7 350 13:18 07.04.2020
5243 Clouds 16 1008 88 10000 9.3 350 12:55 07.04.2020
5244 Clouds 16 1008 82 10000 10.3 350 12:36 07.04.2020
5245 Rain 17 1008 82 10000 10.3 350 12:18 07.04.2020
5246 Rain 17 1008 82 10000 9.3 350 11:44 07.04.2020
5247 Rain 17 1008 82 10000 10.3 350 11:26 07.04.2020
5248 Rain 17 1008 82 10000 10.3 350 11:26 07.04.2020
5249 Rain 17 1008 82 10000 9.3 350 10:59 07.04.2020
5250 Rain 17 1009 82 10000 7.7 350 10:38 07.04.2020
5251 Rain 17 1009 82 10000 7.7 350 10:19 07.04.2020
5252 Rain 17 1008 82 10000 9.8 350 09:46 07.04.2020
5253 Clouds 17 1008 77 10000 10.8 340 09:20 07.04.2020
5254 Clouds 17 1008 77 10000 8.7 340 08:57 07.04.2020
5255 Clouds 17 1008 77 10000 8.2 340 08:38 07.04.2020
5256 Clouds 17 1008 77 10000 8.2 340 08:19 07.04.2020
5257 Clouds 17 1009 77 10000 10.8 360 07:44 07.04.2020
5258 Clouds 17 1009 77 10000 8.7 340 07:26 07.04.2020
5259 Clouds 17 1009 77 10000 8.7 350 06:52 07.04.2020
5260 Clouds 17 1009 77 10000 9.8 360 06:25 07.04.2020
5261 Clouds 17 1010 77 10000 10.8 360 05:48 07.04.2020
5262 Clouds 17 1010 72 10000 10.3 350 05:23 07.04.2020
5263 Clouds 16 1011 77 10000 8.2 10 03:34 07.04.2020
5264 Clouds 16 1012 77 10000 8.7 20 02:59 07.04.2020
5265 Clouds 16 1012 72 10000 10.8 10 02:33 07.04.2020
5266 Clouds 17 1012 77 10000 9.8 10 01:33 07.04.2020
5267 Clouds 16 1013 77 10000 9.3 10 00:44 07.04.2020
5268 Clouds 16 1013 77 10000 9.3 10 00:25 07.04.2020
5269 Clouds 16 1013 77 10000 7.7 10 23:39 06.04.2020
5270 Clouds 16 1013 77 10000 7.7 10 23:20 06.04.2020
5271 Clouds 15 1014 82 10000 7.2 10 22:41 06.04.2020
5272 Clouds 15 1014 82 10000 7.7 10 22:23 06.04.2020
5273 Clouds 14 1014 77 10000 8.2 360 21:59 06.04.2020
5274 Clouds 14 1014 77 10000 8.2 360 21:40 06.04.2020
5275 Clouds 14 1014 87 10000 7.7 360 21:19 06.04.2020
5276 Clouds 14 1014 82 10000 7.2 10 20:56 06.04.2020
5277 Clouds 14 1014 82 10000 8.2 10 20:38 06.04.2020
5278 Clouds 14 1014 82 10000 8.2 10 20:19 06.04.2020
5279 Clouds 14 1014 82 10000 7.7 10 19:56 06.04.2020
5280 Clouds 14 1014 82 10000 6.2 20 19:37 06.04.2020
5281 Clouds 14 1014 82 10000 6.2 20 19:19 06.04.2020
5282 Clouds 14 1015 82 10000 7.2 20 18:41 06.04.2020
5283 Clouds 14 1015 82 10000 7.2 20 18:23 06.04.2020
5284 Clouds 14 1015 82 10000 7.2 20 17:55 06.04.2020
5285 Clouds 14 1016 82 10000 6.7 20 17:37 06.04.2020
5286 Clouds 14 1016 82 10000 6.7 20 17:18 06.04.2020
5287 Clouds 14 1016 87 10000 7.2 10 16:47 06.04.2020
5288 Clouds 14 1017 87 10000 6.7 10 16:29 06.04.2020
5289 Clouds 14 1017 82 10000 6.2 20 14:46 06.04.2020
5290 Clouds 14 1017 82 10000 6.2 20 14:46 06.04.2020
5291 Clouds 14 1017 82 10000 6.2 20 14:46 06.04.2020
5292 Clouds 14 1017 82 10000 6.2 20 14:46 06.04.2020
5293 Clouds 14 1017 82 10000 6.2 20 14:46 06.04.2020
5294 Clouds 14 1018 87 10000 5.1 20 13:44 06.04.2020
5295 Clouds 14 1018 87 10000 5.7 20 13:21 06.04.2020
5296 Clouds 14 1018 87 10000 5.7 20 13:21 06.04.2020
5297 Clouds 14 1018 87 10000 5.7 10 12:41 06.04.2020
5298 Clouds 14 1018 87 10000 5.7 10 12:41 06.04.2020
5299 Clouds 15 1018 87 10000 6.7 10 12:18 06.04.2020
5300 Clouds 15 1018 87 10000 6.7 10 12:18 06.04.2020
5301 Clouds 15 1018 87 10000 6.7 10 12:18 06.04.2020
5302 Clouds 15 1018 87 10000 6.7 10 12:18 06.04.2020
5303 Clouds 14 1018 87 10000 6.2 20 11:40 06.04.2020
5304 Clouds 14 1018 87 10000 6.2 20 11:40 06.04.2020
5305 Clouds 14 1018 87 10000 6.7 360 10:55 06.04.2020
5306 Clouds 15 1018 87 10000 6.7 360 10:37 06.04.2020
5307 Clouds 15 1018 87 10000 6.7 360 10:37 06.04.2020
5308 Clouds 15 1019 87 10000 5.7 360 10:18 06.04.2020
5309 Clouds 15 1019 87 10000 5.1 10 09:37 06.04.2020
5310 Clouds 15 1019 82 10000 5.1 20 09:18 06.04.2020
5311 Clouds 15 1019 77 10000 5.1 10 08:43 06.04.2020
5312 Clouds 15 1019 77 10000 5.1 10 08:43 06.04.2020
5313 Clouds 15 1019 77 10000 5.1 10 08:42 06.04.2020
5314 Clouds 15 1019 77 10000 5.1 10 08:41 06.04.2020
5315 Clouds 15 1019 77 10000 5.1 10 08:41 06.04.2020
5316 Clouds 16 1019 77 10000 5.1 360 07:56 06.04.2020
5317 Clouds 16 1020 67 10000 5.7 360 07:20 06.04.2020
5318 Clouds 17 1020 63 10000 5.1 330 06:26 06.04.2020
5319 Clouds 17 1021 59 10000 5.7 350 05:42 06.04.2020
5320 Clouds 18 1022 63 10000 5.7 330 03:33 06.04.2020
5321 Clouds 18 1023 59 10000 4.6 340 02:49 06.04.2020
5322 Clouds 18 1023 59 10000 4.6 340 02:49 06.04.2020
5323 Clouds 18 1023 55 10000 5.1 340 01:53 06.04.2020
5324 Clouds 17 1024 55 10000 6.7 360 00:52 06.04.2020
5325 Clouds 17 1024 63 10000 7.7 360 00:27 06.04.2020
5326 Clouds 16 1024 67 10000 5.7 20 23:50 05.04.2020
5327 Clouds 15 1024 72 10000 5.7 360 23:32 05.04.2020
5328 Clouds 15 1024 72 10000 5.7 360 23:32 05.04.2020
5329 Clouds 15 1024 72 10000 5.7 360 23:32 05.04.2020
5330 Clouds 14 1024 76 10000 5.1 340 22:57 05.04.2020
5331 Clouds 13 1024 76 10000 5.1 340 22:38 05.04.2020
5332 Clouds 12 1024 82 10000 4.1 350 22:19 05.04.2020
5333 Clouds 12 1025 82 10000 3.6 350 21:58 05.04.2020
5334 Clouds 12 1025 82 10000 3.6 350 21:40 05.04.2020
5335 Clouds 11 1024 87 10000 3.1 10 21:21 05.04.2020
5336 Clouds 11 1024 81 10000 4.1 20 20:22 05.04.2020
5337 Clouds 11 1024 81 10000 4.1 20 20:22 05.04.2020
5338 Clouds 11 1025 93 10000 4.6 360 19:42 05.04.2020
5339 Clouds 11 1025 81 10000 4.1 20 19:22 05.04.2020
5340 Clouds 12 1025 87 10000 3.1 10 18:47 05.04.2020
5341 Clouds 11 1025 87 10000 4.6 30 17:59 05.04.2020
5342 Clouds 11 1025 87 10000 4.6 30 17:59 05.04.2020
5343 Clouds 11 1025 87 10000 4.6 30 17:59 05.04.2020
5344 Clouds 11 1025 87 10000 4.6 30 17:59 05.04.2020
5345 Clouds 11 1025 87 10000 4.6 30 17:40 05.04.2020
5346 Clouds 11 1025 87 10000 4.6 30 17:40 05.04.2020
5347 Clouds 11 1025 87 10000 4.6 30 17:40 05.04.2020
5348 Clouds 11 1025 87 10000 4.6 30 17:40 05.04.2020
5349 Clouds 11 1025 87 10000 4.6 30 17:40 05.04.2020
5350 Clouds 12 1025 87 10000 4.1 30 17:20 05.04.2020
5351 Clouds 12 1025 87 10000 6.2 10 16:46 05.04.2020
5352 Clouds 12 1025 87 10000 6.2 10 16:46 05.04.2020
5353 Clouds 12 1025 87 10000 6.2 10 16:46 05.04.2020
5354 Clouds 12 1025 87 10000 6.2 10 16:46 05.04.2020
5355 Clouds 12 1025 87 10000 6.2 10 16:46 05.04.2020
5356 Clouds 12 1025 87 10000 4.6 20 16:18 05.04.2020
5357 Clouds 12 1025 87 10000 6.2 30 15:45 05.04.2020
5358 Clouds 12 1026 87 10000 5.1 30 15:25 05.04.2020
5359 Clear 13 1025 87 10000 4.6 30 14:48 05.04.2020
5360 Clear 13 1025 87 10000 4.6 30 14:48 05.04.2020
5361 Clear 13 1025 87 10000 4.6 30 14:48 05.04.2020
5362 Clear 13 1025 87 10000 4.6 30 14:48 05.04.2020
5363 Clear 13 1026 87 10000 3.6 20 13:47 05.04.2020
5364 Clear 13 1026 87 10000 3.6 20 13:47 05.04.2020
5365 Clear 13 1026 87 10000 3.6 20 13:47 05.04.2020
5366 Clear 13 1026 87 10000 3.6 20 13:47 05.04.2020
5367 Clear 13 1026 87 10000 3.6 20 13:47 05.04.2020
5368 Clear 13 1026 93 10000 4.6 360 12:59 05.04.2020
5369 Clear 13 1026 87 10000 4.6 10 11:58 05.04.2020
5370 Clear 14 1026 87 10000 4.6 10 11:38 05.04.2020
5371 Clear 14 1026 87 10000 5.1 10 11:19 05.04.2020
5372 Clear 14 1026 87 10000 4.1 10 10:45 05.04.2020
5373 Clear 14 1026 87 10000 4.1 20 10:21 05.04.2020
5374 Clear 15 1026 87 10000 4.1 10 09:52 05.04.2020
5375 Clear 15 1026 87 10000 4.1 10 09:52 05.04.2020
5376 Clear 15 1025 82 10000 5.1 350 09:25 05.04.2020
5377 Clear 15 1025 82 10000 5.1 350 09:25 05.04.2020
5378 Clear 15 1025 82 10000 5.1 350 09:25 05.04.2020
5379 Clear 15 1025 82 10000 5.1 350 09:25 05.04.2020
5380 Clear 15 1025 82 10000 5.1 350 09:25 05.04.2020
5381 Clear 16 1025 68 10000 5.1 340 07:58 05.04.2020
5382 Clouds 19 1026 52 10000 5.7 350 05:01 05.04.2020
5383 Clouds 19 1026 56 10000 5.7 340 03:35 05.04.2020
5384 Clouds 19 1027 52 10000 7.7 10 02:56 05.04.2020
5385 Clouds 19 1027 52 10000 7.2 10 01:52 05.04.2020
5386 Clouds 19 1027 52 10000 7.2 10 01:52 05.04.2020
5387 Clouds 18 1027 52 10000 7.2 10 01:33 05.04.2020
5388 Clouds 17 1027 55 10000 4.1 350 00:52 05.04.2020
5389 Clouds 17 1028 67 10000 3.6 360 00:22 05.04.2020
5390 Clouds 16 1028 67 10000 2.6 20 23:58 04.04.2020
5391 Clouds 16 1028 67 10000 2.6 20 23:58 04.04.2020
5392 Clouds 15 1028 67 10000 2.6 20 23:38 04.04.2020
5393 Clouds 13 1028 76 10000 3.6 10 23:20 04.04.2020
5394 Clouds 13 1027 82 10000 4.1 360 22:56 04.04.2020
5395 Clouds 12 1027 82 10000 4.1 360 22:38 04.04.2020
5396 Clouds 11 1027 76 10000 3.1 20 22:19 04.04.2020
5397 Clouds 10 1027 81 10000 3.1 40 21:55 04.04.2020
5398 Clouds 10 1027 81 10000 3.1 40 21:37 04.04.2020
5399 Clouds 10 1027 81 10000 3.1 30 21:18 04.04.2020
5400 Clouds 10 1027 87 10000 2.1 20 20:43 04.04.2020
5401 Clouds 10 1027 81 10000 2.6 30 20:23 04.04.2020
5402 Clouds 10 1027 87 10000 2.6 40 19:59 04.04.2020
5403 Clouds 9 1027 87 10000 2.6 40 19:39 04.04.2020
5404 Clouds 9 1027 87 10000 2.6 40 19:20 04.04.2020
5405 Clouds 9 1027 81 10000 1.5 30 18:58 04.04.2020
5406 Clouds 9 1027 81 10000 1.5 30 18:39 04.04.2020
5407 Clear 9 1027 87 10000 1.5 30 18:19 04.04.2020
5408 Clouds 9 1027 81 10000 1.5 60 17:58 04.04.2020
5409 Clear 9 1027 81 10000 1.5 60 17:38 04.04.2020
5410 Clouds 9 1027 87 10000 1.5 70 17:19 04.04.2020
5411 Clouds 9 1027 81 10000 1.5 360 16:42 04.04.2020
5412 Clouds 9 1027 81 10000 1.5 30 16:23 04.04.2020
5413 Clouds 10 1027 81 10000 1.5 360 15:58 04.04.2020
5414 Clouds 10 1027 81 10000 1.5 360 15:38 04.04.2020
5415 Clouds 10 1027 81 10000 1.5 20 15:19 04.04.2020
5416 Clouds 10 1027 81 10000 1.5 20 15:19 04.04.2020
5417 Clouds 10 1027 81 10000 1.5 20 15:19 04.04.2020
5418 Clouds 11 1027 76 10000 1.5 360 14:46 04.04.2020
5419 Clouds 11 1027 76 10000 1.5 10 14:25 04.04.2020
5420 Clouds 11 1027 76 10000 2.6 340 14:00 04.04.2020
5421 Clouds 11 1027 76 10000 2.6 340 13:41 04.04.2020
5422 Clouds 11 1027 81 10000 1.5 350 13:20 04.04.2020
5423 Clouds 11 1027 76 10000 2.1 30 12:58 04.04.2020
5424 Clouds 12 1027 76 10000 2.1 30 12:39 04.04.2020
5425 Clouds 13 1027 76 10000 3.1 10 12:19 04.04.2020
5426 Clouds 12 1027 71 10000 4.1 10 11:41 04.04.2020
5427 Clouds 12 1026 82 10000 4.1 360 11:23 04.04.2020
5428 Clouds 12 1026 76 10000 3.6 10 10:58 04.04.2020
5429 Clouds 13 1026 76 10000 3.6 10 10:40 04.04.2020
5430 Clouds 13 1026 76 10000 2.1 350 10:22 04.04.2020
5431 Clouds 14 1026 77 10000 1.5 360 09:55 04.04.2020
5432 Clouds 14 1026 77 10000 1.5 360 09:37 04.04.2020
5433 Clouds 15 1025 82 10000 1 330 09:19 04.04.2020
5434 Clouds 15 1025 77 10000 1 190 08:42 04.04.2020
5435 Clouds 16 1025 67 10000 1.5 160 08:23 04.04.2020
5436 Clouds 17 1025 68 10000 2.6 220 07:55 04.04.2020
5437 Clouds 17 1025 68 10000 2.6 220 07:37 04.04.2020
5438 Clouds 18 1025 68 10000 3.6 220 07:19 04.04.2020
5439 Clouds 18 1025 63 10000 4.6 220 06:29 04.04.2020
5440 Clouds 19 1025 63 10000 4.1 220 05:52 04.04.2020
5441 Clouds 18 1025 63 10000 4.1 220 05:32 04.04.2020
5442 Clouds 18 1025 68 10000 4.1 210 04:34 04.04.2020
5443 Clouds 19 1025 67 10000 4.1 200 03:56 04.04.2020
5444 Clouds 19 1022 61 0 2.78 132 03:29 04.04.2020
5445 Clouds 19 1024 69 0 0.45 93 02:45 04.04.2020
5446 Clouds 19 1024 70 0 1.81 113 02:25 04.04.2020
5447 Clouds 17 1026 72 10000 2.6 190 01:27 04.04.2020
5448 Clouds 16 1026 87 10000 3.1 180 00:58 04.04.2020
5449 Clouds 16 1026 82 10000 2.6 180 00:31 04.04.2020
5450 Clouds 16 1026 82 10000 1.5 200 23:57 03.04.2020
5451 Clouds 15 1026 82 10000 1.5 200 23:38 03.04.2020
5452 Clouds 15 1026 82 10000 0.5 130 23:19 03.04.2020
5453 Clouds 13 1026 87 10000 1 60 22:40 03.04.2020
5454 Clouds 12 1026 87 10000 1 50 22:19 03.04.2020
5455 Clouds 12 1026 87 10000 1 50 22:19 03.04.2020
5456 Clouds 11 1025 100 10000 1 50 21:57 03.04.2020
5457 Clouds 11 1025 100 10000 1 50 21:38 03.04.2020
5458 Clouds 11 1025 93 10000 1.5 80 21:20 03.04.2020
5459 Clouds 10 1025 93 10000 1 80 20:55 03.04.2020
5460 Clouds 10 1025 93 10000 1 80 20:36 03.04.2020
5461 Clouds 11 1025 93 10000 1 350 20:18 03.04.2020
5462 Clouds 11 1025 93 10000 4.1 160 19:55 03.04.2020
5463 Clouds 11 1025 93 10000 4.1 160 19:36 03.04.2020
5464 Clouds 11 1025 93 10000 4.1 160 19:18 03.04.2020
5465 Clouds 11 1025 93 10000 4.1 150 18:57 03.04.2020
5466 Clouds 12 1025 93 10000 4.1 150 18:39 03.04.2020
5467 Clouds 12 1025 93 10000 4.1 150 18:39 03.04.2020
5468 Clouds 12 1025 93 10000 4.1 150 18:21 03.04.2020
5469 Clouds 12 1025 93 10000 5.1 160 17:41 03.04.2020
5470 Clouds 12 1025 93 10000 4.6 160 17:20 03.04.2020
5471 Clouds 12 1025 93 10000 4.1 170 16:55 03.04.2020
5472 Clouds 12 1023 94 0 3.1 159 16:37 03.04.2020
5473 Clouds 13 1025 93 10000 4.6 160 16:19 03.04.2020
5474 Clouds 13 1025 87 10000 4.6 170 15:56 03.04.2020
5475 Clouds 12 1024 94 0 3.1 159 15:37 03.04.2020
5476 Clouds 12 1020 90 0 3.58 154 15:19 03.04.2020
5477 Clouds 12 1023 94 0 3.58 154 14:40 03.04.2020
5478 Clouds 12 1023 94 0 3.81 160 14:22 03.04.2020
5479 Clouds 12 1023 94 0 3.81 160 13:54 03.04.2020
5480 Clouds 12 1020 90 0 3.81 160 13:36 03.04.2020
5481 Clouds 12 1020 89 0 3.81 160 13:18 03.04.2020
5482 Clouds 13 1024 93 10000 2.1 150 12:42 03.04.2020
5483 Clouds 13 1024 87 10000 4.1 150 12:20 03.04.2020
5484 Clouds 13 1024 87 10000 5.1 160 11:56 03.04.2020
5485 Clouds 13 1024 87 10000 5.1 160 11:37 03.04.2020
5486 Clouds 13 1024 87 10000 4.6 180 11:18 03.04.2020
5487 Clouds 13 1024 87 10000 3.6 170 10:57 03.04.2020
5488 Clouds 13 1024 87 10000 3.6 170 10:38 03.04.2020
5489 Clouds 13 1024 87 10000 4.6 170 10:20 03.04.2020
5490 Clouds 13 1024 87 10000 4.6 160 09:57 03.04.2020
5491 Clouds 13 1024 87 10000 4.6 160 09:57 03.04.2020
5492 Clouds 13 1024 87 10000 4.6 160 09:38 03.04.2020
5493 Clouds 13 1023 87 10000 4.6 150 09:20 03.04.2020
5494 Clouds 13 1023 100 10000 4.6 160 08:45 03.04.2020
5495 Clouds 13 1023 100 10000 5.1 170 08:26 03.04.2020
5496 Clouds 14 1022 100 6000 5.1 170 07:59 03.04.2020
5497 Clouds 14 1022 100 6000 5.1 170 07:40 03.04.2020
5498 Clouds 14 1022 93 10000 4.6 160 07:22 03.04.2020
5499 Clouds 15 1022 82 10000 5.1 180 06:33 03.04.2020
5500 Clouds 15 1022 87 10000 5.7 190 05:43 03.04.2020
5501 Clouds 16 1022 87 10000 5.1 170 05:21 03.04.2020
5502 Clouds 15 1022 93 10000 5.1 190 03:37 03.04.2020
5503 Rain 15 1023 93 6000 5.7 190 02:47 03.04.2020
5504 Clouds 15 1023 93 10000 6.7 190 01:27 03.04.2020
5505 Rain 15 1023 100 9000 6.2 190 00:56 03.04.2020
5506 Drizzle 14 1023 100 4600 6.2 190 00:33 03.04.2020
5507 Clouds 13 1023 93 10000 5.7 170 23:57 02.04.2020
5508 Clouds 13 1023 93 10000 5.7 170 23:39 02.04.2020
5509 Rain 13 1023 93 7000 5.1 180 23:19 02.04.2020
5510 Rain 13 1022 93 10000 5.7 200 22:43 02.04.2020
5511 Rain 13 1022 93 5000 4.1 190 22:25 02.04.2020
5512 Rain 12 1022 100 5000 5.1 180 21:59 02.04.2020
5513 Rain 12 1022 100 5000 5.1 180 21:59 02.04.2020
5514 Rain 12 1022 100 5000 5.1 180 21:59 02.04.2020
5515 Rain 12 1022 100 5000 5.1 180 21:37 02.04.2020
5516 Clouds 12 1022 87 10000 5.7 180 21:19 02.04.2020
5517 Drizzle 12 1022 93 7000 6.2 190 20:55 02.04.2020
5518 Drizzle 12 1022 93 7000 6.2 190 20:37 02.04.2020
5519 Clouds 12 1022 87 10000 6.7 200 20:18 02.04.2020
5520 Clouds 12 1021 87 10000 6.7 190 19:42 02.04.2020
5521 Clouds 12 1021 87 10000 6.7 190 19:20 02.04.2020
5522 Clouds 12 1021 82 10000 6.7 190 18:56 02.04.2020
5523 Clouds 12 1021 82 10000 6.7 190 18:38 02.04.2020
5524 Clouds 12 1021 82 10000 6.7 190 18:19 02.04.2020
5525 Clouds 12 1021 82 10000 7.2 200 17:44 02.04.2020
5526 Clouds 12 1021 76 10000 6.7 190 17:26 02.04.2020
5527 Clouds 12 1021 76 10000 7.2 200 16:59 02.04.2020
5528 Clouds 12 1021 76 10000 7.2 200 16:41 02.04.2020
5529 Clouds 12 1021 76 10000 7.2 200 16:22 02.04.2020
5530 Clouds 12 1021 82 10000 6.7 190 15:59 02.04.2020
5531 Clouds 12 1021 82 10000 6.7 190 15:40 02.04.2020
5532 Clouds 12 1021 76 10000 6.7 190 15:20 02.04.2020
5533 Clouds 12 1021 76 10000 5.7 190 14:58 02.04.2020
5534 Clouds 12 1021 76 10000 5.7 190 14:38 02.04.2020
5535 Clouds 12 1021 76 10000 6.7 190 14:19 02.04.2020
5536 Clouds 12 1021 76 10000 6.7 190 14:19 02.04.2020
5537 Clouds 12 1021 76 10000 6.2 190 13:55 02.04.2020
5538 Clouds 12 1021 76 10000 6.2 190 13:37 02.04.2020
5539 Clouds 12 1021 76 10000 6.2 180 13:18 02.04.2020
5540 Clouds 13 1021 76 10000 6.7 190 12:46 02.04.2020
5541 Clouds 13 1021 76 10000 6.7 190 12:20 02.04.2020
5542 Clouds 13 1021 82 10000 6.7 190 11:58 02.04.2020
5543 Clouds 13 1021 82 10000 6.7 190 11:39 02.04.2020
5544 Clouds 13 1021 82 10000 5.7 190 11:20 02.04.2020
5545 Clouds 13 1021 82 10000 6.2 190 10:57 02.04.2020
5546 Clouds 13 1021 82 10000 6.2 190 10:39 02.04.2020
5547 Clouds 13 1020 82 10000 5.1 180 10:21 02.04.2020
5548 Clouds 13 1020 82 10000 4.1 180 09:59 02.04.2020
5549 Clouds 13 1020 82 10000 4.1 180 09:41 02.04.2020
5550 Clouds 13 1020 76 10000 5.1 190 09:21 02.04.2020
5551 Clouds 13 1020 76 10000 5.7 170 08:48 02.04.2020
5552 Clouds 13 1020 82 10000 5.1 180 08:28 02.04.2020
5553 Clouds 14 1020 82 10000 4.6 170 07:59 02.04.2020
5554 Clouds 14 1020 82 10000 4.6 170 07:40 02.04.2020
5555 Clouds 15 1020 77 10000 4.6 180 07:19 02.04.2020
5556 Clouds 15 1020 82 10000 3.6 160 06:25 02.04.2020
5557 Clouds 15 1020 82 10000 5.7 160 05:46 02.04.2020
5558 Clouds 15 1020 77 10000 4.1 190 05:18 02.04.2020
5559 Rain 15 1021 87 10000 6.2 190 02:26 02.04.2020
5560 Rain 15 1021 87 10000 5.1 200 01:27 02.04.2020
5561 Rain 14 1021 87 10000 5.1 180 00:42 02.04.2020
5562 Rain 14 1021 82 10000 5.7 180 00:22 02.04.2020
5563 Clouds 13 1021 82 10000 5.7 180 23:40 01.04.2020
5564 Clouds 13 1021 87 10000 5.7 180 23:19 01.04.2020
5565 Clouds 13 1021 87 10000 5.7 190 22:57 01.04.2020
5566 Clouds 13 1021 87 10000 5.7 190 22:57 01.04.2020
5567 Clouds 13 1021 87 10000 5.7 190 22:57 01.04.2020
5568 Clouds 12 1021 87 10000 5.7 190 22:38 01.04.2020
5569 Clouds 12 1021 87 10000 5.1 180 22:19 01.04.2020
5570 Clouds 12 1020 93 10000 5.1 200 21:41 01.04.2020
5571 Clouds 12 1020 93 10000 5.1 190 21:19 01.04.2020
5572 Clouds 12 1020 93 10000 6.2 200 20:57 01.04.2020
5573 Clouds 12 1020 93 10000 6.2 200 20:38 01.04.2020
5574 Clouds 12 1020 100 10000 5.7 190 20:20 01.04.2020
5575 Clouds 12 1020 100 10000 6.2 190 19:58 01.04.2020
5576 Clouds 12 1020 100 10000 6.2 190 19:39 01.04.2020
5577 Clouds 12 1020 100 10000 5.7 190 19:19 01.04.2020
5578 Clouds 12 1020 100 9000 5.7 200 18:42 01.04.2020
5579 Clouds 12 1020 87 10000 5.1 190 18:24 01.04.2020
5580 Clouds 12 1019 87 10000 4.6 170 17:57 01.04.2020
5581 Clouds 12 1019 87 10000 4.6 170 17:38 01.04.2020
5582 Clouds 12 1020 87 10000 5.1 190 17:19 01.04.2020
5583 Clouds 12 1020 87 10000 5.1 190 17:19 01.04.2020
5584 Clouds 12 1020 87 10000 4.6 160 16:58 01.04.2020
5585 Clouds 12 1020 87 10000 4.6 160 16:39 01.04.2020
5586 Clouds 12 1020 87 10000 5.1 160 16:21 01.04.2020
5587 Clouds 13 1020 87 10000 4.6 190 15:57 01.04.2020
5588 Clouds 12 1020 87 10000 4.6 190 15:37 01.04.2020
5589 Clouds 12 1020 82 10000 4.6 190 15:18 01.04.2020
5590 Clouds 12 1020 87 10000 5.1 210 14:41 01.04.2020
5591 Clouds 12 1020 87 10000 5.1 190 14:23 01.04.2020
5592 Clouds 13 1020 87 10000 5.1 200 13:59 01.04.2020
5593 Clouds 13 1020 87 10000 5.1 200 13:40 01.04.2020
5594 Clouds 12 1020 87 10000 5.1 170 13:20 01.04.2020
5595 Clouds 12 1020 87 10000 5.1 170 13:20 01.04.2020
5596 Clouds 13 1020 87 10000 5.1 180 12:59 01.04.2020
5597 Clouds 13 1020 87 10000 5.1 180 12:41 01.04.2020
5598 Clouds 13 1020 87 10000 5.1 190 12:22 01.04.2020
5599 Clouds 13 1020 87 10000 5.1 200 11:57 01.04.2020
5600 Clouds 13 1020 87 10000 5.1 200 11:38 01.04.2020
5601 Clouds 13 1020 87 10000 5.7 180 11:20 01.04.2020
5602 Clouds 13 1020 87 10000 5.1 200 10:40 01.04.2020
5603 Clouds 13 1020 87 10000 5.7 190 10:21 01.04.2020
5604 Clouds 13 1019 87 10000 5.1 190 09:59 01.04.2020
5605 Clouds 13 1019 87 10000 5.1 190 09:40 01.04.2020
5606 Clouds 13 1019 87 10000 5.1 190 09:20 01.04.2020
5607 Clouds 14 1019 87 10000 4.1 210 08:56 01.04.2020
5608 Clouds 14 1019 87 10000 4.1 210 08:37 01.04.2020
5609 Clouds 14 1019 93 10000 4.6 210 08:18 01.04.2020
5610 Clouds 15 1018 93 10000 4.1 220 07:41 01.04.2020
5611 Clouds 15 1018 93 10000 4.1 220 07:19 01.04.2020
5612 Clouds 16 1018 87 10000 4.6 200 06:43 01.04.2020
5613 Clouds 16 1018 82 10000 4.6 190 06:21 01.04.2020
5614 Clear 17 1018 93 10000 4.6 210 05:41 01.04.2020
5615 Clear 16 1019 87 10000 4.1 170 03:57 01.04.2020
5616 Clear 16 1019 87 10000 4.6 170 03:20 01.04.2020
5617 Clear 16 1020 87 10000 4.6 190 02:37 01.04.2020
5618 Clear 16 1020 87 10000 3.6 190 01:53 01.04.2020
5619 Clear 16 1020 77 10000 3.1 200 01:27 01.04.2020
5620 Clear 16 1020 77 10000 3.1 360 00:47 01.04.2020
5621 Clear 15 1020 82 10000 3.1 360 00:23 01.04.2020
5622 Clear 15 1020 87 10000 2.6 350 23:59 31.03.2020
5623 Clear 15 1020 87 10000 2.6 350 23:40 31.03.2020
5624 Clear 14 1020 93 10000 3.1 350 23:21 31.03.2020
5625 Clear 12 1020 100 10000 3.1 10 22:41 31.03.2020
5626 Clear 12 1020 100 10000 3.1 10 22:21 31.03.2020
5627 Clear 11 1020 100 10000 2.1 10 21:58 31.03.2020
5628 Fog 11 1020 100 550 2.6 30 21:40 31.03.2020
5629 Fog 11 1020 100 550 2.6 30 21:40 31.03.2020
5630 Fog 11 1020 100 550 2.6 30 21:21 31.03.2020
5631 Fog 10 1019 100 250 2.6 50 20:57 31.03.2020
5632 Fog 10 1019 100 250 2.6 50 20:57 31.03.2020
5633 Fog 10 1019 100 250 2.6 50 20:57 31.03.2020
5634 Fog 11 1019 100 250 2.6 50 20:37 31.03.2020
5635 Fog 11 1019 100 250 2.6 50 20:19 31.03.2020
5636 Clouds 11 1019 100 10000 1.5 50 19:56 31.03.2020
5637 Clouds 11 1019 100 10000 2.6 20 19:37 31.03.2020
5638 Clouds 11 1019 100 10000 2.6 20 19:19 31.03.2020
5639 Clouds 12 1019 93 10000 3.1 10 18:44 31.03.2020
5640 Clouds 12 1019 93 10000 2.6 10 18:20 31.03.2020
5641 Clouds 12 1019 93 10000 2.1 40 17:57 31.03.2020
5642 Clouds 12 1019 93 10000 2.1 40 17:39 31.03.2020
5643 Clouds 12 1019 93 10000 2.1 40 17:39 31.03.2020
5644 Clouds 12 1019 93 10000 1 30 17:21 31.03.2020
5645 Clouds 12 1019 93 10000 1.5 50 16:56 31.03.2020
5646 Clouds 12 1019 93 10000 1.5 50 16:36 31.03.2020
5647 Clouds 12 1020 93 10000 1.5 60 16:18 31.03.2020
5648 Clouds 12 1020 93 10000 1.5 60 15:55 31.03.2020
5649 Clouds 12 1020 93 10000 1.5 60 15:36 31.03.2020
5650 Clouds 13 1020 100 10000 1.5 240 15:18 31.03.2020
5651 Clouds 13 1020 100 10000 2.1 220 14:42 31.03.2020
5652 Clouds 12 1020 100 10000 2.6 220 14:22 31.03.2020
5653 Clouds 13 1020 100 10000 3.1 220 13:58 31.03.2020
5654 Clouds 12 1020 100 10000 3.1 220 13:40 31.03.2020
5655 Clouds 13 1020 100 10000 3.6 230 13:19 31.03.2020
5656 Clouds 13 1020 100 10000 3.1 230 12:45 31.03.2020
5657 Clouds 13 1020 87 10000 3.6 220 12:20 31.03.2020
5658 Clouds 13 1020 93 10000 3.6 210 11:56 31.03.2020
5659 Clouds 13 1020 93 10000 3.6 210 11:37 31.03.2020
5660 Clouds 13 1020 93 10000 3.6 200 11:19 31.03.2020
5661 Clouds 13 1020 93 10000 4.1 220 10:55 31.03.2020
5662 Clouds 13 1020 93 10000 4.1 220 10:55 31.03.2020
5663 Clouds 13 1020 93 10000 4.1 220 10:37 31.03.2020
5664 Clouds 13 1020 87 10000 3.6 210 10:18 31.03.2020
5665 Clouds 14 1019 87 10000 4.6 210 09:43 31.03.2020
5666 Clouds 14 1019 87 10000 5.1 220 09:25 31.03.2020
5667 Clouds 14 1019 87 10000 5.1 210 08:58 31.03.2020
5668 Clouds 14 1019 87 10000 5.1 210 08:40 31.03.2020
5669 Clouds 15 1019 93 10000 4.6 220 08:20 31.03.2020
5670 Clouds 15 1019 87 10000 4.1 200 07:57 31.03.2020
5671 Clouds 16 1019 87 10000 4.1 200 07:38 31.03.2020
5672 Clouds 16 1019 87 10000 5.1 220 07:20 31.03.2020
5673 Clouds 16 1019 87 10000 5.1 220 06:51 31.03.2020
5674 Clouds 16 1019 87 10000 5.1 200 06:31 31.03.2020
5675 Clouds 17 1019 87 10000 5.1 200 05:41 31.03.2020
5676 Clouds 17 1020 87 10000 6.2 210 03:57 31.03.2020
5677 Rain 17 1021 87 10000 5.7 220 02:26 31.03.2020
5678 Clouds 18 1021 93 10000 6.2 230 01:46 31.03.2020
5679 Clouds 17 1021 87 10000 4.6 220 00:52 31.03.2020
5680 Clouds 16 1021 87 10000 4.1 190 00:25 31.03.2020
5681 Clouds 16 1021 87 10000 4.6 220 23:59 30.03.2020
5682 Clouds 15 1021 87 10000 4.6 220 23:38 30.03.2020
5683 Clouds 15 1021 93 10000 3.6 170 23:19 30.03.2020
5684 Clouds 15 1021 93 10000 3.6 190 22:56 30.03.2020
5685 Clouds 15 1021 93 10000 3.6 190 22:37 30.03.2020
5686 Clouds 15 1021 93 10000 3.6 190 22:37 30.03.2020
5687 Clouds 14 1021 100 10000 5.1 170 22:18 30.03.2020
5688 Clouds 14 1021 93 10000 4.6 170 21:55 30.03.2020
5689 Clouds 14 1021 93 10000 4.6 170 21:37 30.03.2020
5690 Rain 14 1021 93 10000 5.7 170 21:18 30.03.2020
5691 Clouds 13 1021 93 10000 5.7 170 20:42 30.03.2020
5692 Clouds 13 1021 93 10000 5.7 170 20:42 30.03.2020
5693 Clouds 13 1021 93 10000 4.6 150 20:24 30.03.2020
5694 Clouds 13 1021 87 10000 1.5 160 19:59 30.03.2020
5695 Clouds 13 1021 87 10000 1.5 160 19:40 30.03.2020
5696 Clouds 13 1021 93 10000 2.1 180 19:22 30.03.2020
5697 Clouds 14 1021 87 10000 3.1 230 18:57 30.03.2020
5698 Rain 14 1021 87 10000 3.1 230 18:38 30.03.2020
5699 Drizzle 14 1021 87 10000 3.1 220 18:20 30.03.2020
5700 Rain 14 1021 87 10000 3.1 190 17:57 30.03.2020
5701 Rain 14 1021 82 10000 1 170 17:38 30.03.2020
5702 Rain 14 1021 82 10000 1 170 17:19 30.03.2020
5703 Rain 14 1021 82 10000 1 180 16:55 30.03.2020
5704 Rain 14 1021 82 10000 1 180 16:37 30.03.2020
5705 Rain 14 1021 82 10000 0.5 310 16:18 30.03.2020
5706 Clouds 14 1021 82 10000 0.5 290 15:54 30.03.2020
5707 Clouds 14 1021 82 10000 0.5 290 15:36 30.03.2020
5708 Rain 14 1021 82 10000 0.5 330 15:18 30.03.2020
5709 Rain 14 1021 82 10000 0.5 350 14:39 30.03.2020
5710 Drizzle 14 1021 77 10000 1.5 130 14:19 30.03.2020
5711 Rain 14 1022 82 10000 0.5 90 13:59 30.03.2020
5712 Rain 14 1022 82 10000 0.5 90 13:40 30.03.2020
5713 Rain 14 1022 82 10000 0.5 100 13:20 30.03.2020
5714 Rain 14 1022 87 7000 1 280 12:55 30.03.2020
5715 Rain 15 1022 87 7000 1 280 12:36 30.03.2020
5716 Rain 15 1022 82 10000 0.5 40 12:18 30.03.2020
5717 Rain 15 1022 82 10000 0.5 40 12:18 30.03.2020
5718 Rain 15 1022 82 10000 1 360 11:43 30.03.2020
5719 Rain 15 1022 82 10000 1.5 270 11:24 30.03.2020
5720 Rain 15 1022 77 10000 0.5 200 10:59 30.03.2020
5721 Rain 15 1022 77 10000 0.5 200 10:39 30.03.2020
5722 Rain 16 1022 72 10000 1 280 10:21 30.03.2020
5723 Rain 16 1022 72 10000 1 130 09:54 30.03.2020
5724 Rain 16 1022 72 10000 1 130 09:36 30.03.2020
5725 Rain 16 1022 67 10000 1.5 100 09:18 30.03.2020
5726 Rain 16 1022 63 10000 2.6 60 08:40 30.03.2020
5727 Rain 17 1021 63 10000 3.1 120 08:21 30.03.2020
5728 Rain 17 1021 59 10000 2.6 120 07:48 30.03.2020
5729 Rain 18 1021 63 10000 3.1 90 07:25 30.03.2020
5730 Rain 17 1021 68 10000 3.1 110 06:47 30.03.2020
5731 Rain 18 1021 63 10000 2.6 100 06:29 30.03.2020
5732 Rain 18 1021 63 10000 3.1 70 05:47 30.03.2020
5733 Rain 18 1022 63 10000 3.6 60 05:18 30.03.2020
5734 Rain 19 1022 64 10000 1.5 350 04:21 30.03.2020
5735 Rain 17 1022 82 10000 3.6 200 03:19 30.03.2020
5736 Rain 17 1023 88 10000 3.6 170 01:59 30.03.2020
5737 Rain 17 1023 87 10000 2.6 190 01:24 30.03.2020
5738 Rain 15 1024 87 10000 2.6 190 00:30 30.03.2020
5739 Rain 15 1024 93 10000 2.6 190 23:59 29.03.2020
5740 Rain 14 1024 93 10000 2.6 190 23:41 29.03.2020
5741 Rain 14 1024 93 10000 1.5 180 23:22 29.03.2020
5742 Rain 13 1024 93 10000 1.5 260 22:57 29.03.2020
5743 Rain 13 1024 93 10000 1.5 260 22:37 29.03.2020
5744 Rain 12 1023 100 10000 1 170 22:18 29.03.2020
5745 Rain 12 1023 100 10000 0.5 90 21:40 29.03.2020
5746 Rain 11 1023 100 10000 2.1 30 21:21 29.03.2020
5747 Clouds 11 1023 100 10000 1.5 60 20:56 29.03.2020
5748 Clouds 11 1023 100 10000 1.5 60 20:56 29.03.2020
5749 Clouds 11 1023 100 10000 1.5 60 20:38 29.03.2020
5750 Clouds 11 1023 93 10000 1 110 20:19 29.03.2020
5751 Clouds 11 1023 93 10000 2.6 190 19:59 29.03.2020
5752 Clouds 11 1023 93 10000 2.6 190 19:41 29.03.2020
5753 Clouds 12 1023 93 10000 2.6 200 19:23 29.03.2020
5754 Clouds 11 1023 93 10000 2.1 200 18:57 29.03.2020
5755 Clouds 12 1023 93 10000 2.6 180 18:39 29.03.2020
5756 Clouds 11 1023 93 10000 2.6 180 18:20 29.03.2020
5757 Clouds 12 1023 93 10000 3.1 190 17:56 29.03.2020
5758 Clouds 12 1023 93 10000 3.1 190 17:56 29.03.2020
5759 Clouds 12 1023 93 10000 3.1 190 17:38 29.03.2020
5760 Clouds 11 1024 93 10000 3.1 180 17:19 29.03.2020
5761 Clouds 11 1024 93 10000 2.1 140 16:57 29.03.2020
5762 Clouds 11 1024 93 10000 2.1 140 16:38 29.03.2020
5763 Clouds 11 1024 93 10000 2.1 140 16:38 29.03.2020
5764 Clouds 12 1024 87 10000 2.1 190 16:19 29.03.2020
5765 Clouds 12 1024 87 10000 2.6 150 15:43 29.03.2020
5766 Clouds 11 1024 87 10000 1.5 120 15:25 29.03.2020
5767 Clouds 11 1024 87 10000 3.1 150 14:59 29.03.2020
5768 Clouds 12 1024 87 10000 3.1 150 14:40 29.03.2020
5769 -273 0 0 0 0 0 14:20 29.03.2020
5770 Clouds 12 1025 93 10000 2.1 190 13:58 29.03.2020
5771 Clouds 12 1025 93 10000 2.1 190 13:40 29.03.2020
5772 Clouds 12 1025 93 7000 2.1 200 13:20 29.03.2020
5773 Clouds 11 1020 94 0 4.29 156 12:57 29.03.2020
5774 Clouds 12 1023 95 0 4.29 156 12:38 29.03.2020
5775 Rain 12 1021 94 0 5.67 166 12:19 29.03.2020
5776 Rain 13 1025 87 10000 3.1 200 11:55 29.03.2020
5777 Rain 12 1023 94 0 5.67 166 11:37 29.03.2020
5778 Rain 13 1025 93 10000 3.6 200 11:18 29.03.2020
5779 Rain 13 1025 93 10000 3.6 200 11:18 29.03.2020
5780 Rain 13 1023 94 0 5.67 166 10:38 29.03.2020
5781 Rain 13 1025 93 5000 1 180 10:19 29.03.2020
5782 Rain 13 1025 93 7000 1.5 260 09:41 29.03.2020
5783 Rain 13 1024 93 7000 3.6 210 09:22 29.03.2020
5784 Rain 13 1024 93 10000 2.6 180 08:57 29.03.2020
5785 Rain 14 1024 93 10000 2.6 180 08:39 29.03.2020
5786 Rain 14 1024 93 10000 5.7 190 08:20 29.03.2020
5787 Rain 14 1024 93 10000 8.7 200 07:44 29.03.2020
5788 Rain 14 1024 87 10000 7.7 200 07:21 29.03.2020
5789 Rain 15 1023 82 10000 4.6 210 05:58 29.03.2020
5790 Rain 14 1023 82 10000 2.1 230 04:55 29.03.2020
5791 Rain 13 1022 87 10000 5.1 80 03:33 29.03.2020
5792 Drizzle 12 1021 93 5000 14.9 200 01:52 29.03.2020
5793 Rain 11 1022 93 1400 13.4 250 01:24 29.03.2020
5794 Rain 11 1024 100 900 14.9 230 00:58 29.03.2020
5795 Rain 11 1024 100 1400 17 210 00:33 29.03.2020
5796 Rain 12 1024 100 1400 15.9 210 23:57 28.03.2020
5797 Rain 11 1024 100 1800 18 200 23:39 28.03.2020
5798 Rain 11 1024 100 1800 18 200 23:20 28.03.2020
5799 Rain 11 1025 100 1900 17.5 200 22:41 28.03.2020
5800 Rain 11 1024 100 1800 18 200 22:22 28.03.2020
5801 Drizzle 11 1024 87 5000 18.5 200 21:56 28.03.2020
5802 Drizzle 11 1024 87 5000 18.5 200 21:38 28.03.2020
5803 Rain 11 1024 93 5000 17.5 200 21:19 28.03.2020
5804 Rain 11 1024 93 6000 16.5 200 20:54 28.03.2020
5805 Rain 11 1024 93 6000 16.5 200 20:36 28.03.2020
5806 Rain 11 1024 93 2600 15.9 200 20:18 28.03.2020
5807 Rain 10 1024 100 2600 18 200 19:54 28.03.2020
5808 Rain 10 1024 100 2600 18 200 19:36 28.03.2020
5809 Rain 11 1024 93 3000 17.5 200 19:18 28.03.2020
5810 Rain 11 1024 93 4300 17.5 200 18:39 28.03.2020
5811 Rain 11 1024 87 5000 17.5 200 18:20 28.03.2020
5812 Rain 10 1023 91 0 3.58 30 17:40 28.03.2020
5813 Drizzle 10 1024 81 8000 17 190 17:22 28.03.2020
5814 Rain 10 1024 87 7000 17 200 16:57 28.03.2020
5815 Rain 11 1024 87 7000 17 200 16:38 28.03.2020
5816 Rain 11 1025 87 6000 15.9 200 16:18 28.03.2020
5817 Rain 11 1025 87 5000 15.4 200 15:40 28.03.2020
5818 Drizzle 11 1025 87 8000 15.4 190 15:19 28.03.2020
5819 Drizzle 11 1025 87 8000 15.4 190 15:19 28.03.2020
5820 Drizzle 11 1025 82 8000 13.4 190 14:57 28.03.2020
5821 Drizzle 11 1025 82 8000 13.4 190 14:39 28.03.2020
5822 Drizzle 11 1025 81 10000 13.4 180 14:21 28.03.2020
5823 Drizzle 11 1025 81 10000 13.4 180 14:20 28.03.2020
5824 Drizzle 11 1025 81 10000 13.4 180 14:20 28.03.2020
5825 Rain 11 1025 81 10000 13.9 190 13:42 28.03.2020
5826 Rain 11 1026 87 6000 13.4 190 13:23 28.03.2020
5827 Rain 11 1026 87 6000 13.4 180 12:41 28.03.2020
5828 Rain 11 1026 87 6000 12.9 190 12:22 28.03.2020
5829 Rain 11 1026 82 10000 13.9 190 11:43 28.03.2020
5830 Rain 11 1025 76 10000 14.4 190 11:24 28.03.2020
5831 Rain 11 1025 81 10000 13.9 180 10:58 28.03.2020
5832 Rain 11 1025 81 10000 13.9 180 10:38 28.03.2020
5833 Rain 11 1025 81 9000 13.9 190 10:19 28.03.2020
5834 Rain 11 1025 87 10000 13.4 180 09:43 28.03.2020
5835 Rain 12 1025 76 10000 14.4 190 09:24 28.03.2020
5836 Rain 12 1025 82 10000 12.3 180 08:57 28.03.2020
5837 Rain 12 1025 82 10000 12.3 180 08:39 28.03.2020
5838 Rain 12 1024 76 10000 13.4 180 08:20 28.03.2020
5839 Rain 12 1024 76 10000 13.9 190 07:44 28.03.2020
5840 Rain 12 1024 71 10000 13.4 180 06:59 28.03.2020
5841 Rain 12 1024 76 10000 12.9 180 06:35 28.03.2020
5842 Rain 12 1023 71 10000 13.9 190 05:43 28.03.2020
5843 Rain 12 1023 82 10000 14.9 190 05:21 28.03.2020
5844 Rain 12 1023 76 10000 14.9 190 04:41 28.03.2020
5845 Rain 11 1023 87 10000 13.9 180 03:54 28.03.2020
5846 Rain 11 1023 87 5000 12.9 180 02:21 28.03.2020
5847 Rain 11 1023 93 3400 12.9 180 01:30 28.03.2020
5848 Rain 12 1023 87 3000 14.4 180 00:59 28.03.2020
5849 Rain 12 1023 87 7000 13.4 180 00:36 28.03.2020
5850 Rain 11 1022 87 4700 15.4 190 23:57 27.03.2020
5851 Rain 11 1022 87 4700 15.4 190 23:39 27.03.2020
5852 Drizzle 11 1022 93 6000 15.9 190 23:21 27.03.2020
5853 Rain 11 1022 87 5000 16.5 190 22:56 27.03.2020
5854 Rain 11 1022 87 5000 16.5 190 22:37 27.03.2020
5855 Rain 10 1021 93 5000 17 200 22:19 27.03.2020
5856 Rain 11 1021 87 5000 18.5 190 21:44 27.03.2020
5857 Haze 11 1020 87 5000 19.5 200 21:25 27.03.2020
5858 Haze 11 1020 87 5000 19.5 200 21:25 27.03.2020
5859 Rain 11 1020 87 6000 18.5 200 20:59 27.03.2020
5860 Rain 11 1020 87 6000 18.5 200 20:41 27.03.2020
5861 Haze 11 1020 87 5000 18.5 200 20:21 27.03.2020
5862 Drizzle 11 1020 87 5000 19 200 19:58 27.03.2020
5863 Rain 10 1015 93 0 1.34 191 19:40 27.03.2020
5864 Rain 10 1014 93 0 1.34 145 19:21 27.03.2020
5865 Rain 11 1019 87 4300 18.5 200 18:45 27.03.2020
5866 Rain 10 1019 100 2900 17.5 210 18:25 27.03.2020
5867 Rain 10 1019 93 2100 19.5 200 17:59 27.03.2020
5868 Rain 10 1018 93 2700 18 200 17:39 27.03.2020
5869 Rain 10 1018 93 2700 18 200 17:20 27.03.2020
5870 Rain 10 1018 100 2900 18.5 200 16:44 27.03.2020
5871 Rain 10 1018 93 3000 18.5 200 16:26 27.03.2020
5872 Rain 11 1018 93 2800 18.5 200 15:56 27.03.2020
5873 Rain 11 1018 93 2800 18.5 200 15:38 27.03.2020
5874 Rain 10 1018 93 2100 19 200 15:20 27.03.2020
5875 Rain 10 1018 87 3300 20.1 200 14:45 27.03.2020
5876 Rain 10 1018 93 3400 18 200 14:24 27.03.2020
5877 Rain 11 1018 93 2400 18.5 200 13:56 27.03.2020
5878 Rain 11 1018 93 2400 18.5 200 13:37 27.03.2020
5879 Rain 11 1017 93 3600 19 200 13:18 27.03.2020
5880 Rain 11 1018 100 1500 18 200 12:45 27.03.2020
5881 Rain 11 1017 100 1900 17.5 190 12:20 27.03.2020
5882 Rain 11 1017 100 1400 17 200 11:59 27.03.2020
5883 Rain 11 1017 100 1400 17 200 11:59 27.03.2020
5884 Rain 11 1017 100 1400 17 200 11:59 27.03.2020
5885 Rain 12 1017 93 2100 15.9 200 11:40 27.03.2020
5886 Rain 11 1017 93 2100 15.9 200 11:22 27.03.2020
5887 Rain 12 1017 93 3400 14.9 190 10:54 27.03.2020
5888 Rain 12 1017 93 3600 14.9 190 10:36 27.03.2020
5889 Rain 12 1017 93 3600 14.9 190 10:18 27.03.2020
5890 Rain 12 1017 93 9000 7.2 150 09:54 27.03.2020
5891 Rain 12 1017 93 9000 7.2 150 09:36 27.03.2020
5892 Rain 13 1016 93 6000 8.2 180 09:18 27.03.2020
5893 Rain 12 1016 93 4400 11.8 190 08:54 27.03.2020
5894 Rain 13 1016 93 4400 11.8 190 08:36 27.03.2020
5895 Rain 13 1016 93 8000 10.3 170 08:18 27.03.2020
5896 Rain 13 1016 93 7000 11.8 170 07:41 27.03.2020
5897 Rain 13 1016 87 10000 9.3 140 07:21 27.03.2020
5898 Rain 13 1015 87 10000 7.7 150 06:41 27.03.2020
5899 Rain 13 1015 93 7000 7.7 150 06:18 27.03.2020
5900 Rain 14 1015 93 10000 9.3 200 03:42 27.03.2020
5901 Rain 17 1015 68 10000 2.1 320 02:19 27.03.2020
5902 Rain 18 1015 59 10000 7.7 10 01:19 27.03.2020
5903 Rain 17 1015 63 10000 6.2 10 00:45 27.03.2020
5904 Rain 17 1015 63 10000 5.7 20 00:20 27.03.2020
5905 Rain 17 1015 72 10000 5.7 40 23:42 26.03.2020
5906 Rain 16 1015 72 10000 5.7 40 23:19 26.03.2020
5907 Rain 15 1015 82 10000 4.6 20 22:57 26.03.2020
5908 Rain 15 1015 82 10000 4.6 20 22:36 26.03.2020
5909 Rain 14 1015 82 10000 4.1 30 22:18 26.03.2020
5910 Rain 13 1014 87 10000 5.1 60 21:40 26.03.2020
5911 Rain 13 1014 87 10000 4.6 30 21:22 26.03.2020
5912 Rain 13 1013 93 10000 5.1 10 20:59 26.03.2020
5913 Rain 13 1013 93 10000 5.1 10 20:39 26.03.2020
5914 Rain 13 1013 93 10000 5.7 20 20:21 26.03.2020
5915 Rain 14 1013 93 10000 5.7 10 19:58 26.03.2020
5916 Rain 14 1013 93 10000 5.7 10 19:40 26.03.2020
5917 Rain 14 1013 93 10000 5.7 10 19:21 26.03.2020
5918 Rain 14 1013 93 10000 6.2 10 18:58 26.03.2020
5919 Rain 14 1013 87 10000 6.7 10 18:40 26.03.2020
5920 Rain 14 1013 87 10000 6.7 10 18:21 26.03.2020
5921 Rain 15 1013 82 10000 6.2 20 17:45 26.03.2020
5922 Rain 15 1013 82 10000 6.2 20 17:20 26.03.2020
5923 Rain 15 1013 82 10000 7.2 360 16:57 26.03.2020
5924 Rain 15 1013 82 10000 7.2 10 16:38 26.03.2020
5925 Rain 15 1013 82 10000 7.2 10 16:38 26.03.2020
5926 Rain 15 1013 82 10000 7.2 10 16:19 26.03.2020
5927 Rain 15 1013 82 10000 7.7 10 15:55 26.03.2020
5928 Rain 15 1013 82 10000 7.7 10 15:55 26.03.2020
5929 Rain 15 1013 82 10000 7.7 10 15:37 26.03.2020
5930 Rain 15 1013 82 10000 7.2 360 15:18 26.03.2020
5931 Rain 15 1013 82 10000 7.2 360 14:43 26.03.2020
5932 Rain 15 1014 77 10000 6.7 360 14:24 26.03.2020
5933 Clouds 15 1014 82 10000 7.7 350 13:56 26.03.2020
5934 Rain 15 1014 82 10000 7.7 350 13:38 26.03.2020
5935 Drizzle 14 1014 87 10000 7.2 350 13:19 26.03.2020
5936 Rain 15 1014 82 10000 6.7 350 12:39 26.03.2020
5937 Rain 15 1014 77 10000 7.2 350 12:20 26.03.2020
5938 Rain 15 1013 72 10000 8.2 10 11:46 26.03.2020
5939 Rain 15 1013 77 10000 8.7 360 11:23 26.03.2020
5940 Clouds 15 1013 77 10000 9.3 350 10:59 26.03.2020
5941 Clouds 15 1013 77 10000 9.3 350 10:41 26.03.2020
5942 Clouds 15 1013 77 10000 8.7 350 10:20 26.03.2020
5943 Clouds 15 1013 77 10000 11.3 350 09:45 26.03.2020
5944 Clouds 15 1013 77 10000 9.3 350 09:21 26.03.2020
5945 Clouds 15 1013 77 10000 10.3 360 08:57 26.03.2020
5946 Clouds 15 1013 77 10000 10.3 360 08:39 26.03.2020
5947 Clouds 15 1013 72 10000 9.8 350 08:20 26.03.2020
5948 Clouds 15 1013 72 10000 9.8 350 07:46 26.03.2020
5949 Clouds 16 1013 67 10000 9.3 340 07:24 26.03.2020
5950 Clouds 16 1012 67 10000 10.8 340 06:57 26.03.2020
5951 Clouds 16 1013 67 10000 9.8 330 06:32 26.03.2020
5952 Clouds 17 1013 59 10000 9.3 350 05:29 26.03.2020
5953 Clouds 18 1013 52 10000 9.3 350 03:45 26.03.2020
5954 Clouds 17 1014 55 10000 10.3 360 02:57 26.03.2020
5955 Clouds 17 1014 52 10000 11.3 360 01:51 26.03.2020
5956 Clouds 17 1014 59 10000 10.3 350 01:18 26.03.2020
5957 Clouds 17 1014 55 10000 9.8 360 00:23 26.03.2020
5958 Clouds 17 1014 72 10000 10.3 360 23:42 25.03.2020
5959 Clouds 17 1014 72 10000 10.3 360 23:22 25.03.2020
5960 Clouds 16 1014 67 10000 10.8 360 22:42 25.03.2020
5961 Clouds 16 1014 63 10000 10.8 360 22:22 25.03.2020
5962 Clouds 16 1014 63 10000 11.3 360 21:59 25.03.2020
5963 Clouds 16 1014 63 10000 11.3 360 21:40 25.03.2020
5964 Clouds 16 1014 67 10000 10.8 360 21:22 25.03.2020
5965 Clouds 15 1015 72 10000 10.3 360 20:57 25.03.2020
5966 Clouds 15 1015 72 10000 10.3 360 20:37 25.03.2020
5967 Clouds 14 1014 72 10000 11.3 360 20:18 25.03.2020
5968 Clouds 14 1014 72 10000 10.3 360 19:43 25.03.2020
5969 Clouds 14 1014 77 10000 9.8 20 19:24 25.03.2020
5970 Clouds 14 1015 77 10000 8.7 360 18:59 25.03.2020
5971 Clouds 14 1015 77 10000 8.2 10 18:40 25.03.2020
5972 Clouds 14 1015 77 10000 8.2 10 18:22 25.03.2020
5973 Clouds 15 1015 77 10000 8.7 360 17:57 25.03.2020
5974 Clouds 14 1015 77 10000 8.2 10 17:39 25.03.2020
5975 Clouds 14 1015 77 10000 8.2 10 17:21 25.03.2020
5976 Clouds 14 1015 77 10000 9.3 10 16:55 25.03.2020
5977 Clouds 14 1015 82 10000 7.7 30 16:36 25.03.2020
5978 Clouds 14 1015 82 10000 7.7 30 16:18 25.03.2020
5979 Clouds 14 1015 82 10000 7.7 30 15:41 25.03.2020
5980 Clouds 14 1016 82 10000 7.2 20 15:20 25.03.2020
5981 Clouds 14 1016 77 10000 8.7 10 14:56 25.03.2020
5982 Clouds 14 1016 77 10000 8.7 10 14:37 25.03.2020
5983 Clouds 15 1016 77 10000 8.2 20 14:18 25.03.2020
5984 Clouds 15 1016 77 10000 8.7 20 13:42 25.03.2020
5985 Clouds 15 1016 77 10000 8.7 20 13:22 25.03.2020
5986 Clouds 15 1016 72 10000 9.8 10 12:38 25.03.2020
5987 Clouds 15 1016 72 10000 9.8 10 12:20 25.03.2020
5988 Clouds 15 1016 77 10000 9.3 10 11:56 25.03.2020
5989 Clouds 15 1016 77 10000 9.3 10 11:38 25.03.2020
5990 Clouds 15 1016 77 10000 8.7 20 11:20 25.03.2020
5991 Clouds 15 1016 77 10000 7.2 20 10:57 25.03.2020
5992 Clouds 15 1016 77 10000 7.2 20 10:39 25.03.2020
5993 Clouds 15 1016 77 10000 6.7 20 10:18 25.03.2020
5994 Clouds 15 1016 77 10000 6.7 20 09:43 25.03.2020
5995 Clouds 15 1016 72 10000 6.7 20 09:24 25.03.2020
5996 Clouds 15 1015 77 10000 7.7 10 08:57 25.03.2020
5997 Clouds 15 1015 77 10000 7.7 10 08:39 25.03.2020
5998 Clouds 15 1015 77 10000 7.7 360 08:19 25.03.2020
5999 Clouds 15 1015 72 10000 7.7 360 07:41 25.03.2020
6000 Clouds 15 1015 67 10000 7.2 10 07:22 25.03.2020
6001 Clouds 16 1015 55 10000 6.7 10 06:50 25.03.2020
6002 Clouds 17 1015 48 10000 7.2 360 06:28 25.03.2020
6003 Clouds 18 1015 48 10000 6.7 360 05:57 25.03.2020
6004 Clouds 18 1015 48 10000 6.7 360 05:37 25.03.2020
6005 Clear 18 1015 45 10000 7.2 350 04:40 25.03.2020
6006 Clear 19 1015 49 10000 6.2 350 03:49 25.03.2020
6007 Clear 18 1015 49 10000 7.2 360 03:29 25.03.2020
6008 Clear 18 1015 48 10000 6.2 360 01:25 25.03.2020
6009 Clear 18 1015 52 10000 6.2 360 00:49 25.03.2020
6010 Clear 17 1015 55 10000 6.7 10 00:25 25.03.2020
6011 Clear 17 1015 59 10000 5.7 10 23:50 24.03.2020
6012 Clear 16 1015 63 10000 5.7 10 23:28 24.03.2020
6013 Clear 16 1015 67 10000 5.7 10 22:57 24.03.2020
6014 Clear 16 1015 67 10000 5.7 10 22:38 24.03.2020
6015 Clear 14 1014 67 10000 6.2 30 22:19 24.03.2020
6016 Clear 14 1014 67 10000 6.2 30 22:19 24.03.2020
6017 Clear 14 1014 67 10000 6.2 30 22:19 24.03.2020
6018 Clear 13 1014 76 10000 5.7 360 21:56 24.03.2020
6019 Clear 13 1014 76 10000 5.7 360 21:38 24.03.2020
6020 Clear 12 1014 81 10000 5.1 360 21:18 24.03.2020
6021 Clear 12 1014 81 10000 5.1 360 21:18 24.03.2020
6022 Clear 11 1014 81 10000 4.1 10 20:57 24.03.2020
6023 Clear 10 1014 81 10000 4.1 10 20:39 24.03.2020
6024 Clear 10 1014 81 10000 3.6 10 20:21 24.03.2020
6025 Clear 10 1014 81 10000 4.1 360 19:45 24.03.2020
6026 Clear 10 1013 81 10000 3.6 10 19:19 24.03.2020
6027 Clear 10 1013 87 10000 4.6 360 18:56 24.03.2020
6028 Clear 10 1013 87 10000 4.6 360 18:56 24.03.2020
6029 Clear 10 1013 87 10000 3.6 360 18:37 24.03.2020
6030 Clear 10 1013 87 10000 3.6 360 18:18 24.03.2020
6031 Clear 9 1013 87 10000 3.1 20 17:42 24.03.2020
6032 Clear 9 1013 87 10000 3.1 20 17:42 24.03.2020
6033 Clear 9 1013 93 10000 2.6 30 17:24 24.03.2020
6034 Clear 8 1013 87 10000 3.6 20 16:59 24.03.2020
6035 Clear 8 1013 87 10000 3.6 20 16:41 24.03.2020
6036 Clear 8 1012 87 10000 3.1 30 16:23 24.03.2020
6037 Clear 8 1012 87 10000 3.1 30 16:23 24.03.2020
6038 Clear 8 1012 87 10000 2.1 30 15:59 24.03.2020
6039 Clear 8 1012 87 10000 2.1 30 15:39 24.03.2020
6040 Clear 8 1012 81 10000 2.6 30 15:21 24.03.2020
6041 Clear 8 1012 81 10000 2.6 30 15:21 24.03.2020
6042 -273 0 0 0 0 0 15:21 24.03.2020
6043 Clear 9 1012 87 10000 2.6 40 14:43 24.03.2020
6044 Clear 10 1012 81 10000 2.6 20 14:21 24.03.2020
6045 Clear 10 1012 81 10000 1.5 20 13:55 24.03.2020
6046 Clear 10 1012 81 10000 1.5 20 13:36 24.03.2020
6047 Clear 10 1011 81 10000 2.1 10 13:18 24.03.2020
6048 Clear 10 1011 81 10000 1.5 100 12:41 24.03.2020
6049 Clear 10 1011 81 10000 1.5 100 12:41 24.03.2020
6050 Clear 10 1011 76 10000 1.5 30 12:22 24.03.2020
6051 Clear 11 1011 71 10000 1 40 11:41 24.03.2020
6052 Clouds 11 1010 71 10000 0.5 240 11:20 24.03.2020
6053 Clouds 11 1010 62 10000 2.6 120 10:55 24.03.2020
6054 Clouds 11 1010 62 10000 2.6 120 10:36 24.03.2020
6055 Clouds 12 1010 62 10000 3.1 140 10:18 24.03.2020
6056 Clouds 12 1009 67 0 3.21 159 09:43 24.03.2020
6057 Clouds 13 1008 58 10000 1 60 09:24 24.03.2020
6058 Clouds 13 1004 74 0 3.21 159 08:40 24.03.2020
6059 Clear 13 1008 61 0 5.09 172 08:21 24.03.2020
6060 Clouds 14 1007 51 10000 1.5 190 07:52 24.03.2020
6061 Clouds 14 1006 67 0 0.5 181 07:25 24.03.2020
6062 Clouds 15 1006 51 10000 5.1 320 06:59 24.03.2020
6063 Clouds 15 1006 48 10000 3.6 310 06:34 24.03.2020
6064 Clouds 15 1006 48 10000 5.7 330 05:36 24.03.2020
6065 Clouds 16 1006 33 10000 5.1 340 04:50 24.03.2020
6066 Clouds 16 1005 31 10000 5.7 320 03:19 24.03.2020
6067 Clouds 16 1005 59 10000 6.2 310 02:37 24.03.2020
6068 Clouds 15 1006 38 10000 3.6 290 00:54 24.03.2020
6069 Clouds 15 1006 30 10000 2.1 280 00:27 24.03.2020
6070 Clouds 14 1006 35 10000 3.1 190 23:55 23.03.2020
6071 Clouds 14 1006 53 10000 3.6 210 23:37 23.03.2020
6072 Clouds 13 1006 49 10000 3.6 210 23:19 23.03.2020
6073 Clouds 13 1006 49 10000 4.6 210 22:43 23.03.2020
6074 Clouds 12 1006 49 10000 5.7 210 22:22 23.03.2020
6075 Clouds 12 1006 49 10000 5.7 210 22:22 23.03.2020
6076 Clouds 12 1006 49 10000 6.2 210 21:55 23.03.2020
6077 Clouds 11 1006 49 10000 6.2 210 21:37 23.03.2020
6078 Clouds 11 1006 46 10000 8.7 200 21:18 23.03.2020
6079 Clouds 10 1005 58 10000 11.8 200 20:42 23.03.2020
6080 Clouds 10 1005 54 10000 12.9 200 20:24 23.03.2020
6081 Rain 10 1004 50 10000 12.9 210 19:55 23.03.2020
6082 Rain 10 1004 50 10000 12.9 210 19:37 23.03.2020
6083 Rain 9 1004 54 10000 14.4 210 19:19 23.03.2020
6084 Rain 9 1003 66 6000 9.8 200 18:43 23.03.2020
6085 Rain 9 1003 66 6000 9.8 200 18:24 23.03.2020
6086 Rain 9 1003 71 8000 12.9 190 17:59 23.03.2020
6087 Rain 8 1003 71 9000 13.4 190 17:40 23.03.2020
6088 Rain 9 1003 71 9000 13.4 190 17:19 23.03.2020
6089 Rain 9 1002 71 10000 13.4 190 16:43 23.03.2020
6090 Rain 9 1002 76 9000 14.4 190 16:25 23.03.2020
6091 Rain 9 1002 76 9000 14.4 190 16:25 23.03.2020
6092 Rain 9 1001 81 10000 14.4 180 15:58 23.03.2020
6093 Rain 9 1001 81 10000 14.4 180 15:39 23.03.2020
6094 Rain 10 1001 76 10000 14.4 180 15:18 23.03.2020
6095 Rain 10 1000 76 10000 14.9 190 14:37 23.03.2020
6096 Rain 10 1000 76 10000 14.9 190 14:37 23.03.2020
6097 Rain 12 999 81 10000 14.9 180 14:19 23.03.2020
6098 Rain 12 999 81 10000 14.9 180 14:19 23.03.2020
6099 Rain 11 999 93 3700 15.9 190 13:57 23.03.2020
6100 Rain 13 997 82 8000 5.1 260 13:38 23.03.2020
6101 Rain 14 997 82 8000 5.1 260 13:20 23.03.2020
6102 Rain 14 996 87 10000 4.1 310 12:43 23.03.2020
6103 Rain 14 995 87 10000 4.6 350 12:23 23.03.2020
6104 Rain 15 995 82 10000 5.7 330 11:56 23.03.2020
6105 Rain 15 995 82 10000 5.1 330 11:37 23.03.2020
6106 Rain 15 995 82 10000 5.1 330 11:19 23.03.2020
6107 Rain 15 994 87 10000 6.2 360 10:56 23.03.2020
6108 Rain 15 994 87 10000 6.2 360 10:36 23.03.2020
6109 Rain 15 994 82 10000 7.2 10 10:18 23.03.2020
6110 Rain 15 995 82 10000 6.7 350 09:42 23.03.2020
6111 Rain 15 995 87 10000 7.2 350 09:20 23.03.2020
6112 Rain 16 996 77 10000 6.7 340 08:38 23.03.2020
6113 Rain 16 996 77 10000 5.1 20 08:20 23.03.2020
6114 Drizzle 16 996 77 10000 6.2 360 07:54 23.03.2020
6115 Rain 16 997 72 10000 5.1 340 07:34 23.03.2020
6116 Rain 16 997 68 10000 6.7 360 06:58 23.03.2020
6117 Rain 17 997 68 10000 8.7 350 06:40 23.03.2020
6118 Rain 17 998 77 10000 8.7 340 05:44 23.03.2020
6119 Rain 17 999 72 10000 6.2 350 04:41 23.03.2020
6120 Clouds 18 1001 63 10000 8.7 340 02:59 23.03.2020
6121 Clouds 18 1003 68 10000 8.2 350 01:50 23.03.2020
6122 Clouds 17 1003 72 10000 8.7 350 00:50 23.03.2020
6123 Clouds 18 1004 68 10000 10.8 360 00:29 23.03.2020
6124 Clouds 18 1004 63 10000 9.3 350 23:44 22.03.2020
6125 Clouds 18 1005 68 10000 9.8 350 23:24 22.03.2020
6126 Clouds 17 1005 68 10000 9.8 360 22:42 22.03.2020
6127 Clouds 17 1005 68 10000 7.2 350 22:22 22.03.2020
6128 Clouds 16 1006 72 10000 7.2 350 21:54 22.03.2020
6129 Clouds 16 1006 72 10000 7.2 350 21:36 22.03.2020
6130 Clouds 16 1006 72 10000 6.2 350 21:18 22.03.2020
6131 Clouds 16 1006 77 10000 6.2 350 20:42 22.03.2020
6132 Clouds 16 1006 77 10000 7.2 350 20:24 22.03.2020
6133 Clouds 15 1006 77 10000 7.2 350 19:57 22.03.2020
6134 Clouds 15 1006 77 10000 7.2 350 19:38 22.03.2020
6135 Clouds 15 1006 77 10000 6.2 350 19:19 22.03.2020
6136 Clouds 15 1007 77 10000 6.7 340 18:58 22.03.2020
6137 Clouds 15 1007 77 10000 6.7 340 18:40 22.03.2020
6138 Clouds 15 1007 77 10000 6.7 340 18:21 22.03.2020
6139 Clouds 15 1007 77 10000 7.7 350 17:57 22.03.2020
6140 Clouds 15 1007 77 10000 7.7 350 17:38 22.03.2020
6141 Clouds 15 1007 77 10000 5.7 340 17:20 22.03.2020
6142 Clouds 15 1008 77 10000 7.2 350 16:57 22.03.2020
6143 Clouds 15 1008 77 10000 7.2 350 16:39 22.03.2020
6144 Clouds 15 1008 77 10000 6.2 340 16:20 22.03.2020
6145 Clouds 15 1008 77 10000 6.2 340 15:40 22.03.2020
6146 Clouds 15 1008 77 10000 6.2 340 15:40 22.03.2020
6147 Clouds 15 1009 77 10000 6.2 340 15:21 22.03.2020
6148 Clouds 15 1009 77 9000 6.2 340 14:46 22.03.2020
6149 Clouds 15 1009 77 10000 7.2 340 14:19 22.03.2020
6150 Clouds 15 1009 77 10000 7.2 340 13:44 22.03.2020
6151 Clouds 15 1009 77 10000 6.2 340 13:20 22.03.2020
6152 Clouds 15 1009 77 10000 6.2 340 12:59 22.03.2020
6153 Clouds 15 1009 77 10000 6.2 340 12:41 22.03.2020
6154 Clouds 16 1009 82 10000 6.7 340 12:19 22.03.2020
6155 Clouds 16 1009 82 10000 7.2 340 11:43 22.03.2020
6156 Clouds 16 1009 82 10000 7.2 330 11:25 22.03.2020
6157 Clouds 16 1009 82 10000 8.2 350 10:58 22.03.2020
6158 Clouds 16 1009 82 10000 8.2 350 10:40 22.03.2020
6159 Clouds 16 1009 82 10000 6.7 350 10:22 22.03.2020
6160 Clouds 16 1009 82 10000 8.2 340 09:46 22.03.2020
6161 Clouds 16 1009 82 10000 8.2 340 09:46 22.03.2020
6162 Clouds 17 1008 72 10000 8.2 340 09:27 22.03.2020
6163 Clouds 17 1008 77 10000 8.2 340 08:48 22.03.2020
6164 Clouds 17 1008 77 10000 8.2 340 08:48 22.03.2020
6165 Clouds 17 1008 77 10000 9.3 340 08:30 22.03.2020
6166 Clouds 17 1009 72 10000 7.7 340 07:55 22.03.2020
6167 Clouds 17 1009 72 10000 7.7 340 07:37 22.03.2020
6168 Clouds 18 1008 72 10000 8.7 350 06:41 22.03.2020
6169 Clouds 19 1008 68 10000 8.7 340 05:47 22.03.2020
6170 Clouds 20 1008 64 10000 8.7 350 04:39 22.03.2020
6171 Clear 21 1009 64 10000 8.7 350 01:45 22.03.2020
6172 Clear 20 1009 60 8000 5.1 330 00:50 22.03.2020
6173 Clear 20 1009 64 10000 7.7 350 00:31 22.03.2020
6174 Clear 19 1009 64 10000 8.7 340 23:46 21.03.2020
6175 Clear 19 1009 68 9000 7.7 330 23:22 21.03.2020
6176 Clouds 18 1009 68 10000 7.7 340 22:58 21.03.2020
6177 Clouds 18 1009 68 10000 7.7 340 22:38 21.03.2020
6178 Clouds 18 1009 68 10000 7.2 340 22:19 21.03.2020
6179 Clouds 18 1010 72 10000 5.7 340 21:57 21.03.2020
6180 Clouds 18 1010 72 10000 5.7 340 21:38 21.03.2020
6181 Clouds 17 1010 77 10000 6.2 350 21:19 21.03.2020
6182 Clouds 17 1010 77 8000 4.6 330 20:42 21.03.2020
6183 Clouds 17 1009 82 10000 7.7 330 20:22 21.03.2020
6184 Rain 16 1009 82 10000 7.2 330 19:55 21.03.2020
6185 Rain 17 1009 82 10000 7.2 330 19:36 21.03.2020
6186 Rain 16 1008 88 10000 8.2 350 19:18 21.03.2020
6187 Rain 16 1008 77 10000 9.3 330 18:41 21.03.2020
6188 Rain 17 1008 88 10000 12.3 350 18:21 21.03.2020
6189 Rain 17 1009 93 9000 11.8 350 17:59 21.03.2020
6190 Rain 17 1009 88 10000 11.3 350 17:41 21.03.2020
6191 Rain 17 1009 88 10000 11.3 350 17:22 21.03.2020
6192 Rain 17 1009 88 10000 11.8 350 16:42 21.03.2020
6193 Rain 17 1009 88 10000 11.8 350 16:42 21.03.2020
6194 Rain 17 1010 93 6000 11.3 350 16:24 21.03.2020
6195 Rain 17 1010 88 6000 12.3 350 15:59 21.03.2020
6196 Rain 17 1010 88 6000 12.3 350 15:40 21.03.2020
6197 Rain 17 1010 93 10000 12.9 360 15:22 21.03.2020
6198 Rain 17 1011 88 10000 11.8 10 14:57 21.03.2020
6199 Rain 17 1011 88 10000 11.8 10 14:38 21.03.2020
6200 Rain 17 1011 82 10000 13.9 360 14:19 21.03.2020
6201 Rain 17 1011 82 10000 11.8 360 13:58 21.03.2020
6202 Rain 17 1011 82 10000 11.8 360 13:39 21.03.2020
6203 Rain 17 1011 82 10000 12.9 360 13:21 21.03.2020
6204 Clouds 17 1012 82 10000 11.3 10 12:55 21.03.2020
6205 Clouds 17 1012 82 10000 11.8 360 12:36 21.03.2020
6206 Clouds 17 1012 82 10000 11.8 360 12:18 21.03.2020
6207 Clouds 17 1012 82 10000 11.8 350 11:55 21.03.2020
6208 Rain 17 1012 77 10000 10.8 350 11:37 21.03.2020
6209 Rain 17 1012 77 10000 10.8 350 11:18 21.03.2020
6210 Clouds 18 1012 72 10000 12.3 360 10:55 21.03.2020
6211 Clouds 18 1012 72 10000 12.3 360 10:37 21.03.2020
6212 Clouds 17 1013 77 10000 10.8 10 10:18 21.03.2020
6213 Clouds 17 1013 88 10000 9.3 10 09:40 21.03.2020
6214 Clouds 16 1014 88 10000 8.7 360 09:21 21.03.2020
6215 Clouds 16 1013 88 10000 8.2 20 08:56 21.03.2020
6216 Clouds 17 1013 88 10000 8.2 20 08:38 21.03.2020
6217 Clouds 17 1014 88 10000 6.7 20 08:20 21.03.2020
6218 Rain 16 1014 87 9000 9.8 10 07:39 21.03.2020
6219 Clouds 17 1014 77 10000 8.2 10 07:20 21.03.2020
6220 Clouds 17 1014 77 10000 8.2 10 07:20 21.03.2020
6221 Clouds 16 1014 77 10000 8.2 360 06:45 21.03.2020
6222 Clouds 17 1015 68 10000 8.7 360 06:25 21.03.2020
6223 Clouds 17 1014 63 10000 8.2 360 05:41 21.03.2020
6224 Clouds 17 1015 68 10000 9.3 360 04:34 21.03.2020
6225 Clouds 18 1016 60 10000 7.2 350 02:39 21.03.2020
6226 Clouds 19 1016 56 10000 6.2 340 01:54 21.03.2020
6227 Clouds 19 1016 60 10000 5.1 350 01:28 21.03.2020
6228 Clouds 18 1017 63 10000 4.6 10 00:43 21.03.2020
6229 Clouds 18 1017 63 10000 4.6 10 00:43 21.03.2020
6230 Clouds 17 1017 77 10000 4.1 10 00:24 21.03.2020
6231 Clouds 16 1017 77 10000 3.1 10 23:45 20.03.2020
6232 Clouds 16 1018 82 10000 3.1 350 23:23 20.03.2020
6233 Rain 15 1018 77 10000 2.6 360 22:44 20.03.2020
6234 Rain 14 1018 87 10000 2.6 10 22:25 20.03.2020
6235 Rain 14 1018 82 10000 1.5 10 21:59 20.03.2020
6236 Rain 13 1018 82 10000 1.5 10 21:41 20.03.2020
6237 Rain 13 1018 82 10000 1.5 360 21:20 20.03.2020
6238 Rain 13 1018 87 10000 2.1 20 20:59 20.03.2020
6239 Rain 13 1018 87 10000 2.1 20 20:41 20.03.2020
6240 Rain 12 1017 87 10000 2.6 30 20:21 20.03.2020
6241 Clouds 12 1017 87 10000 2.6 50 19:58 20.03.2020
6242 Clouds 12 1017 87 10000 2.6 50 19:39 20.03.2020
6243 Clouds 12 1017 82 10000 0.5 120 19:18 20.03.2020
6244 Clouds 13 1017 87 10000 0.5 240 18:39 20.03.2020
6245 Clouds 13 1017 87 10000 0.5 240 18:39 20.03.2020
6246 Clouds 13 1017 87 10000 2.6 220 18:20 20.03.2020
6247 Clouds 13 1017 82 10000 1.5 230 17:57 20.03.2020
6248 Clouds 13 1017 82 10000 1.5 220 17:39 20.03.2020
6249 Rain 13 1017 82 10000 1.5 220 17:20 20.03.2020
6250 Rain 13 1017 87 10000 1.5 190 16:43 20.03.2020
6251 Rain 13 1017 76 9000 2.1 180 16:21 20.03.2020
6252 Rain 13 1017 71 10000 1.5 160 15:59 20.03.2020
6253 Rain 13 1017 71 10000 1.5 160 15:41 20.03.2020
6254 Rain 13 1017 76 10000 2.1 120 15:20 20.03.2020
6255 Rain 13 1017 71 10000 2.6 120 14:42 20.03.2020
6256 Rain 13 1017 76 10000 2.6 140 14:21 20.03.2020
6257 Rain 13 1017 82 10000 3.1 140 13:55 20.03.2020
6258 Rain 13 1017 82 10000 3.1 140 13:36 20.03.2020
6259 Clouds 13 1017 82 10000 3.1 160 13:18 20.03.2020
6260 Rain 13 1017 82 10000 4.6 160 12:39 20.03.2020
6261 Rain 13 1017 82 10000 5.7 150 12:20 20.03.2020
6262 Rain 13 1017 82 10000 6.7 150 11:42 20.03.2020
6263 Rain 13 1017 82 10000 6.7 150 11:22 20.03.2020
6264 Rain 13 1017 71 10000 4.6 150 10:59 20.03.2020
6265 Rain 13 1017 71 10000 4.6 150 10:41 20.03.2020
6266 Rain 13 1017 71 10000 6.2 140 10:20 20.03.2020
6267 Rain 13 1017 71 10000 7.7 150 09:47 20.03.2020
6268 Rain 14 1016 67 10000 6.2 160 09:21 20.03.2020
6269 Rain 14 1016 71 10000 6.2 160 08:59 20.03.2020
6270 Rain 14 1016 71 10000 6.2 160 08:40 20.03.2020
6271 Clouds 14 1015 71 10000 6.7 150 08:20 20.03.2020
6272 Clouds 14 1015 72 10000 7.2 160 07:46 20.03.2020
6273 Clouds 14 1015 72 10000 6.7 160 07:26 20.03.2020
6274 Clouds 15 1014 72 10000 7.2 160 06:49 20.03.2020
6275 Clouds 15 1014 72 10000 7.7 160 06:31 20.03.2020
6276 Clouds 17 1013 72 10000 8.2 160 04:49 20.03.2020
6277 Clouds 18 1013 68 10000 8.2 160 03:20 20.03.2020
6278 Clear 17 1013 72 10000 7.7 160 01:51 20.03.2020
6279 Clear 18 1012 82 10000 5.1 190 00:46 20.03.2020
6280 Clear 18 1012 87 10000 6.2 220 00:26 20.03.2020
6281 Clear 19 1011 56 10000 4.6 10 23:45 19.03.2020
6282 Clear 20 1011 56 10000 4.6 10 23:26 19.03.2020
6283 Clear 20 1011 56 10000 4.6 10 23:26 19.03.2020
6284 Clear 20 1011 60 10000 6.7 10 22:56 19.03.2020
6285 Clear 19 1011 60 10000 6.7 10 22:38 19.03.2020
6286 Clear 18 1010 63 10000 6.7 10 22:18 19.03.2020
6287 Clear 17 1010 68 10000 6.7 10 21:41 19.03.2020
6288 Clear 17 1010 68 10000 5.7 20 21:20 19.03.2020
6289 Clear 17 1009 67 10000 5.7 20 20:58 19.03.2020
6290 Clear 16 1009 67 10000 5.7 20 20:39 19.03.2020
6291 Clear 16 1009 72 10000 6.7 360 20:20 19.03.2020
6292 Clear 15 1009 67 10000 6.7 10 19:55 19.03.2020
6293 Clear 15 1009 67 10000 6.7 10 19:37 19.03.2020
6294 Clear 15 1008 67 10000 5.1 350 19:18 19.03.2020
6295 Clear 15 1008 67 10000 5.7 340 18:42 19.03.2020
6296 Clear 16 1008 67 10000 5.7 340 18:22 19.03.2020
6297 Clear 15 1008 72 10000 7.7 350 17:58 19.03.2020
6298 Clear 16 1008 72 10000 7.7 350 17:39 19.03.2020
6299 Clear 15 1008 72 10000 7.7 350 17:19 19.03.2020
6300 Clear 16 1008 63 10000 8.7 350 16:43 19.03.2020
6301 Clear 16 1009 63 10000 6.2 350 16:23 19.03.2020
6302 Clear 16 1009 63 10000 7.2 350 15:45 19.03.2020
6303 Clear 16 1009 63 10000 8.2 350 15:26 19.03.2020
6304 Clear 16 1009 63 10000 7.2 350 14:55 19.03.2020
6305 Clear 16 1009 63 10000 7.2 350 14:37 19.03.2020
6306 Clear 16 1009 63 10000 9.3 350 14:19 19.03.2020
6307 Clear 16 1009 59 10000 9.3 350 13:39 19.03.2020
6308 Clear 16 1009 63 10000 8.7 350 13:19 19.03.2020
6309 Clear 16 1010 59 10000 10.8 340 12:55 19.03.2020
6310 Clear 15 1010 63 10000 12.3 360 12:37 19.03.2020
6311 Clear 16 1010 63 10000 12.3 360 12:18 19.03.2020
6312 Clear 16 1009 77 10000 11.3 20 11:41 19.03.2020
6313 Clear 16 1009 77 10000 11.3 20 11:23 19.03.2020
6314 Clear 16 1010 77 10000 11.3 20 10:56 19.03.2020
6315 Clear 16 1010 77 10000 11.8 20 10:36 19.03.2020
6316 Clear 16 1010 77 10000 11.8 20 10:18 19.03.2020
6317 Clear 16 1010 77 10000 12.3 10 09:42 19.03.2020
6318 Clear 16 1010 77 10000 12.3 10 09:24 19.03.2020
6319 Clear 16 1010 72 10000 11.3 20 08:48 19.03.2020
6320 Clear 17 1010 72 10000 10.3 20 08:23 19.03.2020
6321 Clouds 17 1010 72 10000 10.8 20 07:57 19.03.2020
6322 Clouds 17 1010 72 10000 10.8 20 07:38 19.03.2020
6323 Clouds 17 1010 67 10000 9.8 20 07:18 19.03.2020
6324 Clouds 17 1011 63 10000 9.8 20 06:23 19.03.2020
6325 Clouds 18 1011 63 10000 12.9 10 05:24 19.03.2020
6326 Clouds 18 1011 63 10000 12.3 10 04:47 19.03.2020
6327 Clouds 18 1012 59 10000 12.3 10 03:55 19.03.2020
6328 Clouds 19 1013 56 10000 12.3 10 01:46 19.03.2020
6329 Clouds 19 1013 63 10000 11.3 360 00:42 19.03.2020
6330 Clouds 18 1013 63 10000 11.3 360 00:19 19.03.2020
6331 Clouds 18 1014 72 10000 8.2 360 23:42 18.03.2020
6332 Clouds 17 1014 72 10000 8.2 360 23:22 18.03.2020
6333 Clouds 17 1014 68 10000 8.2 360 22:43 18.03.2020
6334 Clouds 17 1014 77 10000 9.3 360 22:23 18.03.2020
6335 Clouds 16 1014 72 10000 7.2 340 21:55 18.03.2020
6336 Clouds 16 1014 72 10000 7.2 340 21:55 18.03.2020
6337 Clouds 16 1014 72 10000 7.2 340 21:37 18.03.2020
6338 Clouds 16 1014 77 10000 6.7 350 21:19 18.03.2020
6339 Clouds 15 1014 77 10000 7.7 360 20:55 18.03.2020
6340 Clouds 15 1014 77 10000 7.7 360 20:37 18.03.2020
6341 Clouds 15 1014 72 10000 8.2 350 20:19 18.03.2020
6342 Clouds 15 1014 72 10000 6.7 350 19:41 18.03.2020
6343 Clouds 15 1014 77 10000 6.7 360 19:21 18.03.2020
6344 Clouds 15 1014 77 10000 6.7 360 19:21 18.03.2020
6345 Clouds 15 1014 77 10000 8.2 360 18:57 18.03.2020
6346 Clouds 15 1014 82 10000 6.7 360 18:38 18.03.2020
6347 Clouds 15 1014 82 10000 6.7 360 18:19 18.03.2020
6348 Clouds 15 1014 82 10000 8.2 360 17:55 18.03.2020
6349 Clouds 15 1015 82 10000 7.7 360 17:37 18.03.2020
6350 Clouds 15 1015 82 10000 7.7 360 17:18 18.03.2020
6351 Clouds 15 1015 82 10000 8.2 360 16:42 18.03.2020
6352 Clouds 15 1016 82 10000 7.7 360 16:20 18.03.2020
6353 Clouds 15 1016 82 10000 7.7 360 16:20 18.03.2020
6354 Clouds 15 1016 82 10000 7.7 360 16:20 18.03.2020
6355 Clouds 15 1016 82 10000 8.2 10 15:57 18.03.2020
6356 Clouds 15 1016 82 10000 8.2 10 15:38 18.03.2020
6357 Clouds 15 1017 82 10000 7.7 10 15:19 18.03.2020
6358 Clouds 15 1017 82 10000 7.2 10 14:42 18.03.2020
6359 Clouds 15 1017 82 10000 7.7 10 14:21 18.03.2020
6360 Clouds 15 1017 82 10000 7.7 10 14:21 18.03.2020
6361 Clear 14 1017 82 10000 9.3 360 13:41 18.03.2020
6362 Clear 14 1018 77 10000 8.7 10 13:19 18.03.2020
6363 Clouds 14 1018 77 10000 8.2 10 12:54 18.03.2020
6364 Clouds 14 1018 77 10000 8.2 10 12:36 18.03.2020
6365 Clouds 14 1018 77 10000 8.2 10 12:18 18.03.2020
6366 Clouds 14 1018 76 10000 7.2 20 11:38 18.03.2020
6367 Clear 13 1018 76 10000 7.2 20 11:19 18.03.2020
6368 Clear 13 1019 71 10000 6.2 30 10:56 18.03.2020
6369 Clear 13 1019 71 10000 6.2 30 10:37 18.03.2020
6370 Clear 13 1019 71 10000 6.2 30 10:18 18.03.2020
6371 Clear 13 1019 71 10000 6.7 30 09:42 18.03.2020
6372 Clear 13 1019 67 10000 7.2 20 09:23 18.03.2020
6373 Clear 13 1019 71 10000 7.7 10 08:55 18.03.2020
6374 Clear 13 1019 71 10000 7.7 10 08:37 18.03.2020
6375 Clear 14 1018 67 10000 8.2 360 08:19 18.03.2020
6376 Clear 14 1018 62 10000 7.7 350 07:41 18.03.2020
6377 Clear 14 1018 58 10000 6.7 350 07:23 18.03.2020
6378 Clear 15 1019 55 10000 5.1 340 06:43 18.03.2020
6379 Clear 16 1019 48 10000 7.2 350 05:53 18.03.2020
6380 Clear 16 1019 45 10000 6.2 340 05:19 18.03.2020
6381 Clear 16 1020 58 10000 3.1 200 03:53 18.03.2020
6382 Clear 16 1021 62 10000 5.1 200 02:40 18.03.2020
6383 Clouds 16 1022 62 10000 4.1 200 01:46 18.03.2020
6384 Clouds 16 1022 62 10000 4.1 200 01:21 18.03.2020
6385 Clouds 16 1022 67 10000 4.1 210 00:23 18.03.2020
6386 Clouds 16 1023 50 10000 1.5 180 23:43 17.03.2020
6387 Clouds 15 1023 50 10000 1.5 180 23:23 17.03.2020
6388 Clouds 14 1023 50 10000 1.5 220 22:47 17.03.2020
6389 Clouds 14 1023 47 10000 2.1 100 22:28 17.03.2020
6390 Clouds 14 1023 47 10000 2.1 110 21:57 17.03.2020
6391 Clouds 13 1023 47 10000 2.1 110 21:37 17.03.2020
6392 Clouds 13 1023 54 10000 2.1 130 21:19 17.03.2020
6393 Clouds 12 1022 54 10000 3.6 140 20:38 17.03.2020
6394 Rain 12 1022 54 10000 4.1 150 20:20 17.03.2020
6395 Rain 12 1022 54 10000 4.6 170 19:54 17.03.2020
6396 Rain 12 1022 54 10000 4.6 170 19:36 17.03.2020
6397 Rain 12 1022 54 10000 5.7 170 19:18 17.03.2020
6398 Rain 12 1022 54 10000 5.7 160 18:54 17.03.2020
6399 Rain 12 1022 54 10000 7.2 180 18:36 17.03.2020
6400 Rain 12 1022 54 10000 7.2 180 18:36 17.03.2020
6401 Rain 12 1022 54 10000 7.2 180 18:18 17.03.2020
6402 Rain 12 1022 54 10000 7.2 180 18:18 17.03.2020
6403 Rain 12 1022 54 10000 7.2 170 17:39 17.03.2020
6404 Clouds 12 1022 54 10000 7.2 170 17:20 17.03.2020
6405 Clouds 12 1022 54 10000 8.2 170 16:44 17.03.2020
6406 Clouds 12 1022 58 10000 7.7 170 16:20 17.03.2020
6407 Clouds 12 1022 58 10000 8.2 150 15:56 17.03.2020
6408 Clouds 12 1022 58 10000 8.2 150 15:38 17.03.2020
6409 Clouds 12 1022 62 10000 8.7 160 15:18 17.03.2020
6410 Clouds 12 1022 62 10000 9.3 170 14:41 17.03.2020
6411 Rain 12 1022 62 10000 10.3 170 14:18 17.03.2020
6412 Rain 12 1022 66 10000 8.7 160 13:41 17.03.2020
6413 Rain 12 1022 66 10000 8.7 160 13:22 17.03.2020
6414 Rain 12 1021 62 10000 9.3 180 12:48 17.03.2020
6415 Rain 12 1021 62 10000 10.8 170 12:26 17.03.2020
6416 Rain 12 1022 66 10000 9.8 160 11:59 17.03.2020
6417 Rain 12 1021 66 10000 10.3 150 11:39 17.03.2020
6418 Rain 12 1021 66 10000 10.3 150 11:21 17.03.2020
6419 Rain 12 1021 62 10000 9.3 170 10:54 17.03.2020
6420 Rain 12 1021 62 10000 9.3 170 10:36 17.03.2020
6421 Rain 12 1021 66 10000 10.3 170 10:18 17.03.2020
6422 Rain 12 1021 71 10000 11.3 170 09:45 17.03.2020
6423 Rain 12 1021 71 10000 11.8 170 09:20 17.03.2020
6424 Rain 12 1021 71 10000 10.8 190 08:58 17.03.2020
6425 Rain 12 1021 71 10000 10.8 190 08:40 17.03.2020
6426 Rain 12 1021 71 10000 11.3 180 08:18 17.03.2020
6427 Rain 12 1021 71 10000 12.9 170 07:49 17.03.2020
6428 Rain 12 1020 71 10000 12.3 180 07:20 17.03.2020
6429 Rain 13 1020 66 10000 12.3 170 06:45 17.03.2020
6430 Rain 13 1020 66 10000 12.3 170 06:25 17.03.2020
6431 Rain 13 1020 71 10000 12.3 170 05:20 17.03.2020
6432 Rain 13 1020 71 10000 13.4 180 03:27 17.03.2020
6433 Rain 14 1020 66 10000 13.9 180 01:50 17.03.2020
6434 Rain 14 1020 58 10000 13.9 170 01:31 17.03.2020
6435 Rain 14 1020 58 10000 14.4 180 00:52 17.03.2020
6436 Rain 13 1019 71 10000 13.4 180 23:53 16.03.2020
6437 Rain 13 1019 76 9000 13.4 180 23:34 16.03.2020
6438 Rain 12 1019 66 10000 14.4 170 22:55 16.03.2020
6439 Rain 13 1019 66 10000 14.4 170 22:37 16.03.2020
6440 Rain 13 1019 50 10000 13.9 170 22:19 16.03.2020
6441 Rain 13 1019 62 10000 14.4 180 21:44 16.03.2020
6442 Rain 13 1019 58 10000 13.9 180 21:25 16.03.2020
6443 Rain 13 1019 62 10000 14.9 180 20:58 16.03.2020
6444 Rain 12 1019 62 10000 14.9 180 20:38 16.03.2020
6445 Rain 12 1019 62 10000 14.9 180 20:38 16.03.2020
6446 Rain 12 1018 62 9000 14.4 180 20:20 16.03.2020
6447 Rain 12 1018 58 10000 14.4 170 19:44 16.03.2020
6448 Rain 12 1018 66 10000 12.3 180 19:23 16.03.2020
6449 Rain 13 1018 58 10000 14.9 170 18:57 16.03.2020
6450 Rain 13 1018 62 10000 13.4 180 18:38 16.03.2020
6451 Rain 13 1018 62 10000 13.4 180 18:18 16.03.2020
6452 Rain 12 1018 62 10000 13.4 180 17:45 16.03.2020
6453 Rain 13 1018 66 10000 13.4 170 17:24 16.03.2020
6454 Rain 13 1018 62 10000 14.4 170 16:49 16.03.2020
6455 Rain 13 1017 71 10000 13.4 180 16:31 16.03.2020
6456 Rain 13 1017 67 10000 13.9 180 15:58 16.03.2020
6457 Rain 13 1017 67 10000 13.9 180 15:40 16.03.2020
6458 Rain 13 1017 67 10000 13.4 170 15:20 16.03.2020
6459 Rain 13 1018 71 10000 12.3 180 14:44 16.03.2020
6460 Rain 13 1017 76 10000 13.4 180 14:20 16.03.2020
6461 Rain 13 1017 76 10000 13.4 180 14:20 16.03.2020
6462 Rain 13 1017 76 10000 11.8 180 13:44 16.03.2020
6463 Rain 14 1017 82 10000 11.8 160 13:25 16.03.2020
6464 Rain 14 1017 82 10000 11.3 170 12:56 16.03.2020
6465 Rain 14 1017 82 10000 11.3 170 12:37 16.03.2020
6466 Rain 14 1017 82 10000 11.3 180 12:19 16.03.2020
6467 Rain 14 1017 72 10000 11.3 180 11:42 16.03.2020
6468 Clouds 14 1017 77 10000 9.3 180 11:20 16.03.2020
6469 Clouds 15 1016 77 10000 8.7 170 10:43 16.03.2020
6470 Clouds 15 1016 82 10000 8.2 170 10:24 16.03.2020
6471 Clouds 15 1016 82 10000 8.7 170 09:47 16.03.2020
6472 Clouds 15 1015 77 10000 8.2 170 09:28 16.03.2020
6473 Clouds 15 1015 77 10000 8.2 180 08:59 16.03.2020
6474 Clouds 15 1014 77 10000 7.7 180 08:27 16.03.2020
6475 Clouds 16 1014 77 10000 7.2 180 07:56 16.03.2020
6476 Clouds 16 1014 77 10000 7.2 180 07:38 16.03.2020
6477 Clouds 16 1014 77 10000 6.7 180 07:18 16.03.2020
6478 Clouds 17 1013 77 10000 6.2 190 06:27 16.03.2020
6479 Clouds 18 1012 72 10000 8.7 180 05:54 16.03.2020
6480 Clouds 22 1010 38 10000 2.6 180 03:36 16.03.2020
6481 Clear 22 1010 43 10000 6.2 10 01:29 16.03.2020
6482 Clear 22 1010 46 10000 7.2 360 00:43 16.03.2020
6483 Clear 20 1011 56 10000 7.7 360 23:49 15.03.2020
6484 Clear 20 1011 64 10000 8.2 360 23:23 15.03.2020
6485 Clear 19 1010 72 10000 6.7 10 22:58 15.03.2020
6486 Clear 19 1010 72 10000 6.7 10 22:38 15.03.2020
6487 Clear 18 1010 72 10000 8.2 340 22:20 15.03.2020
6488 Clear 17 1010 72 10000 8.2 360 21:39 15.03.2020
6489 Clear 17 1009 68 10000 9.8 350 21:20 15.03.2020
6490 Clear 16 1009 77 10000 9.8 350 20:44 15.03.2020
6491 Clear 16 1009 82 10000 8.2 360 20:22 15.03.2020
6492 Clouds 16 1009 82 10000 7.7 350 19:59 15.03.2020
6493 Clouds 16 1009 82 10000 7.7 350 19:59 15.03.2020
6494 Clouds 16 1009 82 10000 7.7 350 19:41 15.03.2020
6495 Clouds 16 1009 82 10000 9.3 360 19:23 15.03.2020
6496 Clouds 16 1009 77 10000 9.8 360 18:59 15.03.2020
6497 Clouds 15 1009 77 10000 9.8 360 18:39 15.03.2020
6498 Clouds 15 1009 82 10000 9.3 10 18:21 15.03.2020
6499 Clouds 16 1009 77 10000 9.8 10 17:54 15.03.2020
6500 Clouds 16 1009 77 10000 9.3 10 17:36 15.03.2020
6501 Clouds 16 1009 77 10000 9.3 10 17:18 15.03.2020
6502 Clouds 16 1010 72 10000 8.2 20 16:42 15.03.2020
6503 Clouds 16 1010 77 10000 10.3 360 16:24 15.03.2020
6504 Clouds 16 1010 72 10000 10.3 360 15:57 15.03.2020
6505 Clouds 16 1010 72 10000 10.3 360 15:38 15.03.2020
6506 Clouds 16 1010 72 10000 11.3 10 15:19 15.03.2020
6507 Clouds 16 1011 72 10000 8.7 360 14:46 15.03.2020
6508 Clouds 16 1011 77 10000 10.3 360 14:24 15.03.2020
6509 Clouds 16 1011 77 10000 9.8 20 13:57 15.03.2020
6510 Clouds 16 1011 77 10000 9.8 20 13:38 15.03.2020
6511 Clouds 16 1011 77 10000 9.8 20 13:38 15.03.2020
6512 Clouds 16 1011 82 10000 8.2 20 13:19 15.03.2020
6513 Clouds 15 1011 82 10000 8.7 10 12:43 15.03.2020
6514 Clouds 15 1012 82 10000 8.2 10 12:25 15.03.2020
6515 Clouds 15 1012 87 10000 8.2 360 11:54 15.03.2020
6516 Clouds 15 1012 82 10000 7.7 10 11:36 15.03.2020
6517 Clouds 15 1012 82 10000 7.7 10 11:18 15.03.2020
6518 Clouds 15 1012 87 10000 6.2 10 10:41 15.03.2020
6519 Clouds 15 1012 82 10000 6.2 20 10:23 15.03.2020
6520 Clouds 15 1012 77 10000 6.2 10 09:59 15.03.2020
6521 Clouds 15 1012 77 10000 6.2 10 09:39 15.03.2020
6522 Clouds 16 1012 72 10000 5.1 10 09:20 15.03.2020
6523 Clouds 16 1011 72 10000 4.1 20 08:41 15.03.2020
6524 Clouds 16 1009 74 0 2.01 14 08:20 15.03.2020
6525 Clouds 17 1012 63 10000 3.1 360 07:50 15.03.2020
6526 Clouds 18 1012 63 10000 4.1 360 07:23 15.03.2020
6527 Clouds 19 1012 60 10000 3.6 10 06:45 15.03.2020
6528 Clouds 19 1012 72 10000 1.5 210 05:50 15.03.2020
6529 Clear 19 1013 72 10000 4.6 170 04:58 15.03.2020
6530 Clear 19 1013 72 10000 4.6 170 04:40 15.03.2020
6531 Clear 20 1013 72 10000 4.6 160 04:21 15.03.2020
6532 Clear 19 1014 72 10000 4.1 180 03:25 15.03.2020
6533 Clear 19 1014 72 10000 4.1 170 02:37 15.03.2020
6534 Clear 19 1015 72 10000 4.1 180 01:20 15.03.2020
6535 Clear 19 1016 77 10000 3.6 190 00:42 15.03.2020
6536 Clear 19 1016 72 10000 2.6 190 00:21 15.03.2020
6537 Clear 19 1016 60 10000 2.1 20 23:41 14.03.2020
6538 Clear 19 1016 63 10000 1.5 10 23:21 14.03.2020
6539 Clear 17 1016 67 10000 2.1 350 22:57 14.03.2020
6540 Clear 17 1016 67 10000 2.1 350 22:38 14.03.2020
6541 Clear 16 1016 72 10000 2.1 350 22:20 14.03.2020
6542 Clear 15 1016 77 10000 2.1 360 21:56 14.03.2020
6543 Clear 15 1016 77 10000 2.1 360 21:36 14.03.2020
6544 Clear 14 1016 76 10000 2.6 350 21:18 14.03.2020
6545 Clear 13 1016 87 10000 1.5 360 20:58 14.03.2020
6546 Clear 12 1016 87 10000 1.5 360 20:39 14.03.2020
6547 Clear 11 1016 87 10000 2.1 40 20:18 14.03.2020
6548 Clear 11 1016 87 10000 1.5 70 19:42 14.03.2020
6549 Clear 11 1016 87 10000 2.1 20 19:24 14.03.2020
6550 Clear 11 1015 93 10000 2.1 340 18:41 14.03.2020
6551 Rain 11 1015 93 10000 2.1 340 18:22 14.03.2020
6552 Rain 11 1015 93 10000 2.1 20 17:56 14.03.2020
6553 Rain 11 1015 87 10000 3.6 30 17:37 14.03.2020
6554 Clear 11 1015 87 10000 3.6 30 17:19 14.03.2020
6555 Clear 11 1015 82 10000 5.1 10 16:40 14.03.2020
6556 Clear 12 1015 93 10000 4.1 30 16:22 14.03.2020
6557 Clear 12 1015 87 10000 4.6 20 15:56 14.03.2020
6558 Clear 12 1015 87 10000 5.7 10 15:26 14.03.2020
6559 Clear 12 1016 87 10000 4.6 10 14:55 14.03.2020
6560 Clear 12 1016 87 10000 4.6 10 14:36 14.03.2020
6561 Clear 12 1016 87 10000 4.6 10 14:18 14.03.2020
6562 Clear 13 1016 82 10000 4.6 20 13:42 14.03.2020
6563 Clear 13 1016 87 10000 4.6 20 13:23 14.03.2020
6564 Clear 13 1016 87 10000 4.6 20 12:47 14.03.2020
6565 Clear 13 1015 87 10000 5.1 20 12:27 14.03.2020
6566 Clear 14 1015 87 10000 5.1 20 11:57 14.03.2020
6567 Clear 14 1015 87 10000 5.1 20 11:38 14.03.2020
6568 Clear 14 1015 87 10000 5.1 20 11:20 14.03.2020
6569 Clear 14 1015 87 10000 5.1 20 11:20 14.03.2020
6570 Clear 14 1016 82 10000 5.1 20 10:45 14.03.2020
6571 Clear 14 1016 77 10000 5.1 20 10:27 14.03.2020
6572 Clear 14 1015 72 10000 5.7 20 09:57 14.03.2020
6573 Clear 15 1015 72 10000 5.7 20 09:39 14.03.2020
6574 Clear 15 1015 67 10000 5.1 10 09:19 14.03.2020
6575 Clear 16 1015 59 10000 5.7 10 08:45 14.03.2020
6576 Clear 16 1015 63 10000 5.7 10 08:22 14.03.2020
6577 Clear 17 1014 63 10000 6.2 360 07:39 14.03.2020
6578 Clear 18 1014 52 10000 6.2 350 07:20 14.03.2020
6579 Clear 18 1014 45 10000 6.2 350 06:41 14.03.2020
6580 Clear 19 1015 43 10000 6.7 350 05:49 14.03.2020
6581 Clear 20 1015 43 10000 6.7 360 04:43 14.03.2020
6582 Clear 20 1016 49 10000 6.2 350 03:24 14.03.2020
6583 Clear 20 1016 49 10000 6.2 350 02:25 14.03.2020
6584 Clear 20 1017 49 10000 5.7 360 01:19 14.03.2020
6585 Clear 19 1018 60 10000 5.7 10 23:56 13.03.2020
6586 Clear 19 1018 63 10000 5.1 10 23:31 13.03.2020
6587 Clear 18 1018 63 10000 4.6 10 22:52 13.03.2020
6588 Clear 17 1018 72 10000 5.1 360 22:27 13.03.2020
6589 Clear 16 1019 77 10000 5.1 360 21:54 13.03.2020
6590 Clear 15 1019 77 10000 5.1 360 21:36 13.03.2020
6591 Clear 14 1019 87 10000 4.1 360 21:18 13.03.2020
6592 Clear 12 1019 87 10000 3.6 10 20:41 13.03.2020
6593 Clear 11 1019 87 10000 3.6 10 20:22 13.03.2020
6594 Clouds 10 1019 93 10000 3.1 20 19:49 13.03.2020
6595 Clouds 10 1019 87 10000 2.6 30 19:31 13.03.2020
6596 Clouds 10 1019 93 10000 3.1 20 18:55 13.03.2020
6597 Clouds 10 1019 93 10000 3.1 20 18:36 13.03.2020
6598 Clouds 10 1019 93 10000 3.1 20 18:18 13.03.2020
6599 Clouds 10 1019 93 10000 1.5 30 17:41 13.03.2020
6600 Clouds 10 1019 93 10000 1.5 30 17:21 13.03.2020
6601 Clouds 10 1020 93 10000 1.5 30 16:55 13.03.2020
6602 Clouds 10 1020 93 10000 1.5 30 16:36 13.03.2020
6603 Clouds 10 1020 87 10000 1.5 30 16:18 13.03.2020
6604 Clouds 10 1020 93 10000 1 30 15:41 13.03.2020
6605 Clouds 10 1020 87 10000 1.5 30 15:20 13.03.2020
6606 Clouds 10 1021 87 10000 1 50 14:44 13.03.2020
6607 Clouds 10 1021 87 10000 1 50 14:44 13.03.2020
6608 Clouds 11 1021 93 10000 0.5 110 14:23 13.03.2020
6609 Clear 11 1021 93 10000 1 40 13:58 13.03.2020
6610 Clear 11 1021 93 10000 1 40 13:40 13.03.2020
6611 Clear 11 1022 87 10000 0.5 120 13:20 13.03.2020
6612 Clear 12 1022 87 9000 0.5 30 12:55 13.03.2020
6613 Clear 12 1022 87 9000 0.5 30 12:55 13.03.2020
6614 Clear 12 1022 87 10000 1 30 12:37 13.03.2020
6615 Clear 12 1022 87 10000 1 30 12:18 13.03.2020
6616 Clear 12 1022 87 10000 1.5 40 11:43 13.03.2020
6617 Clear 13 1022 87 10000 1.5 40 11:25 13.03.2020
6618 Clear 13 1022 76 10000 1.5 30 10:57 13.03.2020
6619 Clear 13 1022 76 10000 1.5 30 10:39 13.03.2020
6620 Clear 13 1022 76 10000 1 10 10:21 13.03.2020
6621 Clear 14 1022 82 10000 1 340 09:44 13.03.2020
6622 Clear 14 1022 77 10000 1.5 190 09:25 13.03.2020
6623 Clear 14 1022 82 10000 2.6 220 08:48 13.03.2020
6624 Clear 15 1022 82 10000 3.6 220 08:23 13.03.2020
6625 Clear 16 1022 77 10000 4.1 220 07:58 13.03.2020
6626 Clear 16 1022 77 10000 4.1 220 07:38 13.03.2020
6627 Clear 17 1022 77 10000 4.6 220 07:19 13.03.2020
6628 Clear 18 1022 77 10000 4.6 220 06:44 13.03.2020
6629 Clear 18 1022 77 10000 4.6 220 06:44 13.03.2020
6630 Clear 19 1022 72 10000 5.1 180 05:56 13.03.2020
6631 Clear 19 1022 72 10000 6.2 170 05:37 13.03.2020
6632 Clear 19 1023 72 10000 5.7 190 04:38 13.03.2020
6633 Clear 19 1024 63 10000 5.7 190 03:46 13.03.2020
6634 Clear 18 1025 63 10000 4.1 190 01:48 13.03.2020
6635 Clear 18 1025 63 10000 3.1 200 01:19 13.03.2020
6636 Clear 18 1026 63 10000 3.1 190 00:56 13.03.2020
6637 Clear 18 1026 63 10000 3.1 200 00:29 13.03.2020
6638 Clear 18 1026 59 10000 3.1 200 23:59 12.03.2020
6639 Clear 17 1026 63 10000 2.6 200 23:29 12.03.2020
6640 Clear 16 1026 62 10000 3.1 170 22:58 12.03.2020
6641 Clear 16 1026 62 10000 3.1 170 22:40 12.03.2020
6642 Clear 15 1026 72 10000 3.6 170 22:22 12.03.2020
6643 Clear 14 1026 76 10000 2.6 200 21:46 12.03.2020
6644 Clear 14 1026 71 10000 3.1 170 21:28 12.03.2020
6645 Clear 13 1026 71 10000 3.1 150 20:59 12.03.2020
6646 Clear 12 1026 71 10000 3.1 150 20:40 12.03.2020
6647 Clouds 10 1022 87 0 3.28 72 20:19 12.03.2020
6648 Clouds 9 1026 80 0 3.08 69 19:42 12.03.2020
6649 Clouds 9 1022 87 0 3.08 69 19:20 12.03.2020
6650 Clouds 9 1026 79 0 3.08 69 18:45 12.03.2020
6651 Clouds 9 1026 79 0 3.08 69 18:45 12.03.2020
6652 Clouds 9 1024 91 0 3.08 69 18:25 12.03.2020
6653 Clouds 10 1021 86 0 3.08 69 17:57 12.03.2020
6654 Clouds 10 1026 81 10000 3.1 150 17:39 12.03.2020
6655 Clouds 10 1026 81 10000 3.1 150 17:20 12.03.2020
6656 Clouds 11 1026 76 10000 5.1 190 16:56 12.03.2020
6657 Clouds 10 1024 89 0 2.56 70 16:38 12.03.2020
6658 Clouds 10 1021 83 0 2.56 70 16:19 12.03.2020
6659 Clouds 10 1026 76 0 2.56 70 15:45 12.03.2020
6660 Clouds 11 1021 83 0 2.56 70 15:27 12.03.2020
6661 Clouds 12 1026 67 10000 1 160 14:41 12.03.2020
6662 Clouds 12 1027 67 10000 1 130 14:23 12.03.2020
6663 Clouds 13 1027 67 10000 1.5 150 13:57 12.03.2020
6664 Clouds 13 1027 67 10000 1.5 150 13:36 12.03.2020
6665 Clear 13 1027 67 10000 2.1 140 13:18 12.03.2020
6666 Clear 13 1027 67 10000 1.5 140 12:41 12.03.2020
6667 Clear 13 1027 67 10000 2.1 140 12:22 12.03.2020
6668 Clear 13 1027 67 10000 3.1 150 11:57 12.03.2020
6669 Clear 13 1026 67 10000 3.1 150 11:38 12.03.2020
6670 Clear 13 1026 67 10000 3.1 150 11:20 12.03.2020
6671 Clear 13 1026 76 10000 4.6 170 10:58 12.03.2020
6672 Clear 13 1026 76 10000 4.6 170 10:58 12.03.2020
6673 Clear 13 1026 76 10000 4.6 170 10:40 12.03.2020
6674 Clear 13 1026 76 10000 4.6 180 10:22 12.03.2020
6675 Clear 13 1026 82 10000 5.1 180 09:46 12.03.2020
6676 Clear 13 1026 71 10000 5.1 170 09:27 12.03.2020
6677 Clear 13 1025 71 10000 5.7 170 08:45 12.03.2020
6678 Clouds 14 1025 71 10000 6.2 170 08:20 12.03.2020
6679 Clouds 14 1025 71 10000 7.2 170 07:59 12.03.2020
6680 Clouds 14 1025 71 10000 7.2 170 07:40 12.03.2020
6681 Clouds 14 1024 67 10000 7.7 170 07:21 12.03.2020
6682 Clouds 15 1024 62 10000 7.7 170 05:51 12.03.2020
6683 Clouds 16 1024 55 10000 8.2 170 05:26 12.03.2020
6684 Clouds 16 1024 63 10000 6.7 160 02:43 12.03.2020
6685 Rain 16 1024 67 10000 5.7 160 01:36 12.03.2020
6686 Clouds 16 1024 67 10000 6.7 170 01:18 12.03.2020
6687 Clouds 16 1024 62 10000 6.7 170 00:40 12.03.2020
6688 Clouds 16 1024 62 10000 7.7 170 23:51 11.03.2020
6689 Clouds 15 1024 62 10000 6.7 160 23:26 11.03.2020
6690 Rain 15 1024 62 10000 6.7 160 22:55 11.03.